<?xml version="1.0" encoding="UTF-8" standalone="no" ?>
<gpx xmlns="http://www.topografix.com/GPX/1/1" xmlns:xsi="http://www.w3.org/2001/XMLSchema-instance" xsi:schemaLocation="http://www.topografix.com/GPX/1/1 http://www.topografix.com/GPX/1/1/gpx.xsd" version="1.1" creator="VisuGPX - https://www.visugpx.com">
  <metadata>
    <name>Esterel 17-jan-2010</name>
    <desc><![CDATA[Esterel 17-jan-2010
==================================
==================================]]></desc>
  </metadata>
  <trk>
    <name><![CDATA[Esterel 17-jan-2010_1]]></name>
    <trkseg>
      <trkpt lat="43.513" lon="6.81226">
        <ele>317.3</ele>
        <time>2010-01-17T08:40:21.785Z</time>
      </trkpt>
      <trkpt lat="43.51296" lon="6.81231">
        <ele>317.3</ele>
        <time>2010-01-17T08:40:25Z</time>
      </trkpt>
      <trkpt lat="43.51292" lon="6.81239">
        <ele>318.4</ele>
        <time>2010-01-17T08:40:28Z</time>
      </trkpt>
      <trkpt lat="43.51288" lon="6.81243">
        <ele>319.3</ele>
        <time>2010-01-17T08:40:31Z</time>
      </trkpt>
      <trkpt lat="43.51284" lon="6.81243">
        <ele>318.8</ele>
        <time>2010-01-17T08:40:33Z</time>
      </trkpt>
      <trkpt lat="43.51279" lon="6.81244">
        <ele>318.6</ele>
        <time>2010-01-17T08:40:35Z</time>
      </trkpt>
      <trkpt lat="43.51273" lon="6.81246">
        <ele>318.7</ele>
        <time>2010-01-17T08:40:37Z</time>
      </trkpt>
      <trkpt lat="43.51268" lon="6.81249">
        <ele>319.1</ele>
        <time>2010-01-17T08:40:39Z</time>
      </trkpt>
      <trkpt lat="43.51264" lon="6.81252">
        <ele>318.9</ele>
        <time>2010-01-17T08:40:41Z</time>
      </trkpt>
      <trkpt lat="43.51259" lon="6.81256">
        <ele>319</ele>
        <time>2010-01-17T08:40:43Z</time>
      </trkpt>
      <trkpt lat="43.51255" lon="6.8126">
        <ele>319.1</ele>
        <time>2010-01-17T08:40:45Z</time>
      </trkpt>
      <trkpt lat="43.51251" lon="6.81264">
        <ele>319.3</ele>
        <time>2010-01-17T08:40:47Z</time>
      </trkpt>
      <trkpt lat="43.51246" lon="6.81269">
        <ele>319.6</ele>
        <time>2010-01-17T08:40:49Z</time>
      </trkpt>
      <trkpt lat="43.51242" lon="6.81273">
        <ele>320</ele>
        <time>2010-01-17T08:40:51Z</time>
      </trkpt>
      <trkpt lat="43.51239" lon="6.81277">
        <ele>320.5</ele>
        <time>2010-01-17T08:40:53Z</time>
      </trkpt>
      <trkpt lat="43.51235" lon="6.81282">
        <ele>321.1</ele>
        <time>2010-01-17T08:40:55Z</time>
      </trkpt>
      <trkpt lat="43.51231" lon="6.81286">
        <ele>322.1</ele>
        <time>2010-01-17T08:40:57Z</time>
      </trkpt>
      <trkpt lat="43.51227" lon="6.8129">
        <ele>323.1</ele>
        <time>2010-01-17T08:40:59Z</time>
      </trkpt>
      <trkpt lat="43.51223" lon="6.81294">
        <ele>324.6</ele>
        <time>2010-01-17T08:41:01Z</time>
      </trkpt>
      <trkpt lat="43.5122" lon="6.81299">
        <ele>324.9</ele>
        <time>2010-01-17T08:41:03Z</time>
      </trkpt>
      <trkpt lat="43.51215" lon="6.81303">
        <ele>325.3</ele>
        <time>2010-01-17T08:41:05Z</time>
      </trkpt>
      <trkpt lat="43.51209" lon="6.81308">
        <ele>325.2</ele>
        <time>2010-01-17T08:41:08Z</time>
      </trkpt>
      <trkpt lat="43.51203" lon="6.81311">
        <ele>325.5</ele>
        <time>2010-01-17T08:41:11Z</time>
      </trkpt>
      <trkpt lat="43.51199" lon="6.81311">
        <ele>325.7</ele>
        <time>2010-01-17T08:41:13Z</time>
      </trkpt>
      <trkpt lat="43.51192" lon="6.81308">
        <ele>326.3</ele>
        <time>2010-01-17T08:41:16Z</time>
      </trkpt>
      <trkpt lat="43.51188" lon="6.81306">
        <ele>326.8</ele>
        <time>2010-01-17T08:41:18Z</time>
      </trkpt>
      <trkpt lat="43.51184" lon="6.81304">
        <ele>327.5</ele>
        <time>2010-01-17T08:41:20Z</time>
      </trkpt>
      <trkpt lat="43.51179" lon="6.81301">
        <ele>327.7</ele>
        <time>2010-01-17T08:41:22Z</time>
      </trkpt>
      <trkpt lat="43.51174" lon="6.81299">
        <ele>328</ele>
        <time>2010-01-17T08:41:24Z</time>
      </trkpt>
      <trkpt lat="43.5117" lon="6.81298">
        <ele>328.1</ele>
        <time>2010-01-17T08:41:26Z</time>
      </trkpt>
      <trkpt lat="43.51165" lon="6.81298">
        <ele>328.4</ele>
        <time>2010-01-17T08:41:28Z</time>
      </trkpt>
      <trkpt lat="43.51158" lon="6.81298">
        <ele>328.7</ele>
        <time>2010-01-17T08:41:31Z</time>
      </trkpt>
      <trkpt lat="43.51152" lon="6.81299">
        <ele>329.1</ele>
        <time>2010-01-17T08:41:34Z</time>
      </trkpt>
      <trkpt lat="43.51145" lon="6.81299">
        <ele>329.6</ele>
        <time>2010-01-17T08:41:37Z</time>
      </trkpt>
      <trkpt lat="43.5114" lon="6.81299">
        <ele>330.1</ele>
        <time>2010-01-17T08:41:40Z</time>
      </trkpt>
      <trkpt lat="43.51134" lon="6.81298">
        <ele>330.9</ele>
        <time>2010-01-17T08:41:43Z</time>
      </trkpt>
      <trkpt lat="43.51129" lon="6.81297">
        <ele>331.8</ele>
        <time>2010-01-17T08:41:46Z</time>
      </trkpt>
      <trkpt lat="43.51124" lon="6.81296">
        <ele>332.6</ele>
        <time>2010-01-17T08:41:49Z</time>
      </trkpt>
      <trkpt lat="43.51119" lon="6.81295">
        <ele>333.3</ele>
        <time>2010-01-17T08:41:52Z</time>
      </trkpt>
      <trkpt lat="43.51115" lon="6.81293">
        <ele>334</ele>
        <time>2010-01-17T08:41:55Z</time>
      </trkpt>
      <trkpt lat="43.51111" lon="6.81289">
        <ele>334.7</ele>
        <time>2010-01-17T08:41:58Z</time>
      </trkpt>
      <trkpt lat="43.51108" lon="6.81283">
        <ele>335.5</ele>
        <time>2010-01-17T08:42:01Z</time>
      </trkpt>
      <trkpt lat="43.51106" lon="6.81277">
        <ele>336.4</ele>
        <time>2010-01-17T08:42:04Z</time>
      </trkpt>
      <trkpt lat="43.51103" lon="6.8127">
        <ele>337.6</ele>
        <time>2010-01-17T08:42:07Z</time>
      </trkpt>
      <trkpt lat="43.511" lon="6.81264">
        <ele>338.7</ele>
        <time>2010-01-17T08:42:10Z</time>
      </trkpt>
      <trkpt lat="43.51097" lon="6.81259">
        <ele>340.6</ele>
        <time>2010-01-17T08:42:13Z</time>
      </trkpt>
      <trkpt lat="43.51094" lon="6.81253">
        <ele>341.9</ele>
        <time>2010-01-17T08:42:16Z</time>
      </trkpt>
      <trkpt lat="43.51091" lon="6.81248">
        <ele>342.5</ele>
        <time>2010-01-17T08:42:19Z</time>
      </trkpt>
      <trkpt lat="43.51087" lon="6.81242">
        <ele>342.5</ele>
        <time>2010-01-17T08:42:22Z</time>
      </trkpt>
      <trkpt lat="43.51083" lon="6.81238">
        <ele>343.3</ele>
        <time>2010-01-17T08:42:25Z</time>
      </trkpt>
      <trkpt lat="43.51079" lon="6.81233">
        <ele>343.9</ele>
        <time>2010-01-17T08:42:28Z</time>
      </trkpt>
      <trkpt lat="43.51074" lon="6.81229">
        <ele>344.2</ele>
        <time>2010-01-17T08:42:31Z</time>
      </trkpt>
      <trkpt lat="43.51069" lon="6.81225">
        <ele>344.1</ele>
        <time>2010-01-17T08:42:34Z</time>
      </trkpt>
      <trkpt lat="43.51064" lon="6.81222">
        <ele>343.5</ele>
        <time>2010-01-17T08:42:37Z</time>
      </trkpt>
      <trkpt lat="43.51058" lon="6.81218">
        <ele>343.2</ele>
        <time>2010-01-17T08:42:40Z</time>
      </trkpt>
      <trkpt lat="43.51053" lon="6.81215">
        <ele>343.6</ele>
        <time>2010-01-17T08:42:43Z</time>
      </trkpt>
      <trkpt lat="43.51047" lon="6.81212">
        <ele>344</ele>
        <time>2010-01-17T08:42:46Z</time>
      </trkpt>
      <trkpt lat="43.51042" lon="6.81208">
        <ele>344.1</ele>
        <time>2010-01-17T08:42:49Z</time>
      </trkpt>
      <trkpt lat="43.51036" lon="6.81205">
        <ele>344.4</ele>
        <time>2010-01-17T08:42:52Z</time>
      </trkpt>
      <trkpt lat="43.5103" lon="6.81203">
        <ele>344.6</ele>
        <time>2010-01-17T08:42:55Z</time>
      </trkpt>
      <trkpt lat="43.51025" lon="6.81201">
        <ele>344.9</ele>
        <time>2010-01-17T08:42:58Z</time>
      </trkpt>
      <trkpt lat="43.5102" lon="6.81199">
        <ele>345.3</ele>
        <time>2010-01-17T08:43:01Z</time>
      </trkpt>
      <trkpt lat="43.51015" lon="6.81198">
        <ele>345.5</ele>
        <time>2010-01-17T08:43:04Z</time>
      </trkpt>
      <trkpt lat="43.51009" lon="6.81198">
        <ele>345.6</ele>
        <time>2010-01-17T08:43:07Z</time>
      </trkpt>
      <trkpt lat="43.51003" lon="6.81198">
        <ele>346</ele>
        <time>2010-01-17T08:43:10Z</time>
      </trkpt>
      <trkpt lat="43.50997" lon="6.81199">
        <ele>346.8</ele>
        <time>2010-01-17T08:43:13Z</time>
      </trkpt>
      <trkpt lat="43.5099" lon="6.81201">
        <ele>347</ele>
        <time>2010-01-17T08:43:16Z</time>
      </trkpt>
      <trkpt lat="43.50983" lon="6.81204">
        <ele>347.1</ele>
        <time>2010-01-17T08:43:19Z</time>
      </trkpt>
      <trkpt lat="43.50978" lon="6.81205">
        <ele>347.1</ele>
        <time>2010-01-17T08:43:21Z</time>
      </trkpt>
      <trkpt lat="43.50973" lon="6.81207">
        <ele>346.9</ele>
        <time>2010-01-17T08:43:23Z</time>
      </trkpt>
      <trkpt lat="43.50967" lon="6.81209">
        <ele>346.9</ele>
        <time>2010-01-17T08:43:26Z</time>
      </trkpt>
      <trkpt lat="43.50961" lon="6.81212">
        <ele>347.1</ele>
        <time>2010-01-17T08:43:29Z</time>
      </trkpt>
      <trkpt lat="43.50954" lon="6.81215">
        <ele>347.8</ele>
        <time>2010-01-17T08:43:32Z</time>
      </trkpt>
      <trkpt lat="43.50949" lon="6.81216">
        <ele>348.1</ele>
        <time>2010-01-17T08:43:34Z</time>
      </trkpt>
      <trkpt lat="43.50945" lon="6.81218">
        <ele>348.5</ele>
        <time>2010-01-17T08:43:36Z</time>
      </trkpt>
      <trkpt lat="43.5094" lon="6.81219">
        <ele>349.1</ele>
        <time>2010-01-17T08:43:38Z</time>
      </trkpt>
      <trkpt lat="43.50935" lon="6.81221">
        <ele>349.2</ele>
        <time>2010-01-17T08:43:40Z</time>
      </trkpt>
      <trkpt lat="43.5093" lon="6.81222">
        <ele>349.3</ele>
        <time>2010-01-17T08:43:42Z</time>
      </trkpt>
      <trkpt lat="43.50925" lon="6.81222">
        <ele>349.4</ele>
        <time>2010-01-17T08:43:44Z</time>
      </trkpt>
      <trkpt lat="43.5092" lon="6.81221">
        <ele>349.3</ele>
        <time>2010-01-17T08:43:46Z</time>
      </trkpt>
      <trkpt lat="43.50915" lon="6.8122">
        <ele>349.3</ele>
        <time>2010-01-17T08:43:48Z</time>
      </trkpt>
      <trkpt lat="43.5091" lon="6.81218">
        <ele>349.5</ele>
        <time>2010-01-17T08:43:50Z</time>
      </trkpt>
      <trkpt lat="43.50905" lon="6.81216">
        <ele>349.7</ele>
        <time>2010-01-17T08:43:52Z</time>
      </trkpt>
      <trkpt lat="43.509" lon="6.81214">
        <ele>350.3</ele>
        <time>2010-01-17T08:43:54Z</time>
      </trkpt>
      <trkpt lat="43.50895" lon="6.81212">
        <ele>350.7</ele>
        <time>2010-01-17T08:43:56Z</time>
      </trkpt>
      <trkpt lat="43.5089" lon="6.81209">
        <ele>350.8</ele>
        <time>2010-01-17T08:43:58Z</time>
      </trkpt>
      <trkpt lat="43.50886" lon="6.81206">
        <ele>351.1</ele>
        <time>2010-01-17T08:44:00Z</time>
      </trkpt>
      <trkpt lat="43.50881" lon="6.81203">
        <ele>351.5</ele>
        <time>2010-01-17T08:44:02Z</time>
      </trkpt>
      <trkpt lat="43.50877" lon="6.812">
        <ele>352</ele>
        <time>2010-01-17T08:44:04Z</time>
      </trkpt>
      <trkpt lat="43.50871" lon="6.81196">
        <ele>352.5</ele>
        <time>2010-01-17T08:44:07Z</time>
      </trkpt>
      <trkpt lat="43.50865" lon="6.81193">
        <ele>353.2</ele>
        <time>2010-01-17T08:44:10Z</time>
      </trkpt>
      <trkpt lat="43.50859" lon="6.81189">
        <ele>353.9</ele>
        <time>2010-01-17T08:44:13Z</time>
      </trkpt>
      <trkpt lat="43.50854" lon="6.81185">
        <ele>354.9</ele>
        <time>2010-01-17T08:44:16Z</time>
      </trkpt>
      <trkpt lat="43.50849" lon="6.81181">
        <ele>355.8</ele>
        <time>2010-01-17T08:44:19Z</time>
      </trkpt>
      <trkpt lat="43.50844" lon="6.81178">
        <ele>356.6</ele>
        <time>2010-01-17T08:44:22Z</time>
      </trkpt>
      <trkpt lat="43.50839" lon="6.81175">
        <ele>357.7</ele>
        <time>2010-01-17T08:44:25Z</time>
      </trkpt>
      <trkpt lat="43.50834" lon="6.81172">
        <ele>358.4</ele>
        <time>2010-01-17T08:44:28Z</time>
      </trkpt>
      <trkpt lat="43.50828" lon="6.8117">
        <ele>359.1</ele>
        <time>2010-01-17T08:44:31Z</time>
      </trkpt>
      <trkpt lat="43.50823" lon="6.81168">
        <ele>359.9</ele>
        <time>2010-01-17T08:44:34Z</time>
      </trkpt>
      <trkpt lat="43.50818" lon="6.81167">
        <ele>360.6</ele>
        <time>2010-01-17T08:44:37Z</time>
      </trkpt>
      <trkpt lat="43.50813" lon="6.81166">
        <ele>362.4</ele>
        <time>2010-01-17T08:44:40Z</time>
      </trkpt>
      <trkpt lat="43.50808" lon="6.81167">
        <ele>363.3</ele>
        <time>2010-01-17T08:44:43Z</time>
      </trkpt>
      <trkpt lat="43.50802" lon="6.81168">
        <ele>363.6</ele>
        <time>2010-01-17T08:44:46Z</time>
      </trkpt>
      <trkpt lat="43.50796" lon="6.8117">
        <ele>363.2</ele>
        <time>2010-01-17T08:44:49Z</time>
      </trkpt>
      <trkpt lat="43.5079" lon="6.81172">
        <ele>362.8</ele>
        <time>2010-01-17T08:44:52Z</time>
      </trkpt>
      <trkpt lat="43.50784" lon="6.81175">
        <ele>363.1</ele>
        <time>2010-01-17T08:44:55Z</time>
      </trkpt>
      <trkpt lat="43.50779" lon="6.81177">
        <ele>363.2</ele>
        <time>2010-01-17T08:44:57Z</time>
      </trkpt>
      <trkpt lat="43.50773" lon="6.81177">
        <ele>363.2</ele>
        <time>2010-01-17T08:44:59Z</time>
      </trkpt>
      <trkpt lat="43.50766" lon="6.81178">
        <ele>363.1</ele>
        <time>2010-01-17T08:45:01Z</time>
      </trkpt>
      <trkpt lat="43.5076" lon="6.81177">
        <ele>363.3</ele>
        <time>2010-01-17T08:45:03Z</time>
      </trkpt>
      <trkpt lat="43.50753" lon="6.81177">
        <ele>363.2</ele>
        <time>2010-01-17T08:45:05Z</time>
      </trkpt>
      <trkpt lat="43.50746" lon="6.81177">
        <ele>363.6</ele>
        <time>2010-01-17T08:45:07Z</time>
      </trkpt>
      <trkpt lat="43.50739" lon="6.81175">
        <ele>363.2</ele>
        <time>2010-01-17T08:45:09Z</time>
      </trkpt>
      <trkpt lat="43.50733" lon="6.81173">
        <ele>363.4</ele>
        <time>2010-01-17T08:45:11Z</time>
      </trkpt>
      <trkpt lat="43.50727" lon="6.81172">
        <ele>363.9</ele>
        <time>2010-01-17T08:45:13Z</time>
      </trkpt>
      <trkpt lat="43.5072" lon="6.8117">
        <ele>363.3</ele>
        <time>2010-01-17T08:45:15Z</time>
      </trkpt>
      <trkpt lat="43.50713" lon="6.81168">
        <ele>363.7</ele>
        <time>2010-01-17T08:45:17Z</time>
      </trkpt>
      <trkpt lat="43.50706" lon="6.81167">
        <ele>363</ele>
        <time>2010-01-17T08:45:19Z</time>
      </trkpt>
      <trkpt lat="43.50699" lon="6.81165">
        <ele>363.2</ele>
        <time>2010-01-17T08:45:21Z</time>
      </trkpt>
      <trkpt lat="43.50693" lon="6.81163">
        <ele>363.8</ele>
        <time>2010-01-17T08:45:23Z</time>
      </trkpt>
      <trkpt lat="43.50687" lon="6.81162">
        <ele>364.2</ele>
        <time>2010-01-17T08:45:25Z</time>
      </trkpt>
      <trkpt lat="43.50681" lon="6.81161">
        <ele>363.8</ele>
        <time>2010-01-17T08:45:27Z</time>
      </trkpt>
      <trkpt lat="43.50675" lon="6.8116">
        <ele>363.7</ele>
        <time>2010-01-17T08:45:29Z</time>
      </trkpt>
      <trkpt lat="43.50669" lon="6.81158">
        <ele>363.2</ele>
        <time>2010-01-17T08:45:31Z</time>
      </trkpt>
      <trkpt lat="43.50664" lon="6.81156">
        <ele>363.2</ele>
        <time>2010-01-17T08:45:33Z</time>
      </trkpt>
      <trkpt lat="43.50659" lon="6.81154">
        <ele>363.8</ele>
        <time>2010-01-17T08:45:35Z</time>
      </trkpt>
      <trkpt lat="43.50654" lon="6.81152">
        <ele>364.4</ele>
        <time>2010-01-17T08:45:37Z</time>
      </trkpt>
      <trkpt lat="43.50649" lon="6.81149">
        <ele>364.7</ele>
        <time>2010-01-17T08:45:39Z</time>
      </trkpt>
      <trkpt lat="43.50644" lon="6.81147">
        <ele>365</ele>
        <time>2010-01-17T08:45:41Z</time>
      </trkpt>
      <trkpt lat="43.50638" lon="6.81144">
        <ele>365.7</ele>
        <time>2010-01-17T08:45:43Z</time>
      </trkpt>
      <trkpt lat="43.50633" lon="6.81141">
        <ele>366.2</ele>
        <time>2010-01-17T08:45:45Z</time>
      </trkpt>
      <trkpt lat="43.50629" lon="6.81138">
        <ele>366.9</ele>
        <time>2010-01-17T08:45:47Z</time>
      </trkpt>
      <trkpt lat="43.50624" lon="6.81135">
        <ele>367.3</ele>
        <time>2010-01-17T08:45:49Z</time>
      </trkpt>
      <trkpt lat="43.50619" lon="6.81132">
        <ele>367.6</ele>
        <time>2010-01-17T08:45:51Z</time>
      </trkpt>
      <trkpt lat="43.50614" lon="6.81129">
        <ele>368.6</ele>
        <time>2010-01-17T08:45:53Z</time>
      </trkpt>
      <trkpt lat="43.5061" lon="6.81126">
        <ele>369.1</ele>
        <time>2010-01-17T08:45:55Z</time>
      </trkpt>
      <trkpt lat="43.50606" lon="6.81122">
        <ele>369.9</ele>
        <time>2010-01-17T08:45:57Z</time>
      </trkpt>
      <trkpt lat="43.50602" lon="6.81118">
        <ele>370.9</ele>
        <time>2010-01-17T08:45:59Z</time>
      </trkpt>
      <trkpt lat="43.50597" lon="6.81114">
        <ele>371.7</ele>
        <time>2010-01-17T08:46:01Z</time>
      </trkpt>
      <trkpt lat="43.50593" lon="6.81108">
        <ele>372.4</ele>
        <time>2010-01-17T08:46:03Z</time>
      </trkpt>
      <trkpt lat="43.5059" lon="6.81102">
        <ele>373.2</ele>
        <time>2010-01-17T08:46:05Z</time>
      </trkpt>
      <trkpt lat="43.50588" lon="6.81095">
        <ele>374.4</ele>
        <time>2010-01-17T08:46:07Z</time>
      </trkpt>
      <trkpt lat="43.50585" lon="6.81089">
        <ele>375.5</ele>
        <time>2010-01-17T08:46:09Z</time>
      </trkpt>
      <trkpt lat="43.50583" lon="6.81082">
        <ele>376.5</ele>
        <time>2010-01-17T08:46:11Z</time>
      </trkpt>
      <trkpt lat="43.50581" lon="6.81077">
        <ele>378.4</ele>
        <time>2010-01-17T08:46:13Z</time>
      </trkpt>
      <trkpt lat="43.50578" lon="6.8107">
        <ele>380.1</ele>
        <time>2010-01-17T08:46:15Z</time>
      </trkpt>
      <trkpt lat="43.50575" lon="6.81063">
        <ele>381.4</ele>
        <time>2010-01-17T08:46:17Z</time>
      </trkpt>
      <trkpt lat="43.50572" lon="6.81056">
        <ele>382.8</ele>
        <time>2010-01-17T08:46:19Z</time>
      </trkpt>
      <trkpt lat="43.50568" lon="6.81049">
        <ele>384.9</ele>
        <time>2010-01-17T08:46:21Z</time>
      </trkpt>
      <trkpt lat="43.50564" lon="6.81041">
        <ele>386.2</ele>
        <time>2010-01-17T08:46:23Z</time>
      </trkpt>
      <trkpt lat="43.50561" lon="6.81033">
        <ele>388.2</ele>
        <time>2010-01-17T08:46:25Z</time>
      </trkpt>
      <trkpt lat="43.50558" lon="6.81024">
        <ele>388.6</ele>
        <time>2010-01-17T08:46:27Z</time>
      </trkpt>
      <trkpt lat="43.50554" lon="6.81015">
        <ele>389.8</ele>
        <time>2010-01-17T08:46:29Z</time>
      </trkpt>
      <trkpt lat="43.50551" lon="6.81006">
        <ele>390</ele>
        <time>2010-01-17T08:46:31Z</time>
      </trkpt>
      <trkpt lat="43.50547" lon="6.80998">
        <ele>390.3</ele>
        <time>2010-01-17T08:46:33Z</time>
      </trkpt>
      <trkpt lat="43.50543" lon="6.8099">
        <ele>390.6</ele>
        <time>2010-01-17T08:46:35Z</time>
      </trkpt>
      <trkpt lat="43.50539" lon="6.80981">
        <ele>388.1</ele>
        <time>2010-01-17T08:46:37Z</time>
      </trkpt>
      <trkpt lat="43.50535" lon="6.80972">
        <ele>384.7</ele>
        <time>2010-01-17T08:46:39Z</time>
      </trkpt>
      <trkpt lat="43.50531" lon="6.80964">
        <ele>383.3</ele>
        <time>2010-01-17T08:46:41Z</time>
      </trkpt>
      <trkpt lat="43.50527" lon="6.80956">
        <ele>381.9</ele>
        <time>2010-01-17T08:46:43Z</time>
      </trkpt>
      <trkpt lat="43.50523" lon="6.80949">
        <ele>381.3</ele>
        <time>2010-01-17T08:46:45Z</time>
      </trkpt>
      <trkpt lat="43.50519" lon="6.80942">
        <ele>380.2</ele>
        <time>2010-01-17T08:46:47Z</time>
      </trkpt>
      <trkpt lat="43.50514" lon="6.80935">
        <ele>379.7</ele>
        <time>2010-01-17T08:46:49Z</time>
      </trkpt>
      <trkpt lat="43.5051" lon="6.80929">
        <ele>379.1</ele>
        <time>2010-01-17T08:46:51Z</time>
      </trkpt>
      <trkpt lat="43.50505" lon="6.80924">
        <ele>379</ele>
        <time>2010-01-17T08:46:53Z</time>
      </trkpt>
      <trkpt lat="43.505" lon="6.80919">
        <ele>378.5</ele>
        <time>2010-01-17T08:46:55Z</time>
      </trkpt>
      <trkpt lat="43.50495" lon="6.80914">
        <ele>378.3</ele>
        <time>2010-01-17T08:46:57Z</time>
      </trkpt>
      <trkpt lat="43.5049" lon="6.8091">
        <ele>378.5</ele>
        <time>2010-01-17T08:46:59Z</time>
      </trkpt>
      <trkpt lat="43.50485" lon="6.80905">
        <ele>378.5</ele>
        <time>2010-01-17T08:47:01Z</time>
      </trkpt>
      <trkpt lat="43.5048" lon="6.80901">
        <ele>378.4</ele>
        <time>2010-01-17T08:47:03Z</time>
      </trkpt>
      <trkpt lat="43.50475" lon="6.80897">
        <ele>377.9</ele>
        <time>2010-01-17T08:47:05Z</time>
      </trkpt>
      <trkpt lat="43.50469" lon="6.80893">
        <ele>377.9</ele>
        <time>2010-01-17T08:47:07Z</time>
      </trkpt>
      <trkpt lat="43.50464" lon="6.80889">
        <ele>377.2</ele>
        <time>2010-01-17T08:47:09Z</time>
      </trkpt>
      <trkpt lat="43.50459" lon="6.80885">
        <ele>376.8</ele>
        <time>2010-01-17T08:47:11Z</time>
      </trkpt>
      <trkpt lat="43.50454" lon="6.80881">
        <ele>376.6</ele>
        <time>2010-01-17T08:47:13Z</time>
      </trkpt>
      <trkpt lat="43.50449" lon="6.80877">
        <ele>376.7</ele>
        <time>2010-01-17T08:47:15Z</time>
      </trkpt>
      <trkpt lat="43.50443" lon="6.80874">
        <ele>377.1</ele>
        <time>2010-01-17T08:47:17Z</time>
      </trkpt>
      <trkpt lat="43.50438" lon="6.8087">
        <ele>376.6</ele>
        <time>2010-01-17T08:47:19Z</time>
      </trkpt>
      <trkpt lat="43.50432" lon="6.80866">
        <ele>376.2</ele>
        <time>2010-01-17T08:47:21Z</time>
      </trkpt>
      <trkpt lat="43.50427" lon="6.80863">
        <ele>375.7</ele>
        <time>2010-01-17T08:47:23Z</time>
      </trkpt>
      <trkpt lat="43.50422" lon="6.8086">
        <ele>375.5</ele>
        <time>2010-01-17T08:47:25Z</time>
      </trkpt>
      <trkpt lat="43.50416" lon="6.80857">
        <ele>375.7</ele>
        <time>2010-01-17T08:47:27Z</time>
      </trkpt>
      <trkpt lat="43.50411" lon="6.80854">
        <ele>375.7</ele>
        <time>2010-01-17T08:47:29Z</time>
      </trkpt>
      <trkpt lat="43.50405" lon="6.80851">
        <ele>375.4</ele>
        <time>2010-01-17T08:47:31Z</time>
      </trkpt>
      <trkpt lat="43.504" lon="6.80849">
        <ele>375.1</ele>
        <time>2010-01-17T08:47:33Z</time>
      </trkpt>
      <trkpt lat="43.50395" lon="6.80847">
        <ele>375</ele>
        <time>2010-01-17T08:47:35Z</time>
      </trkpt>
      <trkpt lat="43.50389" lon="6.80844">
        <ele>374.8</ele>
        <time>2010-01-17T08:47:37Z</time>
      </trkpt>
      <trkpt lat="43.50384" lon="6.80842">
        <ele>374.7</ele>
        <time>2010-01-17T08:47:39Z</time>
      </trkpt>
      <trkpt lat="43.50378" lon="6.80841">
        <ele>374.6</ele>
        <time>2010-01-17T08:47:41Z</time>
      </trkpt>
      <trkpt lat="43.50372" lon="6.80839">
        <ele>374.6</ele>
        <time>2010-01-17T08:47:43Z</time>
      </trkpt>
      <trkpt lat="43.50366" lon="6.80838">
        <ele>374.5</ele>
        <time>2010-01-17T08:47:45Z</time>
      </trkpt>
      <trkpt lat="43.5036" lon="6.80837">
        <ele>374.6</ele>
        <time>2010-01-17T08:47:47Z</time>
      </trkpt>
      <trkpt lat="43.50354" lon="6.80837">
        <ele>374.6</ele>
        <time>2010-01-17T08:47:49Z</time>
      </trkpt>
      <trkpt lat="43.50347" lon="6.80837">
        <ele>374.7</ele>
        <time>2010-01-17T08:47:51Z</time>
      </trkpt>
      <trkpt lat="43.50341" lon="6.80837">
        <ele>374.7</ele>
        <time>2010-01-17T08:47:53Z</time>
      </trkpt>
      <trkpt lat="43.50335" lon="6.80837">
        <ele>374.9</ele>
        <time>2010-01-17T08:47:55Z</time>
      </trkpt>
      <trkpt lat="43.50328" lon="6.80837">
        <ele>374.9</ele>
        <time>2010-01-17T08:47:57Z</time>
      </trkpt>
      <trkpt lat="43.50321" lon="6.80838">
        <ele>375.1</ele>
        <time>2010-01-17T08:47:59Z</time>
      </trkpt>
      <trkpt lat="43.50315" lon="6.80839">
        <ele>375</ele>
        <time>2010-01-17T08:48:01Z</time>
      </trkpt>
      <trkpt lat="43.50308" lon="6.8084">
        <ele>375</ele>
        <time>2010-01-17T08:48:03Z</time>
      </trkpt>
      <trkpt lat="43.50302" lon="6.8084">
        <ele>375.1</ele>
        <time>2010-01-17T08:48:05Z</time>
      </trkpt>
      <trkpt lat="43.50296" lon="6.80841">
        <ele>375</ele>
        <time>2010-01-17T08:48:07Z</time>
      </trkpt>
      <trkpt lat="43.5029" lon="6.80842">
        <ele>374.8</ele>
        <time>2010-01-17T08:48:09Z</time>
      </trkpt>
      <trkpt lat="43.50285" lon="6.80843">
        <ele>374.9</ele>
        <time>2010-01-17T08:48:11Z</time>
      </trkpt>
      <trkpt lat="43.50279" lon="6.80844">
        <ele>374.9</ele>
        <time>2010-01-17T08:48:13Z</time>
      </trkpt>
      <trkpt lat="43.50273" lon="6.80844">
        <ele>375</ele>
        <time>2010-01-17T08:48:15Z</time>
      </trkpt>
      <trkpt lat="43.50267" lon="6.80845">
        <ele>375.1</ele>
        <time>2010-01-17T08:48:17Z</time>
      </trkpt>
      <trkpt lat="43.5026" lon="6.80845">
        <ele>375.1</ele>
        <time>2010-01-17T08:48:19Z</time>
      </trkpt>
      <trkpt lat="43.50254" lon="6.80846">
        <ele>374.9</ele>
        <time>2010-01-17T08:48:21Z</time>
      </trkpt>
      <trkpt lat="43.50247" lon="6.80847">
        <ele>374.6</ele>
        <time>2010-01-17T08:48:23Z</time>
      </trkpt>
      <trkpt lat="43.5024" lon="6.80849">
        <ele>374.4</ele>
        <time>2010-01-17T08:48:25Z</time>
      </trkpt>
      <trkpt lat="43.50233" lon="6.80851">
        <ele>374.1</ele>
        <time>2010-01-17T08:48:27Z</time>
      </trkpt>
      <trkpt lat="43.50225" lon="6.80853">
        <ele>374</ele>
        <time>2010-01-17T08:48:29Z</time>
      </trkpt>
      <trkpt lat="43.50218" lon="6.80856">
        <ele>373.6</ele>
        <time>2010-01-17T08:48:31Z</time>
      </trkpt>
      <trkpt lat="43.5021" lon="6.80859">
        <ele>372.8</ele>
        <time>2010-01-17T08:48:33Z</time>
      </trkpt>
      <trkpt lat="43.50201" lon="6.80863">
        <ele>372.4</ele>
        <time>2010-01-17T08:48:35Z</time>
      </trkpt>
      <trkpt lat="43.50193" lon="6.80866">
        <ele>371.9</ele>
        <time>2010-01-17T08:48:37Z</time>
      </trkpt>
      <trkpt lat="43.50184" lon="6.8087">
        <ele>371.4</ele>
        <time>2010-01-17T08:48:39Z</time>
      </trkpt>
      <trkpt lat="43.50179" lon="6.80872">
        <ele>371.2</ele>
        <time>2010-01-17T08:48:40Z</time>
      </trkpt>
      <trkpt lat="43.50175" lon="6.80873">
        <ele>371</ele>
        <time>2010-01-17T08:48:41Z</time>
      </trkpt>
      <trkpt lat="43.5017" lon="6.80875">
        <ele>371</ele>
        <time>2010-01-17T08:48:42Z</time>
      </trkpt>
      <trkpt lat="43.50165" lon="6.80877">
        <ele>370.8</ele>
        <time>2010-01-17T08:48:43Z</time>
      </trkpt>
      <trkpt lat="43.50156" lon="6.8088">
        <ele>370.6</ele>
        <time>2010-01-17T08:48:45Z</time>
      </trkpt>
      <trkpt lat="43.50152" lon="6.80882">
        <ele>370.6</ele>
        <time>2010-01-17T08:48:46Z</time>
      </trkpt>
      <trkpt lat="43.50147" lon="6.80883">
        <ele>370.5</ele>
        <time>2010-01-17T08:48:47Z</time>
      </trkpt>
      <trkpt lat="43.50142" lon="6.80884">
        <ele>370.5</ele>
        <time>2010-01-17T08:48:48Z</time>
      </trkpt>
      <trkpt lat="43.50137" lon="6.80885">
        <ele>370.6</ele>
        <time>2010-01-17T08:48:49Z</time>
      </trkpt>
      <trkpt lat="43.50133" lon="6.80886">
        <ele>370.6</ele>
        <time>2010-01-17T08:48:50Z</time>
      </trkpt>
      <trkpt lat="43.50128" lon="6.80888">
        <ele>370.7</ele>
        <time>2010-01-17T08:48:51Z</time>
      </trkpt>
      <trkpt lat="43.50123" lon="6.80889">
        <ele>370.6</ele>
        <time>2010-01-17T08:48:52Z</time>
      </trkpt>
      <trkpt lat="43.50118" lon="6.8089">
        <ele>370.7</ele>
        <time>2010-01-17T08:48:53Z</time>
      </trkpt>
      <trkpt lat="43.50113" lon="6.80892">
        <ele>370.8</ele>
        <time>2010-01-17T08:48:54Z</time>
      </trkpt>
      <trkpt lat="43.50109" lon="6.80893">
        <ele>370.8</ele>
        <time>2010-01-17T08:48:55Z</time>
      </trkpt>
      <trkpt lat="43.50104" lon="6.80895">
        <ele>370.8</ele>
        <time>2010-01-17T08:48:56Z</time>
      </trkpt>
      <trkpt lat="43.50099" lon="6.80896">
        <ele>370.8</ele>
        <time>2010-01-17T08:48:57Z</time>
      </trkpt>
      <trkpt lat="43.50095" lon="6.80898">
        <ele>371.1</ele>
        <time>2010-01-17T08:48:58Z</time>
      </trkpt>
      <trkpt lat="43.5009" lon="6.809">
        <ele>371</ele>
        <time>2010-01-17T08:48:59Z</time>
      </trkpt>
      <trkpt lat="43.50085" lon="6.80901">
        <ele>370.9</ele>
        <time>2010-01-17T08:49:00Z</time>
      </trkpt>
      <trkpt lat="43.5008" lon="6.80903">
        <ele>370.8</ele>
        <time>2010-01-17T08:49:01Z</time>
      </trkpt>
      <trkpt lat="43.50075" lon="6.80904">
        <ele>370.6</ele>
        <time>2010-01-17T08:49:02Z</time>
      </trkpt>
      <trkpt lat="43.50071" lon="6.80906">
        <ele>370.5</ele>
        <time>2010-01-17T08:49:03Z</time>
      </trkpt>
      <trkpt lat="43.50066" lon="6.80908">
        <ele>370.4</ele>
        <time>2010-01-17T08:49:04Z</time>
      </trkpt>
      <trkpt lat="43.50061" lon="6.80909">
        <ele>370.3</ele>
        <time>2010-01-17T08:49:05Z</time>
      </trkpt>
      <trkpt lat="43.50056" lon="6.80911">
        <ele>370.1</ele>
        <time>2010-01-17T08:49:06Z</time>
      </trkpt>
      <trkpt lat="43.50047" lon="6.80914">
        <ele>369.7</ele>
        <time>2010-01-17T08:49:08Z</time>
      </trkpt>
      <trkpt lat="43.50038" lon="6.80917">
        <ele>369.4</ele>
        <time>2010-01-17T08:49:10Z</time>
      </trkpt>
      <trkpt lat="43.50034" lon="6.80916">
        <ele>369.4</ele>
        <time>2010-01-17T08:49:11Z</time>
      </trkpt>
      <trkpt lat="43.50025" lon="6.80915">
        <ele>369.5</ele>
        <time>2010-01-17T08:49:13Z</time>
      </trkpt>
      <trkpt lat="43.50017" lon="6.80913">
        <ele>369.7</ele>
        <time>2010-01-17T08:49:15Z</time>
      </trkpt>
      <trkpt lat="43.5001" lon="6.8091">
        <ele>370.4</ele>
        <time>2010-01-17T08:49:17Z</time>
      </trkpt>
      <trkpt lat="43.50004" lon="6.80907">
        <ele>371</ele>
        <time>2010-01-17T08:49:19Z</time>
      </trkpt>
      <trkpt lat="43.49999" lon="6.80906">
        <ele>371.3</ele>
        <time>2010-01-17T08:49:21Z</time>
      </trkpt>
      <trkpt lat="43.49993" lon="6.80903">
        <ele>372</ele>
        <time>2010-01-17T08:49:24Z</time>
      </trkpt>
      <trkpt lat="43.49988" lon="6.809">
        <ele>372.2</ele>
        <time>2010-01-17T08:49:28Z</time>
      </trkpt>
      <trkpt lat="43.49983" lon="6.80899">
        <ele>373.8</ele>
        <time>2010-01-17T08:49:41Z</time>
      </trkpt>
      <trkpt lat="43.49979" lon="6.80896">
        <ele>373.9</ele>
        <time>2010-01-17T08:49:43Z</time>
      </trkpt>
      <trkpt lat="43.49975" lon="6.80891">
        <ele>374.1</ele>
        <time>2010-01-17T08:49:45Z</time>
      </trkpt>
      <trkpt lat="43.4997" lon="6.80886">
        <ele>374.4</ele>
        <time>2010-01-17T08:49:47Z</time>
      </trkpt>
      <trkpt lat="43.49965" lon="6.80882">
        <ele>374.6</ele>
        <time>2010-01-17T08:49:49Z</time>
      </trkpt>
      <trkpt lat="43.4996" lon="6.80878">
        <ele>375</ele>
        <time>2010-01-17T08:49:51Z</time>
      </trkpt>
      <trkpt lat="43.49955" lon="6.80874">
        <ele>375.3</ele>
        <time>2010-01-17T08:49:53Z</time>
      </trkpt>
      <trkpt lat="43.49951" lon="6.8087">
        <ele>375.6</ele>
        <time>2010-01-17T08:49:55Z</time>
      </trkpt>
      <trkpt lat="43.49946" lon="6.80864">
        <ele>375.8</ele>
        <time>2010-01-17T08:49:57Z</time>
      </trkpt>
      <trkpt lat="43.49941" lon="6.8086">
        <ele>375.6</ele>
        <time>2010-01-17T08:49:59Z</time>
      </trkpt>
      <trkpt lat="43.49937" lon="6.80857">
        <ele>375.4</ele>
        <time>2010-01-17T08:50:01Z</time>
      </trkpt>
      <trkpt lat="43.49933" lon="6.80853">
        <ele>375.4</ele>
        <time>2010-01-17T08:50:03Z</time>
      </trkpt>
      <trkpt lat="43.4993" lon="6.80849">
        <ele>375.6</ele>
        <time>2010-01-17T08:50:05Z</time>
      </trkpt>
      <trkpt lat="43.49926" lon="6.80845">
        <ele>375.8</ele>
        <time>2010-01-17T08:50:07Z</time>
      </trkpt>
      <trkpt lat="43.49921" lon="6.80841">
        <ele>375.8</ele>
        <time>2010-01-17T08:50:09Z</time>
      </trkpt>
      <trkpt lat="43.49916" lon="6.80836">
        <ele>376</ele>
        <time>2010-01-17T08:50:12Z</time>
      </trkpt>
      <trkpt lat="43.49912" lon="6.80833">
        <ele>375.9</ele>
        <time>2010-01-17T08:50:14Z</time>
      </trkpt>
      <trkpt lat="43.49908" lon="6.80828">
        <ele>375.8</ele>
        <time>2010-01-17T08:50:16Z</time>
      </trkpt>
      <trkpt lat="43.49904" lon="6.80824">
        <ele>375.9</ele>
        <time>2010-01-17T08:50:18Z</time>
      </trkpt>
      <trkpt lat="43.499" lon="6.8082">
        <ele>375.9</ele>
        <time>2010-01-17T08:50:20Z</time>
      </trkpt>
      <trkpt lat="43.49895" lon="6.80815">
        <ele>375.9</ele>
        <time>2010-01-17T08:50:22Z</time>
      </trkpt>
      <trkpt lat="43.49892" lon="6.80811">
        <ele>376</ele>
        <time>2010-01-17T08:50:24Z</time>
      </trkpt>
      <trkpt lat="43.49888" lon="6.80805">
        <ele>376.2</ele>
        <time>2010-01-17T08:50:26Z</time>
      </trkpt>
      <trkpt lat="43.49884" lon="6.808">
        <ele>376.4</ele>
        <time>2010-01-17T08:50:28Z</time>
      </trkpt>
      <trkpt lat="43.4988" lon="6.80795">
        <ele>376.7</ele>
        <time>2010-01-17T08:50:30Z</time>
      </trkpt>
      <trkpt lat="43.49876" lon="6.80789">
        <ele>376.8</ele>
        <time>2010-01-17T08:50:32Z</time>
      </trkpt>
      <trkpt lat="43.49872" lon="6.80784">
        <ele>377</ele>
        <time>2010-01-17T08:50:34Z</time>
      </trkpt>
      <trkpt lat="43.49869" lon="6.80778">
        <ele>377.2</ele>
        <time>2010-01-17T08:50:36Z</time>
      </trkpt>
      <trkpt lat="43.49865" lon="6.80773">
        <ele>377.4</ele>
        <time>2010-01-17T08:50:38Z</time>
      </trkpt>
      <trkpt lat="43.49861" lon="6.80767">
        <ele>377.7</ele>
        <time>2010-01-17T08:50:40Z</time>
      </trkpt>
      <trkpt lat="43.49857" lon="6.80761">
        <ele>377.9</ele>
        <time>2010-01-17T08:50:42Z</time>
      </trkpt>
      <trkpt lat="43.49853" lon="6.80755">
        <ele>378.1</ele>
        <time>2010-01-17T08:50:44Z</time>
      </trkpt>
      <trkpt lat="43.49849" lon="6.80749">
        <ele>378.3</ele>
        <time>2010-01-17T08:50:46Z</time>
      </trkpt>
      <trkpt lat="43.49845" lon="6.80744">
        <ele>378.6</ele>
        <time>2010-01-17T08:50:48Z</time>
      </trkpt>
      <trkpt lat="43.49841" lon="6.80738">
        <ele>378.9</ele>
        <time>2010-01-17T08:50:50Z</time>
      </trkpt>
      <trkpt lat="43.49837" lon="6.80732">
        <ele>379.2</ele>
        <time>2010-01-17T08:50:52Z</time>
      </trkpt>
      <trkpt lat="43.49833" lon="6.80726">
        <ele>379.4</ele>
        <time>2010-01-17T08:50:54Z</time>
      </trkpt>
      <trkpt lat="43.49829" lon="6.8072">
        <ele>379.7</ele>
        <time>2010-01-17T08:50:56Z</time>
      </trkpt>
      <trkpt lat="43.49825" lon="6.80714">
        <ele>379.8</ele>
        <time>2010-01-17T08:50:58Z</time>
      </trkpt>
      <trkpt lat="43.4982" lon="6.80708">
        <ele>380.1</ele>
        <time>2010-01-17T08:51:00Z</time>
      </trkpt>
      <trkpt lat="43.49816" lon="6.80702">
        <ele>380.4</ele>
        <time>2010-01-17T08:51:02Z</time>
      </trkpt>
      <trkpt lat="43.49811" lon="6.80696">
        <ele>380.5</ele>
        <time>2010-01-17T08:51:04Z</time>
      </trkpt>
      <trkpt lat="43.49807" lon="6.8069">
        <ele>380.8</ele>
        <time>2010-01-17T08:51:06Z</time>
      </trkpt>
      <trkpt lat="43.49802" lon="6.80685">
        <ele>381.1</ele>
        <time>2010-01-17T08:51:08Z</time>
      </trkpt>
      <trkpt lat="43.49799" lon="6.80678">
        <ele>381.4</ele>
        <time>2010-01-17T08:51:10Z</time>
      </trkpt>
      <trkpt lat="43.49795" lon="6.80672">
        <ele>381.7</ele>
        <time>2010-01-17T08:51:12Z</time>
      </trkpt>
      <trkpt lat="43.4979" lon="6.80665">
        <ele>382</ele>
        <time>2010-01-17T08:51:14Z</time>
      </trkpt>
      <trkpt lat="43.49787" lon="6.80659">
        <ele>382.6</ele>
        <time>2010-01-17T08:51:16Z</time>
      </trkpt>
      <trkpt lat="43.49784" lon="6.80651">
        <ele>383.1</ele>
        <time>2010-01-17T08:51:18Z</time>
      </trkpt>
      <trkpt lat="43.49781" lon="6.80645">
        <ele>383.6</ele>
        <time>2010-01-17T08:51:20Z</time>
      </trkpt>
      <trkpt lat="43.49779" lon="6.80637">
        <ele>384.1</ele>
        <time>2010-01-17T08:51:22Z</time>
      </trkpt>
      <trkpt lat="43.49778" lon="6.80629">
        <ele>384.8</ele>
        <time>2010-01-17T08:51:24Z</time>
      </trkpt>
      <trkpt lat="43.49776" lon="6.80622">
        <ele>385.2</ele>
        <time>2010-01-17T08:51:26Z</time>
      </trkpt>
      <trkpt lat="43.49775" lon="6.80615">
        <ele>385.5</ele>
        <time>2010-01-17T08:51:28Z</time>
      </trkpt>
      <trkpt lat="43.49772" lon="6.80607">
        <ele>386.2</ele>
        <time>2010-01-17T08:51:31Z</time>
      </trkpt>
      <trkpt lat="43.49769" lon="6.80599">
        <ele>387</ele>
        <time>2010-01-17T08:51:34Z</time>
      </trkpt>
      <trkpt lat="43.49767" lon="6.80593">
        <ele>387.6</ele>
        <time>2010-01-17T08:51:36Z</time>
      </trkpt>
      <trkpt lat="43.49763" lon="6.80585">
        <ele>388.3</ele>
        <time>2010-01-17T08:51:39Z</time>
      </trkpt>
      <trkpt lat="43.4976" lon="6.80578">
        <ele>389</ele>
        <time>2010-01-17T08:51:42Z</time>
      </trkpt>
      <trkpt lat="43.49757" lon="6.80572">
        <ele>389.2</ele>
        <time>2010-01-17T08:51:45Z</time>
      </trkpt>
      <trkpt lat="43.49752" lon="6.80566">
        <ele>389.7</ele>
        <time>2010-01-17T08:51:48Z</time>
      </trkpt>
      <trkpt lat="43.49748" lon="6.8056">
        <ele>388.4</ele>
        <time>2010-01-17T08:51:51Z</time>
      </trkpt>
      <trkpt lat="43.49745" lon="6.80553">
        <ele>388.8</ele>
        <time>2010-01-17T08:51:55Z</time>
      </trkpt>
      <trkpt lat="43.49744" lon="6.80546">
        <ele>388.9</ele>
        <time>2010-01-17T08:51:58Z</time>
      </trkpt>
      <trkpt lat="43.49737" lon="6.80544">
        <ele>388</ele>
        <time>2010-01-17T08:52:01Z</time>
      </trkpt>
      <trkpt lat="43.49732" lon="6.80547">
        <ele>387.2</ele>
        <time>2010-01-17T08:52:03Z</time>
      </trkpt>
      <trkpt lat="43.49729" lon="6.80552">
        <ele>386.6</ele>
        <time>2010-01-17T08:52:06Z</time>
      </trkpt>
      <trkpt lat="43.49723" lon="6.80558">
        <ele>389.6</ele>
        <time>2010-01-17T08:54:35Z</time>
      </trkpt>
      <trkpt lat="43.49719" lon="6.80564">
        <ele>388.8</ele>
        <time>2010-01-17T08:54:37Z</time>
      </trkpt>
      <trkpt lat="43.49714" lon="6.80571">
        <ele>388</ele>
        <time>2010-01-17T08:54:39Z</time>
      </trkpt>
      <trkpt lat="43.49708" lon="6.80578">
        <ele>387.4</ele>
        <time>2010-01-17T08:54:41Z</time>
      </trkpt>
      <trkpt lat="43.49702" lon="6.80586">
        <ele>386.7</ele>
        <time>2010-01-17T08:54:43Z</time>
      </trkpt>
      <trkpt lat="43.49696" lon="6.80593">
        <ele>386.1</ele>
        <time>2010-01-17T08:54:45Z</time>
      </trkpt>
      <trkpt lat="43.4969" lon="6.806">
        <ele>385.8</ele>
        <time>2010-01-17T08:54:47Z</time>
      </trkpt>
      <trkpt lat="43.49683" lon="6.80606">
        <ele>385.5</ele>
        <time>2010-01-17T08:54:49Z</time>
      </trkpt>
      <trkpt lat="43.49678" lon="6.80609">
        <ele>385.1</ele>
        <time>2010-01-17T08:54:51Z</time>
      </trkpt>
      <trkpt lat="43.49674" lon="6.80614">
        <ele>384.8</ele>
        <time>2010-01-17T08:54:53Z</time>
      </trkpt>
      <trkpt lat="43.49672" lon="6.80623">
        <ele>384.6</ele>
        <time>2010-01-17T08:54:55Z</time>
      </trkpt>
      <trkpt lat="43.49675" lon="6.80633">
        <ele>384.3</ele>
        <time>2010-01-17T08:54:57Z</time>
      </trkpt>
      <trkpt lat="43.49681" lon="6.80642">
        <ele>383.9</ele>
        <time>2010-01-17T08:54:59Z</time>
      </trkpt>
      <trkpt lat="43.49684" lon="6.80646">
        <ele>383.7</ele>
        <time>2010-01-17T08:55:00Z</time>
      </trkpt>
      <trkpt lat="43.49688" lon="6.8065">
        <ele>383.5</ele>
        <time>2010-01-17T08:55:01Z</time>
      </trkpt>
      <trkpt lat="43.49693" lon="6.80653">
        <ele>383.5</ele>
        <time>2010-01-17T08:55:02Z</time>
      </trkpt>
      <trkpt lat="43.49697" lon="6.80657">
        <ele>383.5</ele>
        <time>2010-01-17T08:55:03Z</time>
      </trkpt>
      <trkpt lat="43.49701" lon="6.80661">
        <ele>383.5</ele>
        <time>2010-01-17T08:55:04Z</time>
      </trkpt>
      <trkpt lat="43.49705" lon="6.80664">
        <ele>383.5</ele>
        <time>2010-01-17T08:55:05Z</time>
      </trkpt>
      <trkpt lat="43.49709" lon="6.80668">
        <ele>383.5</ele>
        <time>2010-01-17T08:55:06Z</time>
      </trkpt>
      <trkpt lat="43.49713" lon="6.80672">
        <ele>383.5</ele>
        <time>2010-01-17T08:55:07Z</time>
      </trkpt>
      <trkpt lat="43.49717" lon="6.80677">
        <ele>383.5</ele>
        <time>2010-01-17T08:55:08Z</time>
      </trkpt>
      <trkpt lat="43.4972" lon="6.80682">
        <ele>383.5</ele>
        <time>2010-01-17T08:55:09Z</time>
      </trkpt>
      <trkpt lat="43.49723" lon="6.80688">
        <ele>383.5</ele>
        <time>2010-01-17T08:55:10Z</time>
      </trkpt>
      <trkpt lat="43.49725" lon="6.80694">
        <ele>383.4</ele>
        <time>2010-01-17T08:55:11Z</time>
      </trkpt>
      <trkpt lat="43.49727" lon="6.80701">
        <ele>383.3</ele>
        <time>2010-01-17T08:55:12Z</time>
      </trkpt>
      <trkpt lat="43.49728" lon="6.80708">
        <ele>383.2</ele>
        <time>2010-01-17T08:55:13Z</time>
      </trkpt>
      <trkpt lat="43.4973" lon="6.80716">
        <ele>383.1</ele>
        <time>2010-01-17T08:55:14Z</time>
      </trkpt>
      <trkpt lat="43.49731" lon="6.80724">
        <ele>382.9</ele>
        <time>2010-01-17T08:55:15Z</time>
      </trkpt>
      <trkpt lat="43.49732" lon="6.80731">
        <ele>382.7</ele>
        <time>2010-01-17T08:55:16Z</time>
      </trkpt>
      <trkpt lat="43.49733" lon="6.80739">
        <ele>382.5</ele>
        <time>2010-01-17T08:55:17Z</time>
      </trkpt>
      <trkpt lat="43.49734" lon="6.80747">
        <ele>382.3</ele>
        <time>2010-01-17T08:55:18Z</time>
      </trkpt>
      <trkpt lat="43.49735" lon="6.80756">
        <ele>382.1</ele>
        <time>2010-01-17T08:55:19Z</time>
      </trkpt>
      <trkpt lat="43.49736" lon="6.80764">
        <ele>382</ele>
        <time>2010-01-17T08:55:20Z</time>
      </trkpt>
      <trkpt lat="43.49737" lon="6.80772">
        <ele>381.8</ele>
        <time>2010-01-17T08:55:21Z</time>
      </trkpt>
      <trkpt lat="43.49737" lon="6.80781">
        <ele>381.7</ele>
        <time>2010-01-17T08:55:22Z</time>
      </trkpt>
      <trkpt lat="43.49738" lon="6.80789">
        <ele>381.6</ele>
        <time>2010-01-17T08:55:23Z</time>
      </trkpt>
      <trkpt lat="43.49738" lon="6.80797">
        <ele>381.5</ele>
        <time>2010-01-17T08:55:24Z</time>
      </trkpt>
      <trkpt lat="43.49739" lon="6.80805">
        <ele>381.3</ele>
        <time>2010-01-17T08:55:25Z</time>
      </trkpt>
      <trkpt lat="43.49739" lon="6.80813">
        <ele>381.1</ele>
        <time>2010-01-17T08:55:26Z</time>
      </trkpt>
      <trkpt lat="43.49739" lon="6.80821">
        <ele>380.9</ele>
        <time>2010-01-17T08:55:27Z</time>
      </trkpt>
      <trkpt lat="43.4974" lon="6.80828">
        <ele>380.8</ele>
        <time>2010-01-17T08:55:28Z</time>
      </trkpt>
      <trkpt lat="43.49741" lon="6.80835">
        <ele>380.7</ele>
        <time>2010-01-17T08:55:29Z</time>
      </trkpt>
      <trkpt lat="43.49742" lon="6.80842">
        <ele>380.6</ele>
        <time>2010-01-17T08:55:30Z</time>
      </trkpt>
      <trkpt lat="43.49744" lon="6.80848">
        <ele>380.6</ele>
        <time>2010-01-17T08:55:31Z</time>
      </trkpt>
      <trkpt lat="43.49747" lon="6.8086">
        <ele>380.6</ele>
        <time>2010-01-17T08:55:33Z</time>
      </trkpt>
      <trkpt lat="43.4975" lon="6.8087">
        <ele>381</ele>
        <time>2010-01-17T08:55:35Z</time>
      </trkpt>
      <trkpt lat="43.49753" lon="6.80879">
        <ele>381.4</ele>
        <time>2010-01-17T08:55:37Z</time>
      </trkpt>
      <trkpt lat="43.49757" lon="6.80887">
        <ele>381.7</ele>
        <time>2010-01-17T08:55:39Z</time>
      </trkpt>
      <trkpt lat="43.49761" lon="6.80893">
        <ele>382.2</ele>
        <time>2010-01-17T08:55:41Z</time>
      </trkpt>
      <trkpt lat="43.49765" lon="6.80897">
        <ele>382.7</ele>
        <time>2010-01-17T08:55:43Z</time>
      </trkpt>
      <trkpt lat="43.4977" lon="6.809">
        <ele>383.4</ele>
        <time>2010-01-17T08:55:45Z</time>
      </trkpt>
      <trkpt lat="43.49775" lon="6.80903">
        <ele>384.3</ele>
        <time>2010-01-17T08:55:47Z</time>
      </trkpt>
      <trkpt lat="43.49779" lon="6.80905">
        <ele>385.3</ele>
        <time>2010-01-17T08:55:49Z</time>
      </trkpt>
      <trkpt lat="43.49784" lon="6.80908">
        <ele>386.2</ele>
        <time>2010-01-17T08:55:51Z</time>
      </trkpt>
      <trkpt lat="43.49789" lon="6.80911">
        <ele>387.2</ele>
        <time>2010-01-17T08:55:53Z</time>
      </trkpt>
      <trkpt lat="43.49794" lon="6.80913">
        <ele>388.1</ele>
        <time>2010-01-17T08:55:55Z</time>
      </trkpt>
      <trkpt lat="43.49798" lon="6.80916">
        <ele>389.1</ele>
        <time>2010-01-17T08:55:57Z</time>
      </trkpt>
      <trkpt lat="43.49803" lon="6.80919">
        <ele>390.2</ele>
        <time>2010-01-17T08:55:59Z</time>
      </trkpt>
      <trkpt lat="43.49807" lon="6.80921">
        <ele>391</ele>
        <time>2010-01-17T08:56:01Z</time>
      </trkpt>
      <trkpt lat="43.49812" lon="6.80923">
        <ele>391.8</ele>
        <time>2010-01-17T08:56:03Z</time>
      </trkpt>
      <trkpt lat="43.49817" lon="6.80925">
        <ele>392.5</ele>
        <time>2010-01-17T08:56:05Z</time>
      </trkpt>
      <trkpt lat="43.49821" lon="6.80927">
        <ele>393.3</ele>
        <time>2010-01-17T08:56:07Z</time>
      </trkpt>
      <trkpt lat="43.49826" lon="6.80929">
        <ele>393.8</ele>
        <time>2010-01-17T08:56:09Z</time>
      </trkpt>
      <trkpt lat="43.49832" lon="6.80932">
        <ele>394.4</ele>
        <time>2010-01-17T08:56:12Z</time>
      </trkpt>
      <trkpt lat="43.49837" lon="6.80934">
        <ele>394.6</ele>
        <time>2010-01-17T08:56:14Z</time>
      </trkpt>
      <trkpt lat="43.49843" lon="6.80937">
        <ele>395.2</ele>
        <time>2010-01-17T08:56:17Z</time>
      </trkpt>
      <trkpt lat="43.49848" lon="6.80939">
        <ele>395.8</ele>
        <time>2010-01-17T08:56:19Z</time>
      </trkpt>
      <trkpt lat="43.49854" lon="6.80942">
        <ele>396.3</ele>
        <time>2010-01-17T08:56:22Z</time>
      </trkpt>
      <trkpt lat="43.4986" lon="6.80945">
        <ele>396.9</ele>
        <time>2010-01-17T08:56:25Z</time>
      </trkpt>
      <trkpt lat="43.49865" lon="6.80946">
        <ele>397.3</ele>
        <time>2010-01-17T08:56:27Z</time>
      </trkpt>
      <trkpt lat="43.49869" lon="6.80948">
        <ele>397.8</ele>
        <time>2010-01-17T08:56:29Z</time>
      </trkpt>
      <trkpt lat="43.49874" lon="6.8095">
        <ele>398.2</ele>
        <time>2010-01-17T08:56:31Z</time>
      </trkpt>
      <trkpt lat="43.49878" lon="6.80952">
        <ele>398.7</ele>
        <time>2010-01-17T08:56:33Z</time>
      </trkpt>
      <trkpt lat="43.49883" lon="6.80953">
        <ele>399.2</ele>
        <time>2010-01-17T08:56:35Z</time>
      </trkpt>
      <trkpt lat="43.49887" lon="6.80955">
        <ele>400.1</ele>
        <time>2010-01-17T08:56:37Z</time>
      </trkpt>
      <trkpt lat="43.49894" lon="6.80959">
        <ele>401.1</ele>
        <time>2010-01-17T08:56:40Z</time>
      </trkpt>
      <trkpt lat="43.49901" lon="6.8096">
        <ele>399</ele>
        <time>2010-01-17T08:56:43Z</time>
      </trkpt>
      <trkpt lat="43.49907" lon="6.80962">
        <ele>398.4</ele>
        <time>2010-01-17T08:56:46Z</time>
      </trkpt>
      <trkpt lat="43.49913" lon="6.80966">
        <ele>398.6</ele>
        <time>2010-01-17T08:56:49Z</time>
      </trkpt>
      <trkpt lat="43.4992" lon="6.80969">
        <ele>398.8</ele>
        <time>2010-01-17T08:56:52Z</time>
      </trkpt>
      <trkpt lat="43.49925" lon="6.80973">
        <ele>399.1</ele>
        <time>2010-01-17T08:56:55Z</time>
      </trkpt>
      <trkpt lat="43.4993" lon="6.80979">
        <ele>399.5</ele>
        <time>2010-01-17T08:56:58Z</time>
      </trkpt>
      <trkpt lat="43.49936" lon="6.80983">
        <ele>400.2</ele>
        <time>2010-01-17T08:57:01Z</time>
      </trkpt>
      <trkpt lat="43.49941" lon="6.80988">
        <ele>401.7</ele>
        <time>2010-01-17T08:57:04Z</time>
      </trkpt>
      <trkpt lat="43.49947" lon="6.80992">
        <ele>402</ele>
        <time>2010-01-17T08:57:07Z</time>
      </trkpt>
      <trkpt lat="43.49952" lon="6.80996">
        <ele>402.7</ele>
        <time>2010-01-17T08:57:10Z</time>
      </trkpt>
      <trkpt lat="43.49958" lon="6.81">
        <ele>402.8</ele>
        <time>2010-01-17T08:57:13Z</time>
      </trkpt>
      <trkpt lat="43.49964" lon="6.81004">
        <ele>403.2</ele>
        <time>2010-01-17T08:57:16Z</time>
      </trkpt>
      <trkpt lat="43.49969" lon="6.81008">
        <ele>403.7</ele>
        <time>2010-01-17T08:57:19Z</time>
      </trkpt>
      <trkpt lat="43.49975" lon="6.81011">
        <ele>404.1</ele>
        <time>2010-01-17T08:57:22Z</time>
      </trkpt>
      <trkpt lat="43.49981" lon="6.81015">
        <ele>404.2</ele>
        <time>2010-01-17T08:57:25Z</time>
      </trkpt>
      <trkpt lat="43.49987" lon="6.81019">
        <ele>404.4</ele>
        <time>2010-01-17T08:57:28Z</time>
      </trkpt>
      <trkpt lat="43.49992" lon="6.81022">
        <ele>404.9</ele>
        <time>2010-01-17T08:57:31Z</time>
      </trkpt>
      <trkpt lat="43.49999" lon="6.81026">
        <ele>406</ele>
        <time>2010-01-17T08:57:34Z</time>
      </trkpt>
      <trkpt lat="43.50005" lon="6.81029">
        <ele>407.7</ele>
        <time>2010-01-17T08:57:37Z</time>
      </trkpt>
      <trkpt lat="43.50011" lon="6.81031">
        <ele>409.6</ele>
        <time>2010-01-17T08:57:40Z</time>
      </trkpt>
      <trkpt lat="43.50017" lon="6.81032">
        <ele>412.1</ele>
        <time>2010-01-17T08:57:43Z</time>
      </trkpt>
      <trkpt lat="43.50024" lon="6.81034">
        <ele>412.8</ele>
        <time>2010-01-17T08:57:46Z</time>
      </trkpt>
      <trkpt lat="43.5003" lon="6.81035">
        <ele>414.5</ele>
        <time>2010-01-17T08:57:49Z</time>
      </trkpt>
      <trkpt lat="43.50036" lon="6.81035">
        <ele>416.6</ele>
        <time>2010-01-17T08:57:52Z</time>
      </trkpt>
      <trkpt lat="43.50042" lon="6.81035">
        <ele>416.4</ele>
        <time>2010-01-17T08:57:55Z</time>
      </trkpt>
      <trkpt lat="43.50048" lon="6.81034">
        <ele>418.1</ele>
        <time>2010-01-17T08:57:58Z</time>
      </trkpt>
      <trkpt lat="43.50054" lon="6.81032">
        <ele>419.6</ele>
        <time>2010-01-17T08:58:01Z</time>
      </trkpt>
      <trkpt lat="43.5006" lon="6.8103">
        <ele>421.4</ele>
        <time>2010-01-17T08:58:04Z</time>
      </trkpt>
      <trkpt lat="43.50066" lon="6.81028">
        <ele>423.2</ele>
        <time>2010-01-17T08:58:07Z</time>
      </trkpt>
      <trkpt lat="43.50072" lon="6.81026">
        <ele>424.7</ele>
        <time>2010-01-17T08:58:10Z</time>
      </trkpt>
      <trkpt lat="43.50078" lon="6.81023">
        <ele>424.1</ele>
        <time>2010-01-17T08:58:13Z</time>
      </trkpt>
      <trkpt lat="43.50085" lon="6.81021">
        <ele>426.2</ele>
        <time>2010-01-17T08:58:16Z</time>
      </trkpt>
      <trkpt lat="43.5009" lon="6.8102">
        <ele>427</ele>
        <time>2010-01-17T08:58:19Z</time>
      </trkpt>
      <trkpt lat="43.50096" lon="6.8102">
        <ele>429.2</ele>
        <time>2010-01-17T08:58:22Z</time>
      </trkpt>
      <trkpt lat="43.50102" lon="6.81017">
        <ele>431.4</ele>
        <time>2010-01-17T08:58:25Z</time>
      </trkpt>
      <trkpt lat="43.50108" lon="6.81014">
        <ele>433.2</ele>
        <time>2010-01-17T08:58:28Z</time>
      </trkpt>
      <trkpt lat="43.50115" lon="6.81012">
        <ele>434.4</ele>
        <time>2010-01-17T08:58:31Z</time>
      </trkpt>
      <trkpt lat="43.5012" lon="6.81009">
        <ele>435.6</ele>
        <time>2010-01-17T08:58:34Z</time>
      </trkpt>
      <trkpt lat="43.50126" lon="6.81007">
        <ele>436.7</ele>
        <time>2010-01-17T08:58:37Z</time>
      </trkpt>
      <trkpt lat="43.50132" lon="6.81003">
        <ele>433.2</ele>
        <time>2010-01-17T08:58:40Z</time>
      </trkpt>
      <trkpt lat="43.50137" lon="6.81001">
        <ele>434.4</ele>
        <time>2010-01-17T08:58:43Z</time>
      </trkpt>
      <trkpt lat="43.50143" lon="6.80998">
        <ele>432.1</ele>
        <time>2010-01-17T08:58:46Z</time>
      </trkpt>
      <trkpt lat="43.50149" lon="6.80995">
        <ele>430.6</ele>
        <time>2010-01-17T08:58:49Z</time>
      </trkpt>
      <trkpt lat="43.50156" lon="6.80993">
        <ele>430.5</ele>
        <time>2010-01-17T08:58:52Z</time>
      </trkpt>
      <trkpt lat="43.50162" lon="6.80992">
        <ele>431.6</ele>
        <time>2010-01-17T08:58:55Z</time>
      </trkpt>
      <trkpt lat="43.50167" lon="6.8099">
        <ele>431.3</ele>
        <time>2010-01-17T08:58:58Z</time>
      </trkpt>
      <trkpt lat="43.50173" lon="6.80989">
        <ele>433</ele>
        <time>2010-01-17T08:59:01Z</time>
      </trkpt>
      <trkpt lat="43.50179" lon="6.80987">
        <ele>433.5</ele>
        <time>2010-01-17T08:59:04Z</time>
      </trkpt>
      <trkpt lat="43.50185" lon="6.80986">
        <ele>432.9</ele>
        <time>2010-01-17T08:59:07Z</time>
      </trkpt>
      <trkpt lat="43.5019" lon="6.80984">
        <ele>433.7</ele>
        <time>2010-01-17T08:59:10Z</time>
      </trkpt>
      <trkpt lat="43.50196" lon="6.80983">
        <ele>434.9</ele>
        <time>2010-01-17T08:59:13Z</time>
      </trkpt>
      <trkpt lat="43.50201" lon="6.80981">
        <ele>435.1</ele>
        <time>2010-01-17T08:59:16Z</time>
      </trkpt>
      <trkpt lat="43.50207" lon="6.80979">
        <ele>434</ele>
        <time>2010-01-17T08:59:19Z</time>
      </trkpt>
      <trkpt lat="43.50213" lon="6.80978">
        <ele>434.7</ele>
        <time>2010-01-17T08:59:22Z</time>
      </trkpt>
      <trkpt lat="43.50218" lon="6.80976">
        <ele>434.8</ele>
        <time>2010-01-17T08:59:25Z</time>
      </trkpt>
      <trkpt lat="43.50224" lon="6.80974">
        <ele>436.4</ele>
        <time>2010-01-17T08:59:28Z</time>
      </trkpt>
      <trkpt lat="43.50229" lon="6.80972">
        <ele>437.3</ele>
        <time>2010-01-17T08:59:31Z</time>
      </trkpt>
      <trkpt lat="43.50235" lon="6.8097">
        <ele>438.2</ele>
        <time>2010-01-17T08:59:34Z</time>
      </trkpt>
      <trkpt lat="43.50241" lon="6.80968">
        <ele>437.5</ele>
        <time>2010-01-17T08:59:37Z</time>
      </trkpt>
      <trkpt lat="43.50247" lon="6.80968">
        <ele>438.3</ele>
        <time>2010-01-17T08:59:40Z</time>
      </trkpt>
      <trkpt lat="43.50252" lon="6.80966">
        <ele>438</ele>
        <time>2010-01-17T08:59:43Z</time>
      </trkpt>
      <trkpt lat="43.50258" lon="6.80964">
        <ele>438.3</ele>
        <time>2010-01-17T08:59:46Z</time>
      </trkpt>
      <trkpt lat="43.50264" lon="6.80962">
        <ele>438.4</ele>
        <time>2010-01-17T08:59:49Z</time>
      </trkpt>
      <trkpt lat="43.5027" lon="6.8096">
        <ele>438.5</ele>
        <time>2010-01-17T08:59:52Z</time>
      </trkpt>
      <trkpt lat="43.50276" lon="6.80958">
        <ele>438.4</ele>
        <time>2010-01-17T08:59:55Z</time>
      </trkpt>
      <trkpt lat="43.50282" lon="6.80957">
        <ele>438.1</ele>
        <time>2010-01-17T08:59:58Z</time>
      </trkpt>
      <trkpt lat="43.50287" lon="6.80956">
        <ele>438</ele>
        <time>2010-01-17T09:00:01Z</time>
      </trkpt>
      <trkpt lat="43.50293" lon="6.80955">
        <ele>438.3</ele>
        <time>2010-01-17T09:00:04Z</time>
      </trkpt>
      <trkpt lat="43.50299" lon="6.80954">
        <ele>438.3</ele>
        <time>2010-01-17T09:00:07Z</time>
      </trkpt>
      <trkpt lat="43.50305" lon="6.80954">
        <ele>438.5</ele>
        <time>2010-01-17T09:00:10Z</time>
      </trkpt>
      <trkpt lat="43.50311" lon="6.80954">
        <ele>438.8</ele>
        <time>2010-01-17T09:00:13Z</time>
      </trkpt>
      <trkpt lat="43.50316" lon="6.80955">
        <ele>439</ele>
        <time>2010-01-17T09:00:16Z</time>
      </trkpt>
      <trkpt lat="43.50322" lon="6.80955">
        <ele>439.3</ele>
        <time>2010-01-17T09:00:19Z</time>
      </trkpt>
      <trkpt lat="43.50327" lon="6.80956">
        <ele>439.7</ele>
        <time>2010-01-17T09:00:22Z</time>
      </trkpt>
      <trkpt lat="43.50333" lon="6.80957">
        <ele>440</ele>
        <time>2010-01-17T09:00:25Z</time>
      </trkpt>
      <trkpt lat="43.50338" lon="6.80958">
        <ele>440.3</ele>
        <time>2010-01-17T09:00:28Z</time>
      </trkpt>
      <trkpt lat="43.50343" lon="6.8096">
        <ele>440.6</ele>
        <time>2010-01-17T09:00:31Z</time>
      </trkpt>
      <trkpt lat="43.50348" lon="6.80962">
        <ele>440.8</ele>
        <time>2010-01-17T09:00:34Z</time>
      </trkpt>
      <trkpt lat="43.50353" lon="6.80965">
        <ele>441.1</ele>
        <time>2010-01-17T09:00:37Z</time>
      </trkpt>
      <trkpt lat="43.50358" lon="6.80968">
        <ele>441.6</ele>
        <time>2010-01-17T09:00:40Z</time>
      </trkpt>
      <trkpt lat="43.50362" lon="6.80971">
        <ele>442.4</ele>
        <time>2010-01-17T09:00:43Z</time>
      </trkpt>
      <trkpt lat="43.50367" lon="6.80974">
        <ele>442.3</ele>
        <time>2010-01-17T09:00:46Z</time>
      </trkpt>
      <trkpt lat="43.50372" lon="6.80978">
        <ele>442.4</ele>
        <time>2010-01-17T09:00:49Z</time>
      </trkpt>
      <trkpt lat="43.50376" lon="6.80981">
        <ele>442.5</ele>
        <time>2010-01-17T09:00:52Z</time>
      </trkpt>
      <trkpt lat="43.5038" lon="6.80985">
        <ele>442.6</ele>
        <time>2010-01-17T09:00:55Z</time>
      </trkpt>
      <trkpt lat="43.50384" lon="6.80989">
        <ele>442.6</ele>
        <time>2010-01-17T09:00:58Z</time>
      </trkpt>
      <trkpt lat="43.50388" lon="6.80993">
        <ele>442.8</ele>
        <time>2010-01-17T09:01:01Z</time>
      </trkpt>
      <trkpt lat="43.50392" lon="6.80997">
        <ele>443.4</ele>
        <time>2010-01-17T09:01:04Z</time>
      </trkpt>
      <trkpt lat="43.50396" lon="6.81001">
        <ele>443.8</ele>
        <time>2010-01-17T09:01:07Z</time>
      </trkpt>
      <trkpt lat="43.504" lon="6.81006">
        <ele>444.2</ele>
        <time>2010-01-17T09:01:11Z</time>
      </trkpt>
      <trkpt lat="43.50405" lon="6.81012">
        <ele>444.5</ele>
        <time>2010-01-17T09:01:15Z</time>
      </trkpt>
      <trkpt lat="43.50409" lon="6.81017">
        <ele>444.7</ele>
        <time>2010-01-17T09:01:18Z</time>
      </trkpt>
      <trkpt lat="43.50412" lon="6.81022">
        <ele>444.9</ele>
        <time>2010-01-17T09:01:21Z</time>
      </trkpt>
      <trkpt lat="43.50414" lon="6.81029">
        <ele>445.1</ele>
        <time>2010-01-17T09:01:24Z</time>
      </trkpt>
      <trkpt lat="43.50416" lon="6.81034">
        <ele>445.5</ele>
        <time>2010-01-17T09:01:27Z</time>
      </trkpt>
      <trkpt lat="43.50418" lon="6.8104">
        <ele>445.8</ele>
        <time>2010-01-17T09:01:30Z</time>
      </trkpt>
      <trkpt lat="43.50421" lon="6.81047">
        <ele>446</ele>
        <time>2010-01-17T09:01:33Z</time>
      </trkpt>
      <trkpt lat="43.50423" lon="6.81054">
        <ele>446.1</ele>
        <time>2010-01-17T09:01:36Z</time>
      </trkpt>
      <trkpt lat="43.50425" lon="6.81061">
        <ele>446.4</ele>
        <time>2010-01-17T09:01:39Z</time>
      </trkpt>
      <trkpt lat="43.50427" lon="6.81069">
        <ele>447.4</ele>
        <time>2010-01-17T09:01:43Z</time>
      </trkpt>
      <trkpt lat="43.50429" lon="6.81077">
        <ele>448.1</ele>
        <time>2010-01-17T09:01:46Z</time>
      </trkpt>
      <trkpt lat="43.5043" lon="6.81084">
        <ele>448.6</ele>
        <time>2010-01-17T09:01:49Z</time>
      </trkpt>
      <trkpt lat="43.50431" lon="6.81092">
        <ele>449.3</ele>
        <time>2010-01-17T09:01:52Z</time>
      </trkpt>
      <trkpt lat="43.50433" lon="6.81099">
        <ele>450.4</ele>
        <time>2010-01-17T09:01:55Z</time>
      </trkpt>
      <trkpt lat="43.50433" lon="6.81106">
        <ele>451.9</ele>
        <time>2010-01-17T09:01:58Z</time>
      </trkpt>
      <trkpt lat="43.50434" lon="6.81114">
        <ele>452.5</ele>
        <time>2010-01-17T09:02:01Z</time>
      </trkpt>
      <trkpt lat="43.50434" lon="6.81122">
        <ele>453.4</ele>
        <time>2010-01-17T09:02:04Z</time>
      </trkpt>
      <trkpt lat="43.50435" lon="6.81129">
        <ele>454</ele>
        <time>2010-01-17T09:02:07Z</time>
      </trkpt>
      <trkpt lat="43.50435" lon="6.81137">
        <ele>454.4</ele>
        <time>2010-01-17T09:02:10Z</time>
      </trkpt>
      <trkpt lat="43.50436" lon="6.81145">
        <ele>454.6</ele>
        <time>2010-01-17T09:02:13Z</time>
      </trkpt>
      <trkpt lat="43.50436" lon="6.81153">
        <ele>454.8</ele>
        <time>2010-01-17T09:02:16Z</time>
      </trkpt>
      <trkpt lat="43.50436" lon="6.81161">
        <ele>455.3</ele>
        <time>2010-01-17T09:02:19Z</time>
      </trkpt>
      <trkpt lat="43.50437" lon="6.81168">
        <ele>455.1</ele>
        <time>2010-01-17T09:02:22Z</time>
      </trkpt>
      <trkpt lat="43.50436" lon="6.81177">
        <ele>455.4</ele>
        <time>2010-01-17T09:02:25Z</time>
      </trkpt>
      <trkpt lat="43.50436" lon="6.81185">
        <ele>456.1</ele>
        <time>2010-01-17T09:02:28Z</time>
      </trkpt>
      <trkpt lat="43.50435" lon="6.81192">
        <ele>456.7</ele>
        <time>2010-01-17T09:02:31Z</time>
      </trkpt>
      <trkpt lat="43.50435" lon="6.812">
        <ele>457.1</ele>
        <time>2010-01-17T09:02:34Z</time>
      </trkpt>
      <trkpt lat="43.50436" lon="6.81208">
        <ele>457.3</ele>
        <time>2010-01-17T09:02:37Z</time>
      </trkpt>
      <trkpt lat="43.50436" lon="6.81216">
        <ele>457.6</ele>
        <time>2010-01-17T09:02:40Z</time>
      </trkpt>
      <trkpt lat="43.50435" lon="6.81224">
        <ele>458.1</ele>
        <time>2010-01-17T09:02:43Z</time>
      </trkpt>
      <trkpt lat="43.50434" lon="6.81232">
        <ele>458.7</ele>
        <time>2010-01-17T09:02:46Z</time>
      </trkpt>
      <trkpt lat="43.50434" lon="6.81239">
        <ele>459.4</ele>
        <time>2010-01-17T09:02:49Z</time>
      </trkpt>
      <trkpt lat="43.50435" lon="6.81247">
        <ele>459.6</ele>
        <time>2010-01-17T09:02:52Z</time>
      </trkpt>
      <trkpt lat="43.50435" lon="6.81255">
        <ele>459.9</ele>
        <time>2010-01-17T09:02:55Z</time>
      </trkpt>
      <trkpt lat="43.50436" lon="6.81262">
        <ele>460.3</ele>
        <time>2010-01-17T09:02:58Z</time>
      </trkpt>
      <trkpt lat="43.50437" lon="6.8127">
        <ele>460.4</ele>
        <time>2010-01-17T09:03:01Z</time>
      </trkpt>
      <trkpt lat="43.50438" lon="6.81277">
        <ele>461.1</ele>
        <time>2010-01-17T09:03:04Z</time>
      </trkpt>
      <trkpt lat="43.5044" lon="6.81284">
        <ele>461.9</ele>
        <time>2010-01-17T09:03:07Z</time>
      </trkpt>
      <trkpt lat="43.50443" lon="6.8129">
        <ele>463.1</ele>
        <time>2010-01-17T09:03:10Z</time>
      </trkpt>
      <trkpt lat="43.50447" lon="6.81295">
        <ele>464.1</ele>
        <time>2010-01-17T09:03:13Z</time>
      </trkpt>
      <trkpt lat="43.50451" lon="6.813">
        <ele>464.7</ele>
        <time>2010-01-17T09:03:16Z</time>
      </trkpt>
      <trkpt lat="43.50456" lon="6.81303">
        <ele>465.2</ele>
        <time>2010-01-17T09:03:19Z</time>
      </trkpt>
      <trkpt lat="43.50461" lon="6.81306">
        <ele>465.5</ele>
        <time>2010-01-17T09:03:22Z</time>
      </trkpt>
      <trkpt lat="43.50466" lon="6.81309">
        <ele>465.9</ele>
        <time>2010-01-17T09:03:25Z</time>
      </trkpt>
      <trkpt lat="43.50469" lon="6.81316">
        <ele>466.4</ele>
        <time>2010-01-17T09:03:28Z</time>
      </trkpt>
      <trkpt lat="43.50465" lon="6.8132">
        <ele>466.9</ele>
        <time>2010-01-17T09:03:31Z</time>
      </trkpt>
      <trkpt lat="43.5046" lon="6.81319">
        <ele>467.2</ele>
        <time>2010-01-17T09:03:34Z</time>
      </trkpt>
      <trkpt lat="43.50454" lon="6.81316">
        <ele>467.3</ele>
        <time>2010-01-17T09:03:37Z</time>
      </trkpt>
      <trkpt lat="43.50448" lon="6.81313">
        <ele>467.5</ele>
        <time>2010-01-17T09:03:40Z</time>
      </trkpt>
      <trkpt lat="43.50443" lon="6.81309">
        <ele>467.7</ele>
        <time>2010-01-17T09:03:43Z</time>
      </trkpt>
      <trkpt lat="43.50438" lon="6.81305">
        <ele>468.3</ele>
        <time>2010-01-17T09:03:46Z</time>
      </trkpt>
      <trkpt lat="43.50434" lon="6.813">
        <ele>469</ele>
        <time>2010-01-17T09:03:49Z</time>
      </trkpt>
      <trkpt lat="43.50431" lon="6.81294">
        <ele>469.5</ele>
        <time>2010-01-17T09:03:52Z</time>
      </trkpt>
      <trkpt lat="43.50427" lon="6.81288">
        <ele>470.1</ele>
        <time>2010-01-17T09:03:55Z</time>
      </trkpt>
      <trkpt lat="43.50423" lon="6.81282">
        <ele>471</ele>
        <time>2010-01-17T09:03:58Z</time>
      </trkpt>
      <trkpt lat="43.50421" lon="6.81275">
        <ele>471.9</ele>
        <time>2010-01-17T09:04:01Z</time>
      </trkpt>
      <trkpt lat="43.50419" lon="6.81268">
        <ele>473.4</ele>
        <time>2010-01-17T09:04:04Z</time>
      </trkpt>
      <trkpt lat="43.50417" lon="6.81261">
        <ele>475.1</ele>
        <time>2010-01-17T09:04:07Z</time>
      </trkpt>
      <trkpt lat="43.50415" lon="6.81254">
        <ele>477</ele>
        <time>2010-01-17T09:04:10Z</time>
      </trkpt>
      <trkpt lat="43.50413" lon="6.81247">
        <ele>478.7</ele>
        <time>2010-01-17T09:04:13Z</time>
      </trkpt>
      <trkpt lat="43.50412" lon="6.8124">
        <ele>479</ele>
        <time>2010-01-17T09:04:16Z</time>
      </trkpt>
      <trkpt lat="43.5041" lon="6.81233">
        <ele>480.4</ele>
        <time>2010-01-17T09:04:19Z</time>
      </trkpt>
      <trkpt lat="43.50408" lon="6.81226">
        <ele>482.1</ele>
        <time>2010-01-17T09:04:22Z</time>
      </trkpt>
      <trkpt lat="43.50406" lon="6.81218">
        <ele>482</ele>
        <time>2010-01-17T09:04:25Z</time>
      </trkpt>
      <trkpt lat="43.50404" lon="6.8121">
        <ele>483.4</ele>
        <time>2010-01-17T09:04:28Z</time>
      </trkpt>
      <trkpt lat="43.50403" lon="6.81203">
        <ele>484.8</ele>
        <time>2010-01-17T09:04:31Z</time>
      </trkpt>
      <trkpt lat="43.50402" lon="6.81196">
        <ele>487.1</ele>
        <time>2010-01-17T09:04:34Z</time>
      </trkpt>
      <trkpt lat="43.50401" lon="6.81188">
        <ele>489.8</ele>
        <time>2010-01-17T09:04:37Z</time>
      </trkpt>
      <trkpt lat="43.50399" lon="6.8118">
        <ele>491.9</ele>
        <time>2010-01-17T09:04:40Z</time>
      </trkpt>
      <trkpt lat="43.50398" lon="6.81172">
        <ele>494</ele>
        <time>2010-01-17T09:04:43Z</time>
      </trkpt>
      <trkpt lat="43.50397" lon="6.81164">
        <ele>497.4</ele>
        <time>2010-01-17T09:04:46Z</time>
      </trkpt>
      <trkpt lat="43.50395" lon="6.81156">
        <ele>499.4</ele>
        <time>2010-01-17T09:04:49Z</time>
      </trkpt>
      <trkpt lat="43.50394" lon="6.81148">
        <ele>499.5</ele>
        <time>2010-01-17T09:04:52Z</time>
      </trkpt>
      <trkpt lat="43.50393" lon="6.81141">
        <ele>495.5</ele>
        <time>2010-01-17T09:04:54Z</time>
      </trkpt>
      <trkpt lat="43.50391" lon="6.81133">
        <ele>494.9</ele>
        <time>2010-01-17T09:04:57Z</time>
      </trkpt>
      <trkpt lat="43.50389" lon="6.81126">
        <ele>496.6</ele>
        <time>2010-01-17T09:05:00Z</time>
      </trkpt>
      <trkpt lat="43.50386" lon="6.81118">
        <ele>498.3</ele>
        <time>2010-01-17T09:05:03Z</time>
      </trkpt>
      <trkpt lat="43.50383" lon="6.81112">
        <ele>499.6</ele>
        <time>2010-01-17T09:05:06Z</time>
      </trkpt>
      <trkpt lat="43.5038" lon="6.81105">
        <ele>500.6</ele>
        <time>2010-01-17T09:05:09Z</time>
      </trkpt>
      <trkpt lat="43.50377" lon="6.81098">
        <ele>501.2</ele>
        <time>2010-01-17T09:05:12Z</time>
      </trkpt>
      <trkpt lat="43.50373" lon="6.81091">
        <ele>501.3</ele>
        <time>2010-01-17T09:05:15Z</time>
      </trkpt>
      <trkpt lat="43.50368" lon="6.81084">
        <ele>499.2</ele>
        <time>2010-01-17T09:05:18Z</time>
      </trkpt>
      <trkpt lat="43.50363" lon="6.81077">
        <ele>493.9</ele>
        <time>2010-01-17T09:05:21Z</time>
      </trkpt>
      <trkpt lat="43.50358" lon="6.81072">
        <ele>491.5</ele>
        <time>2010-01-17T09:05:24Z</time>
      </trkpt>
      <trkpt lat="43.50353" lon="6.81069">
        <ele>489.5</ele>
        <time>2010-01-17T09:05:27Z</time>
      </trkpt>
      <trkpt lat="43.50347" lon="6.81066">
        <ele>488.5</ele>
        <time>2010-01-17T09:05:30Z</time>
      </trkpt>
      <trkpt lat="43.50341" lon="6.81064">
        <ele>488</ele>
        <time>2010-01-17T09:05:33Z</time>
      </trkpt>
      <trkpt lat="43.50335" lon="6.81063">
        <ele>487.7</ele>
        <time>2010-01-17T09:05:36Z</time>
      </trkpt>
      <trkpt lat="43.50329" lon="6.81064">
        <ele>487.6</ele>
        <time>2010-01-17T09:05:39Z</time>
      </trkpt>
      <trkpt lat="43.50322" lon="6.81065">
        <ele>487.7</ele>
        <time>2010-01-17T09:05:42Z</time>
      </trkpt>
      <trkpt lat="43.50316" lon="6.81067">
        <ele>487.8</ele>
        <time>2010-01-17T09:05:45Z</time>
      </trkpt>
      <trkpt lat="43.50311" lon="6.81071">
        <ele>488</ele>
        <time>2010-01-17T09:05:48Z</time>
      </trkpt>
      <trkpt lat="43.50306" lon="6.81075">
        <ele>488.2</ele>
        <time>2010-01-17T09:05:51Z</time>
      </trkpt>
      <trkpt lat="43.503" lon="6.8108">
        <ele>488.5</ele>
        <time>2010-01-17T09:05:54Z</time>
      </trkpt>
      <trkpt lat="43.50295" lon="6.81085">
        <ele>488.6</ele>
        <time>2010-01-17T09:05:57Z</time>
      </trkpt>
      <trkpt lat="43.50289" lon="6.8109">
        <ele>488.7</ele>
        <time>2010-01-17T09:06:00Z</time>
      </trkpt>
      <trkpt lat="43.50284" lon="6.81094">
        <ele>489</ele>
        <time>2010-01-17T09:06:03Z</time>
      </trkpt>
      <trkpt lat="43.50279" lon="6.811">
        <ele>489.3</ele>
        <time>2010-01-17T09:06:06Z</time>
      </trkpt>
      <trkpt lat="43.50273" lon="6.81104">
        <ele>489.7</ele>
        <time>2010-01-17T09:06:09Z</time>
      </trkpt>
      <trkpt lat="43.50268" lon="6.81109">
        <ele>490.1</ele>
        <time>2010-01-17T09:06:12Z</time>
      </trkpt>
      <trkpt lat="43.50263" lon="6.81114">
        <ele>490.5</ele>
        <time>2010-01-17T09:06:15Z</time>
      </trkpt>
      <trkpt lat="43.50257" lon="6.81119">
        <ele>490.9</ele>
        <time>2010-01-17T09:06:18Z</time>
      </trkpt>
      <trkpt lat="43.50251" lon="6.81123">
        <ele>491.3</ele>
        <time>2010-01-17T09:06:21Z</time>
      </trkpt>
      <trkpt lat="43.50246" lon="6.81128">
        <ele>491.6</ele>
        <time>2010-01-17T09:06:24Z</time>
      </trkpt>
      <trkpt lat="43.5024" lon="6.81132">
        <ele>492.1</ele>
        <time>2010-01-17T09:06:27Z</time>
      </trkpt>
      <trkpt lat="43.50234" lon="6.81136">
        <ele>492.7</ele>
        <time>2010-01-17T09:06:30Z</time>
      </trkpt>
      <trkpt lat="43.50229" lon="6.81142">
        <ele>493.3</ele>
        <time>2010-01-17T09:06:33Z</time>
      </trkpt>
      <trkpt lat="43.50224" lon="6.81148">
        <ele>493.8</ele>
        <time>2010-01-17T09:06:36Z</time>
      </trkpt>
      <trkpt lat="43.50219" lon="6.81155">
        <ele>494.3</ele>
        <time>2010-01-17T09:06:39Z</time>
      </trkpt>
      <trkpt lat="43.50216" lon="6.81162">
        <ele>494.9</ele>
        <time>2010-01-17T09:06:42Z</time>
      </trkpt>
      <trkpt lat="43.50213" lon="6.8117">
        <ele>495.6</ele>
        <time>2010-01-17T09:06:45Z</time>
      </trkpt>
      <trkpt lat="43.50211" lon="6.81179">
        <ele>496.3</ele>
        <time>2010-01-17T09:06:48Z</time>
      </trkpt>
      <trkpt lat="43.5021" lon="6.81187">
        <ele>497</ele>
        <time>2010-01-17T09:06:51Z</time>
      </trkpt>
      <trkpt lat="43.50209" lon="6.81195">
        <ele>497.8</ele>
        <time>2010-01-17T09:06:54Z</time>
      </trkpt>
      <trkpt lat="43.50208" lon="6.81204">
        <ele>498.6</ele>
        <time>2010-01-17T09:06:57Z</time>
      </trkpt>
      <trkpt lat="43.50208" lon="6.81212">
        <ele>499.4</ele>
        <time>2010-01-17T09:07:00Z</time>
      </trkpt>
      <trkpt lat="43.50208" lon="6.8122">
        <ele>500.2</ele>
        <time>2010-01-17T09:07:03Z</time>
      </trkpt>
      <trkpt lat="43.50209" lon="6.81229">
        <ele>500.8</ele>
        <time>2010-01-17T09:07:06Z</time>
      </trkpt>
      <trkpt lat="43.50209" lon="6.81237">
        <ele>501.4</ele>
        <time>2010-01-17T09:07:09Z</time>
      </trkpt>
      <trkpt lat="43.5021" lon="6.81245">
        <ele>502</ele>
        <time>2010-01-17T09:07:12Z</time>
      </trkpt>
      <trkpt lat="43.50209" lon="6.81254">
        <ele>502.5</ele>
        <time>2010-01-17T09:07:15Z</time>
      </trkpt>
      <trkpt lat="43.5021" lon="6.81262">
        <ele>503</ele>
        <time>2010-01-17T09:07:18Z</time>
      </trkpt>
      <trkpt lat="43.5021" lon="6.8127">
        <ele>503.7</ele>
        <time>2010-01-17T09:07:21Z</time>
      </trkpt>
      <trkpt lat="43.5021" lon="6.81278">
        <ele>504.3</ele>
        <time>2010-01-17T09:07:24Z</time>
      </trkpt>
      <trkpt lat="43.5021" lon="6.81286">
        <ele>504.9</ele>
        <time>2010-01-17T09:07:27Z</time>
      </trkpt>
      <trkpt lat="43.5021" lon="6.81294">
        <ele>505.6</ele>
        <time>2010-01-17T09:07:30Z</time>
      </trkpt>
      <trkpt lat="43.5021" lon="6.81303">
        <ele>506.1</ele>
        <time>2010-01-17T09:07:33Z</time>
      </trkpt>
      <trkpt lat="43.5021" lon="6.81312">
        <ele>506.8</ele>
        <time>2010-01-17T09:07:36Z</time>
      </trkpt>
      <trkpt lat="43.5021" lon="6.8132">
        <ele>507.5</ele>
        <time>2010-01-17T09:07:39Z</time>
      </trkpt>
      <trkpt lat="43.5021" lon="6.81328">
        <ele>508.3</ele>
        <time>2010-01-17T09:07:42Z</time>
      </trkpt>
      <trkpt lat="43.50209" lon="6.81337">
        <ele>508.7</ele>
        <time>2010-01-17T09:07:45Z</time>
      </trkpt>
      <trkpt lat="43.50208" lon="6.81346">
        <ele>509.4</ele>
        <time>2010-01-17T09:07:48Z</time>
      </trkpt>
      <trkpt lat="43.50208" lon="6.81354">
        <ele>510.1</ele>
        <time>2010-01-17T09:07:51Z</time>
      </trkpt>
      <trkpt lat="43.50206" lon="6.81363">
        <ele>510.6</ele>
        <time>2010-01-17T09:07:54Z</time>
      </trkpt>
      <trkpt lat="43.50204" lon="6.81371">
        <ele>511.1</ele>
        <time>2010-01-17T09:07:57Z</time>
      </trkpt>
      <trkpt lat="43.502" lon="6.81378">
        <ele>511.6</ele>
        <time>2010-01-17T09:08:00Z</time>
      </trkpt>
      <trkpt lat="43.50196" lon="6.81384">
        <ele>512.2</ele>
        <time>2010-01-17T09:08:03Z</time>
      </trkpt>
      <trkpt lat="43.50192" lon="6.81391">
        <ele>512.8</ele>
        <time>2010-01-17T09:08:06Z</time>
      </trkpt>
      <trkpt lat="43.50189" lon="6.81398">
        <ele>513.3</ele>
        <time>2010-01-17T09:08:09Z</time>
      </trkpt>
      <trkpt lat="43.50188" lon="6.81406">
        <ele>513.8</ele>
        <time>2010-01-17T09:08:12Z</time>
      </trkpt>
      <trkpt lat="43.50187" lon="6.81415">
        <ele>514.3</ele>
        <time>2010-01-17T09:08:15Z</time>
      </trkpt>
      <trkpt lat="43.50186" lon="6.81423">
        <ele>514.7</ele>
        <time>2010-01-17T09:08:18Z</time>
      </trkpt>
      <trkpt lat="43.50186" lon="6.81431">
        <ele>515.1</ele>
        <time>2010-01-17T09:08:21Z</time>
      </trkpt>
      <trkpt lat="43.50186" lon="6.81439">
        <ele>515.6</ele>
        <time>2010-01-17T09:08:24Z</time>
      </trkpt>
      <trkpt lat="43.50185" lon="6.81448">
        <ele>516.2</ele>
        <time>2010-01-17T09:08:27Z</time>
      </trkpt>
      <trkpt lat="43.50186" lon="6.81457">
        <ele>516.8</ele>
        <time>2010-01-17T09:08:30Z</time>
      </trkpt>
      <trkpt lat="43.50187" lon="6.81465">
        <ele>517.6</ele>
        <time>2010-01-17T09:08:33Z</time>
      </trkpt>
      <trkpt lat="43.50188" lon="6.81474">
        <ele>518.4</ele>
        <time>2010-01-17T09:08:36Z</time>
      </trkpt>
      <trkpt lat="43.50189" lon="6.81483">
        <ele>519</ele>
        <time>2010-01-17T09:08:39Z</time>
      </trkpt>
      <trkpt lat="43.5019" lon="6.81492">
        <ele>519.7</ele>
        <time>2010-01-17T09:08:42Z</time>
      </trkpt>
      <trkpt lat="43.50191" lon="6.815">
        <ele>520.2</ele>
        <time>2010-01-17T09:08:45Z</time>
      </trkpt>
      <trkpt lat="43.50191" lon="6.81509">
        <ele>520.8</ele>
        <time>2010-01-17T09:08:48Z</time>
      </trkpt>
      <trkpt lat="43.50191" lon="6.81518">
        <ele>521.4</ele>
        <time>2010-01-17T09:08:51Z</time>
      </trkpt>
      <trkpt lat="43.50191" lon="6.81526">
        <ele>522</ele>
        <time>2010-01-17T09:08:54Z</time>
      </trkpt>
      <trkpt lat="43.50192" lon="6.81535">
        <ele>522.5</ele>
        <time>2010-01-17T09:08:57Z</time>
      </trkpt>
      <trkpt lat="43.50192" lon="6.81543">
        <ele>523</ele>
        <time>2010-01-17T09:09:00Z</time>
      </trkpt>
      <trkpt lat="43.50192" lon="6.81552">
        <ele>523.4</ele>
        <time>2010-01-17T09:09:03Z</time>
      </trkpt>
      <trkpt lat="43.50193" lon="6.8156">
        <ele>523.9</ele>
        <time>2010-01-17T09:09:06Z</time>
      </trkpt>
      <trkpt lat="43.50195" lon="6.81568">
        <ele>524.4</ele>
        <time>2010-01-17T09:09:09Z</time>
      </trkpt>
      <trkpt lat="43.50197" lon="6.81576">
        <ele>524.9</ele>
        <time>2010-01-17T09:09:12Z</time>
      </trkpt>
      <trkpt lat="43.50199" lon="6.81584">
        <ele>525.4</ele>
        <time>2010-01-17T09:09:15Z</time>
      </trkpt>
      <trkpt lat="43.50201" lon="6.81592">
        <ele>526</ele>
        <time>2010-01-17T09:09:18Z</time>
      </trkpt>
      <trkpt lat="43.50204" lon="6.816">
        <ele>526.5</ele>
        <time>2010-01-17T09:09:21Z</time>
      </trkpt>
      <trkpt lat="43.50206" lon="6.81607">
        <ele>527</ele>
        <time>2010-01-17T09:09:24Z</time>
      </trkpt>
      <trkpt lat="43.50208" lon="6.81615">
        <ele>527.6</ele>
        <time>2010-01-17T09:09:27Z</time>
      </trkpt>
      <trkpt lat="43.5021" lon="6.81623">
        <ele>528</ele>
        <time>2010-01-17T09:09:30Z</time>
      </trkpt>
      <trkpt lat="43.5021" lon="6.81632">
        <ele>528.5</ele>
        <time>2010-01-17T09:09:33Z</time>
      </trkpt>
      <trkpt lat="43.5021" lon="6.8164">
        <ele>528.9</ele>
        <time>2010-01-17T09:09:36Z</time>
      </trkpt>
      <trkpt lat="43.50209" lon="6.81649">
        <ele>529.3</ele>
        <time>2010-01-17T09:09:39Z</time>
      </trkpt>
      <trkpt lat="43.50208" lon="6.81657">
        <ele>529.7</ele>
        <time>2010-01-17T09:09:42Z</time>
      </trkpt>
      <trkpt lat="43.50206" lon="6.81665">
        <ele>530.1</ele>
        <time>2010-01-17T09:09:45Z</time>
      </trkpt>
      <trkpt lat="43.50203" lon="6.81672">
        <ele>530.6</ele>
        <time>2010-01-17T09:09:48Z</time>
      </trkpt>
      <trkpt lat="43.50201" lon="6.81679">
        <ele>531.2</ele>
        <time>2010-01-17T09:09:51Z</time>
      </trkpt>
      <trkpt lat="43.50197" lon="6.81686">
        <ele>531.6</ele>
        <time>2010-01-17T09:09:54Z</time>
      </trkpt>
      <trkpt lat="43.50194" lon="6.81692">
        <ele>532</ele>
        <time>2010-01-17T09:09:57Z</time>
      </trkpt>
      <trkpt lat="43.5019" lon="6.81699">
        <ele>532.3</ele>
        <time>2010-01-17T09:10:00Z</time>
      </trkpt>
      <trkpt lat="43.50186" lon="6.81704">
        <ele>532.8</ele>
        <time>2010-01-17T09:10:03Z</time>
      </trkpt>
      <trkpt lat="43.50181" lon="6.81709">
        <ele>533.2</ele>
        <time>2010-01-17T09:10:06Z</time>
      </trkpt>
      <trkpt lat="43.50176" lon="6.81713">
        <ele>533.4</ele>
        <time>2010-01-17T09:10:09Z</time>
      </trkpt>
      <trkpt lat="43.50172" lon="6.81717">
        <ele>533.6</ele>
        <time>2010-01-17T09:10:12Z</time>
      </trkpt>
      <trkpt lat="43.50167" lon="6.81721">
        <ele>533.9</ele>
        <time>2010-01-17T09:10:15Z</time>
      </trkpt>
      <trkpt lat="43.50162" lon="6.81726">
        <ele>534.2</ele>
        <time>2010-01-17T09:10:18Z</time>
      </trkpt>
      <trkpt lat="43.50158" lon="6.81731">
        <ele>534.4</ele>
        <time>2010-01-17T09:10:21Z</time>
      </trkpt>
      <trkpt lat="43.50153" lon="6.81735">
        <ele>534.7</ele>
        <time>2010-01-17T09:10:24Z</time>
      </trkpt>
      <trkpt lat="43.50148" lon="6.8174">
        <ele>535.1</ele>
        <time>2010-01-17T09:10:27Z</time>
      </trkpt>
      <trkpt lat="43.50143" lon="6.81744">
        <ele>535.4</ele>
        <time>2010-01-17T09:10:30Z</time>
      </trkpt>
      <trkpt lat="43.50139" lon="6.81749">
        <ele>535.8</ele>
        <time>2010-01-17T09:10:33Z</time>
      </trkpt>
      <trkpt lat="43.50134" lon="6.81754">
        <ele>536.1</ele>
        <time>2010-01-17T09:10:36Z</time>
      </trkpt>
      <trkpt lat="43.50129" lon="6.81759">
        <ele>536.5</ele>
        <time>2010-01-17T09:10:39Z</time>
      </trkpt>
      <trkpt lat="43.50124" lon="6.81764">
        <ele>536.8</ele>
        <time>2010-01-17T09:10:42Z</time>
      </trkpt>
      <trkpt lat="43.50119" lon="6.81768">
        <ele>537.2</ele>
        <time>2010-01-17T09:10:45Z</time>
      </trkpt>
      <trkpt lat="43.50114" lon="6.81772">
        <ele>537.6</ele>
        <time>2010-01-17T09:10:48Z</time>
      </trkpt>
      <trkpt lat="43.50108" lon="6.81776">
        <ele>538.1</ele>
        <time>2010-01-17T09:10:51Z</time>
      </trkpt>
      <trkpt lat="43.50103" lon="6.81781">
        <ele>538.4</ele>
        <time>2010-01-17T09:10:54Z</time>
      </trkpt>
      <trkpt lat="43.50098" lon="6.81785">
        <ele>538.8</ele>
        <time>2010-01-17T09:10:57Z</time>
      </trkpt>
      <trkpt lat="43.50093" lon="6.81788">
        <ele>539.2</ele>
        <time>2010-01-17T09:11:00Z</time>
      </trkpt>
      <trkpt lat="43.50087" lon="6.81792">
        <ele>539.6</ele>
        <time>2010-01-17T09:11:03Z</time>
      </trkpt>
      <trkpt lat="43.50082" lon="6.81795">
        <ele>540</ele>
        <time>2010-01-17T09:11:06Z</time>
      </trkpt>
      <trkpt lat="43.50076" lon="6.81797">
        <ele>540.4</ele>
        <time>2010-01-17T09:11:09Z</time>
      </trkpt>
      <trkpt lat="43.50071" lon="6.818">
        <ele>540.8</ele>
        <time>2010-01-17T09:11:12Z</time>
      </trkpt>
      <trkpt lat="43.50067" lon="6.81806">
        <ele>541.1</ele>
        <time>2010-01-17T09:11:15Z</time>
      </trkpt>
      <trkpt lat="43.50069" lon="6.81813">
        <ele>541.6</ele>
        <time>2010-01-17T09:11:18Z</time>
      </trkpt>
      <trkpt lat="43.50074" lon="6.81816">
        <ele>542.3</ele>
        <time>2010-01-17T09:11:21Z</time>
      </trkpt>
      <trkpt lat="43.50081" lon="6.81814">
        <ele>542.9</ele>
        <time>2010-01-17T09:11:24Z</time>
      </trkpt>
      <trkpt lat="43.50086" lon="6.8181">
        <ele>543.7</ele>
        <time>2010-01-17T09:11:27Z</time>
      </trkpt>
      <trkpt lat="43.50091" lon="6.81806">
        <ele>544.7</ele>
        <time>2010-01-17T09:11:30Z</time>
      </trkpt>
      <trkpt lat="43.50097" lon="6.81802">
        <ele>545.7</ele>
        <time>2010-01-17T09:11:33Z</time>
      </trkpt>
      <trkpt lat="43.50103" lon="6.81799">
        <ele>546.9</ele>
        <time>2010-01-17T09:11:36Z</time>
      </trkpt>
      <trkpt lat="43.50109" lon="6.81796">
        <ele>547.8</ele>
        <time>2010-01-17T09:11:39Z</time>
      </trkpt>
      <trkpt lat="43.50114" lon="6.81794">
        <ele>548.1</ele>
        <time>2010-01-17T09:11:42Z</time>
      </trkpt>
      <trkpt lat="43.5012" lon="6.81791">
        <ele>548.4</ele>
        <time>2010-01-17T09:11:45Z</time>
      </trkpt>
      <trkpt lat="43.50126" lon="6.81788">
        <ele>548.7</ele>
        <time>2010-01-17T09:11:48Z</time>
      </trkpt>
      <trkpt lat="43.50132" lon="6.81786">
        <ele>549.2</ele>
        <time>2010-01-17T09:11:51Z</time>
      </trkpt>
      <trkpt lat="43.50137" lon="6.81782">
        <ele>549.5</ele>
        <time>2010-01-17T09:11:54Z</time>
      </trkpt>
      <trkpt lat="43.50141" lon="6.81779">
        <ele>550.2</ele>
        <time>2010-01-17T09:11:57Z</time>
      </trkpt>
      <trkpt lat="43.50146" lon="6.81777">
        <ele>550.4</ele>
        <time>2010-01-17T09:12:00Z</time>
      </trkpt>
      <trkpt lat="43.50152" lon="6.81774">
        <ele>550.8</ele>
        <time>2010-01-17T09:12:03Z</time>
      </trkpt>
      <trkpt lat="43.50157" lon="6.81771">
        <ele>551</ele>
        <time>2010-01-17T09:12:06Z</time>
      </trkpt>
      <trkpt lat="43.50162" lon="6.81769">
        <ele>551.2</ele>
        <time>2010-01-17T09:12:09Z</time>
      </trkpt>
      <trkpt lat="43.50168" lon="6.81767">
        <ele>551.5</ele>
        <time>2010-01-17T09:12:12Z</time>
      </trkpt>
      <trkpt lat="43.50173" lon="6.81765">
        <ele>551.8</ele>
        <time>2010-01-17T09:12:15Z</time>
      </trkpt>
      <trkpt lat="43.50178" lon="6.81763">
        <ele>552.1</ele>
        <time>2010-01-17T09:12:18Z</time>
      </trkpt>
      <trkpt lat="43.50185" lon="6.81762">
        <ele>552.4</ele>
        <time>2010-01-17T09:12:21Z</time>
      </trkpt>
      <trkpt lat="43.5019" lon="6.8176">
        <ele>552.7</ele>
        <time>2010-01-17T09:12:24Z</time>
      </trkpt>
      <trkpt lat="43.50196" lon="6.81758">
        <ele>553.1</ele>
        <time>2010-01-17T09:12:27Z</time>
      </trkpt>
      <trkpt lat="43.50202" lon="6.81757">
        <ele>553.4</ele>
        <time>2010-01-17T09:12:30Z</time>
      </trkpt>
      <trkpt lat="43.50208" lon="6.81756">
        <ele>553.8</ele>
        <time>2010-01-17T09:12:33Z</time>
      </trkpt>
      <trkpt lat="43.50215" lon="6.81755">
        <ele>554.1</ele>
        <time>2010-01-17T09:12:36Z</time>
      </trkpt>
      <trkpt lat="43.50221" lon="6.81753">
        <ele>554.6</ele>
        <time>2010-01-17T09:12:39Z</time>
      </trkpt>
      <trkpt lat="43.50226" lon="6.81752">
        <ele>554.9</ele>
        <time>2010-01-17T09:12:41Z</time>
      </trkpt>
      <trkpt lat="43.50232" lon="6.8175">
        <ele>555.3</ele>
        <time>2010-01-17T09:12:44Z</time>
      </trkpt>
      <trkpt lat="43.50239" lon="6.81749">
        <ele>555.6</ele>
        <time>2010-01-17T09:12:47Z</time>
      </trkpt>
      <trkpt lat="43.50245" lon="6.8175">
        <ele>555.7</ele>
        <time>2010-01-17T09:12:50Z</time>
      </trkpt>
      <trkpt lat="43.50249" lon="6.81756">
        <ele>555.9</ele>
        <time>2010-01-17T09:12:53Z</time>
      </trkpt>
      <trkpt lat="43.50252" lon="6.81764">
        <ele>556</ele>
        <time>2010-01-17T09:12:56Z</time>
      </trkpt>
      <trkpt lat="43.50253" lon="6.81773">
        <ele>556.6</ele>
        <time>2010-01-17T09:12:59Z</time>
      </trkpt>
      <trkpt lat="43.50251" lon="6.81781">
        <ele>557.2</ele>
        <time>2010-01-17T09:13:02Z</time>
      </trkpt>
      <trkpt lat="43.5025" lon="6.81789">
        <ele>557.5</ele>
        <time>2010-01-17T09:13:05Z</time>
      </trkpt>
      <trkpt lat="43.50249" lon="6.81797">
        <ele>557.7</ele>
        <time>2010-01-17T09:13:08Z</time>
      </trkpt>
      <trkpt lat="43.50249" lon="6.81805">
        <ele>557.9</ele>
        <time>2010-01-17T09:13:11Z</time>
      </trkpt>
      <trkpt lat="43.50249" lon="6.81812">
        <ele>558.1</ele>
        <time>2010-01-17T09:13:14Z</time>
      </trkpt>
      <trkpt lat="43.50249" lon="6.8182">
        <ele>558.4</ele>
        <time>2010-01-17T09:13:17Z</time>
      </trkpt>
      <trkpt lat="43.50249" lon="6.81827">
        <ele>558.7</ele>
        <time>2010-01-17T09:13:20Z</time>
      </trkpt>
      <trkpt lat="43.50249" lon="6.81835">
        <ele>559.1</ele>
        <time>2010-01-17T09:13:23Z</time>
      </trkpt>
      <trkpt lat="43.50249" lon="6.81842">
        <ele>559.5</ele>
        <time>2010-01-17T09:13:26Z</time>
      </trkpt>
      <trkpt lat="43.5025" lon="6.81849">
        <ele>559.9</ele>
        <time>2010-01-17T09:13:29Z</time>
      </trkpt>
      <trkpt lat="43.5025" lon="6.81856">
        <ele>560.3</ele>
        <time>2010-01-17T09:13:32Z</time>
      </trkpt>
      <trkpt lat="43.50251" lon="6.81863">
        <ele>560.9</ele>
        <time>2010-01-17T09:13:35Z</time>
      </trkpt>
      <trkpt lat="43.50251" lon="6.81871">
        <ele>561.4</ele>
        <time>2010-01-17T09:13:38Z</time>
      </trkpt>
      <trkpt lat="43.50251" lon="6.81878">
        <ele>561.5</ele>
        <time>2010-01-17T09:13:41Z</time>
      </trkpt>
      <trkpt lat="43.50251" lon="6.81885">
        <ele>561.9</ele>
        <time>2010-01-17T09:13:44Z</time>
      </trkpt>
      <trkpt lat="43.50251" lon="6.81893">
        <ele>562.5</ele>
        <time>2010-01-17T09:13:47Z</time>
      </trkpt>
      <trkpt lat="43.50251" lon="6.819">
        <ele>563.1</ele>
        <time>2010-01-17T09:13:50Z</time>
      </trkpt>
      <trkpt lat="43.50251" lon="6.81907">
        <ele>563.8</ele>
        <time>2010-01-17T09:13:53Z</time>
      </trkpt>
      <trkpt lat="43.5025" lon="6.81914">
        <ele>564.4</ele>
        <time>2010-01-17T09:13:56Z</time>
      </trkpt>
      <trkpt lat="43.5025" lon="6.81921">
        <ele>565</ele>
        <time>2010-01-17T09:13:59Z</time>
      </trkpt>
      <trkpt lat="43.5025" lon="6.81929">
        <ele>565.5</ele>
        <time>2010-01-17T09:14:02Z</time>
      </trkpt>
      <trkpt lat="43.5025" lon="6.81936">
        <ele>566.1</ele>
        <time>2010-01-17T09:14:05Z</time>
      </trkpt>
      <trkpt lat="43.50251" lon="6.81944">
        <ele>566.8</ele>
        <time>2010-01-17T09:14:08Z</time>
      </trkpt>
      <trkpt lat="43.50252" lon="6.81951">
        <ele>567.2</ele>
        <time>2010-01-17T09:14:11Z</time>
      </trkpt>
      <trkpt lat="43.50252" lon="6.81959">
        <ele>567.3</ele>
        <time>2010-01-17T09:14:14Z</time>
      </trkpt>
      <trkpt lat="43.50253" lon="6.81965">
        <ele>567.4</ele>
        <time>2010-01-17T09:14:16Z</time>
      </trkpt>
      <trkpt lat="43.50253" lon="6.81972">
        <ele>567.4</ele>
        <time>2010-01-17T09:14:18Z</time>
      </trkpt>
      <trkpt lat="43.50253" lon="6.81979">
        <ele>567.4</ele>
        <time>2010-01-17T09:14:20Z</time>
      </trkpt>
      <trkpt lat="43.50252" lon="6.81986">
        <ele>567.6</ele>
        <time>2010-01-17T09:14:22Z</time>
      </trkpt>
      <trkpt lat="43.50252" lon="6.81993">
        <ele>567.8</ele>
        <time>2010-01-17T09:14:24Z</time>
      </trkpt>
      <trkpt lat="43.50251" lon="6.82">
        <ele>567.9</ele>
        <time>2010-01-17T09:14:26Z</time>
      </trkpt>
      <trkpt lat="43.50252" lon="6.82007">
        <ele>568.1</ele>
        <time>2010-01-17T09:14:28Z</time>
      </trkpt>
      <trkpt lat="43.50253" lon="6.82014">
        <ele>568.5</ele>
        <time>2010-01-17T09:14:30Z</time>
      </trkpt>
      <trkpt lat="43.50255" lon="6.82023">
        <ele>569</ele>
        <time>2010-01-17T09:14:33Z</time>
      </trkpt>
      <trkpt lat="43.50257" lon="6.8203">
        <ele>569.8</ele>
        <time>2010-01-17T09:14:36Z</time>
      </trkpt>
      <trkpt lat="43.50258" lon="6.82037">
        <ele>570.6</ele>
        <time>2010-01-17T09:14:39Z</time>
      </trkpt>
      <trkpt lat="43.5026" lon="6.82044">
        <ele>571.6</ele>
        <time>2010-01-17T09:14:42Z</time>
      </trkpt>
      <trkpt lat="43.50261" lon="6.8205">
        <ele>572.5</ele>
        <time>2010-01-17T09:14:45Z</time>
      </trkpt>
      <trkpt lat="43.50263" lon="6.82057">
        <ele>573.7</ele>
        <time>2010-01-17T09:14:48Z</time>
      </trkpt>
      <trkpt lat="43.50265" lon="6.82063">
        <ele>574.8</ele>
        <time>2010-01-17T09:14:51Z</time>
      </trkpt>
      <trkpt lat="43.50267" lon="6.82068">
        <ele>576</ele>
        <time>2010-01-17T09:14:54Z</time>
      </trkpt>
      <trkpt lat="43.5027" lon="6.82074">
        <ele>577.1</ele>
        <time>2010-01-17T09:14:57Z</time>
      </trkpt>
      <trkpt lat="43.50273" lon="6.82079">
        <ele>578.1</ele>
        <time>2010-01-17T09:15:00Z</time>
      </trkpt>
      <trkpt lat="43.50277" lon="6.82085">
        <ele>579.1</ele>
        <time>2010-01-17T09:15:05Z</time>
      </trkpt>
      <trkpt lat="43.50278" lon="6.82091">
        <ele>579.2</ele>
        <time>2010-01-17T09:15:09Z</time>
      </trkpt>
      <trkpt lat="43.50268" lon="6.8208">
        <ele>581</ele>
        <time>2010-01-17T09:15:23Z</time>
      </trkpt>
      <trkpt lat="43.50263" lon="6.82077">
        <ele>581.5</ele>
        <time>2010-01-17T09:15:27Z</time>
      </trkpt>
      <trkpt lat="43.50257" lon="6.82075">
        <ele>582</ele>
        <time>2010-01-17T09:15:31Z</time>
      </trkpt>
      <trkpt lat="43.50252" lon="6.82072">
        <ele>582.5</ele>
        <time>2010-01-17T09:15:35Z</time>
      </trkpt>
      <trkpt lat="43.50247" lon="6.82068">
        <ele>583.5</ele>
        <time>2010-01-17T09:15:39Z</time>
      </trkpt>
      <trkpt lat="43.50243" lon="6.82062">
        <ele>584.3</ele>
        <time>2010-01-17T09:15:43Z</time>
      </trkpt>
      <trkpt lat="43.50239" lon="6.82057">
        <ele>585</ele>
        <time>2010-01-17T09:15:47Z</time>
      </trkpt>
      <trkpt lat="43.50235" lon="6.8205">
        <ele>585.8</ele>
        <time>2010-01-17T09:15:51Z</time>
      </trkpt>
      <trkpt lat="43.50233" lon="6.82044">
        <ele>586.9</ele>
        <time>2010-01-17T09:15:55Z</time>
      </trkpt>
      <trkpt lat="43.50229" lon="6.82046">
        <ele>586.6</ele>
        <time>2010-01-17T09:16:00Z</time>
      </trkpt>
      <trkpt lat="43.50228" lon="6.82053">
        <ele>586.9</ele>
        <time>2010-01-17T09:16:03Z</time>
      </trkpt>
      <trkpt lat="43.50229" lon="6.8206">
        <ele>587.3</ele>
        <time>2010-01-17T09:16:06Z</time>
      </trkpt>
      <trkpt lat="43.50231" lon="6.82066">
        <ele>587.7</ele>
        <time>2010-01-17T09:16:17Z</time>
      </trkpt>
      <trkpt lat="43.50232" lon="6.82073">
        <ele>588.7</ele>
        <time>2010-01-17T09:16:23Z</time>
      </trkpt>
      <trkpt lat="43.50234" lon="6.82078">
        <ele>590.2</ele>
        <time>2010-01-17T09:16:31Z</time>
      </trkpt>
      <trkpt lat="43.50237" lon="6.82084">
        <ele>591.6</ele>
        <time>2010-01-17T09:16:41Z</time>
      </trkpt>
      <trkpt lat="43.50239" lon="6.8209">
        <ele>594.6</ele>
        <time>2010-01-17T09:16:50Z</time>
      </trkpt>
      <trkpt lat="43.50242" lon="6.82096">
        <ele>595.6</ele>
        <time>2010-01-17T09:16:57Z</time>
      </trkpt>
      <trkpt lat="43.50246" lon="6.82101">
        <ele>596.7</ele>
        <time>2010-01-17T09:17:09Z</time>
      </trkpt>
      <trkpt lat="43.50249" lon="6.82107">
        <ele>597.7</ele>
        <time>2010-01-17T09:17:20Z</time>
      </trkpt>
      <trkpt lat="43.50252" lon="6.82112">
        <ele>598.8</ele>
        <time>2010-01-17T09:17:31Z</time>
      </trkpt>
      <trkpt lat="43.50246" lon="6.82129">
        <ele>602</ele>
        <time>2010-01-17T09:18:34Z</time>
      </trkpt>
      <trkpt lat="43.50247" lon="6.82136">
        <ele>604.5</ele>
        <time>2010-01-17T09:18:47Z</time>
      </trkpt>
      <trkpt lat="43.50243" lon="6.8214">
        <ele>604.4</ele>
        <time>2010-01-17T09:19:01Z</time>
      </trkpt>
      <trkpt lat="43.50215" lon="6.82177">
        <ele>616.7</ele>
        <time>2010-01-17T09:21:14Z</time>
      </trkpt>
      <trkpt lat="43.50216" lon="6.82183">
        <ele>617.1</ele>
        <time>2010-01-17T09:21:26Z</time>
      </trkpt>
      <trkpt lat="43.50206" lon="6.82196">
        <ele>612.1</ele>
        <time>2010-01-17T09:25:24Z</time>
      </trkpt>
      <trkpt lat="43.50206" lon="6.82203">
        <ele>611.7</ele>
        <time>2010-01-17T09:25:27Z</time>
      </trkpt>
      <trkpt lat="43.50206" lon="6.8221">
        <ele>611.4</ele>
        <time>2010-01-17T09:25:31Z</time>
      </trkpt>
      <trkpt lat="43.50205" lon="6.82216">
        <ele>610.2</ele>
        <time>2010-01-17T09:25:35Z</time>
      </trkpt>
      <trkpt lat="43.50202" lon="6.82223">
        <ele>608.3</ele>
        <time>2010-01-17T09:25:38Z</time>
      </trkpt>
      <trkpt lat="43.50201" lon="6.82232">
        <ele>605.8</ele>
        <time>2010-01-17T09:25:41Z</time>
      </trkpt>
      <trkpt lat="43.50199" lon="6.82241">
        <ele>604.3</ele>
        <time>2010-01-17T09:25:43Z</time>
      </trkpt>
      <trkpt lat="43.50195" lon="6.82247">
        <ele>603.2</ele>
        <time>2010-01-17T09:25:45Z</time>
      </trkpt>
      <trkpt lat="43.50193" lon="6.82253">
        <ele>602.1</ele>
        <time>2010-01-17T09:25:47Z</time>
      </trkpt>
      <trkpt lat="43.50193" lon="6.8226">
        <ele>601.2</ele>
        <time>2010-01-17T09:25:49Z</time>
      </trkpt>
      <trkpt lat="43.50193" lon="6.82267">
        <ele>600.5</ele>
        <time>2010-01-17T09:25:53Z</time>
      </trkpt>
      <trkpt lat="43.50193" lon="6.82275">
        <ele>599.4</ele>
        <time>2010-01-17T09:26:41Z</time>
      </trkpt>
      <trkpt lat="43.50193" lon="6.82282">
        <ele>598.2</ele>
        <time>2010-01-17T09:26:44Z</time>
      </trkpt>
      <trkpt lat="43.50191" lon="6.82288">
        <ele>597</ele>
        <time>2010-01-17T09:26:48Z</time>
      </trkpt>
      <trkpt lat="43.50192" lon="6.82295">
        <ele>595.7</ele>
        <time>2010-01-17T09:26:51Z</time>
      </trkpt>
      <trkpt lat="43.50195" lon="6.823">
        <ele>594.8</ele>
        <time>2010-01-17T09:26:53Z</time>
      </trkpt>
      <trkpt lat="43.50198" lon="6.82307">
        <ele>593.7</ele>
        <time>2010-01-17T09:26:56Z</time>
      </trkpt>
      <trkpt lat="43.50201" lon="6.82314">
        <ele>592.4</ele>
        <time>2010-01-17T09:27:00Z</time>
      </trkpt>
      <trkpt lat="43.50205" lon="6.8233">
        <ele>589.1</ele>
        <time>2010-01-17T09:27:22Z</time>
      </trkpt>
      <trkpt lat="43.50207" lon="6.82336">
        <ele>588.3</ele>
        <time>2010-01-17T09:27:49Z</time>
      </trkpt>
      <trkpt lat="43.50208" lon="6.82343">
        <ele>586.9</ele>
        <time>2010-01-17T09:28:00Z</time>
      </trkpt>
      <trkpt lat="43.50208" lon="6.8235">
        <ele>586.2</ele>
        <time>2010-01-17T09:28:03Z</time>
      </trkpt>
      <trkpt lat="43.50209" lon="6.82357">
        <ele>584.5</ele>
        <time>2010-01-17T09:28:09Z</time>
      </trkpt>
      <trkpt lat="43.50209" lon="6.82368">
        <ele>582.9</ele>
        <time>2010-01-17T09:28:12Z</time>
      </trkpt>
      <trkpt lat="43.50209" lon="6.82375">
        <ele>581.7</ele>
        <time>2010-01-17T09:28:14Z</time>
      </trkpt>
      <trkpt lat="43.50209" lon="6.82381">
        <ele>580.4</ele>
        <time>2010-01-17T09:28:16Z</time>
      </trkpt>
      <trkpt lat="43.50208" lon="6.8239">
        <ele>579.1</ele>
        <time>2010-01-17T09:28:18Z</time>
      </trkpt>
      <trkpt lat="43.50208" lon="6.82396">
        <ele>577.7</ele>
        <time>2010-01-17T09:28:20Z</time>
      </trkpt>
      <trkpt lat="43.50207" lon="6.82403">
        <ele>576.5</ele>
        <time>2010-01-17T09:28:22Z</time>
      </trkpt>
      <trkpt lat="43.50207" lon="6.82411">
        <ele>574.9</ele>
        <time>2010-01-17T09:28:26Z</time>
      </trkpt>
      <trkpt lat="43.50206" lon="6.82419">
        <ele>573.7</ele>
        <time>2010-01-17T09:28:29Z</time>
      </trkpt>
      <trkpt lat="43.50205" lon="6.82428">
        <ele>572.5</ele>
        <time>2010-01-17T09:28:32Z</time>
      </trkpt>
      <trkpt lat="43.50202" lon="6.82433">
        <ele>571.7</ele>
        <time>2010-01-17T09:28:34Z</time>
      </trkpt>
      <trkpt lat="43.50198" lon="6.82438">
        <ele>571.2</ele>
        <time>2010-01-17T09:28:36Z</time>
      </trkpt>
      <trkpt lat="43.50193" lon="6.82441">
        <ele>570.7</ele>
        <time>2010-01-17T09:28:38Z</time>
      </trkpt>
      <trkpt lat="43.50187" lon="6.82445">
        <ele>570</ele>
        <time>2010-01-17T09:28:40Z</time>
      </trkpt>
      <trkpt lat="43.50181" lon="6.8245">
        <ele>569.5</ele>
        <time>2010-01-17T09:28:42Z</time>
      </trkpt>
      <trkpt lat="43.50175" lon="6.82454">
        <ele>569.2</ele>
        <time>2010-01-17T09:28:44Z</time>
      </trkpt>
      <trkpt lat="43.5017" lon="6.82456">
        <ele>568.8</ele>
        <time>2010-01-17T09:28:49Z</time>
      </trkpt>
      <trkpt lat="43.50159" lon="6.82459">
        <ele>568.6</ele>
        <time>2010-01-17T09:29:12Z</time>
      </trkpt>
      <trkpt lat="43.50154" lon="6.82461">
        <ele>568</ele>
        <time>2010-01-17T09:29:17Z</time>
      </trkpt>
      <trkpt lat="43.5015" lon="6.82456">
        <ele>567.1</ele>
        <time>2010-01-17T09:29:21Z</time>
      </trkpt>
      <trkpt lat="43.50146" lon="6.82451">
        <ele>566</ele>
        <time>2010-01-17T09:29:24Z</time>
      </trkpt>
      <trkpt lat="43.50141" lon="6.82447">
        <ele>565.1</ele>
        <time>2010-01-17T09:29:26Z</time>
      </trkpt>
      <trkpt lat="43.50137" lon="6.82441">
        <ele>564.2</ele>
        <time>2010-01-17T09:29:28Z</time>
      </trkpt>
      <trkpt lat="43.50133" lon="6.82436">
        <ele>562.9</ele>
        <time>2010-01-17T09:29:32Z</time>
      </trkpt>
      <trkpt lat="43.50129" lon="6.8243">
        <ele>561.6</ele>
        <time>2010-01-17T09:29:36Z</time>
      </trkpt>
      <trkpt lat="43.50125" lon="6.82426">
        <ele>560.4</ele>
        <time>2010-01-17T09:29:39Z</time>
      </trkpt>
      <trkpt lat="43.50122" lon="6.82421">
        <ele>559.4</ele>
        <time>2010-01-17T09:29:43Z</time>
      </trkpt>
      <trkpt lat="43.50118" lon="6.82415">
        <ele>557.9</ele>
        <time>2010-01-17T09:29:51Z</time>
      </trkpt>
      <trkpt lat="43.50114" lon="6.82409">
        <ele>556.6</ele>
        <time>2010-01-17T09:30:01Z</time>
      </trkpt>
      <trkpt lat="43.50111" lon="6.82403">
        <ele>556.3</ele>
        <time>2010-01-17T09:30:04Z</time>
      </trkpt>
      <trkpt lat="43.50106" lon="6.82397">
        <ele>555.5</ele>
        <time>2010-01-17T09:30:07Z</time>
      </trkpt>
      <trkpt lat="43.50103" lon="6.82391">
        <ele>554.4</ele>
        <time>2010-01-17T09:30:09Z</time>
      </trkpt>
      <trkpt lat="43.50099" lon="6.82384">
        <ele>553.1</ele>
        <time>2010-01-17T09:30:12Z</time>
      </trkpt>
      <trkpt lat="43.50093" lon="6.82375">
        <ele>548.3</ele>
        <time>2010-01-17T09:30:52Z</time>
      </trkpt>
      <trkpt lat="43.50093" lon="6.82384">
        <ele>547.5</ele>
        <time>2010-01-17T09:30:55Z</time>
      </trkpt>
      <trkpt lat="43.50093" lon="6.82392">
        <ele>546.7</ele>
        <time>2010-01-17T09:30:57Z</time>
      </trkpt>
      <trkpt lat="43.50093" lon="6.824">
        <ele>545.9</ele>
        <time>2010-01-17T09:30:59Z</time>
      </trkpt>
      <trkpt lat="43.50094" lon="6.8241">
        <ele>544.5</ele>
        <time>2010-01-17T09:31:02Z</time>
      </trkpt>
      <trkpt lat="43.50095" lon="6.82418">
        <ele>543.4</ele>
        <time>2010-01-17T09:31:04Z</time>
      </trkpt>
      <trkpt lat="43.50096" lon="6.82429">
        <ele>541.8</ele>
        <time>2010-01-17T09:31:06Z</time>
      </trkpt>
      <trkpt lat="43.50098" lon="6.82439">
        <ele>540.3</ele>
        <time>2010-01-17T09:31:08Z</time>
      </trkpt>
      <trkpt lat="43.501" lon="6.82449">
        <ele>538.8</ele>
        <time>2010-01-17T09:31:10Z</time>
      </trkpt>
      <trkpt lat="43.50101" lon="6.82457">
        <ele>537.4</ele>
        <time>2010-01-17T09:31:12Z</time>
      </trkpt>
      <trkpt lat="43.50102" lon="6.82466">
        <ele>535.6</ele>
        <time>2010-01-17T09:31:15Z</time>
      </trkpt>
      <trkpt lat="43.50104" lon="6.82475">
        <ele>534.2</ele>
        <time>2010-01-17T09:31:18Z</time>
      </trkpt>
      <trkpt lat="43.50105" lon="6.82481">
        <ele>533.3</ele>
        <time>2010-01-17T09:31:20Z</time>
      </trkpt>
      <trkpt lat="43.50106" lon="6.8249">
        <ele>532</ele>
        <time>2010-01-17T09:31:23Z</time>
      </trkpt>
      <trkpt lat="43.50106" lon="6.82496">
        <ele>531</ele>
        <time>2010-01-17T09:31:25Z</time>
      </trkpt>
      <trkpt lat="43.50107" lon="6.82504">
        <ele>530</ele>
        <time>2010-01-17T09:31:27Z</time>
      </trkpt>
      <trkpt lat="43.50107" lon="6.82511">
        <ele>529</ele>
        <time>2010-01-17T09:31:29Z</time>
      </trkpt>
      <trkpt lat="43.50108" lon="6.82518">
        <ele>528.2</ele>
        <time>2010-01-17T09:31:31Z</time>
      </trkpt>
      <trkpt lat="43.50108" lon="6.82526">
        <ele>527.2</ele>
        <time>2010-01-17T09:31:34Z</time>
      </trkpt>
      <trkpt lat="43.50109" lon="6.82535">
        <ele>525.9</ele>
        <time>2010-01-17T09:31:37Z</time>
      </trkpt>
      <trkpt lat="43.50109" lon="6.82542">
        <ele>524.7</ele>
        <time>2010-01-17T09:31:39Z</time>
      </trkpt>
      <trkpt lat="43.5011" lon="6.82549">
        <ele>523.7</ele>
        <time>2010-01-17T09:31:41Z</time>
      </trkpt>
      <trkpt lat="43.50112" lon="6.82555">
        <ele>522.7</ele>
        <time>2010-01-17T09:31:43Z</time>
      </trkpt>
      <trkpt lat="43.50113" lon="6.82564">
        <ele>521.4</ele>
        <time>2010-01-17T09:31:45Z</time>
      </trkpt>
      <trkpt lat="43.50114" lon="6.82574">
        <ele>519.9</ele>
        <time>2010-01-17T09:31:47Z</time>
      </trkpt>
      <trkpt lat="43.50116" lon="6.82585">
        <ele>518.5</ele>
        <time>2010-01-17T09:31:49Z</time>
      </trkpt>
      <trkpt lat="43.50118" lon="6.82596">
        <ele>517</ele>
        <time>2010-01-17T09:31:51Z</time>
      </trkpt>
      <trkpt lat="43.50121" lon="6.82607">
        <ele>515.8</ele>
        <time>2010-01-17T09:31:53Z</time>
      </trkpt>
      <trkpt lat="43.50123" lon="6.82614">
        <ele>514.8</ele>
        <time>2010-01-17T09:31:55Z</time>
      </trkpt>
      <trkpt lat="43.5013" lon="6.82615">
        <ele>519.7</ele>
        <time>2010-01-17T09:33:02Z</time>
      </trkpt>
      <trkpt lat="43.50136" lon="6.82613">
        <ele>518.1</ele>
        <time>2010-01-17T09:33:04Z</time>
      </trkpt>
      <trkpt lat="43.50142" lon="6.82609">
        <ele>516.8</ele>
        <time>2010-01-17T09:33:06Z</time>
      </trkpt>
      <trkpt lat="43.50148" lon="6.82605">
        <ele>515.9</ele>
        <time>2010-01-17T09:33:08Z</time>
      </trkpt>
      <trkpt lat="43.50155" lon="6.82603">
        <ele>515.2</ele>
        <time>2010-01-17T09:33:10Z</time>
      </trkpt>
      <trkpt lat="43.50161" lon="6.82601">
        <ele>514.2</ele>
        <time>2010-01-17T09:33:12Z</time>
      </trkpt>
      <trkpt lat="43.50168" lon="6.82599">
        <ele>512.8</ele>
        <time>2010-01-17T09:33:14Z</time>
      </trkpt>
      <trkpt lat="43.50173" lon="6.82598">
        <ele>510.9</ele>
        <time>2010-01-17T09:33:17Z</time>
      </trkpt>
      <trkpt lat="43.50178" lon="6.82597">
        <ele>508.5</ele>
        <time>2010-01-17T09:33:20Z</time>
      </trkpt>
      <trkpt lat="43.50183" lon="6.82595">
        <ele>507</ele>
        <time>2010-01-17T09:33:22Z</time>
      </trkpt>
      <trkpt lat="43.50187" lon="6.82591">
        <ele>505.9</ele>
        <time>2010-01-17T09:33:24Z</time>
      </trkpt>
      <trkpt lat="43.50192" lon="6.82589">
        <ele>504.8</ele>
        <time>2010-01-17T09:33:26Z</time>
      </trkpt>
      <trkpt lat="43.50198" lon="6.82589">
        <ele>503.1</ele>
        <time>2010-01-17T09:33:28Z</time>
      </trkpt>
      <trkpt lat="43.50207" lon="6.82589">
        <ele>501.4</ele>
        <time>2010-01-17T09:33:30Z</time>
      </trkpt>
      <trkpt lat="43.50215" lon="6.8259">
        <ele>500.1</ele>
        <time>2010-01-17T09:33:32Z</time>
      </trkpt>
      <trkpt lat="43.50221" lon="6.82592">
        <ele>498.4</ele>
        <time>2010-01-17T09:33:34Z</time>
      </trkpt>
      <trkpt lat="43.50228" lon="6.82595">
        <ele>496.6</ele>
        <time>2010-01-17T09:33:36Z</time>
      </trkpt>
      <trkpt lat="43.50233" lon="6.82596">
        <ele>495.8</ele>
        <time>2010-01-17T09:33:37Z</time>
      </trkpt>
      <trkpt lat="43.50237" lon="6.82597">
        <ele>494.6</ele>
        <time>2010-01-17T09:33:38Z</time>
      </trkpt>
      <trkpt lat="43.50246" lon="6.82601">
        <ele>493</ele>
        <time>2010-01-17T09:33:40Z</time>
      </trkpt>
      <trkpt lat="43.50255" lon="6.82603">
        <ele>491.1</ele>
        <time>2010-01-17T09:33:42Z</time>
      </trkpt>
      <trkpt lat="43.5026" lon="6.82605">
        <ele>490</ele>
        <time>2010-01-17T09:33:43Z</time>
      </trkpt>
      <trkpt lat="43.50264" lon="6.82608">
        <ele>489.6</ele>
        <time>2010-01-17T09:33:44Z</time>
      </trkpt>
      <trkpt lat="43.50271" lon="6.82613">
        <ele>487.9</ele>
        <time>2010-01-17T09:33:46Z</time>
      </trkpt>
      <trkpt lat="43.50276" lon="6.82617">
        <ele>486.2</ele>
        <time>2010-01-17T09:33:48Z</time>
      </trkpt>
      <trkpt lat="43.5028" lon="6.82621">
        <ele>485</ele>
        <time>2010-01-17T09:33:50Z</time>
      </trkpt>
      <trkpt lat="43.50285" lon="6.82625">
        <ele>484</ele>
        <time>2010-01-17T09:33:53Z</time>
      </trkpt>
      <trkpt lat="43.5029" lon="6.82628">
        <ele>482.8</ele>
        <time>2010-01-17T09:33:56Z</time>
      </trkpt>
      <trkpt lat="43.50295" lon="6.82632">
        <ele>482.1</ele>
        <time>2010-01-17T09:33:58Z</time>
      </trkpt>
      <trkpt lat="43.50301" lon="6.82636">
        <ele>480.7</ele>
        <time>2010-01-17T09:34:01Z</time>
      </trkpt>
      <trkpt lat="43.50306" lon="6.8264">
        <ele>479.4</ele>
        <time>2010-01-17T09:34:03Z</time>
      </trkpt>
      <trkpt lat="43.50312" lon="6.82646">
        <ele>477.8</ele>
        <time>2010-01-17T09:34:05Z</time>
      </trkpt>
      <trkpt lat="43.50317" lon="6.82652">
        <ele>476.2</ele>
        <time>2010-01-17T09:34:07Z</time>
      </trkpt>
      <trkpt lat="43.50324" lon="6.82659">
        <ele>474.8</ele>
        <time>2010-01-17T09:34:09Z</time>
      </trkpt>
      <trkpt lat="43.5033" lon="6.82666">
        <ele>473.9</ele>
        <time>2010-01-17T09:34:11Z</time>
      </trkpt>
      <trkpt lat="43.50336" lon="6.82673">
        <ele>473</ele>
        <time>2010-01-17T09:34:13Z</time>
      </trkpt>
      <trkpt lat="43.50342" lon="6.8268">
        <ele>472.7</ele>
        <time>2010-01-17T09:34:15Z</time>
      </trkpt>
      <trkpt lat="43.50347" lon="6.8269">
        <ele>471.4</ele>
        <time>2010-01-17T09:34:17Z</time>
      </trkpt>
      <trkpt lat="43.50352" lon="6.82699">
        <ele>469.5</ele>
        <time>2010-01-17T09:34:19Z</time>
      </trkpt>
      <trkpt lat="43.50354" lon="6.82705">
        <ele>468.5</ele>
        <time>2010-01-17T09:34:20Z</time>
      </trkpt>
      <trkpt lat="43.50357" lon="6.82711">
        <ele>467.7</ele>
        <time>2010-01-17T09:34:21Z</time>
      </trkpt>
      <trkpt lat="43.50359" lon="6.82717">
        <ele>466.8</ele>
        <time>2010-01-17T09:34:22Z</time>
      </trkpt>
      <trkpt lat="43.50362" lon="6.82727">
        <ele>465.2</ele>
        <time>2010-01-17T09:34:24Z</time>
      </trkpt>
      <trkpt lat="43.50366" lon="6.82737">
        <ele>463.5</ele>
        <time>2010-01-17T09:34:26Z</time>
      </trkpt>
      <trkpt lat="43.50369" lon="6.82747">
        <ele>462.4</ele>
        <time>2010-01-17T09:34:28Z</time>
      </trkpt>
      <trkpt lat="43.50371" lon="6.82756">
        <ele>461.5</ele>
        <time>2010-01-17T09:34:30Z</time>
      </trkpt>
      <trkpt lat="43.50371" lon="6.82764">
        <ele>460.9</ele>
        <time>2010-01-17T09:34:32Z</time>
      </trkpt>
      <trkpt lat="43.50368" lon="6.82771">
        <ele>460.3</ele>
        <time>2010-01-17T09:34:34Z</time>
      </trkpt>
      <trkpt lat="43.50363" lon="6.82781">
        <ele>459.6</ele>
        <time>2010-01-17T09:34:36Z</time>
      </trkpt>
      <trkpt lat="43.50357" lon="6.82788">
        <ele>458.8</ele>
        <time>2010-01-17T09:34:38Z</time>
      </trkpt>
      <trkpt lat="43.50351" lon="6.82795">
        <ele>457.8</ele>
        <time>2010-01-17T09:34:40Z</time>
      </trkpt>
      <trkpt lat="43.50345" lon="6.82804">
        <ele>456.6</ele>
        <time>2010-01-17T09:34:42Z</time>
      </trkpt>
      <trkpt lat="43.5034" lon="6.82813">
        <ele>455.7</ele>
        <time>2010-01-17T09:34:44Z</time>
      </trkpt>
      <trkpt lat="43.50336" lon="6.82821">
        <ele>454.8</ele>
        <time>2010-01-17T09:34:46Z</time>
      </trkpt>
      <trkpt lat="43.50333" lon="6.82829">
        <ele>453.5</ele>
        <time>2010-01-17T09:34:48Z</time>
      </trkpt>
      <trkpt lat="43.50329" lon="6.82835">
        <ele>452.7</ele>
        <time>2010-01-17T09:34:50Z</time>
      </trkpt>
      <trkpt lat="43.50327" lon="6.82842">
        <ele>451.9</ele>
        <time>2010-01-17T09:34:53Z</time>
      </trkpt>
      <trkpt lat="43.50325" lon="6.82851">
        <ele>451.1</ele>
        <time>2010-01-17T09:34:56Z</time>
      </trkpt>
      <trkpt lat="43.50323" lon="6.82859">
        <ele>450.7</ele>
        <time>2010-01-17T09:34:58Z</time>
      </trkpt>
      <trkpt lat="43.50321" lon="6.82868">
        <ele>450.1</ele>
        <time>2010-01-17T09:35:00Z</time>
      </trkpt>
      <trkpt lat="43.5032" lon="6.82878">
        <ele>449.8</ele>
        <time>2010-01-17T09:35:02Z</time>
      </trkpt>
      <trkpt lat="43.5032" lon="6.82888">
        <ele>449.8</ele>
        <time>2010-01-17T09:35:04Z</time>
      </trkpt>
      <trkpt lat="43.50321" lon="6.82896">
        <ele>449.7</ele>
        <time>2010-01-17T09:35:07Z</time>
      </trkpt>
      <trkpt lat="43.50321" lon="6.82906">
        <ele>449.3</ele>
        <time>2010-01-17T09:35:10Z</time>
      </trkpt>
      <trkpt lat="43.50323" lon="6.82917">
        <ele>448.1</ele>
        <time>2010-01-17T09:35:12Z</time>
      </trkpt>
      <trkpt lat="43.50324" lon="6.82924">
        <ele>447</ele>
        <time>2010-01-17T09:35:13Z</time>
      </trkpt>
      <trkpt lat="43.50325" lon="6.8293">
        <ele>446</ele>
        <time>2010-01-17T09:35:14Z</time>
      </trkpt>
      <trkpt lat="43.50325" lon="6.82942">
        <ele>443.7</ele>
        <time>2010-01-17T09:35:16Z</time>
      </trkpt>
      <trkpt lat="43.50326" lon="6.82953">
        <ele>442.3</ele>
        <time>2010-01-17T09:35:18Z</time>
      </trkpt>
      <trkpt lat="43.50327" lon="6.82965">
        <ele>441.5</ele>
        <time>2010-01-17T09:35:20Z</time>
      </trkpt>
      <trkpt lat="43.50326" lon="6.82972">
        <ele>440.8</ele>
        <time>2010-01-17T09:35:22Z</time>
      </trkpt>
      <trkpt lat="43.50326" lon="6.82979">
        <ele>440.2</ele>
        <time>2010-01-17T09:35:30Z</time>
      </trkpt>
      <trkpt lat="43.50326" lon="6.82987">
        <ele>440.4</ele>
        <time>2010-01-17T09:35:35Z</time>
      </trkpt>
      <trkpt lat="43.50326" lon="6.82995">
        <ele>440.2</ele>
        <time>2010-01-17T09:35:37Z</time>
      </trkpt>
      <trkpt lat="43.50326" lon="6.83005">
        <ele>440</ele>
        <time>2010-01-17T09:35:39Z</time>
      </trkpt>
      <trkpt lat="43.50325" lon="6.83016">
        <ele>439.1</ele>
        <time>2010-01-17T09:35:41Z</time>
      </trkpt>
      <trkpt lat="43.50324" lon="6.83027">
        <ele>438.5</ele>
        <time>2010-01-17T09:35:43Z</time>
      </trkpt>
      <trkpt lat="43.50324" lon="6.83038">
        <ele>437.5</ele>
        <time>2010-01-17T09:35:45Z</time>
      </trkpt>
      <trkpt lat="43.50324" lon="6.83048">
        <ele>436.7</ele>
        <time>2010-01-17T09:35:47Z</time>
      </trkpt>
      <trkpt lat="43.50326" lon="6.83058">
        <ele>435.6</ele>
        <time>2010-01-17T09:35:49Z</time>
      </trkpt>
      <trkpt lat="43.50327" lon="6.83068">
        <ele>434.8</ele>
        <time>2010-01-17T09:35:51Z</time>
      </trkpt>
      <trkpt lat="43.50328" lon="6.83078">
        <ele>434</ele>
        <time>2010-01-17T09:35:53Z</time>
      </trkpt>
      <trkpt lat="43.50328" lon="6.83086">
        <ele>433.3</ele>
        <time>2010-01-17T09:35:55Z</time>
      </trkpt>
      <trkpt lat="43.50329" lon="6.83093">
        <ele>432.8</ele>
        <time>2010-01-17T09:35:58Z</time>
      </trkpt>
      <trkpt lat="43.50329" lon="6.831">
        <ele>432.2</ele>
        <time>2010-01-17T09:36:01Z</time>
      </trkpt>
      <trkpt lat="43.5033" lon="6.83107">
        <ele>431.5</ele>
        <time>2010-01-17T09:36:03Z</time>
      </trkpt>
      <trkpt lat="43.5033" lon="6.83116">
        <ele>430.8</ele>
        <time>2010-01-17T09:36:05Z</time>
      </trkpt>
      <trkpt lat="43.5033" lon="6.83124">
        <ele>430.3</ele>
        <time>2010-01-17T09:36:07Z</time>
      </trkpt>
      <trkpt lat="43.50329" lon="6.83132">
        <ele>429.8</ele>
        <time>2010-01-17T09:36:10Z</time>
      </trkpt>
      <trkpt lat="43.50331" lon="6.83139">
        <ele>429.8</ele>
        <time>2010-01-17T09:36:13Z</time>
      </trkpt>
      <trkpt lat="43.50333" lon="6.83146">
        <ele>429.2</ele>
        <time>2010-01-17T09:36:16Z</time>
      </trkpt>
      <trkpt lat="43.50336" lon="6.83153">
        <ele>428.4</ele>
        <time>2010-01-17T09:36:18Z</time>
      </trkpt>
      <trkpt lat="43.50338" lon="6.8316">
        <ele>427.7</ele>
        <time>2010-01-17T09:36:20Z</time>
      </trkpt>
      <trkpt lat="43.5034" lon="6.83168">
        <ele>427</ele>
        <time>2010-01-17T09:36:22Z</time>
      </trkpt>
      <trkpt lat="43.50343" lon="6.83176">
        <ele>426.5</ele>
        <time>2010-01-17T09:36:24Z</time>
      </trkpt>
      <trkpt lat="43.50347" lon="6.83187">
        <ele>425.6</ele>
        <time>2010-01-17T09:36:26Z</time>
      </trkpt>
      <trkpt lat="43.5035" lon="6.83193">
        <ele>425</ele>
        <time>2010-01-17T09:36:27Z</time>
      </trkpt>
      <trkpt lat="43.50353" lon="6.83199">
        <ele>424.7</ele>
        <time>2010-01-17T09:36:28Z</time>
      </trkpt>
      <trkpt lat="43.50359" lon="6.83205">
        <ele>424.1</ele>
        <time>2010-01-17T09:36:30Z</time>
      </trkpt>
      <trkpt lat="43.50365" lon="6.8321">
        <ele>424.4</ele>
        <time>2010-01-17T09:36:32Z</time>
      </trkpt>
      <trkpt lat="43.50372" lon="6.83215">
        <ele>423.8</ele>
        <time>2010-01-17T09:36:34Z</time>
      </trkpt>
      <trkpt lat="43.5038" lon="6.83218">
        <ele>423.3</ele>
        <time>2010-01-17T09:36:36Z</time>
      </trkpt>
      <trkpt lat="43.50389" lon="6.83221">
        <ele>423</ele>
        <time>2010-01-17T09:36:38Z</time>
      </trkpt>
      <trkpt lat="43.50394" lon="6.83222">
        <ele>422.7</ele>
        <time>2010-01-17T09:36:39Z</time>
      </trkpt>
      <trkpt lat="43.504" lon="6.83223">
        <ele>422.3</ele>
        <time>2010-01-17T09:36:40Z</time>
      </trkpt>
      <trkpt lat="43.50406" lon="6.83224">
        <ele>422.1</ele>
        <time>2010-01-17T09:36:41Z</time>
      </trkpt>
      <trkpt lat="43.50412" lon="6.83225">
        <ele>421.6</ele>
        <time>2010-01-17T09:36:42Z</time>
      </trkpt>
      <trkpt lat="43.50418" lon="6.83226">
        <ele>421.1</ele>
        <time>2010-01-17T09:36:43Z</time>
      </trkpt>
      <trkpt lat="43.50424" lon="6.83227">
        <ele>420.6</ele>
        <time>2010-01-17T09:36:44Z</time>
      </trkpt>
      <trkpt lat="43.50431" lon="6.83229">
        <ele>420</ele>
        <time>2010-01-17T09:36:45Z</time>
      </trkpt>
      <trkpt lat="43.50438" lon="6.8323">
        <ele>419.2</ele>
        <time>2010-01-17T09:36:46Z</time>
      </trkpt>
      <trkpt lat="43.50445" lon="6.83233">
        <ele>418.9</ele>
        <time>2010-01-17T09:36:47Z</time>
      </trkpt>
      <trkpt lat="43.50453" lon="6.83235">
        <ele>418.6</ele>
        <time>2010-01-17T09:36:48Z</time>
      </trkpt>
      <trkpt lat="43.5046" lon="6.83237">
        <ele>418.3</ele>
        <time>2010-01-17T09:36:49Z</time>
      </trkpt>
      <trkpt lat="43.50467" lon="6.8324">
        <ele>417.9</ele>
        <time>2010-01-17T09:36:50Z</time>
      </trkpt>
      <trkpt lat="43.50472" lon="6.83242">
        <ele>417.5</ele>
        <time>2010-01-17T09:36:51Z</time>
      </trkpt>
      <trkpt lat="43.50477" lon="6.83245">
        <ele>416.9</ele>
        <time>2010-01-17T09:36:53Z</time>
      </trkpt>
      <trkpt lat="43.50483" lon="6.83249">
        <ele>416.3</ele>
        <time>2010-01-17T09:36:56Z</time>
      </trkpt>
      <trkpt lat="43.50488" lon="6.83251">
        <ele>415.5</ele>
        <time>2010-01-17T09:36:58Z</time>
      </trkpt>
      <trkpt lat="43.50496" lon="6.83255">
        <ele>414.7</ele>
        <time>2010-01-17T09:37:00Z</time>
      </trkpt>
      <trkpt lat="43.50504" lon="6.83261">
        <ele>413.4</ele>
        <time>2010-01-17T09:37:02Z</time>
      </trkpt>
      <trkpt lat="43.50509" lon="6.83264">
        <ele>412.8</ele>
        <time>2010-01-17T09:37:03Z</time>
      </trkpt>
      <trkpt lat="43.50513" lon="6.83267">
        <ele>412.6</ele>
        <time>2010-01-17T09:37:04Z</time>
      </trkpt>
      <trkpt lat="43.50518" lon="6.8327">
        <ele>412.1</ele>
        <time>2010-01-17T09:37:05Z</time>
      </trkpt>
      <trkpt lat="43.50525" lon="6.83275">
        <ele>411.6</ele>
        <time>2010-01-17T09:37:07Z</time>
      </trkpt>
      <trkpt lat="43.5053" lon="6.8328">
        <ele>411.6</ele>
        <time>2010-01-17T09:37:09Z</time>
      </trkpt>
      <trkpt lat="43.50537" lon="6.83284">
        <ele>411.3</ele>
        <time>2010-01-17T09:37:11Z</time>
      </trkpt>
      <trkpt lat="43.50545" lon="6.83286">
        <ele>411.2</ele>
        <time>2010-01-17T09:37:13Z</time>
      </trkpt>
      <trkpt lat="43.50549" lon="6.83287">
        <ele>410.9</ele>
        <time>2010-01-17T09:37:36Z</time>
      </trkpt>
      <trkpt lat="43.50551" lon="6.8328">
        <ele>408.4</ele>
        <time>2010-01-17T09:37:52Z</time>
      </trkpt>
      <trkpt lat="43.50554" lon="6.83276">
        <ele>413.1</ele>
        <time>2010-01-17T09:38:04Z</time>
      </trkpt>
      <trkpt lat="43.50572" lon="6.83266">
        <ele>418.2</ele>
        <time>2010-01-17T09:38:36Z</time>
      </trkpt>
      <trkpt lat="43.50577" lon="6.83268">
        <ele>415.8</ele>
        <time>2010-01-17T09:38:46Z</time>
      </trkpt>
      <trkpt lat="43.50582" lon="6.83269">
        <ele>415.9</ele>
        <time>2010-01-17T09:38:56Z</time>
      </trkpt>
      <trkpt lat="43.50586" lon="6.83271">
        <ele>414</ele>
        <time>2010-01-17T09:38:59Z</time>
      </trkpt>
      <trkpt lat="43.5059" lon="6.83276">
        <ele>412.6</ele>
        <time>2010-01-17T09:39:02Z</time>
      </trkpt>
      <trkpt lat="43.50593" lon="6.83283">
        <ele>410.8</ele>
        <time>2010-01-17T09:39:06Z</time>
      </trkpt>
      <trkpt lat="43.50596" lon="6.83303">
        <ele>405.4</ele>
        <time>2010-01-17T09:39:34Z</time>
      </trkpt>
      <trkpt lat="43.50593" lon="6.8331">
        <ele>404.6</ele>
        <time>2010-01-17T09:39:38Z</time>
      </trkpt>
      <trkpt lat="43.50593" lon="6.83317">
        <ele>402.7</ele>
        <time>2010-01-17T09:39:40Z</time>
      </trkpt>
      <trkpt lat="43.50594" lon="6.83325">
        <ele>400</ele>
        <time>2010-01-17T09:39:43Z</time>
      </trkpt>
      <trkpt lat="43.50598" lon="6.83333">
        <ele>398.7</ele>
        <time>2010-01-17T09:39:46Z</time>
      </trkpt>
      <trkpt lat="43.50601" lon="6.83343">
        <ele>396.8</ele>
        <time>2010-01-17T09:39:48Z</time>
      </trkpt>
      <trkpt lat="43.50606" lon="6.83353">
        <ele>395.7</ele>
        <time>2010-01-17T09:39:50Z</time>
      </trkpt>
      <trkpt lat="43.50611" lon="6.8336">
        <ele>395.1</ele>
        <time>2010-01-17T09:39:52Z</time>
      </trkpt>
      <trkpt lat="43.50614" lon="6.83365">
        <ele>396.6</ele>
        <time>2010-01-17T09:40:17Z</time>
      </trkpt>
      <trkpt lat="43.50618" lon="6.83369">
        <ele>393.1</ele>
        <time>2010-01-17T09:46:13Z</time>
      </trkpt>
      <trkpt lat="43.50623" lon="6.83373">
        <ele>393.3</ele>
        <time>2010-01-17T09:46:22Z</time>
      </trkpt>
      <trkpt lat="43.50628" lon="6.8338">
        <ele>393.7</ele>
        <time>2010-01-17T09:46:25Z</time>
      </trkpt>
      <trkpt lat="43.50633" lon="6.83387">
        <ele>393.9</ele>
        <time>2010-01-17T09:46:27Z</time>
      </trkpt>
      <trkpt lat="43.50636" lon="6.83395">
        <ele>394</ele>
        <time>2010-01-17T09:46:29Z</time>
      </trkpt>
      <trkpt lat="43.5064" lon="6.83403">
        <ele>394</ele>
        <time>2010-01-17T09:46:31Z</time>
      </trkpt>
      <trkpt lat="43.50645" lon="6.83412">
        <ele>394.2</ele>
        <time>2010-01-17T09:46:33Z</time>
      </trkpt>
      <trkpt lat="43.50649" lon="6.83421">
        <ele>394.3</ele>
        <time>2010-01-17T09:46:35Z</time>
      </trkpt>
      <trkpt lat="43.50652" lon="6.8343">
        <ele>394.4</ele>
        <time>2010-01-17T09:46:37Z</time>
      </trkpt>
      <trkpt lat="43.50656" lon="6.83439">
        <ele>394.5</ele>
        <time>2010-01-17T09:46:39Z</time>
      </trkpt>
      <trkpt lat="43.50658" lon="6.83447">
        <ele>394.8</ele>
        <time>2010-01-17T09:46:41Z</time>
      </trkpt>
      <trkpt lat="43.5066" lon="6.83455">
        <ele>394.8</ele>
        <time>2010-01-17T09:46:43Z</time>
      </trkpt>
      <trkpt lat="43.50662" lon="6.83462">
        <ele>394.8</ele>
        <time>2010-01-17T09:46:45Z</time>
      </trkpt>
      <trkpt lat="43.50664" lon="6.83468">
        <ele>394.9</ele>
        <time>2010-01-17T09:46:47Z</time>
      </trkpt>
      <trkpt lat="43.50667" lon="6.83475">
        <ele>395.1</ele>
        <time>2010-01-17T09:46:49Z</time>
      </trkpt>
      <trkpt lat="43.5067" lon="6.83482">
        <ele>395.6</ele>
        <time>2010-01-17T09:46:51Z</time>
      </trkpt>
      <trkpt lat="43.50673" lon="6.83489">
        <ele>396.3</ele>
        <time>2010-01-17T09:46:53Z</time>
      </trkpt>
      <trkpt lat="43.50675" lon="6.83495">
        <ele>396.9</ele>
        <time>2010-01-17T09:46:55Z</time>
      </trkpt>
      <trkpt lat="43.50678" lon="6.83504">
        <ele>397.5</ele>
        <time>2010-01-17T09:46:58Z</time>
      </trkpt>
      <trkpt lat="43.50681" lon="6.83511">
        <ele>398.3</ele>
        <time>2010-01-17T09:47:01Z</time>
      </trkpt>
      <trkpt lat="43.50684" lon="6.8352">
        <ele>398.6</ele>
        <time>2010-01-17T09:47:04Z</time>
      </trkpt>
      <trkpt lat="43.50686" lon="6.83528">
        <ele>399</ele>
        <time>2010-01-17T09:47:07Z</time>
      </trkpt>
      <trkpt lat="43.50689" lon="6.83536">
        <ele>399.3</ele>
        <time>2010-01-17T09:47:10Z</time>
      </trkpt>
      <trkpt lat="43.50691" lon="6.83544">
        <ele>399.6</ele>
        <time>2010-01-17T09:47:13Z</time>
      </trkpt>
      <trkpt lat="43.50693" lon="6.83552">
        <ele>400</ele>
        <time>2010-01-17T09:47:16Z</time>
      </trkpt>
      <trkpt lat="43.50696" lon="6.83559">
        <ele>400.6</ele>
        <time>2010-01-17T09:47:19Z</time>
      </trkpt>
      <trkpt lat="43.50698" lon="6.83565">
        <ele>401.6</ele>
        <time>2010-01-17T09:47:22Z</time>
      </trkpt>
      <trkpt lat="43.507" lon="6.83572">
        <ele>402.7</ele>
        <time>2010-01-17T09:47:25Z</time>
      </trkpt>
      <trkpt lat="43.50703" lon="6.83579">
        <ele>403.1</ele>
        <time>2010-01-17T09:47:28Z</time>
      </trkpt>
      <trkpt lat="43.50706" lon="6.83586">
        <ele>403.7</ele>
        <time>2010-01-17T09:47:31Z</time>
      </trkpt>
      <trkpt lat="43.50709" lon="6.83593">
        <ele>404.6</ele>
        <time>2010-01-17T09:47:34Z</time>
      </trkpt>
      <trkpt lat="43.50711" lon="6.83601">
        <ele>405.2</ele>
        <time>2010-01-17T09:47:37Z</time>
      </trkpt>
      <trkpt lat="43.50714" lon="6.83609">
        <ele>405.8</ele>
        <time>2010-01-17T09:47:40Z</time>
      </trkpt>
      <trkpt lat="43.50717" lon="6.83616">
        <ele>406.2</ele>
        <time>2010-01-17T09:47:43Z</time>
      </trkpt>
      <trkpt lat="43.50719" lon="6.83624">
        <ele>406.6</ele>
        <time>2010-01-17T09:47:46Z</time>
      </trkpt>
      <trkpt lat="43.50722" lon="6.83632">
        <ele>406.9</ele>
        <time>2010-01-17T09:47:49Z</time>
      </trkpt>
      <trkpt lat="43.50725" lon="6.83639">
        <ele>407</ele>
        <time>2010-01-17T09:47:52Z</time>
      </trkpt>
      <trkpt lat="43.50728" lon="6.83647">
        <ele>407.4</ele>
        <time>2010-01-17T09:47:55Z</time>
      </trkpt>
      <trkpt lat="43.50731" lon="6.83654">
        <ele>407.4</ele>
        <time>2010-01-17T09:47:58Z</time>
      </trkpt>
      <trkpt lat="43.50735" lon="6.83662">
        <ele>407.5</ele>
        <time>2010-01-17T09:48:01Z</time>
      </trkpt>
      <trkpt lat="43.5074" lon="6.83669">
        <ele>407.8</ele>
        <time>2010-01-17T09:48:04Z</time>
      </trkpt>
      <trkpt lat="43.50744" lon="6.83676">
        <ele>408.4</ele>
        <time>2010-01-17T09:48:07Z</time>
      </trkpt>
      <trkpt lat="43.50747" lon="6.83684">
        <ele>408.7</ele>
        <time>2010-01-17T09:48:10Z</time>
      </trkpt>
      <trkpt lat="43.5075" lon="6.83691">
        <ele>409.2</ele>
        <time>2010-01-17T09:48:13Z</time>
      </trkpt>
      <trkpt lat="43.50753" lon="6.83699">
        <ele>409.7</ele>
        <time>2010-01-17T09:48:16Z</time>
      </trkpt>
      <trkpt lat="43.50756" lon="6.83707">
        <ele>409.9</ele>
        <time>2010-01-17T09:48:19Z</time>
      </trkpt>
      <trkpt lat="43.50759" lon="6.83715">
        <ele>410.1</ele>
        <time>2010-01-17T09:48:22Z</time>
      </trkpt>
      <trkpt lat="43.50761" lon="6.83723">
        <ele>410.5</ele>
        <time>2010-01-17T09:48:25Z</time>
      </trkpt>
      <trkpt lat="43.50764" lon="6.8373">
        <ele>410.9</ele>
        <time>2010-01-17T09:48:28Z</time>
      </trkpt>
      <trkpt lat="43.50766" lon="6.83737">
        <ele>411.1</ele>
        <time>2010-01-17T09:48:31Z</time>
      </trkpt>
      <trkpt lat="43.50769" lon="6.83745">
        <ele>411.2</ele>
        <time>2010-01-17T09:48:34Z</time>
      </trkpt>
      <trkpt lat="43.50772" lon="6.83751">
        <ele>411.5</ele>
        <time>2010-01-17T09:48:37Z</time>
      </trkpt>
      <trkpt lat="43.50776" lon="6.83758">
        <ele>411.7</ele>
        <time>2010-01-17T09:48:40Z</time>
      </trkpt>
      <trkpt lat="43.5078" lon="6.83764">
        <ele>411.9</ele>
        <time>2010-01-17T09:48:43Z</time>
      </trkpt>
      <trkpt lat="43.50784" lon="6.83771">
        <ele>412.1</ele>
        <time>2010-01-17T09:48:46Z</time>
      </trkpt>
      <trkpt lat="43.50788" lon="6.83777">
        <ele>412.5</ele>
        <time>2010-01-17T09:48:49Z</time>
      </trkpt>
      <trkpt lat="43.50792" lon="6.83783">
        <ele>412.9</ele>
        <time>2010-01-17T09:48:52Z</time>
      </trkpt>
      <trkpt lat="43.50796" lon="6.83789">
        <ele>413.4</ele>
        <time>2010-01-17T09:48:55Z</time>
      </trkpt>
      <trkpt lat="43.508" lon="6.83795">
        <ele>413.8</ele>
        <time>2010-01-17T09:48:58Z</time>
      </trkpt>
      <trkpt lat="43.50804" lon="6.83801">
        <ele>414.2</ele>
        <time>2010-01-17T09:49:01Z</time>
      </trkpt>
      <trkpt lat="43.50809" lon="6.83807">
        <ele>414.4</ele>
        <time>2010-01-17T09:49:04Z</time>
      </trkpt>
      <trkpt lat="43.50813" lon="6.83814">
        <ele>414.7</ele>
        <time>2010-01-17T09:49:07Z</time>
      </trkpt>
      <trkpt lat="43.50818" lon="6.83819">
        <ele>415.1</ele>
        <time>2010-01-17T09:49:10Z</time>
      </trkpt>
      <trkpt lat="43.50822" lon="6.83825">
        <ele>415.4</ele>
        <time>2010-01-17T09:49:13Z</time>
      </trkpt>
      <trkpt lat="43.50827" lon="6.83831">
        <ele>415.7</ele>
        <time>2010-01-17T09:49:16Z</time>
      </trkpt>
      <trkpt lat="43.50831" lon="6.83837">
        <ele>416.1</ele>
        <time>2010-01-17T09:49:19Z</time>
      </trkpt>
      <trkpt lat="43.50836" lon="6.83843">
        <ele>416.4</ele>
        <time>2010-01-17T09:49:22Z</time>
      </trkpt>
      <trkpt lat="43.5084" lon="6.83848">
        <ele>417</ele>
        <time>2010-01-17T09:49:25Z</time>
      </trkpt>
      <trkpt lat="43.50845" lon="6.83853">
        <ele>417.4</ele>
        <time>2010-01-17T09:49:28Z</time>
      </trkpt>
      <trkpt lat="43.50849" lon="6.83858">
        <ele>418.1</ele>
        <time>2010-01-17T09:49:31Z</time>
      </trkpt>
      <trkpt lat="43.50853" lon="6.83863">
        <ele>418.7</ele>
        <time>2010-01-17T09:49:34Z</time>
      </trkpt>
      <trkpt lat="43.50858" lon="6.83868">
        <ele>419.6</ele>
        <time>2010-01-17T09:49:37Z</time>
      </trkpt>
      <trkpt lat="43.50863" lon="6.83873">
        <ele>420.2</ele>
        <time>2010-01-17T09:49:40Z</time>
      </trkpt>
      <trkpt lat="43.50868" lon="6.83878">
        <ele>420.9</ele>
        <time>2010-01-17T09:49:43Z</time>
      </trkpt>
      <trkpt lat="43.50873" lon="6.83882">
        <ele>421.8</ele>
        <time>2010-01-17T09:49:46Z</time>
      </trkpt>
      <trkpt lat="43.50878" lon="6.83887">
        <ele>422.6</ele>
        <time>2010-01-17T09:49:49Z</time>
      </trkpt>
      <trkpt lat="43.50883" lon="6.83892">
        <ele>423.5</ele>
        <time>2010-01-17T09:49:52Z</time>
      </trkpt>
      <trkpt lat="43.50888" lon="6.83897">
        <ele>424.3</ele>
        <time>2010-01-17T09:49:55Z</time>
      </trkpt>
      <trkpt lat="43.50893" lon="6.83901">
        <ele>425.2</ele>
        <time>2010-01-17T09:49:58Z</time>
      </trkpt>
      <trkpt lat="43.50898" lon="6.83906">
        <ele>426.4</ele>
        <time>2010-01-17T09:50:01Z</time>
      </trkpt>
      <trkpt lat="43.50903" lon="6.8391">
        <ele>427.3</ele>
        <time>2010-01-17T09:50:04Z</time>
      </trkpt>
      <trkpt lat="43.50908" lon="6.83914">
        <ele>428.2</ele>
        <time>2010-01-17T09:50:07Z</time>
      </trkpt>
      <trkpt lat="43.50915" lon="6.83916">
        <ele>428.7</ele>
        <time>2010-01-17T09:50:10Z</time>
      </trkpt>
      <trkpt lat="43.50921" lon="6.83915">
        <ele>429.7</ele>
        <time>2010-01-17T09:50:13Z</time>
      </trkpt>
      <trkpt lat="43.50927" lon="6.83913">
        <ele>430.5</ele>
        <time>2010-01-17T09:50:16Z</time>
      </trkpt>
      <trkpt lat="43.50933" lon="6.83909">
        <ele>431.1</ele>
        <time>2010-01-17T09:50:19Z</time>
      </trkpt>
      <trkpt lat="43.50937" lon="6.83906">
        <ele>431.2</ele>
        <time>2010-01-17T09:50:22Z</time>
      </trkpt>
      <trkpt lat="43.50941" lon="6.83899">
        <ele>430.9</ele>
        <time>2010-01-17T09:50:25Z</time>
      </trkpt>
      <trkpt lat="43.50945" lon="6.83892">
        <ele>430.7</ele>
        <time>2010-01-17T09:50:28Z</time>
      </trkpt>
      <trkpt lat="43.50948" lon="6.83885">
        <ele>430.9</ele>
        <time>2010-01-17T09:50:31Z</time>
      </trkpt>
      <trkpt lat="43.50951" lon="6.83878">
        <ele>431</ele>
        <time>2010-01-17T09:50:34Z</time>
      </trkpt>
      <trkpt lat="43.50954" lon="6.83869">
        <ele>431.1</ele>
        <time>2010-01-17T09:50:37Z</time>
      </trkpt>
      <trkpt lat="43.50956" lon="6.83862">
        <ele>431.6</ele>
        <time>2010-01-17T09:50:40Z</time>
      </trkpt>
      <trkpt lat="43.50958" lon="6.83854">
        <ele>431.7</ele>
        <time>2010-01-17T09:50:43Z</time>
      </trkpt>
      <trkpt lat="43.50961" lon="6.83846">
        <ele>431.8</ele>
        <time>2010-01-17T09:50:46Z</time>
      </trkpt>
      <trkpt lat="43.50964" lon="6.83838">
        <ele>432.1</ele>
        <time>2010-01-17T09:50:49Z</time>
      </trkpt>
      <trkpt lat="43.50966" lon="6.83831">
        <ele>432.7</ele>
        <time>2010-01-17T09:50:52Z</time>
      </trkpt>
      <trkpt lat="43.50972" lon="6.83828">
        <ele>433.9</ele>
        <time>2010-01-17T09:50:56Z</time>
      </trkpt>
      <trkpt lat="43.50975" lon="6.83833">
        <ele>433.6</ele>
        <time>2010-01-17T09:50:59Z</time>
      </trkpt>
      <trkpt lat="43.50975" lon="6.83839">
        <ele>433.7</ele>
        <time>2010-01-17T09:51:02Z</time>
      </trkpt>
      <trkpt lat="43.50973" lon="6.83846">
        <ele>433.9</ele>
        <time>2010-01-17T09:51:05Z</time>
      </trkpt>
      <trkpt lat="43.50971" lon="6.83853">
        <ele>434.2</ele>
        <time>2010-01-17T09:51:08Z</time>
      </trkpt>
      <trkpt lat="43.50968" lon="6.83861">
        <ele>434.4</ele>
        <time>2010-01-17T09:51:11Z</time>
      </trkpt>
      <trkpt lat="43.50967" lon="6.83868">
        <ele>434.5</ele>
        <time>2010-01-17T09:51:14Z</time>
      </trkpt>
      <trkpt lat="43.50966" lon="6.83877">
        <ele>435</ele>
        <time>2010-01-17T09:51:17Z</time>
      </trkpt>
      <trkpt lat="43.50965" lon="6.83885">
        <ele>435.3</ele>
        <time>2010-01-17T09:51:20Z</time>
      </trkpt>
      <trkpt lat="43.50965" lon="6.83893">
        <ele>436</ele>
        <time>2010-01-17T09:51:23Z</time>
      </trkpt>
      <trkpt lat="43.50965" lon="6.839">
        <ele>437.1</ele>
        <time>2010-01-17T09:51:26Z</time>
      </trkpt>
      <trkpt lat="43.50964" lon="6.83907">
        <ele>438.2</ele>
        <time>2010-01-17T09:51:29Z</time>
      </trkpt>
      <trkpt lat="43.50963" lon="6.83915">
        <ele>438.8</ele>
        <time>2010-01-17T09:51:32Z</time>
      </trkpt>
      <trkpt lat="43.50961" lon="6.83923">
        <ele>439.3</ele>
        <time>2010-01-17T09:51:35Z</time>
      </trkpt>
      <trkpt lat="43.5096" lon="6.8393">
        <ele>440.1</ele>
        <time>2010-01-17T09:51:38Z</time>
      </trkpt>
      <trkpt lat="43.50958" lon="6.83938">
        <ele>440.4</ele>
        <time>2010-01-17T09:51:41Z</time>
      </trkpt>
      <trkpt lat="43.50955" lon="6.83945">
        <ele>441</ele>
        <time>2010-01-17T09:51:44Z</time>
      </trkpt>
      <trkpt lat="43.50953" lon="6.83953">
        <ele>441.5</ele>
        <time>2010-01-17T09:51:47Z</time>
      </trkpt>
      <trkpt lat="43.5095" lon="6.8396">
        <ele>442.5</ele>
        <time>2010-01-17T09:51:50Z</time>
      </trkpt>
      <trkpt lat="43.50946" lon="6.83966">
        <ele>443.6</ele>
        <time>2010-01-17T09:51:53Z</time>
      </trkpt>
      <trkpt lat="43.50943" lon="6.83972">
        <ele>444.2</ele>
        <time>2010-01-17T09:51:56Z</time>
      </trkpt>
      <trkpt lat="43.50939" lon="6.83979">
        <ele>444.7</ele>
        <time>2010-01-17T09:51:59Z</time>
      </trkpt>
      <trkpt lat="43.50935" lon="6.83985">
        <ele>445.4</ele>
        <time>2010-01-17T09:52:02Z</time>
      </trkpt>
      <trkpt lat="43.50931" lon="6.83991">
        <ele>445.3</ele>
        <time>2010-01-17T09:52:05Z</time>
      </trkpt>
      <trkpt lat="43.50927" lon="6.83996">
        <ele>445.2</ele>
        <time>2010-01-17T09:52:08Z</time>
      </trkpt>
      <trkpt lat="43.50922" lon="6.84">
        <ele>445.3</ele>
        <time>2010-01-17T09:52:11Z</time>
      </trkpt>
      <trkpt lat="43.50916" lon="6.84001">
        <ele>445.9</ele>
        <time>2010-01-17T09:52:14Z</time>
      </trkpt>
      <trkpt lat="43.5091" lon="6.84001">
        <ele>446.1</ele>
        <time>2010-01-17T09:52:17Z</time>
      </trkpt>
      <trkpt lat="43.50904" lon="6.84">
        <ele>446.2</ele>
        <time>2010-01-17T09:52:20Z</time>
      </trkpt>
      <trkpt lat="43.50898" lon="6.83999">
        <ele>446.2</ele>
        <time>2010-01-17T09:52:23Z</time>
      </trkpt>
      <trkpt lat="43.50892" lon="6.83997">
        <ele>446.8</ele>
        <time>2010-01-17T09:52:26Z</time>
      </trkpt>
      <trkpt lat="43.50886" lon="6.83996">
        <ele>447</ele>
        <time>2010-01-17T09:52:29Z</time>
      </trkpt>
      <trkpt lat="43.50881" lon="6.83994">
        <ele>447.7</ele>
        <time>2010-01-17T09:52:32Z</time>
      </trkpt>
      <trkpt lat="43.50875" lon="6.83991">
        <ele>448.2</ele>
        <time>2010-01-17T09:52:35Z</time>
      </trkpt>
      <trkpt lat="43.5087" lon="6.83988">
        <ele>448.6</ele>
        <time>2010-01-17T09:52:38Z</time>
      </trkpt>
      <trkpt lat="43.50864" lon="6.83985">
        <ele>449.2</ele>
        <time>2010-01-17T09:52:41Z</time>
      </trkpt>
      <trkpt lat="43.50859" lon="6.83982">
        <ele>449.1</ele>
        <time>2010-01-17T09:52:43Z</time>
      </trkpt>
      <trkpt lat="43.50853" lon="6.83979">
        <ele>449.4</ele>
        <time>2010-01-17T09:52:46Z</time>
      </trkpt>
      <trkpt lat="43.50847" lon="6.83977">
        <ele>449.7</ele>
        <time>2010-01-17T09:52:49Z</time>
      </trkpt>
      <trkpt lat="43.50841" lon="6.83973">
        <ele>450</ele>
        <time>2010-01-17T09:52:52Z</time>
      </trkpt>
      <trkpt lat="43.50835" lon="6.8397">
        <ele>450.6</ele>
        <time>2010-01-17T09:52:55Z</time>
      </trkpt>
      <trkpt lat="43.50829" lon="6.83969">
        <ele>451.4</ele>
        <time>2010-01-17T09:52:58Z</time>
      </trkpt>
      <trkpt lat="43.50823" lon="6.83967">
        <ele>452.2</ele>
        <time>2010-01-17T09:53:01Z</time>
      </trkpt>
      <trkpt lat="43.50817" lon="6.83967">
        <ele>452.7</ele>
        <time>2010-01-17T09:53:04Z</time>
      </trkpt>
      <trkpt lat="43.50811" lon="6.83966">
        <ele>453.1</ele>
        <time>2010-01-17T09:53:07Z</time>
      </trkpt>
      <trkpt lat="43.50805" lon="6.83967">
        <ele>453.5</ele>
        <time>2010-01-17T09:53:10Z</time>
      </trkpt>
      <trkpt lat="43.50799" lon="6.83967">
        <ele>453.8</ele>
        <time>2010-01-17T09:53:13Z</time>
      </trkpt>
      <trkpt lat="43.50793" lon="6.83964">
        <ele>454.2</ele>
        <time>2010-01-17T09:53:16Z</time>
      </trkpt>
      <trkpt lat="43.50786" lon="6.83963">
        <ele>454.6</ele>
        <time>2010-01-17T09:53:19Z</time>
      </trkpt>
      <trkpt lat="43.5078" lon="6.8396">
        <ele>455.1</ele>
        <time>2010-01-17T09:53:22Z</time>
      </trkpt>
      <trkpt lat="43.50774" lon="6.8396">
        <ele>455.7</ele>
        <time>2010-01-17T09:53:25Z</time>
      </trkpt>
      <trkpt lat="43.50768" lon="6.8396">
        <ele>456.3</ele>
        <time>2010-01-17T09:53:28Z</time>
      </trkpt>
      <trkpt lat="43.50762" lon="6.83959">
        <ele>457</ele>
        <time>2010-01-17T09:53:31Z</time>
      </trkpt>
      <trkpt lat="43.50756" lon="6.83959">
        <ele>457.6</ele>
        <time>2010-01-17T09:53:34Z</time>
      </trkpt>
      <trkpt lat="43.5075" lon="6.83959">
        <ele>458.4</ele>
        <time>2010-01-17T09:53:37Z</time>
      </trkpt>
      <trkpt lat="43.50744" lon="6.83959">
        <ele>459</ele>
        <time>2010-01-17T09:53:40Z</time>
      </trkpt>
      <trkpt lat="43.50738" lon="6.83961">
        <ele>459.6</ele>
        <time>2010-01-17T09:53:43Z</time>
      </trkpt>
      <trkpt lat="43.50732" lon="6.83965">
        <ele>460.1</ele>
        <time>2010-01-17T09:53:46Z</time>
      </trkpt>
      <trkpt lat="43.50727" lon="6.83971">
        <ele>460.4</ele>
        <time>2010-01-17T09:53:49Z</time>
      </trkpt>
      <trkpt lat="43.50722" lon="6.83978">
        <ele>460.6</ele>
        <time>2010-01-17T09:53:52Z</time>
      </trkpt>
      <trkpt lat="43.50719" lon="6.83986">
        <ele>460.8</ele>
        <time>2010-01-17T09:53:55Z</time>
      </trkpt>
      <trkpt lat="43.50716" lon="6.83994">
        <ele>461.1</ele>
        <time>2010-01-17T09:53:58Z</time>
      </trkpt>
      <trkpt lat="43.50715" lon="6.84003">
        <ele>461.5</ele>
        <time>2010-01-17T09:54:01Z</time>
      </trkpt>
      <trkpt lat="43.50714" lon="6.84012">
        <ele>461.8</ele>
        <time>2010-01-17T09:54:04Z</time>
      </trkpt>
      <trkpt lat="43.50714" lon="6.84021">
        <ele>462.2</ele>
        <time>2010-01-17T09:54:07Z</time>
      </trkpt>
      <trkpt lat="43.50713" lon="6.8403">
        <ele>462.7</ele>
        <time>2010-01-17T09:54:10Z</time>
      </trkpt>
      <trkpt lat="43.50713" lon="6.84039">
        <ele>463.2</ele>
        <time>2010-01-17T09:54:13Z</time>
      </trkpt>
      <trkpt lat="43.50713" lon="6.84048">
        <ele>463.7</ele>
        <time>2010-01-17T09:54:16Z</time>
      </trkpt>
      <trkpt lat="43.50714" lon="6.84057">
        <ele>464.4</ele>
        <time>2010-01-17T09:54:19Z</time>
      </trkpt>
      <trkpt lat="43.50715" lon="6.84063">
        <ele>464.8</ele>
        <time>2010-01-17T09:54:21Z</time>
      </trkpt>
      <trkpt lat="43.50716" lon="6.84072">
        <ele>465.4</ele>
        <time>2010-01-17T09:54:24Z</time>
      </trkpt>
      <trkpt lat="43.50717" lon="6.84079">
        <ele>465.8</ele>
        <time>2010-01-17T09:54:26Z</time>
      </trkpt>
      <trkpt lat="43.50718" lon="6.84088">
        <ele>466.5</ele>
        <time>2010-01-17T09:54:29Z</time>
      </trkpt>
      <trkpt lat="43.5072" lon="6.84096">
        <ele>467</ele>
        <time>2010-01-17T09:54:32Z</time>
      </trkpt>
      <trkpt lat="43.50723" lon="6.84104">
        <ele>467.4</ele>
        <time>2010-01-17T09:54:35Z</time>
      </trkpt>
      <trkpt lat="43.50727" lon="6.8411">
        <ele>468</ele>
        <time>2010-01-17T09:54:38Z</time>
      </trkpt>
      <trkpt lat="43.50731" lon="6.84117">
        <ele>468.5</ele>
        <time>2010-01-17T09:54:41Z</time>
      </trkpt>
      <trkpt lat="43.50737" lon="6.84121">
        <ele>469.2</ele>
        <time>2010-01-17T09:54:44Z</time>
      </trkpt>
      <trkpt lat="43.50741" lon="6.84124">
        <ele>469.5</ele>
        <time>2010-01-17T09:54:46Z</time>
      </trkpt>
      <trkpt lat="43.50747" lon="6.84129">
        <ele>470.3</ele>
        <time>2010-01-17T09:54:49Z</time>
      </trkpt>
      <trkpt lat="43.50751" lon="6.84133">
        <ele>470.5</ele>
        <time>2010-01-17T09:54:51Z</time>
      </trkpt>
      <trkpt lat="43.50755" lon="6.84136">
        <ele>470.4</ele>
        <time>2010-01-17T09:54:53Z</time>
      </trkpt>
      <trkpt lat="43.50759" lon="6.8414">
        <ele>470.6</ele>
        <time>2010-01-17T09:54:55Z</time>
      </trkpt>
      <trkpt lat="43.50765" lon="6.84145">
        <ele>472.2</ele>
        <time>2010-01-17T09:54:58Z</time>
      </trkpt>
      <trkpt lat="43.50771" lon="6.8415">
        <ele>472.7</ele>
        <time>2010-01-17T09:55:01Z</time>
      </trkpt>
      <trkpt lat="43.50775" lon="6.84153">
        <ele>472.7</ele>
        <time>2010-01-17T09:55:03Z</time>
      </trkpt>
      <trkpt lat="43.50782" lon="6.84157">
        <ele>472.9</ele>
        <time>2010-01-17T09:55:06Z</time>
      </trkpt>
      <trkpt lat="43.50787" lon="6.84161">
        <ele>472.8</ele>
        <time>2010-01-17T09:55:09Z</time>
      </trkpt>
      <trkpt lat="43.50792" lon="6.84163">
        <ele>475.3</ele>
        <time>2010-01-17T09:58:18Z</time>
      </trkpt>
      <trkpt lat="43.50797" lon="6.84168">
        <ele>474.9</ele>
        <time>2010-01-17T09:58:21Z</time>
      </trkpt>
      <trkpt lat="43.50801" lon="6.84174">
        <ele>474.7</ele>
        <time>2010-01-17T09:58:24Z</time>
      </trkpt>
      <trkpt lat="43.50804" lon="6.84179">
        <ele>474.5</ele>
        <time>2010-01-17T09:58:26Z</time>
      </trkpt>
      <trkpt lat="43.50807" lon="6.84185">
        <ele>474.3</ele>
        <time>2010-01-17T09:58:28Z</time>
      </trkpt>
      <trkpt lat="43.5081" lon="6.84191">
        <ele>473.7</ele>
        <time>2010-01-17T09:58:30Z</time>
      </trkpt>
      <trkpt lat="43.50812" lon="6.84198">
        <ele>473.1</ele>
        <time>2010-01-17T09:58:32Z</time>
      </trkpt>
      <trkpt lat="43.50813" lon="6.84206">
        <ele>472.4</ele>
        <time>2010-01-17T09:58:34Z</time>
      </trkpt>
      <trkpt lat="43.50815" lon="6.84213">
        <ele>471.6</ele>
        <time>2010-01-17T09:58:36Z</time>
      </trkpt>
      <trkpt lat="43.50816" lon="6.84221">
        <ele>470.9</ele>
        <time>2010-01-17T09:58:38Z</time>
      </trkpt>
      <trkpt lat="43.50818" lon="6.84228">
        <ele>470.4</ele>
        <time>2010-01-17T09:58:40Z</time>
      </trkpt>
      <trkpt lat="43.50822" lon="6.84234">
        <ele>470.1</ele>
        <time>2010-01-17T09:58:42Z</time>
      </trkpt>
      <trkpt lat="43.50825" lon="6.8424">
        <ele>469.6</ele>
        <time>2010-01-17T09:58:44Z</time>
      </trkpt>
      <trkpt lat="43.5083" lon="6.84246">
        <ele>469.5</ele>
        <time>2010-01-17T09:58:46Z</time>
      </trkpt>
      <trkpt lat="43.50835" lon="6.84251">
        <ele>469</ele>
        <time>2010-01-17T09:58:48Z</time>
      </trkpt>
      <trkpt lat="43.5084" lon="6.84257">
        <ele>468.7</ele>
        <time>2010-01-17T09:58:50Z</time>
      </trkpt>
      <trkpt lat="43.50844" lon="6.84263">
        <ele>468.3</ele>
        <time>2010-01-17T09:58:52Z</time>
      </trkpt>
      <trkpt lat="43.50848" lon="6.8427">
        <ele>468.2</ele>
        <time>2010-01-17T09:58:54Z</time>
      </trkpt>
      <trkpt lat="43.50851" lon="6.84277">
        <ele>467.9</ele>
        <time>2010-01-17T09:58:56Z</time>
      </trkpt>
      <trkpt lat="43.50853" lon="6.84287">
        <ele>467.4</ele>
        <time>2010-01-17T09:58:58Z</time>
      </trkpt>
      <trkpt lat="43.50855" lon="6.84296">
        <ele>467.1</ele>
        <time>2010-01-17T09:59:00Z</time>
      </trkpt>
      <trkpt lat="43.50855" lon="6.84306">
        <ele>466.9</ele>
        <time>2010-01-17T09:59:02Z</time>
      </trkpt>
      <trkpt lat="43.50855" lon="6.84317">
        <ele>466.6</ele>
        <time>2010-01-17T09:59:04Z</time>
      </trkpt>
      <trkpt lat="43.50854" lon="6.84327">
        <ele>466.3</ele>
        <time>2010-01-17T09:59:06Z</time>
      </trkpt>
      <trkpt lat="43.50852" lon="6.84338">
        <ele>466.2</ele>
        <time>2010-01-17T09:59:08Z</time>
      </trkpt>
      <trkpt lat="43.5085" lon="6.84348">
        <ele>466.5</ele>
        <time>2010-01-17T09:59:10Z</time>
      </trkpt>
      <trkpt lat="43.50848" lon="6.84359">
        <ele>466.1</ele>
        <time>2010-01-17T09:59:12Z</time>
      </trkpt>
      <trkpt lat="43.50846" lon="6.8437">
        <ele>465.7</ele>
        <time>2010-01-17T09:59:14Z</time>
      </trkpt>
      <trkpt lat="43.50843" lon="6.84381">
        <ele>465.5</ele>
        <time>2010-01-17T09:59:16Z</time>
      </trkpt>
      <trkpt lat="43.50837" lon="6.8439">
        <ele>465.2</ele>
        <time>2010-01-17T09:59:18Z</time>
      </trkpt>
      <trkpt lat="43.50831" lon="6.84397">
        <ele>464.8</ele>
        <time>2010-01-17T09:59:20Z</time>
      </trkpt>
      <trkpt lat="43.50825" lon="6.84405">
        <ele>465.2</ele>
        <time>2010-01-17T09:59:22Z</time>
      </trkpt>
      <trkpt lat="43.50817" lon="6.84411">
        <ele>465.1</ele>
        <time>2010-01-17T09:59:24Z</time>
      </trkpt>
      <trkpt lat="43.5081" lon="6.84418">
        <ele>464.5</ele>
        <time>2010-01-17T09:59:26Z</time>
      </trkpt>
      <trkpt lat="43.50803" lon="6.84424">
        <ele>463.9</ele>
        <time>2010-01-17T09:59:28Z</time>
      </trkpt>
      <trkpt lat="43.50796" lon="6.8443">
        <ele>462.9</ele>
        <time>2010-01-17T09:59:30Z</time>
      </trkpt>
      <trkpt lat="43.50788" lon="6.84435">
        <ele>462.1</ele>
        <time>2010-01-17T09:59:32Z</time>
      </trkpt>
      <trkpt lat="43.50779" lon="6.8444">
        <ele>461.2</ele>
        <time>2010-01-17T09:59:34Z</time>
      </trkpt>
      <trkpt lat="43.50775" lon="6.84442">
        <ele>460.8</ele>
        <time>2010-01-17T09:59:35Z</time>
      </trkpt>
      <trkpt lat="43.5077" lon="6.84444">
        <ele>460.5</ele>
        <time>2010-01-17T09:59:36Z</time>
      </trkpt>
      <trkpt lat="43.50765" lon="6.84445">
        <ele>460.1</ele>
        <time>2010-01-17T09:59:37Z</time>
      </trkpt>
      <trkpt lat="43.5076" lon="6.84446">
        <ele>459.8</ele>
        <time>2010-01-17T09:59:38Z</time>
      </trkpt>
      <trkpt lat="43.50751" lon="6.84448">
        <ele>459</ele>
        <time>2010-01-17T09:59:40Z</time>
      </trkpt>
      <trkpt lat="43.50743" lon="6.84453">
        <ele>458.1</ele>
        <time>2010-01-17T09:59:42Z</time>
      </trkpt>
      <trkpt lat="43.50736" lon="6.8446">
        <ele>457.5</ele>
        <time>2010-01-17T09:59:44Z</time>
      </trkpt>
      <trkpt lat="43.50732" lon="6.8447">
        <ele>456.7</ele>
        <time>2010-01-17T09:59:46Z</time>
      </trkpt>
      <trkpt lat="43.5073" lon="6.8448">
        <ele>456.1</ele>
        <time>2010-01-17T09:59:48Z</time>
      </trkpt>
      <trkpt lat="43.50727" lon="6.84491">
        <ele>455.6</ele>
        <time>2010-01-17T09:59:50Z</time>
      </trkpt>
      <trkpt lat="43.50722" lon="6.845">
        <ele>455.2</ele>
        <time>2010-01-17T09:59:52Z</time>
      </trkpt>
      <trkpt lat="43.50714" lon="6.84505">
        <ele>454.7</ele>
        <time>2010-01-17T09:59:54Z</time>
      </trkpt>
      <trkpt lat="43.50705" lon="6.84506">
        <ele>454</ele>
        <time>2010-01-17T09:59:56Z</time>
      </trkpt>
      <trkpt lat="43.507" lon="6.84506">
        <ele>453.4</ele>
        <time>2010-01-17T09:59:57Z</time>
      </trkpt>
      <trkpt lat="43.50695" lon="6.84507">
        <ele>453</ele>
        <time>2010-01-17T09:59:58Z</time>
      </trkpt>
      <trkpt lat="43.5069" lon="6.84507">
        <ele>452.6</ele>
        <time>2010-01-17T09:59:59Z</time>
      </trkpt>
      <trkpt lat="43.50685" lon="6.84506">
        <ele>452.4</ele>
        <time>2010-01-17T10:00:00Z</time>
      </trkpt>
      <trkpt lat="43.50677" lon="6.845">
        <ele>452</ele>
        <time>2010-01-17T10:00:02Z</time>
      </trkpt>
      <trkpt lat="43.5067" lon="6.84492">
        <ele>451.2</ele>
        <time>2010-01-17T10:00:04Z</time>
      </trkpt>
      <trkpt lat="43.50667" lon="6.84488">
        <ele>450.8</ele>
        <time>2010-01-17T10:00:05Z</time>
      </trkpt>
      <trkpt lat="43.50659" lon="6.84482">
        <ele>450.1</ele>
        <time>2010-01-17T10:00:07Z</time>
      </trkpt>
      <trkpt lat="43.50654" lon="6.8448">
        <ele>449.8</ele>
        <time>2010-01-17T10:00:08Z</time>
      </trkpt>
      <trkpt lat="43.50645" lon="6.84479">
        <ele>448.8</ele>
        <time>2010-01-17T10:00:10Z</time>
      </trkpt>
      <trkpt lat="43.5064" lon="6.84481">
        <ele>448.4</ele>
        <time>2010-01-17T10:00:11Z</time>
      </trkpt>
      <trkpt lat="43.50634" lon="6.84483">
        <ele>447.8</ele>
        <time>2010-01-17T10:00:12Z</time>
      </trkpt>
      <trkpt lat="43.50629" lon="6.84486">
        <ele>447.4</ele>
        <time>2010-01-17T10:00:13Z</time>
      </trkpt>
      <trkpt lat="43.50623" lon="6.8449">
        <ele>446.9</ele>
        <time>2010-01-17T10:00:14Z</time>
      </trkpt>
      <trkpt lat="43.50618" lon="6.84494">
        <ele>446.5</ele>
        <time>2010-01-17T10:00:15Z</time>
      </trkpt>
      <trkpt lat="43.50613" lon="6.84499">
        <ele>446</ele>
        <time>2010-01-17T10:00:16Z</time>
      </trkpt>
      <trkpt lat="43.50608" lon="6.84505">
        <ele>445.5</ele>
        <time>2010-01-17T10:00:17Z</time>
      </trkpt>
      <trkpt lat="43.50603" lon="6.84511">
        <ele>445.1</ele>
        <time>2010-01-17T10:00:18Z</time>
      </trkpt>
      <trkpt lat="43.50599" lon="6.84518">
        <ele>444.6</ele>
        <time>2010-01-17T10:00:19Z</time>
      </trkpt>
      <trkpt lat="43.50595" lon="6.84523">
        <ele>444.3</ele>
        <time>2010-01-17T10:00:20Z</time>
      </trkpt>
      <trkpt lat="43.50591" lon="6.84529">
        <ele>443.8</ele>
        <time>2010-01-17T10:00:21Z</time>
      </trkpt>
      <trkpt lat="43.50587" lon="6.84535">
        <ele>443.4</ele>
        <time>2010-01-17T10:00:22Z</time>
      </trkpt>
      <trkpt lat="43.50583" lon="6.84542">
        <ele>443.2</ele>
        <time>2010-01-17T10:00:23Z</time>
      </trkpt>
      <trkpt lat="43.50581" lon="6.84549">
        <ele>442.8</ele>
        <time>2010-01-17T10:00:24Z</time>
      </trkpt>
      <trkpt lat="43.5058" lon="6.84556">
        <ele>442.5</ele>
        <time>2010-01-17T10:00:25Z</time>
      </trkpt>
      <trkpt lat="43.50579" lon="6.84564">
        <ele>442.2</ele>
        <time>2010-01-17T10:00:26Z</time>
      </trkpt>
      <trkpt lat="43.50578" lon="6.84571">
        <ele>442</ele>
        <time>2010-01-17T10:00:27Z</time>
      </trkpt>
      <trkpt lat="43.50576" lon="6.84582">
        <ele>441.5</ele>
        <time>2010-01-17T10:00:29Z</time>
      </trkpt>
      <trkpt lat="43.50571" lon="6.84587">
        <ele>441.2</ele>
        <time>2010-01-17T10:00:31Z</time>
      </trkpt>
      <trkpt lat="43.50565" lon="6.84587">
        <ele>441.3</ele>
        <time>2010-01-17T10:00:33Z</time>
      </trkpt>
      <trkpt lat="43.5056" lon="6.8458">
        <ele>441.3</ele>
        <time>2010-01-17T10:00:35Z</time>
      </trkpt>
      <trkpt lat="43.50557" lon="6.8457">
        <ele>441.1</ele>
        <time>2010-01-17T10:00:37Z</time>
      </trkpt>
      <trkpt lat="43.50553" lon="6.8456">
        <ele>440.7</ele>
        <time>2010-01-17T10:00:39Z</time>
      </trkpt>
      <trkpt lat="43.5055" lon="6.84555">
        <ele>440.5</ele>
        <time>2010-01-17T10:00:40Z</time>
      </trkpt>
      <trkpt lat="43.50546" lon="6.8455">
        <ele>440.3</ele>
        <time>2010-01-17T10:00:41Z</time>
      </trkpt>
      <trkpt lat="43.50539" lon="6.84545">
        <ele>439.8</ele>
        <time>2010-01-17T10:00:43Z</time>
      </trkpt>
      <trkpt lat="43.50533" lon="6.84542">
        <ele>439.1</ele>
        <time>2010-01-17T10:00:45Z</time>
      </trkpt>
      <trkpt lat="43.50525" lon="6.84541">
        <ele>438.3</ele>
        <time>2010-01-17T10:00:47Z</time>
      </trkpt>
      <trkpt lat="43.50516" lon="6.84542">
        <ele>437.2</ele>
        <time>2010-01-17T10:00:49Z</time>
      </trkpt>
      <trkpt lat="43.50511" lon="6.84545">
        <ele>436.9</ele>
        <time>2010-01-17T10:00:50Z</time>
      </trkpt>
      <trkpt lat="43.50505" lon="6.84548">
        <ele>436.3</ele>
        <time>2010-01-17T10:00:51Z</time>
      </trkpt>
      <trkpt lat="43.50499" lon="6.84552">
        <ele>435.8</ele>
        <time>2010-01-17T10:00:52Z</time>
      </trkpt>
      <trkpt lat="43.50492" lon="6.84556">
        <ele>435.3</ele>
        <time>2010-01-17T10:00:53Z</time>
      </trkpt>
      <trkpt lat="43.50486" lon="6.84561">
        <ele>434.7</ele>
        <time>2010-01-17T10:00:54Z</time>
      </trkpt>
      <trkpt lat="43.50478" lon="6.84566">
        <ele>434.3</ele>
        <time>2010-01-17T10:00:55Z</time>
      </trkpt>
      <trkpt lat="43.50471" lon="6.84571">
        <ele>433.8</ele>
        <time>2010-01-17T10:00:56Z</time>
      </trkpt>
      <trkpt lat="43.50464" lon="6.84576">
        <ele>433.2</ele>
        <time>2010-01-17T10:00:57Z</time>
      </trkpt>
      <trkpt lat="43.50457" lon="6.84582">
        <ele>432.7</ele>
        <time>2010-01-17T10:00:58Z</time>
      </trkpt>
      <trkpt lat="43.50451" lon="6.84587">
        <ele>432.3</ele>
        <time>2010-01-17T10:00:59Z</time>
      </trkpt>
      <trkpt lat="43.50446" lon="6.84592">
        <ele>432</ele>
        <time>2010-01-17T10:01:00Z</time>
      </trkpt>
      <trkpt lat="43.50441" lon="6.84597">
        <ele>431.9</ele>
        <time>2010-01-17T10:01:02Z</time>
      </trkpt>
      <trkpt lat="43.50443" lon="6.84605">
        <ele>430.5</ele>
        <time>2010-01-17T10:09:57Z</time>
      </trkpt>
      <trkpt lat="43.50443" lon="6.84613">
        <ele>430.6</ele>
        <time>2010-01-17T10:10:01Z</time>
      </trkpt>
      <trkpt lat="43.50445" lon="6.84622">
        <ele>430.6</ele>
        <time>2010-01-17T10:10:04Z</time>
      </trkpt>
      <trkpt lat="43.50445" lon="6.84632">
        <ele>430.4</ele>
        <time>2010-01-17T10:10:07Z</time>
      </trkpt>
      <trkpt lat="43.50445" lon="6.8464">
        <ele>430.5</ele>
        <time>2010-01-17T10:10:09Z</time>
      </trkpt>
      <trkpt lat="43.50445" lon="6.84647">
        <ele>430.6</ele>
        <time>2010-01-17T10:10:11Z</time>
      </trkpt>
      <trkpt lat="43.50444" lon="6.84654">
        <ele>430.5</ele>
        <time>2010-01-17T10:10:13Z</time>
      </trkpt>
      <trkpt lat="43.50444" lon="6.84662">
        <ele>430.6</ele>
        <time>2010-01-17T10:10:15Z</time>
      </trkpt>
      <trkpt lat="43.50444" lon="6.8467">
        <ele>430.7</ele>
        <time>2010-01-17T10:10:17Z</time>
      </trkpt>
      <trkpt lat="43.50444" lon="6.8468">
        <ele>430.8</ele>
        <time>2010-01-17T10:10:19Z</time>
      </trkpt>
      <trkpt lat="43.50445" lon="6.8469">
        <ele>431</ele>
        <time>2010-01-17T10:10:21Z</time>
      </trkpt>
      <trkpt lat="43.50445" lon="6.847">
        <ele>431.3</ele>
        <time>2010-01-17T10:10:23Z</time>
      </trkpt>
      <trkpt lat="43.50445" lon="6.84709">
        <ele>431.5</ele>
        <time>2010-01-17T10:10:25Z</time>
      </trkpt>
      <trkpt lat="43.50445" lon="6.8472">
        <ele>431.6</ele>
        <time>2010-01-17T10:10:27Z</time>
      </trkpt>
      <trkpt lat="43.50446" lon="6.84732">
        <ele>431.6</ele>
        <time>2010-01-17T10:10:29Z</time>
      </trkpt>
      <trkpt lat="43.50448" lon="6.84742">
        <ele>431.5</ele>
        <time>2010-01-17T10:10:31Z</time>
      </trkpt>
      <trkpt lat="43.5045" lon="6.84752">
        <ele>431.4</ele>
        <time>2010-01-17T10:10:33Z</time>
      </trkpt>
      <trkpt lat="43.50451" lon="6.84761">
        <ele>431.6</ele>
        <time>2010-01-17T10:10:35Z</time>
      </trkpt>
      <trkpt lat="43.50454" lon="6.8477">
        <ele>431.3</ele>
        <time>2010-01-17T10:10:37Z</time>
      </trkpt>
      <trkpt lat="43.50458" lon="6.8478">
        <ele>431.1</ele>
        <time>2010-01-17T10:10:39Z</time>
      </trkpt>
      <trkpt lat="43.50464" lon="6.84788">
        <ele>430.8</ele>
        <time>2010-01-17T10:10:41Z</time>
      </trkpt>
      <trkpt lat="43.50469" lon="6.84798">
        <ele>430.6</ele>
        <time>2010-01-17T10:10:43Z</time>
      </trkpt>
      <trkpt lat="43.50471" lon="6.84809">
        <ele>430.7</ele>
        <time>2010-01-17T10:10:45Z</time>
      </trkpt>
      <trkpt lat="43.50471" lon="6.8482">
        <ele>430.5</ele>
        <time>2010-01-17T10:10:47Z</time>
      </trkpt>
      <trkpt lat="43.50469" lon="6.84831">
        <ele>430.6</ele>
        <time>2010-01-17T10:10:49Z</time>
      </trkpt>
      <trkpt lat="43.50467" lon="6.84842">
        <ele>430.4</ele>
        <time>2010-01-17T10:10:51Z</time>
      </trkpt>
      <trkpt lat="43.50465" lon="6.84853">
        <ele>430.3</ele>
        <time>2010-01-17T10:10:53Z</time>
      </trkpt>
      <trkpt lat="43.50464" lon="6.84865">
        <ele>430</ele>
        <time>2010-01-17T10:10:55Z</time>
      </trkpt>
      <trkpt lat="43.50465" lon="6.84876">
        <ele>429.6</ele>
        <time>2010-01-17T10:10:57Z</time>
      </trkpt>
      <trkpt lat="43.50467" lon="6.84887">
        <ele>429.4</ele>
        <time>2010-01-17T10:10:59Z</time>
      </trkpt>
      <trkpt lat="43.5047" lon="6.84897">
        <ele>429.2</ele>
        <time>2010-01-17T10:11:01Z</time>
      </trkpt>
      <trkpt lat="43.50475" lon="6.84905">
        <ele>429.2</ele>
        <time>2010-01-17T10:11:03Z</time>
      </trkpt>
      <trkpt lat="43.50479" lon="6.84913">
        <ele>428.8</ele>
        <time>2010-01-17T10:11:05Z</time>
      </trkpt>
      <trkpt lat="43.50485" lon="6.8492">
        <ele>428.3</ele>
        <time>2010-01-17T10:11:07Z</time>
      </trkpt>
      <trkpt lat="43.50491" lon="6.84926">
        <ele>427.9</ele>
        <time>2010-01-17T10:11:09Z</time>
      </trkpt>
      <trkpt lat="43.50496" lon="6.84932">
        <ele>427.7</ele>
        <time>2010-01-17T10:11:11Z</time>
      </trkpt>
      <trkpt lat="43.505" lon="6.84941">
        <ele>427.5</ele>
        <time>2010-01-17T10:11:13Z</time>
      </trkpt>
      <trkpt lat="43.50498" lon="6.84951">
        <ele>427.8</ele>
        <time>2010-01-17T10:11:15Z</time>
      </trkpt>
      <trkpt lat="43.50493" lon="6.8496">
        <ele>427.8</ele>
        <time>2010-01-17T10:11:17Z</time>
      </trkpt>
      <trkpt lat="43.50486" lon="6.84966">
        <ele>427.8</ele>
        <time>2010-01-17T10:11:19Z</time>
      </trkpt>
      <trkpt lat="43.50479" lon="6.84973">
        <ele>428.1</ele>
        <time>2010-01-17T10:11:21Z</time>
      </trkpt>
      <trkpt lat="43.50476" lon="6.84977">
        <ele>428.2</ele>
        <time>2010-01-17T10:11:22Z</time>
      </trkpt>
      <trkpt lat="43.50472" lon="6.8498">
        <ele>428.2</ele>
        <time>2010-01-17T10:11:23Z</time>
      </trkpt>
      <trkpt lat="43.50467" lon="6.84983">
        <ele>427.8</ele>
        <time>2010-01-17T10:11:24Z</time>
      </trkpt>
      <trkpt lat="43.50462" lon="6.84986">
        <ele>427.2</ele>
        <time>2010-01-17T10:11:25Z</time>
      </trkpt>
      <trkpt lat="43.50457" lon="6.84987">
        <ele>426.7</ele>
        <time>2010-01-17T10:11:26Z</time>
      </trkpt>
      <trkpt lat="43.50452" lon="6.84988">
        <ele>426.5</ele>
        <time>2010-01-17T10:11:27Z</time>
      </trkpt>
      <trkpt lat="43.50446" lon="6.84988">
        <ele>426</ele>
        <time>2010-01-17T10:11:28Z</time>
      </trkpt>
      <trkpt lat="43.50441" lon="6.84987">
        <ele>425.5</ele>
        <time>2010-01-17T10:11:29Z</time>
      </trkpt>
      <trkpt lat="43.50436" lon="6.84987">
        <ele>425.1</ele>
        <time>2010-01-17T10:11:30Z</time>
      </trkpt>
      <trkpt lat="43.5043" lon="6.84987">
        <ele>424.6</ele>
        <time>2010-01-17T10:11:31Z</time>
      </trkpt>
      <trkpt lat="43.50425" lon="6.84986">
        <ele>424.4</ele>
        <time>2010-01-17T10:11:32Z</time>
      </trkpt>
      <trkpt lat="43.50419" lon="6.84986">
        <ele>423.7</ele>
        <time>2010-01-17T10:11:33Z</time>
      </trkpt>
      <trkpt lat="43.50414" lon="6.84985">
        <ele>423.4</ele>
        <time>2010-01-17T10:11:34Z</time>
      </trkpt>
      <trkpt lat="43.50409" lon="6.84985">
        <ele>423.4</ele>
        <time>2010-01-17T10:11:35Z</time>
      </trkpt>
      <trkpt lat="43.50404" lon="6.84984">
        <ele>422.7</ele>
        <time>2010-01-17T10:11:36Z</time>
      </trkpt>
      <trkpt lat="43.50399" lon="6.84984">
        <ele>422.4</ele>
        <time>2010-01-17T10:11:37Z</time>
      </trkpt>
      <trkpt lat="43.50391" lon="6.84984">
        <ele>421.9</ele>
        <time>2010-01-17T10:11:39Z</time>
      </trkpt>
      <trkpt lat="43.50382" lon="6.84985">
        <ele>421.5</ele>
        <time>2010-01-17T10:11:41Z</time>
      </trkpt>
      <trkpt lat="43.50375" lon="6.8499">
        <ele>420.8</ele>
        <time>2010-01-17T10:11:43Z</time>
      </trkpt>
      <trkpt lat="43.50371" lon="6.85">
        <ele>420.1</ele>
        <time>2010-01-17T10:11:45Z</time>
      </trkpt>
      <trkpt lat="43.50371" lon="6.85012">
        <ele>419.5</ele>
        <time>2010-01-17T10:11:47Z</time>
      </trkpt>
      <trkpt lat="43.50374" lon="6.85024">
        <ele>418.6</ele>
        <time>2010-01-17T10:11:49Z</time>
      </trkpt>
      <trkpt lat="43.50376" lon="6.85031">
        <ele>418.1</ele>
        <time>2010-01-17T10:11:50Z</time>
      </trkpt>
      <trkpt lat="43.50379" lon="6.85037">
        <ele>417.8</ele>
        <time>2010-01-17T10:11:51Z</time>
      </trkpt>
      <trkpt lat="43.50382" lon="6.85043">
        <ele>417.5</ele>
        <time>2010-01-17T10:11:52Z</time>
      </trkpt>
      <trkpt lat="43.50385" lon="6.85048">
        <ele>417</ele>
        <time>2010-01-17T10:11:53Z</time>
      </trkpt>
      <trkpt lat="43.50389" lon="6.85053">
        <ele>416.5</ele>
        <time>2010-01-17T10:11:54Z</time>
      </trkpt>
      <trkpt lat="43.50392" lon="6.85058">
        <ele>416.2</ele>
        <time>2010-01-17T10:11:55Z</time>
      </trkpt>
      <trkpt lat="43.50396" lon="6.85064">
        <ele>415.9</ele>
        <time>2010-01-17T10:11:56Z</time>
      </trkpt>
      <trkpt lat="43.50399" lon="6.85071">
        <ele>415.5</ele>
        <time>2010-01-17T10:11:57Z</time>
      </trkpt>
      <trkpt lat="43.50401" lon="6.85078">
        <ele>415.1</ele>
        <time>2010-01-17T10:11:58Z</time>
      </trkpt>
      <trkpt lat="43.50404" lon="6.85085">
        <ele>414.7</ele>
        <time>2010-01-17T10:11:59Z</time>
      </trkpt>
      <trkpt lat="43.50406" lon="6.85093">
        <ele>414.4</ele>
        <time>2010-01-17T10:12:00Z</time>
      </trkpt>
      <trkpt lat="43.50408" lon="6.85101">
        <ele>414.1</ele>
        <time>2010-01-17T10:12:01Z</time>
      </trkpt>
      <trkpt lat="43.50411" lon="6.8511">
        <ele>413.7</ele>
        <time>2010-01-17T10:12:02Z</time>
      </trkpt>
      <trkpt lat="43.50413" lon="6.85119">
        <ele>413.2</ele>
        <time>2010-01-17T10:12:03Z</time>
      </trkpt>
      <trkpt lat="43.50416" lon="6.85129">
        <ele>412.6</ele>
        <time>2010-01-17T10:12:04Z</time>
      </trkpt>
      <trkpt lat="43.50419" lon="6.85139">
        <ele>412.1</ele>
        <time>2010-01-17T10:12:05Z</time>
      </trkpt>
      <trkpt lat="43.50421" lon="6.85149">
        <ele>411.4</ele>
        <time>2010-01-17T10:12:06Z</time>
      </trkpt>
      <trkpt lat="43.50424" lon="6.85159">
        <ele>410.7</ele>
        <time>2010-01-17T10:12:07Z</time>
      </trkpt>
      <trkpt lat="43.50427" lon="6.8517">
        <ele>410.1</ele>
        <time>2010-01-17T10:12:08Z</time>
      </trkpt>
      <trkpt lat="43.5043" lon="6.8518">
        <ele>409.4</ele>
        <time>2010-01-17T10:12:09Z</time>
      </trkpt>
      <trkpt lat="43.50432" lon="6.85189">
        <ele>408.8</ele>
        <time>2010-01-17T10:12:10Z</time>
      </trkpt>
      <trkpt lat="43.50434" lon="6.85198">
        <ele>408.3</ele>
        <time>2010-01-17T10:12:11Z</time>
      </trkpt>
      <trkpt lat="43.50434" lon="6.85207">
        <ele>407.7</ele>
        <time>2010-01-17T10:12:12Z</time>
      </trkpt>
      <trkpt lat="43.50433" lon="6.85217">
        <ele>407.1</ele>
        <time>2010-01-17T10:12:13Z</time>
      </trkpt>
      <trkpt lat="43.50429" lon="6.85225">
        <ele>406.6</ele>
        <time>2010-01-17T10:12:14Z</time>
      </trkpt>
      <trkpt lat="43.50425" lon="6.85231">
        <ele>406</ele>
        <time>2010-01-17T10:12:15Z</time>
      </trkpt>
      <trkpt lat="43.5042" lon="6.85236">
        <ele>405.6</ele>
        <time>2010-01-17T10:12:16Z</time>
      </trkpt>
      <trkpt lat="43.50415" lon="6.85239">
        <ele>405.1</ele>
        <time>2010-01-17T10:12:17Z</time>
      </trkpt>
      <trkpt lat="43.50409" lon="6.8524">
        <ele>404.5</ele>
        <time>2010-01-17T10:12:18Z</time>
      </trkpt>
      <trkpt lat="43.50404" lon="6.85241">
        <ele>404</ele>
        <time>2010-01-17T10:12:19Z</time>
      </trkpt>
      <trkpt lat="43.50396" lon="6.85241">
        <ele>403.4</ele>
        <time>2010-01-17T10:12:21Z</time>
      </trkpt>
      <trkpt lat="43.50388" lon="6.8524">
        <ele>402.9</ele>
        <time>2010-01-17T10:12:23Z</time>
      </trkpt>
      <trkpt lat="43.50383" lon="6.85241">
        <ele>402.6</ele>
        <time>2010-01-17T10:12:24Z</time>
      </trkpt>
      <trkpt lat="43.50378" lon="6.85243">
        <ele>402.2</ele>
        <time>2010-01-17T10:12:25Z</time>
      </trkpt>
      <trkpt lat="43.50372" lon="6.85246">
        <ele>401.7</ele>
        <time>2010-01-17T10:12:26Z</time>
      </trkpt>
      <trkpt lat="43.50367" lon="6.85249">
        <ele>401.4</ele>
        <time>2010-01-17T10:12:27Z</time>
      </trkpt>
      <trkpt lat="43.50362" lon="6.85252">
        <ele>401.2</ele>
        <time>2010-01-17T10:12:28Z</time>
      </trkpt>
      <trkpt lat="43.50356" lon="6.85256">
        <ele>401.1</ele>
        <time>2010-01-17T10:12:29Z</time>
      </trkpt>
      <trkpt lat="43.5035" lon="6.85259">
        <ele>400.5</ele>
        <time>2010-01-17T10:12:30Z</time>
      </trkpt>
      <trkpt lat="43.50344" lon="6.85264">
        <ele>400</ele>
        <time>2010-01-17T10:12:31Z</time>
      </trkpt>
      <trkpt lat="43.50337" lon="6.85268">
        <ele>399.6</ele>
        <time>2010-01-17T10:12:32Z</time>
      </trkpt>
      <trkpt lat="43.50331" lon="6.85273">
        <ele>399.4</ele>
        <time>2010-01-17T10:12:33Z</time>
      </trkpt>
      <trkpt lat="43.50325" lon="6.85278">
        <ele>398.9</ele>
        <time>2010-01-17T10:12:34Z</time>
      </trkpt>
      <trkpt lat="43.50319" lon="6.85283">
        <ele>398.4</ele>
        <time>2010-01-17T10:12:35Z</time>
      </trkpt>
      <trkpt lat="43.50313" lon="6.8529">
        <ele>398</ele>
        <time>2010-01-17T10:12:36Z</time>
      </trkpt>
      <trkpt lat="43.50309" lon="6.85297">
        <ele>397.5</ele>
        <time>2010-01-17T10:12:37Z</time>
      </trkpt>
      <trkpt lat="43.50305" lon="6.85306">
        <ele>396.8</ele>
        <time>2010-01-17T10:12:38Z</time>
      </trkpt>
      <trkpt lat="43.50302" lon="6.85315">
        <ele>396.1</ele>
        <time>2010-01-17T10:12:39Z</time>
      </trkpt>
      <trkpt lat="43.503" lon="6.85324">
        <ele>395.5</ele>
        <time>2010-01-17T10:12:40Z</time>
      </trkpt>
      <trkpt lat="43.50298" lon="6.85334">
        <ele>395</ele>
        <time>2010-01-17T10:12:41Z</time>
      </trkpt>
      <trkpt lat="43.50298" lon="6.85344">
        <ele>394.4</ele>
        <time>2010-01-17T10:12:42Z</time>
      </trkpt>
      <trkpt lat="43.50298" lon="6.85354">
        <ele>393.6</ele>
        <time>2010-01-17T10:12:43Z</time>
      </trkpt>
      <trkpt lat="43.50298" lon="6.85363">
        <ele>393</ele>
        <time>2010-01-17T10:12:44Z</time>
      </trkpt>
      <trkpt lat="43.50298" lon="6.85373">
        <ele>392.4</ele>
        <time>2010-01-17T10:12:45Z</time>
      </trkpt>
      <trkpt lat="43.50297" lon="6.85383">
        <ele>392</ele>
        <time>2010-01-17T10:12:46Z</time>
      </trkpt>
      <trkpt lat="43.50297" lon="6.85394">
        <ele>391.5</ele>
        <time>2010-01-17T10:12:47Z</time>
      </trkpt>
      <trkpt lat="43.50296" lon="6.85405">
        <ele>391.1</ele>
        <time>2010-01-17T10:12:48Z</time>
      </trkpt>
      <trkpt lat="43.50294" lon="6.85416">
        <ele>390.7</ele>
        <time>2010-01-17T10:12:49Z</time>
      </trkpt>
      <trkpt lat="43.50293" lon="6.85426">
        <ele>390.5</ele>
        <time>2010-01-17T10:12:50Z</time>
      </trkpt>
      <trkpt lat="43.50291" lon="6.85437">
        <ele>390.2</ele>
        <time>2010-01-17T10:12:51Z</time>
      </trkpt>
      <trkpt lat="43.50288" lon="6.85447">
        <ele>389.9</ele>
        <time>2010-01-17T10:12:52Z</time>
      </trkpt>
      <trkpt lat="43.50285" lon="6.85457">
        <ele>389.4</ele>
        <time>2010-01-17T10:12:53Z</time>
      </trkpt>
      <trkpt lat="43.50283" lon="6.85468">
        <ele>389.1</ele>
        <time>2010-01-17T10:12:54Z</time>
      </trkpt>
      <trkpt lat="43.5028" lon="6.85478">
        <ele>388.8</ele>
        <time>2010-01-17T10:12:55Z</time>
      </trkpt>
      <trkpt lat="43.50279" lon="6.85488">
        <ele>388.5</ele>
        <time>2010-01-17T10:12:56Z</time>
      </trkpt>
      <trkpt lat="43.50278" lon="6.85498">
        <ele>388.3</ele>
        <time>2010-01-17T10:12:57Z</time>
      </trkpt>
      <trkpt lat="43.50278" lon="6.85507">
        <ele>388.1</ele>
        <time>2010-01-17T10:12:58Z</time>
      </trkpt>
      <trkpt lat="43.50277" lon="6.85517">
        <ele>388.2</ele>
        <time>2010-01-17T10:12:59Z</time>
      </trkpt>
      <trkpt lat="43.50278" lon="6.85526">
        <ele>388.1</ele>
        <time>2010-01-17T10:13:00Z</time>
      </trkpt>
      <trkpt lat="43.50278" lon="6.85535">
        <ele>388.1</ele>
        <time>2010-01-17T10:13:01Z</time>
      </trkpt>
      <trkpt lat="43.5028" lon="6.85544">
        <ele>388.2</ele>
        <time>2010-01-17T10:13:02Z</time>
      </trkpt>
      <trkpt lat="43.50282" lon="6.85553">
        <ele>388.5</ele>
        <time>2010-01-17T10:13:03Z</time>
      </trkpt>
      <trkpt lat="43.50283" lon="6.85562">
        <ele>388.8</ele>
        <time>2010-01-17T10:13:04Z</time>
      </trkpt>
      <trkpt lat="43.50285" lon="6.8557">
        <ele>388.8</ele>
        <time>2010-01-17T10:13:05Z</time>
      </trkpt>
      <trkpt lat="43.50287" lon="6.85578">
        <ele>389</ele>
        <time>2010-01-17T10:13:06Z</time>
      </trkpt>
      <trkpt lat="43.50289" lon="6.85586">
        <ele>389</ele>
        <time>2010-01-17T10:13:07Z</time>
      </trkpt>
      <trkpt lat="43.5029" lon="6.85594">
        <ele>389</ele>
        <time>2010-01-17T10:13:08Z</time>
      </trkpt>
      <trkpt lat="43.50293" lon="6.85602">
        <ele>389</ele>
        <time>2010-01-17T10:13:09Z</time>
      </trkpt>
      <trkpt lat="43.50295" lon="6.8561">
        <ele>389.1</ele>
        <time>2010-01-17T10:13:10Z</time>
      </trkpt>
      <trkpt lat="43.50296" lon="6.85617">
        <ele>388.9</ele>
        <time>2010-01-17T10:13:11Z</time>
      </trkpt>
      <trkpt lat="43.50297" lon="6.85625">
        <ele>388.5</ele>
        <time>2010-01-17T10:13:12Z</time>
      </trkpt>
      <trkpt lat="43.50297" lon="6.85633">
        <ele>388.2</ele>
        <time>2010-01-17T10:13:13Z</time>
      </trkpt>
      <trkpt lat="43.50297" lon="6.85642">
        <ele>387.8</ele>
        <time>2010-01-17T10:13:14Z</time>
      </trkpt>
      <trkpt lat="43.50296" lon="6.85651">
        <ele>387</ele>
        <time>2010-01-17T10:13:15Z</time>
      </trkpt>
      <trkpt lat="43.50294" lon="6.85659">
        <ele>386.6</ele>
        <time>2010-01-17T10:13:16Z</time>
      </trkpt>
      <trkpt lat="43.50293" lon="6.85668">
        <ele>386.2</ele>
        <time>2010-01-17T10:13:17Z</time>
      </trkpt>
      <trkpt lat="43.50291" lon="6.85677">
        <ele>385.8</ele>
        <time>2010-01-17T10:13:18Z</time>
      </trkpt>
      <trkpt lat="43.50288" lon="6.85685">
        <ele>385.2</ele>
        <time>2010-01-17T10:13:19Z</time>
      </trkpt>
      <trkpt lat="43.50285" lon="6.85692">
        <ele>384.6</ele>
        <time>2010-01-17T10:13:20Z</time>
      </trkpt>
      <trkpt lat="43.50281" lon="6.85699">
        <ele>384.2</ele>
        <time>2010-01-17T10:13:21Z</time>
      </trkpt>
      <trkpt lat="43.50278" lon="6.85707">
        <ele>383.6</ele>
        <time>2010-01-17T10:13:22Z</time>
      </trkpt>
      <trkpt lat="43.50276" lon="6.85714">
        <ele>383.2</ele>
        <time>2010-01-17T10:13:23Z</time>
      </trkpt>
      <trkpt lat="43.50275" lon="6.85721">
        <ele>383</ele>
        <time>2010-01-17T10:13:24Z</time>
      </trkpt>
      <trkpt lat="43.50275" lon="6.85728">
        <ele>382.8</ele>
        <time>2010-01-17T10:13:25Z</time>
      </trkpt>
      <trkpt lat="43.50275" lon="6.85734">
        <ele>382.6</ele>
        <time>2010-01-17T10:13:26Z</time>
      </trkpt>
      <trkpt lat="43.50278" lon="6.85746">
        <ele>382.7</ele>
        <time>2010-01-17T10:13:28Z</time>
      </trkpt>
      <trkpt lat="43.50281" lon="6.85757">
        <ele>383.2</ele>
        <time>2010-01-17T10:13:30Z</time>
      </trkpt>
      <trkpt lat="43.50284" lon="6.85766">
        <ele>383.4</ele>
        <time>2010-01-17T10:13:32Z</time>
      </trkpt>
      <trkpt lat="43.50287" lon="6.85776">
        <ele>383.9</ele>
        <time>2010-01-17T10:13:34Z</time>
      </trkpt>
      <trkpt lat="43.50291" lon="6.85785">
        <ele>384.3</ele>
        <time>2010-01-17T10:13:36Z</time>
      </trkpt>
      <trkpt lat="43.50295" lon="6.85794">
        <ele>384.2</ele>
        <time>2010-01-17T10:13:38Z</time>
      </trkpt>
      <trkpt lat="43.503" lon="6.85806">
        <ele>383.9</ele>
        <time>2010-01-17T10:13:40Z</time>
      </trkpt>
      <trkpt lat="43.50302" lon="6.85812">
        <ele>383.9</ele>
        <time>2010-01-17T10:13:41Z</time>
      </trkpt>
      <trkpt lat="43.50305" lon="6.85818">
        <ele>383.7</ele>
        <time>2010-01-17T10:13:42Z</time>
      </trkpt>
      <trkpt lat="43.50308" lon="6.85825">
        <ele>383.5</ele>
        <time>2010-01-17T10:13:43Z</time>
      </trkpt>
      <trkpt lat="43.50311" lon="6.85832">
        <ele>383.2</ele>
        <time>2010-01-17T10:13:44Z</time>
      </trkpt>
      <trkpt lat="43.50314" lon="6.85839">
        <ele>383</ele>
        <time>2010-01-17T10:13:45Z</time>
      </trkpt>
      <trkpt lat="43.50317" lon="6.85846">
        <ele>382.8</ele>
        <time>2010-01-17T10:13:46Z</time>
      </trkpt>
      <trkpt lat="43.5032" lon="6.85854">
        <ele>382.6</ele>
        <time>2010-01-17T10:13:47Z</time>
      </trkpt>
      <trkpt lat="43.50323" lon="6.85862">
        <ele>382.4</ele>
        <time>2010-01-17T10:13:48Z</time>
      </trkpt>
      <trkpt lat="43.50326" lon="6.8587">
        <ele>382.2</ele>
        <time>2010-01-17T10:13:49Z</time>
      </trkpt>
      <trkpt lat="43.50329" lon="6.85878">
        <ele>382.1</ele>
        <time>2010-01-17T10:13:50Z</time>
      </trkpt>
      <trkpt lat="43.50332" lon="6.85887">
        <ele>381.7</ele>
        <time>2010-01-17T10:13:51Z</time>
      </trkpt>
      <trkpt lat="43.50334" lon="6.85895">
        <ele>381.6</ele>
        <time>2010-01-17T10:13:52Z</time>
      </trkpt>
      <trkpt lat="43.50336" lon="6.85904">
        <ele>381.2</ele>
        <time>2010-01-17T10:13:53Z</time>
      </trkpt>
      <trkpt lat="43.50338" lon="6.85913">
        <ele>381</ele>
        <time>2010-01-17T10:13:54Z</time>
      </trkpt>
      <trkpt lat="43.50341" lon="6.85922">
        <ele>380.9</ele>
        <time>2010-01-17T10:13:55Z</time>
      </trkpt>
      <trkpt lat="43.50343" lon="6.8593">
        <ele>380.9</ele>
        <time>2010-01-17T10:13:56Z</time>
      </trkpt>
      <trkpt lat="43.50345" lon="6.85939">
        <ele>380.9</ele>
        <time>2010-01-17T10:13:57Z</time>
      </trkpt>
      <trkpt lat="43.50347" lon="6.85948">
        <ele>380.6</ele>
        <time>2010-01-17T10:13:58Z</time>
      </trkpt>
      <trkpt lat="43.5035" lon="6.85957">
        <ele>380.1</ele>
        <time>2010-01-17T10:13:59Z</time>
      </trkpt>
      <trkpt lat="43.50352" lon="6.85966">
        <ele>379.6</ele>
        <time>2010-01-17T10:14:00Z</time>
      </trkpt>
      <trkpt lat="43.50355" lon="6.85974">
        <ele>379.3</ele>
        <time>2010-01-17T10:14:01Z</time>
      </trkpt>
      <trkpt lat="43.50358" lon="6.85983">
        <ele>379</ele>
        <time>2010-01-17T10:14:02Z</time>
      </trkpt>
      <trkpt lat="43.50361" lon="6.85991">
        <ele>378.7</ele>
        <time>2010-01-17T10:14:03Z</time>
      </trkpt>
      <trkpt lat="43.50364" lon="6.86">
        <ele>378.6</ele>
        <time>2010-01-17T10:14:04Z</time>
      </trkpt>
      <trkpt lat="43.50366" lon="6.86009">
        <ele>378.5</ele>
        <time>2010-01-17T10:14:05Z</time>
      </trkpt>
      <trkpt lat="43.5037" lon="6.86017">
        <ele>378.3</ele>
        <time>2010-01-17T10:14:06Z</time>
      </trkpt>
      <trkpt lat="43.50374" lon="6.86024">
        <ele>378.3</ele>
        <time>2010-01-17T10:14:07Z</time>
      </trkpt>
      <trkpt lat="43.50377" lon="6.8603">
        <ele>378.1</ele>
        <time>2010-01-17T10:14:08Z</time>
      </trkpt>
      <trkpt lat="43.50381" lon="6.86036">
        <ele>378</ele>
        <time>2010-01-17T10:14:09Z</time>
      </trkpt>
      <trkpt lat="43.50384" lon="6.86041">
        <ele>378</ele>
        <time>2010-01-17T10:14:10Z</time>
      </trkpt>
      <trkpt lat="43.5039" lon="6.8605">
        <ele>377.7</ele>
        <time>2010-01-17T10:14:12Z</time>
      </trkpt>
      <trkpt lat="43.50393" lon="6.86056">
        <ele>377.5</ele>
        <time>2010-01-17T10:14:13Z</time>
      </trkpt>
      <trkpt lat="43.50396" lon="6.86061">
        <ele>377.4</ele>
        <time>2010-01-17T10:14:14Z</time>
      </trkpt>
      <trkpt lat="43.50398" lon="6.86067">
        <ele>377.1</ele>
        <time>2010-01-17T10:14:15Z</time>
      </trkpt>
      <trkpt lat="43.50403" lon="6.86079">
        <ele>376.6</ele>
        <time>2010-01-17T10:14:17Z</time>
      </trkpt>
      <trkpt lat="43.50404" lon="6.86086">
        <ele>376.3</ele>
        <time>2010-01-17T10:14:18Z</time>
      </trkpt>
      <trkpt lat="43.50406" lon="6.86093">
        <ele>376.1</ele>
        <time>2010-01-17T10:14:19Z</time>
      </trkpt>
      <trkpt lat="43.50407" lon="6.86101">
        <ele>375.9</ele>
        <time>2010-01-17T10:14:20Z</time>
      </trkpt>
      <trkpt lat="43.50409" lon="6.86109">
        <ele>375.6</ele>
        <time>2010-01-17T10:14:21Z</time>
      </trkpt>
      <trkpt lat="43.50412" lon="6.86117">
        <ele>375.2</ele>
        <time>2010-01-17T10:14:22Z</time>
      </trkpt>
      <trkpt lat="43.50415" lon="6.86125">
        <ele>374.8</ele>
        <time>2010-01-17T10:14:23Z</time>
      </trkpt>
      <trkpt lat="43.50418" lon="6.86132">
        <ele>374.2</ele>
        <time>2010-01-17T10:14:24Z</time>
      </trkpt>
      <trkpt lat="43.50421" lon="6.8614">
        <ele>373.4</ele>
        <time>2010-01-17T10:14:25Z</time>
      </trkpt>
      <trkpt lat="43.50423" lon="6.86146">
        <ele>373.1</ele>
        <time>2010-01-17T10:14:26Z</time>
      </trkpt>
      <trkpt lat="43.50426" lon="6.86153">
        <ele>372.5</ele>
        <time>2010-01-17T10:14:27Z</time>
      </trkpt>
      <trkpt lat="43.50429" lon="6.86161">
        <ele>372</ele>
        <time>2010-01-17T10:14:28Z</time>
      </trkpt>
      <trkpt lat="43.50431" lon="6.86169">
        <ele>371.6</ele>
        <time>2010-01-17T10:14:29Z</time>
      </trkpt>
      <trkpt lat="43.50432" lon="6.86176">
        <ele>371.2</ele>
        <time>2010-01-17T10:14:30Z</time>
      </trkpt>
      <trkpt lat="43.50433" lon="6.86184">
        <ele>370.8</ele>
        <time>2010-01-17T10:14:31Z</time>
      </trkpt>
      <trkpt lat="43.50433" lon="6.86192">
        <ele>370.4</ele>
        <time>2010-01-17T10:14:32Z</time>
      </trkpt>
      <trkpt lat="43.5043" lon="6.86199">
        <ele>370.2</ele>
        <time>2010-01-17T10:14:33Z</time>
      </trkpt>
      <trkpt lat="43.50428" lon="6.86205">
        <ele>370</ele>
        <time>2010-01-17T10:14:34Z</time>
      </trkpt>
      <trkpt lat="43.50425" lon="6.86211">
        <ele>369.7</ele>
        <time>2010-01-17T10:14:35Z</time>
      </trkpt>
      <trkpt lat="43.50422" lon="6.86216">
        <ele>369.4</ele>
        <time>2010-01-17T10:14:36Z</time>
      </trkpt>
      <trkpt lat="43.50418" lon="6.86222">
        <ele>369.3</ele>
        <time>2010-01-17T10:14:37Z</time>
      </trkpt>
      <trkpt lat="43.50415" lon="6.86227">
        <ele>369.2</ele>
        <time>2010-01-17T10:14:38Z</time>
      </trkpt>
      <trkpt lat="43.50413" lon="6.86233">
        <ele>369.1</ele>
        <time>2010-01-17T10:14:39Z</time>
      </trkpt>
      <trkpt lat="43.50412" lon="6.86239">
        <ele>368.9</ele>
        <time>2010-01-17T10:14:40Z</time>
      </trkpt>
      <trkpt lat="43.50414" lon="6.86251">
        <ele>368.4</ele>
        <time>2010-01-17T10:14:42Z</time>
      </trkpt>
      <trkpt lat="43.50417" lon="6.86257">
        <ele>368.4</ele>
        <time>2010-01-17T10:14:43Z</time>
      </trkpt>
      <trkpt lat="43.5042" lon="6.86262">
        <ele>368.3</ele>
        <time>2010-01-17T10:14:44Z</time>
      </trkpt>
      <trkpt lat="43.50424" lon="6.86268">
        <ele>368.2</ele>
        <time>2010-01-17T10:14:45Z</time>
      </trkpt>
      <trkpt lat="43.50428" lon="6.86274">
        <ele>368</ele>
        <time>2010-01-17T10:14:46Z</time>
      </trkpt>
      <trkpt lat="43.50431" lon="6.8628">
        <ele>367.9</ele>
        <time>2010-01-17T10:14:47Z</time>
      </trkpt>
      <trkpt lat="43.50434" lon="6.86287">
        <ele>367.8</ele>
        <time>2010-01-17T10:14:48Z</time>
      </trkpt>
      <trkpt lat="43.50437" lon="6.86294">
        <ele>367.7</ele>
        <time>2010-01-17T10:14:49Z</time>
      </trkpt>
      <trkpt lat="43.5044" lon="6.86301">
        <ele>367.5</ele>
        <time>2010-01-17T10:14:50Z</time>
      </trkpt>
      <trkpt lat="43.50443" lon="6.86308">
        <ele>367.2</ele>
        <time>2010-01-17T10:14:51Z</time>
      </trkpt>
      <trkpt lat="43.50446" lon="6.86315">
        <ele>367</ele>
        <time>2010-01-17T10:14:52Z</time>
      </trkpt>
      <trkpt lat="43.50449" lon="6.86321">
        <ele>366.7</ele>
        <time>2010-01-17T10:14:53Z</time>
      </trkpt>
      <trkpt lat="43.50452" lon="6.86328">
        <ele>366.4</ele>
        <time>2010-01-17T10:14:54Z</time>
      </trkpt>
      <trkpt lat="43.50454" lon="6.86334">
        <ele>366.2</ele>
        <time>2010-01-17T10:14:55Z</time>
      </trkpt>
      <trkpt lat="43.50456" lon="6.86341">
        <ele>366</ele>
        <time>2010-01-17T10:14:56Z</time>
      </trkpt>
      <trkpt lat="43.50456" lon="6.86348">
        <ele>365.8</ele>
        <time>2010-01-17T10:14:57Z</time>
      </trkpt>
      <trkpt lat="43.50456" lon="6.86354">
        <ele>365.6</ele>
        <time>2010-01-17T10:14:58Z</time>
      </trkpt>
      <trkpt lat="43.50456" lon="6.86366">
        <ele>365.2</ele>
        <time>2010-01-17T10:15:00Z</time>
      </trkpt>
      <trkpt lat="43.50455" lon="6.86378">
        <ele>364.8</ele>
        <time>2010-01-17T10:15:02Z</time>
      </trkpt>
      <trkpt lat="43.50455" lon="6.86389">
        <ele>364.6</ele>
        <time>2010-01-17T10:15:04Z</time>
      </trkpt>
      <trkpt lat="43.50454" lon="6.86398">
        <ele>364.3</ele>
        <time>2010-01-17T10:15:06Z</time>
      </trkpt>
      <trkpt lat="43.5045" lon="6.86396">
        <ele>367.2</ele>
        <time>2010-01-17T10:16:24Z</time>
      </trkpt>
      <trkpt lat="43.50451" lon="6.86402">
        <ele>363.8</ele>
        <time>2010-01-17T10:20:17Z</time>
      </trkpt>
      <trkpt lat="43.50445" lon="6.86404">
        <ele>363.4</ele>
        <time>2010-01-17T10:20:20Z</time>
      </trkpt>
      <trkpt lat="43.5044" lon="6.86407">
        <ele>363.1</ele>
        <time>2010-01-17T10:20:22Z</time>
      </trkpt>
      <trkpt lat="43.50434" lon="6.86411">
        <ele>362.3</ele>
        <time>2010-01-17T10:20:24Z</time>
      </trkpt>
      <trkpt lat="43.50427" lon="6.86416">
        <ele>361.5</ele>
        <time>2010-01-17T10:20:26Z</time>
      </trkpt>
      <trkpt lat="43.5042" lon="6.86422">
        <ele>360.4</ele>
        <time>2010-01-17T10:20:28Z</time>
      </trkpt>
      <trkpt lat="43.50415" lon="6.86425">
        <ele>359.8</ele>
        <time>2010-01-17T10:20:29Z</time>
      </trkpt>
      <trkpt lat="43.50411" lon="6.86429">
        <ele>359.2</ele>
        <time>2010-01-17T10:20:30Z</time>
      </trkpt>
      <trkpt lat="43.50406" lon="6.86433">
        <ele>358.6</ele>
        <time>2010-01-17T10:20:31Z</time>
      </trkpt>
      <trkpt lat="43.504" lon="6.86436">
        <ele>358</ele>
        <time>2010-01-17T10:20:32Z</time>
      </trkpt>
      <trkpt lat="43.50394" lon="6.86439">
        <ele>357.2</ele>
        <time>2010-01-17T10:20:33Z</time>
      </trkpt>
      <trkpt lat="43.50389" lon="6.86442">
        <ele>356.6</ele>
        <time>2010-01-17T10:20:34Z</time>
      </trkpt>
      <trkpt lat="43.50383" lon="6.86444">
        <ele>356</ele>
        <time>2010-01-17T10:20:35Z</time>
      </trkpt>
      <trkpt lat="43.50377" lon="6.86446">
        <ele>355.5</ele>
        <time>2010-01-17T10:20:36Z</time>
      </trkpt>
      <trkpt lat="43.50371" lon="6.86448">
        <ele>355</ele>
        <time>2010-01-17T10:20:37Z</time>
      </trkpt>
      <trkpt lat="43.50365" lon="6.8645">
        <ele>354.5</ele>
        <time>2010-01-17T10:20:38Z</time>
      </trkpt>
      <trkpt lat="43.50359" lon="6.86451">
        <ele>353.9</ele>
        <time>2010-01-17T10:20:39Z</time>
      </trkpt>
      <trkpt lat="43.50352" lon="6.86453">
        <ele>353.2</ele>
        <time>2010-01-17T10:20:40Z</time>
      </trkpt>
      <trkpt lat="43.50345" lon="6.86454">
        <ele>352.5</ele>
        <time>2010-01-17T10:20:41Z</time>
      </trkpt>
      <trkpt lat="43.50338" lon="6.86456">
        <ele>351.8</ele>
        <time>2010-01-17T10:20:42Z</time>
      </trkpt>
      <trkpt lat="43.50331" lon="6.86458">
        <ele>351.1</ele>
        <time>2010-01-17T10:20:43Z</time>
      </trkpt>
      <trkpt lat="43.50324" lon="6.8646">
        <ele>350.5</ele>
        <time>2010-01-17T10:20:44Z</time>
      </trkpt>
      <trkpt lat="43.50317" lon="6.86463">
        <ele>349.9</ele>
        <time>2010-01-17T10:20:45Z</time>
      </trkpt>
      <trkpt lat="43.50311" lon="6.86466">
        <ele>349.4</ele>
        <time>2010-01-17T10:20:46Z</time>
      </trkpt>
      <trkpt lat="43.50305" lon="6.8647">
        <ele>348.8</ele>
        <time>2010-01-17T10:20:47Z</time>
      </trkpt>
      <trkpt lat="43.50299" lon="6.86475">
        <ele>348.3</ele>
        <time>2010-01-17T10:20:48Z</time>
      </trkpt>
      <trkpt lat="43.50294" lon="6.86481">
        <ele>347.7</ele>
        <time>2010-01-17T10:20:49Z</time>
      </trkpt>
      <trkpt lat="43.50289" lon="6.86486">
        <ele>347</ele>
        <time>2010-01-17T10:20:50Z</time>
      </trkpt>
      <trkpt lat="43.50283" lon="6.86492">
        <ele>346.4</ele>
        <time>2010-01-17T10:20:51Z</time>
      </trkpt>
      <trkpt lat="43.50277" lon="6.86498">
        <ele>345.7</ele>
        <time>2010-01-17T10:20:52Z</time>
      </trkpt>
      <trkpt lat="43.50271" lon="6.86503">
        <ele>345</ele>
        <time>2010-01-17T10:20:53Z</time>
      </trkpt>
      <trkpt lat="43.50265" lon="6.86508">
        <ele>344.4</ele>
        <time>2010-01-17T10:20:54Z</time>
      </trkpt>
      <trkpt lat="43.50259" lon="6.86511">
        <ele>343.8</ele>
        <time>2010-01-17T10:20:55Z</time>
      </trkpt>
      <trkpt lat="43.50252" lon="6.86514">
        <ele>343.3</ele>
        <time>2010-01-17T10:20:56Z</time>
      </trkpt>
      <trkpt lat="43.50245" lon="6.86515">
        <ele>342.8</ele>
        <time>2010-01-17T10:20:57Z</time>
      </trkpt>
      <trkpt lat="43.50238" lon="6.86515">
        <ele>342.3</ele>
        <time>2010-01-17T10:20:58Z</time>
      </trkpt>
      <trkpt lat="43.50232" lon="6.86513">
        <ele>341.6</ele>
        <time>2010-01-17T10:20:59Z</time>
      </trkpt>
      <trkpt lat="43.50227" lon="6.86511">
        <ele>341.4</ele>
        <time>2010-01-17T10:21:00Z</time>
      </trkpt>
      <trkpt lat="43.50221" lon="6.86509">
        <ele>341.1</ele>
        <time>2010-01-17T10:21:01Z</time>
      </trkpt>
      <trkpt lat="43.50216" lon="6.86506">
        <ele>340.7</ele>
        <time>2010-01-17T10:21:02Z</time>
      </trkpt>
      <trkpt lat="43.50211" lon="6.86502">
        <ele>340.1</ele>
        <time>2010-01-17T10:21:03Z</time>
      </trkpt>
      <trkpt lat="43.50207" lon="6.86496">
        <ele>339.7</ele>
        <time>2010-01-17T10:21:04Z</time>
      </trkpt>
      <trkpt lat="43.50203" lon="6.86488">
        <ele>339.2</ele>
        <time>2010-01-17T10:21:05Z</time>
      </trkpt>
      <trkpt lat="43.50199" lon="6.86481">
        <ele>338.7</ele>
        <time>2010-01-17T10:21:06Z</time>
      </trkpt>
      <trkpt lat="43.50196" lon="6.86474">
        <ele>338.4</ele>
        <time>2010-01-17T10:21:07Z</time>
      </trkpt>
      <trkpt lat="43.50193" lon="6.86467">
        <ele>338.1</ele>
        <time>2010-01-17T10:21:08Z</time>
      </trkpt>
      <trkpt lat="43.50191" lon="6.8646">
        <ele>337.9</ele>
        <time>2010-01-17T10:21:09Z</time>
      </trkpt>
      <trkpt lat="43.50189" lon="6.86453">
        <ele>337.9</ele>
        <time>2010-01-17T10:21:10Z</time>
      </trkpt>
      <trkpt lat="43.50186" lon="6.86445">
        <ele>337.9</ele>
        <time>2010-01-17T10:21:11Z</time>
      </trkpt>
      <trkpt lat="43.50184" lon="6.86437">
        <ele>338</ele>
        <time>2010-01-17T10:21:12Z</time>
      </trkpt>
      <trkpt lat="43.50181" lon="6.86428">
        <ele>338</ele>
        <time>2010-01-17T10:21:13Z</time>
      </trkpt>
      <trkpt lat="43.50178" lon="6.86419">
        <ele>338</ele>
        <time>2010-01-17T10:21:14Z</time>
      </trkpt>
      <trkpt lat="43.50174" lon="6.8641">
        <ele>337.9</ele>
        <time>2010-01-17T10:21:15Z</time>
      </trkpt>
      <trkpt lat="43.5017" lon="6.86402">
        <ele>337.2</ele>
        <time>2010-01-17T10:21:16Z</time>
      </trkpt>
      <trkpt lat="43.50167" lon="6.86394">
        <ele>337.5</ele>
        <time>2010-01-17T10:21:17Z</time>
      </trkpt>
      <trkpt lat="43.50163" lon="6.86386">
        <ele>337.3</ele>
        <time>2010-01-17T10:21:18Z</time>
      </trkpt>
      <trkpt lat="43.50159" lon="6.8638">
        <ele>336.7</ele>
        <time>2010-01-17T10:21:19Z</time>
      </trkpt>
      <trkpt lat="43.50155" lon="6.86374">
        <ele>335.9</ele>
        <time>2010-01-17T10:21:20Z</time>
      </trkpt>
      <trkpt lat="43.50151" lon="6.86369">
        <ele>335.3</ele>
        <time>2010-01-17T10:21:21Z</time>
      </trkpt>
      <trkpt lat="43.50145" lon="6.86364">
        <ele>334</ele>
        <time>2010-01-17T10:21:22Z</time>
      </trkpt>
      <trkpt lat="43.5014" lon="6.86361">
        <ele>333.4</ele>
        <time>2010-01-17T10:21:23Z</time>
      </trkpt>
      <trkpt lat="43.50135" lon="6.86358">
        <ele>332.7</ele>
        <time>2010-01-17T10:21:24Z</time>
      </trkpt>
      <trkpt lat="43.50129" lon="6.86356">
        <ele>332.1</ele>
        <time>2010-01-17T10:21:25Z</time>
      </trkpt>
      <trkpt lat="43.50123" lon="6.86355">
        <ele>331.4</ele>
        <time>2010-01-17T10:21:26Z</time>
      </trkpt>
      <trkpt lat="43.50117" lon="6.86355">
        <ele>330.8</ele>
        <time>2010-01-17T10:21:27Z</time>
      </trkpt>
      <trkpt lat="43.50111" lon="6.86355">
        <ele>329.8</ele>
        <time>2010-01-17T10:21:28Z</time>
      </trkpt>
      <trkpt lat="43.50104" lon="6.86356">
        <ele>329.1</ele>
        <time>2010-01-17T10:21:29Z</time>
      </trkpt>
      <trkpt lat="43.50098" lon="6.86358">
        <ele>328.3</ele>
        <time>2010-01-17T10:21:30Z</time>
      </trkpt>
      <trkpt lat="43.50092" lon="6.86359">
        <ele>327.7</ele>
        <time>2010-01-17T10:21:31Z</time>
      </trkpt>
      <trkpt lat="43.50085" lon="6.86361">
        <ele>327.1</ele>
        <time>2010-01-17T10:21:32Z</time>
      </trkpt>
      <trkpt lat="43.50079" lon="6.86364">
        <ele>326.6</ele>
        <time>2010-01-17T10:21:33Z</time>
      </trkpt>
      <trkpt lat="43.50073" lon="6.86365">
        <ele>326</ele>
        <time>2010-01-17T10:21:34Z</time>
      </trkpt>
      <trkpt lat="43.50068" lon="6.86367">
        <ele>325.4</ele>
        <time>2010-01-17T10:21:35Z</time>
      </trkpt>
      <trkpt lat="43.50063" lon="6.86369">
        <ele>325.1</ele>
        <time>2010-01-17T10:21:36Z</time>
      </trkpt>
      <trkpt lat="43.50058" lon="6.86371">
        <ele>324.5</ele>
        <time>2010-01-17T10:21:37Z</time>
      </trkpt>
      <trkpt lat="43.50053" lon="6.86373">
        <ele>324.1</ele>
        <time>2010-01-17T10:21:38Z</time>
      </trkpt>
      <trkpt lat="43.50047" lon="6.86375">
        <ele>323.7</ele>
        <time>2010-01-17T10:21:39Z</time>
      </trkpt>
      <trkpt lat="43.50042" lon="6.86376">
        <ele>323.1</ele>
        <time>2010-01-17T10:21:40Z</time>
      </trkpt>
      <trkpt lat="43.50036" lon="6.86378">
        <ele>322.5</ele>
        <time>2010-01-17T10:21:41Z</time>
      </trkpt>
      <trkpt lat="43.5003" lon="6.86379">
        <ele>322</ele>
        <time>2010-01-17T10:21:42Z</time>
      </trkpt>
      <trkpt lat="43.50024" lon="6.86379">
        <ele>321.4</ele>
        <time>2010-01-17T10:21:43Z</time>
      </trkpt>
      <trkpt lat="43.50017" lon="6.86378">
        <ele>320.8</ele>
        <time>2010-01-17T10:21:44Z</time>
      </trkpt>
      <trkpt lat="43.50011" lon="6.86376">
        <ele>320.5</ele>
        <time>2010-01-17T10:21:45Z</time>
      </trkpt>
      <trkpt lat="43.50004" lon="6.86373">
        <ele>320.2</ele>
        <time>2010-01-17T10:21:46Z</time>
      </trkpt>
      <trkpt lat="43.49998" lon="6.8637">
        <ele>319.6</ele>
        <time>2010-01-17T10:21:47Z</time>
      </trkpt>
      <trkpt lat="43.49992" lon="6.86367">
        <ele>319</ele>
        <time>2010-01-17T10:21:48Z</time>
      </trkpt>
      <trkpt lat="43.49985" lon="6.86363">
        <ele>318.6</ele>
        <time>2010-01-17T10:21:49Z</time>
      </trkpt>
      <trkpt lat="43.49979" lon="6.86359">
        <ele>317.8</ele>
        <time>2010-01-17T10:21:50Z</time>
      </trkpt>
      <trkpt lat="43.49972" lon="6.86356">
        <ele>317.2</ele>
        <time>2010-01-17T10:21:51Z</time>
      </trkpt>
      <trkpt lat="43.49965" lon="6.86352">
        <ele>317</ele>
        <time>2010-01-17T10:21:52Z</time>
      </trkpt>
      <trkpt lat="43.49958" lon="6.86349">
        <ele>316.7</ele>
        <time>2010-01-17T10:21:53Z</time>
      </trkpt>
      <trkpt lat="43.49951" lon="6.86345">
        <ele>316.3</ele>
        <time>2010-01-17T10:21:54Z</time>
      </trkpt>
      <trkpt lat="43.49944" lon="6.86341">
        <ele>315.7</ele>
        <time>2010-01-17T10:21:55Z</time>
      </trkpt>
      <trkpt lat="43.49937" lon="6.86337">
        <ele>315.3</ele>
        <time>2010-01-17T10:21:56Z</time>
      </trkpt>
      <trkpt lat="43.4993" lon="6.86334">
        <ele>314.8</ele>
        <time>2010-01-17T10:21:57Z</time>
      </trkpt>
      <trkpt lat="43.49924" lon="6.86331">
        <ele>314.3</ele>
        <time>2010-01-17T10:21:58Z</time>
      </trkpt>
      <trkpt lat="43.49917" lon="6.86329">
        <ele>313.7</ele>
        <time>2010-01-17T10:21:59Z</time>
      </trkpt>
      <trkpt lat="43.4991" lon="6.86326">
        <ele>313.2</ele>
        <time>2010-01-17T10:22:00Z</time>
      </trkpt>
      <trkpt lat="43.49904" lon="6.86324">
        <ele>312.9</ele>
        <time>2010-01-17T10:22:01Z</time>
      </trkpt>
      <trkpt lat="43.49898" lon="6.86322">
        <ele>312.5</ele>
        <time>2010-01-17T10:22:02Z</time>
      </trkpt>
      <trkpt lat="43.49893" lon="6.86319">
        <ele>312.1</ele>
        <time>2010-01-17T10:22:03Z</time>
      </trkpt>
      <trkpt lat="43.49888" lon="6.86318">
        <ele>311.7</ele>
        <time>2010-01-17T10:22:04Z</time>
      </trkpt>
      <trkpt lat="43.49881" lon="6.8632">
        <ele>310.8</ele>
        <time>2010-01-17T10:22:06Z</time>
      </trkpt>
      <trkpt lat="43.49874" lon="6.86325">
        <ele>309.8</ele>
        <time>2010-01-17T10:22:08Z</time>
      </trkpt>
      <trkpt lat="43.49868" lon="6.86332">
        <ele>309.2</ele>
        <time>2010-01-17T10:22:10Z</time>
      </trkpt>
      <trkpt lat="43.4986" lon="6.86337">
        <ele>308.4</ele>
        <time>2010-01-17T10:22:12Z</time>
      </trkpt>
      <trkpt lat="43.49855" lon="6.8634">
        <ele>308</ele>
        <time>2010-01-17T10:22:13Z</time>
      </trkpt>
      <trkpt lat="43.49849" lon="6.86342">
        <ele>307.5</ele>
        <time>2010-01-17T10:22:14Z</time>
      </trkpt>
      <trkpt lat="43.49843" lon="6.86345">
        <ele>307.3</ele>
        <time>2010-01-17T10:22:15Z</time>
      </trkpt>
      <trkpt lat="43.49837" lon="6.86348">
        <ele>306.8</ele>
        <time>2010-01-17T10:22:16Z</time>
      </trkpt>
      <trkpt lat="43.49831" lon="6.86352">
        <ele>306.5</ele>
        <time>2010-01-17T10:22:17Z</time>
      </trkpt>
      <trkpt lat="43.49825" lon="6.86356">
        <ele>306</ele>
        <time>2010-01-17T10:22:18Z</time>
      </trkpt>
      <trkpt lat="43.49818" lon="6.86359">
        <ele>305.6</ele>
        <time>2010-01-17T10:22:19Z</time>
      </trkpt>
      <trkpt lat="43.49812" lon="6.86364">
        <ele>305.1</ele>
        <time>2010-01-17T10:22:20Z</time>
      </trkpt>
      <trkpt lat="43.49806" lon="6.86368">
        <ele>304.9</ele>
        <time>2010-01-17T10:22:21Z</time>
      </trkpt>
      <trkpt lat="43.49801" lon="6.86373">
        <ele>304.5</ele>
        <time>2010-01-17T10:22:22Z</time>
      </trkpt>
      <trkpt lat="43.49795" lon="6.86377">
        <ele>304.1</ele>
        <time>2010-01-17T10:22:23Z</time>
      </trkpt>
      <trkpt lat="43.49789" lon="6.86381">
        <ele>303.6</ele>
        <time>2010-01-17T10:22:24Z</time>
      </trkpt>
      <trkpt lat="43.49782" lon="6.86386">
        <ele>303.4</ele>
        <time>2010-01-17T10:22:25Z</time>
      </trkpt>
      <trkpt lat="43.49777" lon="6.86391">
        <ele>303.1</ele>
        <time>2010-01-17T10:22:26Z</time>
      </trkpt>
      <trkpt lat="43.49771" lon="6.86396">
        <ele>302.8</ele>
        <time>2010-01-17T10:22:27Z</time>
      </trkpt>
      <trkpt lat="43.49765" lon="6.86402">
        <ele>302.5</ele>
        <time>2010-01-17T10:22:28Z</time>
      </trkpt>
      <trkpt lat="43.49759" lon="6.86409">
        <ele>302.1</ele>
        <time>2010-01-17T10:22:29Z</time>
      </trkpt>
      <trkpt lat="43.49754" lon="6.86416">
        <ele>301.7</ele>
        <time>2010-01-17T10:22:30Z</time>
      </trkpt>
      <trkpt lat="43.49748" lon="6.86423">
        <ele>301.3</ele>
        <time>2010-01-17T10:22:31Z</time>
      </trkpt>
      <trkpt lat="43.49743" lon="6.86431">
        <ele>300.8</ele>
        <time>2010-01-17T10:22:32Z</time>
      </trkpt>
      <trkpt lat="43.49739" lon="6.86438">
        <ele>300.4</ele>
        <time>2010-01-17T10:22:33Z</time>
      </trkpt>
      <trkpt lat="43.49735" lon="6.86446">
        <ele>299.9</ele>
        <time>2010-01-17T10:22:34Z</time>
      </trkpt>
      <trkpt lat="43.49731" lon="6.86455">
        <ele>299.6</ele>
        <time>2010-01-17T10:22:35Z</time>
      </trkpt>
      <trkpt lat="43.49728" lon="6.86463">
        <ele>298.6</ele>
        <time>2010-01-17T10:22:36Z</time>
      </trkpt>
      <trkpt lat="43.49724" lon="6.86472">
        <ele>298</ele>
        <time>2010-01-17T10:22:37Z</time>
      </trkpt>
      <trkpt lat="43.4972" lon="6.8648">
        <ele>297.3</ele>
        <time>2010-01-17T10:22:38Z</time>
      </trkpt>
      <trkpt lat="43.49716" lon="6.86488">
        <ele>296.8</ele>
        <time>2010-01-17T10:22:39Z</time>
      </trkpt>
      <trkpt lat="43.49712" lon="6.86497">
        <ele>296.6</ele>
        <time>2010-01-17T10:22:40Z</time>
      </trkpt>
      <trkpt lat="43.49708" lon="6.86506">
        <ele>295.9</ele>
        <time>2010-01-17T10:22:41Z</time>
      </trkpt>
      <trkpt lat="43.49704" lon="6.86515">
        <ele>295.1</ele>
        <time>2010-01-17T10:22:42Z</time>
      </trkpt>
      <trkpt lat="43.497" lon="6.86524">
        <ele>294.9</ele>
        <time>2010-01-17T10:22:43Z</time>
      </trkpt>
      <trkpt lat="43.49696" lon="6.86533">
        <ele>294.2</ele>
        <time>2010-01-17T10:22:44Z</time>
      </trkpt>
      <trkpt lat="43.49692" lon="6.86541">
        <ele>293.8</ele>
        <time>2010-01-17T10:22:45Z</time>
      </trkpt>
      <trkpt lat="43.49688" lon="6.8655">
        <ele>293.4</ele>
        <time>2010-01-17T10:22:46Z</time>
      </trkpt>
      <trkpt lat="43.49685" lon="6.86559">
        <ele>293.2</ele>
        <time>2010-01-17T10:22:47Z</time>
      </trkpt>
      <trkpt lat="43.49682" lon="6.86568">
        <ele>292.7</ele>
        <time>2010-01-17T10:22:48Z</time>
      </trkpt>
      <trkpt lat="43.49679" lon="6.86578">
        <ele>292.4</ele>
        <time>2010-01-17T10:22:49Z</time>
      </trkpt>
      <trkpt lat="43.49677" lon="6.86588">
        <ele>291.9</ele>
        <time>2010-01-17T10:22:50Z</time>
      </trkpt>
      <trkpt lat="43.49674" lon="6.86598">
        <ele>291.8</ele>
        <time>2010-01-17T10:22:51Z</time>
      </trkpt>
      <trkpt lat="43.49671" lon="6.86608">
        <ele>291.4</ele>
        <time>2010-01-17T10:22:52Z</time>
      </trkpt>
      <trkpt lat="43.49668" lon="6.86618">
        <ele>291.1</ele>
        <time>2010-01-17T10:22:53Z</time>
      </trkpt>
      <trkpt lat="43.49664" lon="6.86627">
        <ele>290.6</ele>
        <time>2010-01-17T10:22:54Z</time>
      </trkpt>
      <trkpt lat="43.4966" lon="6.86637">
        <ele>290.2</ele>
        <time>2010-01-17T10:22:55Z</time>
      </trkpt>
      <trkpt lat="43.49656" lon="6.86647">
        <ele>289.9</ele>
        <time>2010-01-17T10:22:56Z</time>
      </trkpt>
      <trkpt lat="43.49652" lon="6.86657">
        <ele>289.4</ele>
        <time>2010-01-17T10:22:57Z</time>
      </trkpt>
      <trkpt lat="43.49648" lon="6.86667">
        <ele>289.2</ele>
        <time>2010-01-17T10:22:58Z</time>
      </trkpt>
      <trkpt lat="43.49644" lon="6.86677">
        <ele>288.9</ele>
        <time>2010-01-17T10:22:59Z</time>
      </trkpt>
      <trkpt lat="43.49639" lon="6.86687">
        <ele>288.5</ele>
        <time>2010-01-17T10:23:00Z</time>
      </trkpt>
      <trkpt lat="43.49635" lon="6.86696">
        <ele>287.8</ele>
        <time>2010-01-17T10:23:01Z</time>
      </trkpt>
      <trkpt lat="43.49632" lon="6.86705">
        <ele>286.8</ele>
        <time>2010-01-17T10:23:02Z</time>
      </trkpt>
      <trkpt lat="43.49629" lon="6.86714">
        <ele>285.6</ele>
        <time>2010-01-17T10:23:03Z</time>
      </trkpt>
      <trkpt lat="43.49627" lon="6.86722">
        <ele>285</ele>
        <time>2010-01-17T10:23:04Z</time>
      </trkpt>
      <trkpt lat="43.49625" lon="6.8673">
        <ele>284.5</ele>
        <time>2010-01-17T10:23:05Z</time>
      </trkpt>
      <trkpt lat="43.49623" lon="6.86739">
        <ele>284.1</ele>
        <time>2010-01-17T10:23:06Z</time>
      </trkpt>
      <trkpt lat="43.4962" lon="6.86747">
        <ele>283.5</ele>
        <time>2010-01-17T10:23:07Z</time>
      </trkpt>
      <trkpt lat="43.49617" lon="6.86754">
        <ele>283.1</ele>
        <time>2010-01-17T10:23:08Z</time>
      </trkpt>
      <trkpt lat="43.49613" lon="6.86761">
        <ele>282.4</ele>
        <time>2010-01-17T10:23:09Z</time>
      </trkpt>
      <trkpt lat="43.4961" lon="6.86768">
        <ele>281.5</ele>
        <time>2010-01-17T10:23:10Z</time>
      </trkpt>
      <trkpt lat="43.49606" lon="6.86775">
        <ele>281</ele>
        <time>2010-01-17T10:23:11Z</time>
      </trkpt>
      <trkpt lat="43.49602" lon="6.86782">
        <ele>280.5</ele>
        <time>2010-01-17T10:23:12Z</time>
      </trkpt>
      <trkpt lat="43.49599" lon="6.86788">
        <ele>279.9</ele>
        <time>2010-01-17T10:23:13Z</time>
      </trkpt>
      <trkpt lat="43.49595" lon="6.86795">
        <ele>279.5</ele>
        <time>2010-01-17T10:23:14Z</time>
      </trkpt>
      <trkpt lat="43.49593" lon="6.86803">
        <ele>278.4</ele>
        <time>2010-01-17T10:23:15Z</time>
      </trkpt>
      <trkpt lat="43.4959" lon="6.86811">
        <ele>278</ele>
        <time>2010-01-17T10:23:16Z</time>
      </trkpt>
      <trkpt lat="43.49586" lon="6.86819">
        <ele>277.6</ele>
        <time>2010-01-17T10:23:17Z</time>
      </trkpt>
      <trkpt lat="43.49582" lon="6.86828">
        <ele>277.3</ele>
        <time>2010-01-17T10:23:18Z</time>
      </trkpt>
      <trkpt lat="43.49578" lon="6.86837">
        <ele>276.9</ele>
        <time>2010-01-17T10:23:19Z</time>
      </trkpt>
      <trkpt lat="43.49574" lon="6.86846">
        <ele>276.5</ele>
        <time>2010-01-17T10:23:20Z</time>
      </trkpt>
      <trkpt lat="43.4957" lon="6.86856">
        <ele>276</ele>
        <time>2010-01-17T10:23:21Z</time>
      </trkpt>
      <trkpt lat="43.49566" lon="6.86865">
        <ele>275.4</ele>
        <time>2010-01-17T10:23:22Z</time>
      </trkpt>
      <trkpt lat="43.49562" lon="6.86875">
        <ele>275.1</ele>
        <time>2010-01-17T10:23:23Z</time>
      </trkpt>
      <trkpt lat="43.49559" lon="6.86885">
        <ele>274.6</ele>
        <time>2010-01-17T10:23:24Z</time>
      </trkpt>
      <trkpt lat="43.49555" lon="6.86896">
        <ele>274.1</ele>
        <time>2010-01-17T10:23:25Z</time>
      </trkpt>
      <trkpt lat="43.49552" lon="6.86906">
        <ele>273.9</ele>
        <time>2010-01-17T10:23:26Z</time>
      </trkpt>
      <trkpt lat="43.49548" lon="6.86916">
        <ele>273.4</ele>
        <time>2010-01-17T10:23:27Z</time>
      </trkpt>
      <trkpt lat="43.49543" lon="6.86926">
        <ele>273</ele>
        <time>2010-01-17T10:23:28Z</time>
      </trkpt>
      <trkpt lat="43.49539" lon="6.86935">
        <ele>272.4</ele>
        <time>2010-01-17T10:23:29Z</time>
      </trkpt>
      <trkpt lat="43.49535" lon="6.86944">
        <ele>271.9</ele>
        <time>2010-01-17T10:23:30Z</time>
      </trkpt>
      <trkpt lat="43.4953" lon="6.86953">
        <ele>271.4</ele>
        <time>2010-01-17T10:23:31Z</time>
      </trkpt>
      <trkpt lat="43.49525" lon="6.8696">
        <ele>270.9</ele>
        <time>2010-01-17T10:23:32Z</time>
      </trkpt>
      <trkpt lat="43.49519" lon="6.86967">
        <ele>270.6</ele>
        <time>2010-01-17T10:23:33Z</time>
      </trkpt>
      <trkpt lat="43.49512" lon="6.86973">
        <ele>270</ele>
        <time>2010-01-17T10:23:34Z</time>
      </trkpt>
      <trkpt lat="43.49505" lon="6.86978">
        <ele>269.6</ele>
        <time>2010-01-17T10:23:35Z</time>
      </trkpt>
      <trkpt lat="43.49498" lon="6.86983">
        <ele>268.9</ele>
        <time>2010-01-17T10:23:36Z</time>
      </trkpt>
      <trkpt lat="43.49491" lon="6.86989">
        <ele>268.2</ele>
        <time>2010-01-17T10:23:37Z</time>
      </trkpt>
      <trkpt lat="43.49484" lon="6.86996">
        <ele>267.5</ele>
        <time>2010-01-17T10:23:38Z</time>
      </trkpt>
      <trkpt lat="43.49478" lon="6.87001">
        <ele>266.9</ele>
        <time>2010-01-17T10:23:39Z</time>
      </trkpt>
      <trkpt lat="43.49473" lon="6.87005">
        <ele>266.3</ele>
        <time>2010-01-17T10:23:40Z</time>
      </trkpt>
      <trkpt lat="43.49468" lon="6.87008">
        <ele>265.8</ele>
        <time>2010-01-17T10:23:41Z</time>
      </trkpt>
      <trkpt lat="43.49463" lon="6.87013">
        <ele>265.1</ele>
        <time>2010-01-17T10:23:43Z</time>
      </trkpt>
      <trkpt lat="43.49459" lon="6.87018">
        <ele>264.5</ele>
        <time>2010-01-17T10:23:45Z</time>
      </trkpt>
      <trkpt lat="43.49456" lon="6.87026">
        <ele>263.9</ele>
        <time>2010-01-17T10:23:47Z</time>
      </trkpt>
      <trkpt lat="43.49451" lon="6.87036">
        <ele>263.2</ele>
        <time>2010-01-17T10:23:49Z</time>
      </trkpt>
      <trkpt lat="43.49448" lon="6.87042">
        <ele>262.8</ele>
        <time>2010-01-17T10:23:50Z</time>
      </trkpt>
      <trkpt lat="43.49446" lon="6.87047">
        <ele>262.4</ele>
        <time>2010-01-17T10:23:51Z</time>
      </trkpt>
      <trkpt lat="43.49442" lon="6.87054">
        <ele>262.1</ele>
        <time>2010-01-17T10:23:52Z</time>
      </trkpt>
      <trkpt lat="43.49439" lon="6.8706">
        <ele>261.7</ele>
        <time>2010-01-17T10:23:53Z</time>
      </trkpt>
      <trkpt lat="43.49435" lon="6.87066">
        <ele>261.3</ele>
        <time>2010-01-17T10:23:54Z</time>
      </trkpt>
      <trkpt lat="43.49432" lon="6.87072">
        <ele>260.9</ele>
        <time>2010-01-17T10:23:55Z</time>
      </trkpt>
      <trkpt lat="43.49427" lon="6.87079">
        <ele>260.4</ele>
        <time>2010-01-17T10:23:56Z</time>
      </trkpt>
      <trkpt lat="43.49423" lon="6.87086">
        <ele>259.9</ele>
        <time>2010-01-17T10:23:57Z</time>
      </trkpt>
      <trkpt lat="43.49419" lon="6.87092">
        <ele>259.5</ele>
        <time>2010-01-17T10:23:58Z</time>
      </trkpt>
      <trkpt lat="43.49415" lon="6.87098">
        <ele>259.1</ele>
        <time>2010-01-17T10:23:59Z</time>
      </trkpt>
      <trkpt lat="43.49411" lon="6.87104">
        <ele>258.6</ele>
        <time>2010-01-17T10:24:00Z</time>
      </trkpt>
      <trkpt lat="43.49407" lon="6.8711">
        <ele>258.2</ele>
        <time>2010-01-17T10:24:01Z</time>
      </trkpt>
      <trkpt lat="43.49403" lon="6.87116">
        <ele>257.8</ele>
        <time>2010-01-17T10:24:02Z</time>
      </trkpt>
      <trkpt lat="43.494" lon="6.87122">
        <ele>257.4</ele>
        <time>2010-01-17T10:24:03Z</time>
      </trkpt>
      <trkpt lat="43.49397" lon="6.87128">
        <ele>257.1</ele>
        <time>2010-01-17T10:24:04Z</time>
      </trkpt>
      <trkpt lat="43.49396" lon="6.87135">
        <ele>257</ele>
        <time>2010-01-17T10:24:05Z</time>
      </trkpt>
      <trkpt lat="43.49397" lon="6.87142">
        <ele>256.8</ele>
        <time>2010-01-17T10:24:06Z</time>
      </trkpt>
      <trkpt lat="43.49398" lon="6.87149">
        <ele>256.7</ele>
        <time>2010-01-17T10:24:07Z</time>
      </trkpt>
      <trkpt lat="43.49399" lon="6.87157">
        <ele>256.8</ele>
        <time>2010-01-17T10:24:08Z</time>
      </trkpt>
      <trkpt lat="43.49401" lon="6.87164">
        <ele>256.7</ele>
        <time>2010-01-17T10:24:09Z</time>
      </trkpt>
      <trkpt lat="43.49404" lon="6.8717">
        <ele>256.9</ele>
        <time>2010-01-17T10:24:10Z</time>
      </trkpt>
      <trkpt lat="43.49407" lon="6.87176">
        <ele>257</ele>
        <time>2010-01-17T10:24:11Z</time>
      </trkpt>
      <trkpt lat="43.4941" lon="6.87182">
        <ele>257.2</ele>
        <time>2010-01-17T10:24:12Z</time>
      </trkpt>
      <trkpt lat="43.49413" lon="6.87187">
        <ele>257.4</ele>
        <time>2010-01-17T10:24:13Z</time>
      </trkpt>
      <trkpt lat="43.49417" lon="6.87197">
        <ele>257.6</ele>
        <time>2010-01-17T10:24:15Z</time>
      </trkpt>
      <trkpt lat="43.49421" lon="6.87205">
        <ele>257.8</ele>
        <time>2010-01-17T10:24:17Z</time>
      </trkpt>
      <trkpt lat="43.49424" lon="6.87213">
        <ele>258.3</ele>
        <time>2010-01-17T10:24:19Z</time>
      </trkpt>
      <trkpt lat="43.49426" lon="6.87222">
        <ele>258.8</ele>
        <time>2010-01-17T10:24:21Z</time>
      </trkpt>
      <trkpt lat="43.49429" lon="6.87229">
        <ele>259.1</ele>
        <time>2010-01-17T10:24:23Z</time>
      </trkpt>
      <trkpt lat="43.49431" lon="6.87235">
        <ele>259.5</ele>
        <time>2010-01-17T10:24:26Z</time>
      </trkpt>
      <trkpt lat="43.49434" lon="6.87243">
        <ele>259.5</ele>
        <time>2010-01-17T10:24:32Z</time>
      </trkpt>
      <trkpt lat="43.49438" lon="6.87248">
        <ele>259.3</ele>
        <time>2010-01-17T10:24:34Z</time>
      </trkpt>
      <trkpt lat="43.49442" lon="6.87255">
        <ele>259.3</ele>
        <time>2010-01-17T10:24:36Z</time>
      </trkpt>
      <trkpt lat="43.49445" lon="6.87262">
        <ele>259.3</ele>
        <time>2010-01-17T10:24:38Z</time>
      </trkpt>
      <trkpt lat="43.49449" lon="6.87267">
        <ele>259.8</ele>
        <time>2010-01-17T10:24:40Z</time>
      </trkpt>
      <trkpt lat="43.49452" lon="6.87273">
        <ele>260.4</ele>
        <time>2010-01-17T10:24:42Z</time>
      </trkpt>
      <trkpt lat="43.49456" lon="6.87279">
        <ele>260.6</ele>
        <time>2010-01-17T10:24:44Z</time>
      </trkpt>
      <trkpt lat="43.4946" lon="6.87286">
        <ele>260.8</ele>
        <time>2010-01-17T10:24:46Z</time>
      </trkpt>
      <trkpt lat="43.49464" lon="6.87294">
        <ele>261</ele>
        <time>2010-01-17T10:24:48Z</time>
      </trkpt>
      <trkpt lat="43.49468" lon="6.87303">
        <ele>261.2</ele>
        <time>2010-01-17T10:24:50Z</time>
      </trkpt>
      <trkpt lat="43.49472" lon="6.87311">
        <ele>261.4</ele>
        <time>2010-01-17T10:24:52Z</time>
      </trkpt>
      <trkpt lat="43.49475" lon="6.87321">
        <ele>261.2</ele>
        <time>2010-01-17T10:24:54Z</time>
      </trkpt>
      <trkpt lat="43.49479" lon="6.8733">
        <ele>261.1</ele>
        <time>2010-01-17T10:24:56Z</time>
      </trkpt>
      <trkpt lat="43.49482" lon="6.8734">
        <ele>261.1</ele>
        <time>2010-01-17T10:24:58Z</time>
      </trkpt>
      <trkpt lat="43.49486" lon="6.8735">
        <ele>261.1</ele>
        <time>2010-01-17T10:25:00Z</time>
      </trkpt>
      <trkpt lat="43.49489" lon="6.87359">
        <ele>261.6</ele>
        <time>2010-01-17T10:25:02Z</time>
      </trkpt>
      <trkpt lat="43.4949" lon="6.87368">
        <ele>262.7</ele>
        <time>2010-01-17T10:25:04Z</time>
      </trkpt>
      <trkpt lat="43.49492" lon="6.87378">
        <ele>263</ele>
        <time>2010-01-17T10:25:06Z</time>
      </trkpt>
      <trkpt lat="43.49492" lon="6.87388">
        <ele>262.9</ele>
        <time>2010-01-17T10:25:08Z</time>
      </trkpt>
      <trkpt lat="43.4949" lon="6.87399">
        <ele>262.8</ele>
        <time>2010-01-17T10:25:10Z</time>
      </trkpt>
      <trkpt lat="43.49485" lon="6.87406">
        <ele>263.4</ele>
        <time>2010-01-17T10:25:12Z</time>
      </trkpt>
      <trkpt lat="43.49479" lon="6.87411">
        <ele>264</ele>
        <time>2010-01-17T10:25:14Z</time>
      </trkpt>
      <trkpt lat="43.49472" lon="6.87416">
        <ele>264.1</ele>
        <time>2010-01-17T10:25:16Z</time>
      </trkpt>
      <trkpt lat="43.49466" lon="6.8742">
        <ele>264.2</ele>
        <time>2010-01-17T10:25:18Z</time>
      </trkpt>
      <trkpt lat="43.49459" lon="6.87423">
        <ele>264.4</ele>
        <time>2010-01-17T10:25:20Z</time>
      </trkpt>
      <trkpt lat="43.49452" lon="6.87427">
        <ele>264.6</ele>
        <time>2010-01-17T10:25:22Z</time>
      </trkpt>
      <trkpt lat="43.49445" lon="6.87431">
        <ele>264.4</ele>
        <time>2010-01-17T10:25:24Z</time>
      </trkpt>
      <trkpt lat="43.49438" lon="6.87434">
        <ele>264.6</ele>
        <time>2010-01-17T10:25:26Z</time>
      </trkpt>
      <trkpt lat="43.4943" lon="6.87438">
        <ele>264.9</ele>
        <time>2010-01-17T10:25:28Z</time>
      </trkpt>
      <trkpt lat="43.49423" lon="6.87441">
        <ele>265.3</ele>
        <time>2010-01-17T10:25:30Z</time>
      </trkpt>
      <trkpt lat="43.49416" lon="6.87446">
        <ele>265.3</ele>
        <time>2010-01-17T10:25:32Z</time>
      </trkpt>
      <trkpt lat="43.4941" lon="6.87452">
        <ele>265</ele>
        <time>2010-01-17T10:25:34Z</time>
      </trkpt>
      <trkpt lat="43.49405" lon="6.87459">
        <ele>264.9</ele>
        <time>2010-01-17T10:25:36Z</time>
      </trkpt>
      <trkpt lat="43.494" lon="6.87467">
        <ele>264.7</ele>
        <time>2010-01-17T10:25:38Z</time>
      </trkpt>
      <trkpt lat="43.49396" lon="6.87477">
        <ele>264.5</ele>
        <time>2010-01-17T10:25:40Z</time>
      </trkpt>
      <trkpt lat="43.49393" lon="6.87487">
        <ele>263.8</ele>
        <time>2010-01-17T10:25:42Z</time>
      </trkpt>
      <trkpt lat="43.4939" lon="6.87497">
        <ele>263.6</ele>
        <time>2010-01-17T10:25:44Z</time>
      </trkpt>
      <trkpt lat="43.49388" lon="6.87508">
        <ele>263.8</ele>
        <time>2010-01-17T10:25:46Z</time>
      </trkpt>
      <trkpt lat="43.49387" lon="6.87518">
        <ele>264</ele>
        <time>2010-01-17T10:25:48Z</time>
      </trkpt>
      <trkpt lat="43.49385" lon="6.8753">
        <ele>264.2</ele>
        <time>2010-01-17T10:25:50Z</time>
      </trkpt>
      <trkpt lat="43.49382" lon="6.8754">
        <ele>264.4</ele>
        <time>2010-01-17T10:25:52Z</time>
      </trkpt>
      <trkpt lat="43.49378" lon="6.87551">
        <ele>264.8</ele>
        <time>2010-01-17T10:25:54Z</time>
      </trkpt>
      <trkpt lat="43.49374" lon="6.8756">
        <ele>265.2</ele>
        <time>2010-01-17T10:25:56Z</time>
      </trkpt>
      <trkpt lat="43.4937" lon="6.87568">
        <ele>266.1</ele>
        <time>2010-01-17T10:25:58Z</time>
      </trkpt>
      <trkpt lat="43.49364" lon="6.87576">
        <ele>267.1</ele>
        <time>2010-01-17T10:26:00Z</time>
      </trkpt>
      <trkpt lat="43.49358" lon="6.87582">
        <ele>268.3</ele>
        <time>2010-01-17T10:26:02Z</time>
      </trkpt>
      <trkpt lat="43.49352" lon="6.87588">
        <ele>268.1</ele>
        <time>2010-01-17T10:26:04Z</time>
      </trkpt>
      <trkpt lat="43.49345" lon="6.87593">
        <ele>267.9</ele>
        <time>2010-01-17T10:26:06Z</time>
      </trkpt>
      <trkpt lat="43.49339" lon="6.87599">
        <ele>267.3</ele>
        <time>2010-01-17T10:26:08Z</time>
      </trkpt>
      <trkpt lat="43.49334" lon="6.87607">
        <ele>267</ele>
        <time>2010-01-17T10:26:10Z</time>
      </trkpt>
      <trkpt lat="43.49329" lon="6.87616">
        <ele>266.8</ele>
        <time>2010-01-17T10:26:12Z</time>
      </trkpt>
      <trkpt lat="43.49326" lon="6.87625">
        <ele>266.6</ele>
        <time>2010-01-17T10:26:14Z</time>
      </trkpt>
      <trkpt lat="43.49325" lon="6.87636">
        <ele>266.5</ele>
        <time>2010-01-17T10:26:16Z</time>
      </trkpt>
      <trkpt lat="43.49324" lon="6.87647">
        <ele>266.4</ele>
        <time>2010-01-17T10:26:18Z</time>
      </trkpt>
      <trkpt lat="43.49324" lon="6.87657">
        <ele>266.2</ele>
        <time>2010-01-17T10:26:20Z</time>
      </trkpt>
      <trkpt lat="43.49324" lon="6.87668">
        <ele>266.1</ele>
        <time>2010-01-17T10:26:22Z</time>
      </trkpt>
      <trkpt lat="43.49325" lon="6.87678">
        <ele>265.9</ele>
        <time>2010-01-17T10:26:24Z</time>
      </trkpt>
      <trkpt lat="43.49326" lon="6.87689">
        <ele>265.9</ele>
        <time>2010-01-17T10:26:26Z</time>
      </trkpt>
      <trkpt lat="43.49327" lon="6.87699">
        <ele>266</ele>
        <time>2010-01-17T10:26:28Z</time>
      </trkpt>
      <trkpt lat="43.49328" lon="6.8771">
        <ele>266</ele>
        <time>2010-01-17T10:26:30Z</time>
      </trkpt>
      <trkpt lat="43.49328" lon="6.87721">
        <ele>266</ele>
        <time>2010-01-17T10:26:32Z</time>
      </trkpt>
      <trkpt lat="43.49329" lon="6.87732">
        <ele>266</ele>
        <time>2010-01-17T10:26:34Z</time>
      </trkpt>
      <trkpt lat="43.49329" lon="6.87743">
        <ele>266</ele>
        <time>2010-01-17T10:26:36Z</time>
      </trkpt>
      <trkpt lat="43.49328" lon="6.87754">
        <ele>265.8</ele>
        <time>2010-01-17T10:26:38Z</time>
      </trkpt>
      <trkpt lat="43.49326" lon="6.87766">
        <ele>265.4</ele>
        <time>2010-01-17T10:26:40Z</time>
      </trkpt>
      <trkpt lat="43.49325" lon="6.87777">
        <ele>265.4</ele>
        <time>2010-01-17T10:26:42Z</time>
      </trkpt>
      <trkpt lat="43.49323" lon="6.87788">
        <ele>265.5</ele>
        <time>2010-01-17T10:26:44Z</time>
      </trkpt>
      <trkpt lat="43.49321" lon="6.878">
        <ele>265.3</ele>
        <time>2010-01-17T10:26:46Z</time>
      </trkpt>
      <trkpt lat="43.49319" lon="6.87812">
        <ele>265.3</ele>
        <time>2010-01-17T10:26:48Z</time>
      </trkpt>
      <trkpt lat="43.49318" lon="6.87824">
        <ele>265.5</ele>
        <time>2010-01-17T10:26:50Z</time>
      </trkpt>
      <trkpt lat="43.49318" lon="6.87836">
        <ele>265.8</ele>
        <time>2010-01-17T10:26:52Z</time>
      </trkpt>
      <trkpt lat="43.4932" lon="6.87847">
        <ele>266.1</ele>
        <time>2010-01-17T10:26:54Z</time>
      </trkpt>
      <trkpt lat="43.49324" lon="6.87857">
        <ele>266.4</ele>
        <time>2010-01-17T10:26:56Z</time>
      </trkpt>
      <trkpt lat="43.49329" lon="6.87864">
        <ele>266.8</ele>
        <time>2010-01-17T10:26:58Z</time>
      </trkpt>
      <trkpt lat="43.49334" lon="6.8787">
        <ele>267.2</ele>
        <time>2010-01-17T10:27:00Z</time>
      </trkpt>
      <trkpt lat="43.49341" lon="6.87874">
        <ele>267.7</ele>
        <time>2010-01-17T10:27:02Z</time>
      </trkpt>
      <trkpt lat="43.49347" lon="6.87878">
        <ele>268.4</ele>
        <time>2010-01-17T10:27:04Z</time>
      </trkpt>
      <trkpt lat="43.49353" lon="6.87881">
        <ele>269.3</ele>
        <time>2010-01-17T10:27:06Z</time>
      </trkpt>
      <trkpt lat="43.4936" lon="6.87883">
        <ele>270</ele>
        <time>2010-01-17T10:27:08Z</time>
      </trkpt>
      <trkpt lat="43.49367" lon="6.87885">
        <ele>270.3</ele>
        <time>2010-01-17T10:27:10Z</time>
      </trkpt>
      <trkpt lat="43.49374" lon="6.87886">
        <ele>270.5</ele>
        <time>2010-01-17T10:27:12Z</time>
      </trkpt>
      <trkpt lat="43.4938" lon="6.87887">
        <ele>270.5</ele>
        <time>2010-01-17T10:27:14Z</time>
      </trkpt>
      <trkpt lat="43.49386" lon="6.87887">
        <ele>270.4</ele>
        <time>2010-01-17T10:27:16Z</time>
      </trkpt>
      <trkpt lat="43.49392" lon="6.87886">
        <ele>270.4</ele>
        <time>2010-01-17T10:27:18Z</time>
      </trkpt>
      <trkpt lat="43.49398" lon="6.87884">
        <ele>270.4</ele>
        <time>2010-01-17T10:27:20Z</time>
      </trkpt>
      <trkpt lat="43.49403" lon="6.87881">
        <ele>270.3</ele>
        <time>2010-01-17T10:27:22Z</time>
      </trkpt>
      <trkpt lat="43.49409" lon="6.87879">
        <ele>270.2</ele>
        <time>2010-01-17T10:27:24Z</time>
      </trkpt>
      <trkpt lat="43.49414" lon="6.87875">
        <ele>270.2</ele>
        <time>2010-01-17T10:27:26Z</time>
      </trkpt>
      <trkpt lat="43.49419" lon="6.87871">
        <ele>270.1</ele>
        <time>2010-01-17T10:27:28Z</time>
      </trkpt>
      <trkpt lat="43.49424" lon="6.87867">
        <ele>270</ele>
        <time>2010-01-17T10:27:30Z</time>
      </trkpt>
      <trkpt lat="43.4943" lon="6.87863">
        <ele>270</ele>
        <time>2010-01-17T10:27:32Z</time>
      </trkpt>
      <trkpt lat="43.49435" lon="6.87859">
        <ele>269.9</ele>
        <time>2010-01-17T10:27:34Z</time>
      </trkpt>
      <trkpt lat="43.4944" lon="6.87855">
        <ele>269.7</ele>
        <time>2010-01-17T10:27:36Z</time>
      </trkpt>
      <trkpt lat="43.49446" lon="6.87851">
        <ele>269.7</ele>
        <time>2010-01-17T10:27:38Z</time>
      </trkpt>
      <trkpt lat="43.49451" lon="6.87847">
        <ele>269.7</ele>
        <time>2010-01-17T10:27:40Z</time>
      </trkpt>
      <trkpt lat="43.49456" lon="6.87843">
        <ele>270</ele>
        <time>2010-01-17T10:27:42Z</time>
      </trkpt>
      <trkpt lat="43.49462" lon="6.87839">
        <ele>270.2</ele>
        <time>2010-01-17T10:27:44Z</time>
      </trkpt>
      <trkpt lat="43.49467" lon="6.87835">
        <ele>270.4</ele>
        <time>2010-01-17T10:27:46Z</time>
      </trkpt>
      <trkpt lat="43.49471" lon="6.87831">
        <ele>270.6</ele>
        <time>2010-01-17T10:27:48Z</time>
      </trkpt>
      <trkpt lat="43.49476" lon="6.87827">
        <ele>270.8</ele>
        <time>2010-01-17T10:27:50Z</time>
      </trkpt>
      <trkpt lat="43.49482" lon="6.87823">
        <ele>271</ele>
        <time>2010-01-17T10:27:52Z</time>
      </trkpt>
      <trkpt lat="43.49487" lon="6.87819">
        <ele>271.1</ele>
        <time>2010-01-17T10:27:54Z</time>
      </trkpt>
      <trkpt lat="43.49492" lon="6.87816">
        <ele>271.4</ele>
        <time>2010-01-17T10:27:56Z</time>
      </trkpt>
      <trkpt lat="43.49498" lon="6.87813">
        <ele>271.6</ele>
        <time>2010-01-17T10:27:58Z</time>
      </trkpt>
      <trkpt lat="43.49503" lon="6.8781">
        <ele>271.9</ele>
        <time>2010-01-17T10:28:00Z</time>
      </trkpt>
      <trkpt lat="43.49509" lon="6.87808">
        <ele>272</ele>
        <time>2010-01-17T10:28:02Z</time>
      </trkpt>
      <trkpt lat="43.49515" lon="6.87806">
        <ele>272.3</ele>
        <time>2010-01-17T10:28:04Z</time>
      </trkpt>
      <trkpt lat="43.4952" lon="6.87804">
        <ele>272.5</ele>
        <time>2010-01-17T10:28:06Z</time>
      </trkpt>
      <trkpt lat="43.49526" lon="6.87803">
        <ele>272.8</ele>
        <time>2010-01-17T10:28:08Z</time>
      </trkpt>
      <trkpt lat="43.49532" lon="6.87802">
        <ele>272.9</ele>
        <time>2010-01-17T10:28:10Z</time>
      </trkpt>
      <trkpt lat="43.49537" lon="6.87801">
        <ele>273.8</ele>
        <time>2010-01-17T10:28:20Z</time>
      </trkpt>
      <trkpt lat="43.49543" lon="6.87798">
        <ele>273.9</ele>
        <time>2010-01-17T10:28:23Z</time>
      </trkpt>
      <trkpt lat="43.49548" lon="6.87798">
        <ele>274.1</ele>
        <time>2010-01-17T10:28:25Z</time>
      </trkpt>
      <trkpt lat="43.49553" lon="6.87798">
        <ele>274.4</ele>
        <time>2010-01-17T10:28:27Z</time>
      </trkpt>
      <trkpt lat="43.49558" lon="6.87798">
        <ele>274.7</ele>
        <time>2010-01-17T10:28:29Z</time>
      </trkpt>
      <trkpt lat="43.49562" lon="6.87797">
        <ele>275.1</ele>
        <time>2010-01-17T10:28:31Z</time>
      </trkpt>
      <trkpt lat="43.49569" lon="6.87794">
        <ele>275.5</ele>
        <time>2010-01-17T10:28:34Z</time>
      </trkpt>
      <trkpt lat="43.49574" lon="6.87791">
        <ele>275.6</ele>
        <time>2010-01-17T10:28:36Z</time>
      </trkpt>
      <trkpt lat="43.49579" lon="6.87788">
        <ele>275.4</ele>
        <time>2010-01-17T10:28:38Z</time>
      </trkpt>
      <trkpt lat="43.49584" lon="6.87785">
        <ele>275.4</ele>
        <time>2010-01-17T10:28:40Z</time>
      </trkpt>
      <trkpt lat="43.49589" lon="6.87781">
        <ele>275.5</ele>
        <time>2010-01-17T10:28:42Z</time>
      </trkpt>
      <trkpt lat="43.49594" lon="6.87778">
        <ele>275.6</ele>
        <time>2010-01-17T10:28:44Z</time>
      </trkpt>
      <trkpt lat="43.49599" lon="6.87774">
        <ele>275.8</ele>
        <time>2010-01-17T10:28:46Z</time>
      </trkpt>
      <trkpt lat="43.49604" lon="6.87771">
        <ele>276</ele>
        <time>2010-01-17T10:28:48Z</time>
      </trkpt>
      <trkpt lat="43.49609" lon="6.87767">
        <ele>275.8</ele>
        <time>2010-01-17T10:28:50Z</time>
      </trkpt>
      <trkpt lat="43.49615" lon="6.87764">
        <ele>275.5</ele>
        <time>2010-01-17T10:28:52Z</time>
      </trkpt>
      <trkpt lat="43.4962" lon="6.87761">
        <ele>275.1</ele>
        <time>2010-01-17T10:28:54Z</time>
      </trkpt>
      <trkpt lat="43.49625" lon="6.87757">
        <ele>275.2</ele>
        <time>2010-01-17T10:28:56Z</time>
      </trkpt>
      <trkpt lat="43.4963" lon="6.87753">
        <ele>275.4</ele>
        <time>2010-01-17T10:28:58Z</time>
      </trkpt>
      <trkpt lat="43.49634" lon="6.87748">
        <ele>275.4</ele>
        <time>2010-01-17T10:29:00Z</time>
      </trkpt>
      <trkpt lat="43.49638" lon="6.87743">
        <ele>275.4</ele>
        <time>2010-01-17T10:29:02Z</time>
      </trkpt>
      <trkpt lat="43.49642" lon="6.87736">
        <ele>275.4</ele>
        <time>2010-01-17T10:29:04Z</time>
      </trkpt>
      <trkpt lat="43.49644" lon="6.87729">
        <ele>275.6</ele>
        <time>2010-01-17T10:29:06Z</time>
      </trkpt>
      <trkpt lat="43.49646" lon="6.87721">
        <ele>275.6</ele>
        <time>2010-01-17T10:29:08Z</time>
      </trkpt>
      <trkpt lat="43.49648" lon="6.87714">
        <ele>275.7</ele>
        <time>2010-01-17T10:29:10Z</time>
      </trkpt>
      <trkpt lat="43.4965" lon="6.87707">
        <ele>275.8</ele>
        <time>2010-01-17T10:29:12Z</time>
      </trkpt>
      <trkpt lat="43.49653" lon="6.877">
        <ele>275.9</ele>
        <time>2010-01-17T10:29:14Z</time>
      </trkpt>
      <trkpt lat="43.49658" lon="6.87694">
        <ele>276.2</ele>
        <time>2010-01-17T10:29:16Z</time>
      </trkpt>
      <trkpt lat="43.49663" lon="6.87691">
        <ele>276.5</ele>
        <time>2010-01-17T10:29:18Z</time>
      </trkpt>
      <trkpt lat="43.49669" lon="6.87689">
        <ele>276.8</ele>
        <time>2010-01-17T10:29:20Z</time>
      </trkpt>
      <trkpt lat="43.49675" lon="6.87689">
        <ele>277.1</ele>
        <time>2010-01-17T10:29:22Z</time>
      </trkpt>
      <trkpt lat="43.4968" lon="6.87689">
        <ele>277.4</ele>
        <time>2010-01-17T10:29:24Z</time>
      </trkpt>
      <trkpt lat="43.49686" lon="6.87689">
        <ele>277.7</ele>
        <time>2010-01-17T10:29:26Z</time>
      </trkpt>
      <trkpt lat="43.49692" lon="6.87689">
        <ele>278</ele>
        <time>2010-01-17T10:29:28Z</time>
      </trkpt>
      <trkpt lat="43.49699" lon="6.87689">
        <ele>278.5</ele>
        <time>2010-01-17T10:29:30Z</time>
      </trkpt>
      <trkpt lat="43.49705" lon="6.8769">
        <ele>279.1</ele>
        <time>2010-01-17T10:29:32Z</time>
      </trkpt>
      <trkpt lat="43.49711" lon="6.87691">
        <ele>279.6</ele>
        <time>2010-01-17T10:29:34Z</time>
      </trkpt>
      <trkpt lat="43.49718" lon="6.87693">
        <ele>280.1</ele>
        <time>2010-01-17T10:29:36Z</time>
      </trkpt>
      <trkpt lat="43.49724" lon="6.87694">
        <ele>280.7</ele>
        <time>2010-01-17T10:29:38Z</time>
      </trkpt>
      <trkpt lat="43.49731" lon="6.87696">
        <ele>281.3</ele>
        <time>2010-01-17T10:29:40Z</time>
      </trkpt>
      <trkpt lat="43.49737" lon="6.87698">
        <ele>281.7</ele>
        <time>2010-01-17T10:29:42Z</time>
      </trkpt>
      <trkpt lat="43.49744" lon="6.877">
        <ele>282.1</ele>
        <time>2010-01-17T10:29:44Z</time>
      </trkpt>
      <trkpt lat="43.4975" lon="6.87702">
        <ele>282.7</ele>
        <time>2010-01-17T10:29:46Z</time>
      </trkpt>
      <trkpt lat="43.49756" lon="6.87705">
        <ele>283.5</ele>
        <time>2010-01-17T10:29:48Z</time>
      </trkpt>
      <trkpt lat="43.49762" lon="6.87707">
        <ele>284</ele>
        <time>2010-01-17T10:29:50Z</time>
      </trkpt>
      <trkpt lat="43.49768" lon="6.8771">
        <ele>284.5</ele>
        <time>2010-01-17T10:29:52Z</time>
      </trkpt>
      <trkpt lat="43.49774" lon="6.87712">
        <ele>284.8</ele>
        <time>2010-01-17T10:29:54Z</time>
      </trkpt>
      <trkpt lat="43.49781" lon="6.87714">
        <ele>284.6</ele>
        <time>2010-01-17T10:29:56Z</time>
      </trkpt>
      <trkpt lat="43.49787" lon="6.87716">
        <ele>284.8</ele>
        <time>2010-01-17T10:29:58Z</time>
      </trkpt>
      <trkpt lat="43.49793" lon="6.87717">
        <ele>284.9</ele>
        <time>2010-01-17T10:30:00Z</time>
      </trkpt>
      <trkpt lat="43.49799" lon="6.87719">
        <ele>285</ele>
        <time>2010-01-17T10:30:02Z</time>
      </trkpt>
      <trkpt lat="43.49805" lon="6.8772">
        <ele>285</ele>
        <time>2010-01-17T10:30:04Z</time>
      </trkpt>
      <trkpt lat="43.49812" lon="6.87721">
        <ele>285</ele>
        <time>2010-01-17T10:30:06Z</time>
      </trkpt>
      <trkpt lat="43.49818" lon="6.87721">
        <ele>285</ele>
        <time>2010-01-17T10:30:08Z</time>
      </trkpt>
      <trkpt lat="43.49824" lon="6.87722">
        <ele>285.1</ele>
        <time>2010-01-17T10:30:10Z</time>
      </trkpt>
      <trkpt lat="43.4983" lon="6.87723">
        <ele>284.8</ele>
        <time>2010-01-17T10:30:12Z</time>
      </trkpt>
      <trkpt lat="43.49835" lon="6.87724">
        <ele>284.6</ele>
        <time>2010-01-17T10:30:14Z</time>
      </trkpt>
      <trkpt lat="43.49841" lon="6.87723">
        <ele>284.4</ele>
        <time>2010-01-17T10:30:16Z</time>
      </trkpt>
      <trkpt lat="43.49847" lon="6.87722">
        <ele>284.2</ele>
        <time>2010-01-17T10:30:18Z</time>
      </trkpt>
      <trkpt lat="43.49853" lon="6.87724">
        <ele>284.2</ele>
        <time>2010-01-17T10:30:20Z</time>
      </trkpt>
      <trkpt lat="43.49858" lon="6.87728">
        <ele>284.5</ele>
        <time>2010-01-17T10:30:22Z</time>
      </trkpt>
      <trkpt lat="43.49862" lon="6.87734">
        <ele>284.9</ele>
        <time>2010-01-17T10:30:24Z</time>
      </trkpt>
      <trkpt lat="43.49865" lon="6.8774">
        <ele>285.3</ele>
        <time>2010-01-17T10:30:26Z</time>
      </trkpt>
      <trkpt lat="43.49867" lon="6.87747">
        <ele>285.8</ele>
        <time>2010-01-17T10:30:28Z</time>
      </trkpt>
      <trkpt lat="43.49869" lon="6.87754">
        <ele>286.3</ele>
        <time>2010-01-17T10:30:30Z</time>
      </trkpt>
      <trkpt lat="43.49871" lon="6.87761">
        <ele>286.3</ele>
        <time>2010-01-17T10:30:32Z</time>
      </trkpt>
      <trkpt lat="43.49872" lon="6.87768">
        <ele>286.3</ele>
        <time>2010-01-17T10:30:34Z</time>
      </trkpt>
      <trkpt lat="43.49875" lon="6.87774">
        <ele>286.6</ele>
        <time>2010-01-17T10:30:36Z</time>
      </trkpt>
      <trkpt lat="43.49878" lon="6.8778">
        <ele>286.9</ele>
        <time>2010-01-17T10:30:38Z</time>
      </trkpt>
      <trkpt lat="43.49881" lon="6.87785">
        <ele>287.3</ele>
        <time>2010-01-17T10:30:40Z</time>
      </trkpt>
      <trkpt lat="43.49886" lon="6.87789">
        <ele>287.7</ele>
        <time>2010-01-17T10:30:42Z</time>
      </trkpt>
      <trkpt lat="43.4989" lon="6.8779">
        <ele>288.1</ele>
        <time>2010-01-17T10:30:44Z</time>
      </trkpt>
      <trkpt lat="43.49897" lon="6.87787">
        <ele>288.5</ele>
        <time>2010-01-17T10:30:47Z</time>
      </trkpt>
      <trkpt lat="43.49903" lon="6.87784">
        <ele>288.9</ele>
        <time>2010-01-17T10:30:50Z</time>
      </trkpt>
      <trkpt lat="43.49909" lon="6.87779">
        <ele>289.4</ele>
        <time>2010-01-17T10:30:53Z</time>
      </trkpt>
      <trkpt lat="43.49915" lon="6.87774">
        <ele>289.8</ele>
        <time>2010-01-17T10:30:56Z</time>
      </trkpt>
      <trkpt lat="43.49921" lon="6.87769">
        <ele>290.2</ele>
        <time>2010-01-17T10:30:59Z</time>
      </trkpt>
      <trkpt lat="43.49925" lon="6.87765">
        <ele>290.4</ele>
        <time>2010-01-17T10:31:01Z</time>
      </trkpt>
      <trkpt lat="43.49929" lon="6.87762">
        <ele>290.6</ele>
        <time>2010-01-17T10:31:03Z</time>
      </trkpt>
      <trkpt lat="43.49933" lon="6.87758">
        <ele>290.7</ele>
        <time>2010-01-17T10:31:05Z</time>
      </trkpt>
      <trkpt lat="43.49937" lon="6.87755">
        <ele>290.9</ele>
        <time>2010-01-17T10:31:07Z</time>
      </trkpt>
      <trkpt lat="43.49941" lon="6.87751">
        <ele>291.2</ele>
        <time>2010-01-17T10:31:09Z</time>
      </trkpt>
      <trkpt lat="43.49945" lon="6.87748">
        <ele>291.2</ele>
        <time>2010-01-17T10:31:11Z</time>
      </trkpt>
      <trkpt lat="43.49949" lon="6.87744">
        <ele>291.6</ele>
        <time>2010-01-17T10:31:13Z</time>
      </trkpt>
      <trkpt lat="43.49953" lon="6.87741">
        <ele>291.9</ele>
        <time>2010-01-17T10:31:15Z</time>
      </trkpt>
      <trkpt lat="43.49959" lon="6.87736">
        <ele>292.4</ele>
        <time>2010-01-17T10:31:18Z</time>
      </trkpt>
      <trkpt lat="43.49963" lon="6.87733">
        <ele>292.6</ele>
        <time>2010-01-17T10:31:20Z</time>
      </trkpt>
      <trkpt lat="43.4997" lon="6.87729">
        <ele>293.2</ele>
        <time>2010-01-17T10:31:23Z</time>
      </trkpt>
      <trkpt lat="43.49974" lon="6.87726">
        <ele>293.5</ele>
        <time>2010-01-17T10:31:25Z</time>
      </trkpt>
      <trkpt lat="43.4998" lon="6.87723">
        <ele>294</ele>
        <time>2010-01-17T10:31:28Z</time>
      </trkpt>
      <trkpt lat="43.49985" lon="6.87721">
        <ele>294.2</ele>
        <time>2010-01-17T10:31:30Z</time>
      </trkpt>
      <trkpt lat="43.4999" lon="6.8772">
        <ele>294.3</ele>
        <time>2010-01-17T10:31:32Z</time>
      </trkpt>
      <trkpt lat="43.49994" lon="6.87718">
        <ele>294.4</ele>
        <time>2010-01-17T10:31:34Z</time>
      </trkpt>
      <trkpt lat="43.49999" lon="6.87716">
        <ele>294.6</ele>
        <time>2010-01-17T10:31:36Z</time>
      </trkpt>
      <trkpt lat="43.50005" lon="6.87713">
        <ele>295.1</ele>
        <time>2010-01-17T10:31:39Z</time>
      </trkpt>
      <trkpt lat="43.50011" lon="6.87711">
        <ele>295.6</ele>
        <time>2010-01-17T10:31:42Z</time>
      </trkpt>
      <trkpt lat="43.50017" lon="6.87708">
        <ele>296</ele>
        <time>2010-01-17T10:31:45Z</time>
      </trkpt>
      <trkpt lat="43.50022" lon="6.87704">
        <ele>296.5</ele>
        <time>2010-01-17T10:31:48Z</time>
      </trkpt>
      <trkpt lat="43.50028" lon="6.87701">
        <ele>297.2</ele>
        <time>2010-01-17T10:31:51Z</time>
      </trkpt>
      <trkpt lat="43.50034" lon="6.87698">
        <ele>297.7</ele>
        <time>2010-01-17T10:31:54Z</time>
      </trkpt>
      <trkpt lat="43.5004" lon="6.87696">
        <ele>297.9</ele>
        <time>2010-01-17T10:31:57Z</time>
      </trkpt>
      <trkpt lat="43.50046" lon="6.87694">
        <ele>298.3</ele>
        <time>2010-01-17T10:32:00Z</time>
      </trkpt>
      <trkpt lat="43.50053" lon="6.87692">
        <ele>298.7</ele>
        <time>2010-01-17T10:32:03Z</time>
      </trkpt>
      <trkpt lat="43.5006" lon="6.8769">
        <ele>299.1</ele>
        <time>2010-01-17T10:32:06Z</time>
      </trkpt>
      <trkpt lat="43.50066" lon="6.87688">
        <ele>299.8</ele>
        <time>2010-01-17T10:32:09Z</time>
      </trkpt>
      <trkpt lat="43.50072" lon="6.87686">
        <ele>300.4</ele>
        <time>2010-01-17T10:32:12Z</time>
      </trkpt>
      <trkpt lat="43.50079" lon="6.87683">
        <ele>300.9</ele>
        <time>2010-01-17T10:32:15Z</time>
      </trkpt>
      <trkpt lat="43.50085" lon="6.87681">
        <ele>301.4</ele>
        <time>2010-01-17T10:32:18Z</time>
      </trkpt>
      <trkpt lat="43.50092" lon="6.87678">
        <ele>301.7</ele>
        <time>2010-01-17T10:32:21Z</time>
      </trkpt>
      <trkpt lat="43.50096" lon="6.87676">
        <ele>302</ele>
        <time>2010-01-17T10:32:23Z</time>
      </trkpt>
      <trkpt lat="43.50103" lon="6.87674">
        <ele>302.5</ele>
        <time>2010-01-17T10:32:26Z</time>
      </trkpt>
      <trkpt lat="43.50109" lon="6.87673">
        <ele>303.1</ele>
        <time>2010-01-17T10:32:29Z</time>
      </trkpt>
      <trkpt lat="43.50116" lon="6.87671">
        <ele>303.8</ele>
        <time>2010-01-17T10:32:32Z</time>
      </trkpt>
      <trkpt lat="43.50122" lon="6.87671">
        <ele>304.4</ele>
        <time>2010-01-17T10:32:35Z</time>
      </trkpt>
      <trkpt lat="43.50128" lon="6.87671">
        <ele>304.9</ele>
        <time>2010-01-17T10:32:38Z</time>
      </trkpt>
      <trkpt lat="43.50135" lon="6.8767">
        <ele>305.2</ele>
        <time>2010-01-17T10:32:41Z</time>
      </trkpt>
      <trkpt lat="43.50141" lon="6.8767">
        <ele>305.5</ele>
        <time>2010-01-17T10:32:44Z</time>
      </trkpt>
      <trkpt lat="43.50148" lon="6.87671">
        <ele>306</ele>
        <time>2010-01-17T10:32:47Z</time>
      </trkpt>
      <trkpt lat="43.50154" lon="6.87673">
        <ele>306.4</ele>
        <time>2010-01-17T10:32:50Z</time>
      </trkpt>
      <trkpt lat="43.5016" lon="6.87675">
        <ele>307</ele>
        <time>2010-01-17T10:32:53Z</time>
      </trkpt>
      <trkpt lat="43.50166" lon="6.87677">
        <ele>307.3</ele>
        <time>2010-01-17T10:32:56Z</time>
      </trkpt>
      <trkpt lat="43.50171" lon="6.87683">
        <ele>308.9</ele>
        <time>2010-01-17T10:32:59Z</time>
      </trkpt>
      <trkpt lat="43.50172" lon="6.87692">
        <ele>312</ele>
        <time>2010-01-17T10:33:02Z</time>
      </trkpt>
      <trkpt lat="43.50171" lon="6.87698">
        <ele>314.5</ele>
        <time>2010-01-17T10:33:04Z</time>
      </trkpt>
      <trkpt lat="43.50169" lon="6.87706">
        <ele>316.4</ele>
        <time>2010-01-17T10:33:06Z</time>
      </trkpt>
      <trkpt lat="43.50167" lon="6.87713">
        <ele>316.9</ele>
        <time>2010-01-17T10:33:08Z</time>
      </trkpt>
      <trkpt lat="43.50166" lon="6.87721">
        <ele>317.2</ele>
        <time>2010-01-17T10:33:10Z</time>
      </trkpt>
      <trkpt lat="43.50164" lon="6.87729">
        <ele>317.9</ele>
        <time>2010-01-17T10:33:12Z</time>
      </trkpt>
      <trkpt lat="43.50162" lon="6.87735">
        <ele>318.4</ele>
        <time>2010-01-17T10:33:14Z</time>
      </trkpt>
      <trkpt lat="43.50159" lon="6.87742">
        <ele>318.7</ele>
        <time>2010-01-17T10:33:16Z</time>
      </trkpt>
      <trkpt lat="43.50157" lon="6.8775">
        <ele>319.2</ele>
        <time>2010-01-17T10:33:18Z</time>
      </trkpt>
      <trkpt lat="43.50155" lon="6.87758">
        <ele>319.5</ele>
        <time>2010-01-17T10:33:20Z</time>
      </trkpt>
      <trkpt lat="43.50153" lon="6.87767">
        <ele>320.4</ele>
        <time>2010-01-17T10:33:22Z</time>
      </trkpt>
      <trkpt lat="43.50151" lon="6.87775">
        <ele>321.2</ele>
        <time>2010-01-17T10:33:24Z</time>
      </trkpt>
      <trkpt lat="43.50148" lon="6.87783">
        <ele>321.2</ele>
        <time>2010-01-17T10:33:26Z</time>
      </trkpt>
      <trkpt lat="43.50145" lon="6.87791">
        <ele>321.4</ele>
        <time>2010-01-17T10:33:28Z</time>
      </trkpt>
      <trkpt lat="43.50143" lon="6.878">
        <ele>322.4</ele>
        <time>2010-01-17T10:33:30Z</time>
      </trkpt>
      <trkpt lat="43.5014" lon="6.87807">
        <ele>322.3</ele>
        <time>2010-01-17T10:33:32Z</time>
      </trkpt>
      <trkpt lat="43.50137" lon="6.87815">
        <ele>322.3</ele>
        <time>2010-01-17T10:33:34Z</time>
      </trkpt>
      <trkpt lat="43.50134" lon="6.87823">
        <ele>321.7</ele>
        <time>2010-01-17T10:33:36Z</time>
      </trkpt>
      <trkpt lat="43.50131" lon="6.8783">
        <ele>320.9</ele>
        <time>2010-01-17T10:33:38Z</time>
      </trkpt>
      <trkpt lat="43.50128" lon="6.87838">
        <ele>320.4</ele>
        <time>2010-01-17T10:33:40Z</time>
      </trkpt>
      <trkpt lat="43.50125" lon="6.87846">
        <ele>320.4</ele>
        <time>2010-01-17T10:33:42Z</time>
      </trkpt>
      <trkpt lat="43.50122" lon="6.87854">
        <ele>320.1</ele>
        <time>2010-01-17T10:33:44Z</time>
      </trkpt>
      <trkpt lat="43.50119" lon="6.87862">
        <ele>319.6</ele>
        <time>2010-01-17T10:33:46Z</time>
      </trkpt>
      <trkpt lat="43.50117" lon="6.8787">
        <ele>319.1</ele>
        <time>2010-01-17T10:33:48Z</time>
      </trkpt>
      <trkpt lat="43.50115" lon="6.87878">
        <ele>318.9</ele>
        <time>2010-01-17T10:33:50Z</time>
      </trkpt>
      <trkpt lat="43.50112" lon="6.87886">
        <ele>318.8</ele>
        <time>2010-01-17T10:33:52Z</time>
      </trkpt>
      <trkpt lat="43.5011" lon="6.87895">
        <ele>318.2</ele>
        <time>2010-01-17T10:33:54Z</time>
      </trkpt>
      <trkpt lat="43.50108" lon="6.87903">
        <ele>317.8</ele>
        <time>2010-01-17T10:33:56Z</time>
      </trkpt>
      <trkpt lat="43.50108" lon="6.87912">
        <ele>316.5</ele>
        <time>2010-01-17T10:33:58Z</time>
      </trkpt>
      <trkpt lat="43.50107" lon="6.8792">
        <ele>315.6</ele>
        <time>2010-01-17T10:34:00Z</time>
      </trkpt>
      <trkpt lat="43.50106" lon="6.87929">
        <ele>315.2</ele>
        <time>2010-01-17T10:34:02Z</time>
      </trkpt>
      <trkpt lat="43.50106" lon="6.87938">
        <ele>314.5</ele>
        <time>2010-01-17T10:34:04Z</time>
      </trkpt>
      <trkpt lat="43.50105" lon="6.87946">
        <ele>314.5</ele>
        <time>2010-01-17T10:34:06Z</time>
      </trkpt>
      <trkpt lat="43.50106" lon="6.87955">
        <ele>314.3</ele>
        <time>2010-01-17T10:34:08Z</time>
      </trkpt>
      <trkpt lat="43.50107" lon="6.87963">
        <ele>314.4</ele>
        <time>2010-01-17T10:34:10Z</time>
      </trkpt>
      <trkpt lat="43.50108" lon="6.87971">
        <ele>314.7</ele>
        <time>2010-01-17T10:34:12Z</time>
      </trkpt>
      <trkpt lat="43.50109" lon="6.87979">
        <ele>314.9</ele>
        <time>2010-01-17T10:34:14Z</time>
      </trkpt>
      <trkpt lat="43.5011" lon="6.87988">
        <ele>315.3</ele>
        <time>2010-01-17T10:34:16Z</time>
      </trkpt>
      <trkpt lat="43.50111" lon="6.87996">
        <ele>315.3</ele>
        <time>2010-01-17T10:34:18Z</time>
      </trkpt>
      <trkpt lat="43.50112" lon="6.88004">
        <ele>315.4</ele>
        <time>2010-01-17T10:34:20Z</time>
      </trkpt>
      <trkpt lat="43.50114" lon="6.88013">
        <ele>315.9</ele>
        <time>2010-01-17T10:34:22Z</time>
      </trkpt>
      <trkpt lat="43.50114" lon="6.8802">
        <ele>316.7</ele>
        <time>2010-01-17T10:34:24Z</time>
      </trkpt>
      <trkpt lat="43.50116" lon="6.88028">
        <ele>316.9</ele>
        <time>2010-01-17T10:34:26Z</time>
      </trkpt>
      <trkpt lat="43.50117" lon="6.88037">
        <ele>316.8</ele>
        <time>2010-01-17T10:34:28Z</time>
      </trkpt>
      <trkpt lat="43.50119" lon="6.88045">
        <ele>316.6</ele>
        <time>2010-01-17T10:34:30Z</time>
      </trkpt>
      <trkpt lat="43.50121" lon="6.88052">
        <ele>316.9</ele>
        <time>2010-01-17T10:34:32Z</time>
      </trkpt>
      <trkpt lat="43.50123" lon="6.8806">
        <ele>317.6</ele>
        <time>2010-01-17T10:34:34Z</time>
      </trkpt>
      <trkpt lat="43.50124" lon="6.88068">
        <ele>318.1</ele>
        <time>2010-01-17T10:34:36Z</time>
      </trkpt>
      <trkpt lat="43.50125" lon="6.88076">
        <ele>318.5</ele>
        <time>2010-01-17T10:34:38Z</time>
      </trkpt>
      <trkpt lat="43.50125" lon="6.88085">
        <ele>318.1</ele>
        <time>2010-01-17T10:34:40Z</time>
      </trkpt>
      <trkpt lat="43.50124" lon="6.88093">
        <ele>317.6</ele>
        <time>2010-01-17T10:34:42Z</time>
      </trkpt>
      <trkpt lat="43.50122" lon="6.88101">
        <ele>317.7</ele>
        <time>2010-01-17T10:34:44Z</time>
      </trkpt>
      <trkpt lat="43.5012" lon="6.88108">
        <ele>318.3</ele>
        <time>2010-01-17T10:34:46Z</time>
      </trkpt>
      <trkpt lat="43.50118" lon="6.88116">
        <ele>318.1</ele>
        <time>2010-01-17T10:34:48Z</time>
      </trkpt>
      <trkpt lat="43.50117" lon="6.88124">
        <ele>318</ele>
        <time>2010-01-17T10:34:50Z</time>
      </trkpt>
      <trkpt lat="43.50117" lon="6.88133">
        <ele>318.5</ele>
        <time>2010-01-17T10:34:52Z</time>
      </trkpt>
      <trkpt lat="43.50117" lon="6.88139">
        <ele>319.2</ele>
        <time>2010-01-17T10:34:54Z</time>
      </trkpt>
      <trkpt lat="43.50118" lon="6.88146">
        <ele>319.6</ele>
        <time>2010-01-17T10:34:56Z</time>
      </trkpt>
      <trkpt lat="43.50121" lon="6.88151">
        <ele>319.9</ele>
        <time>2010-01-17T10:34:58Z</time>
      </trkpt>
      <trkpt lat="43.50125" lon="6.88157">
        <ele>320.9</ele>
        <time>2010-01-17T10:35:01Z</time>
      </trkpt>
      <trkpt lat="43.5013" lon="6.8816">
        <ele>320.2</ele>
        <time>2010-01-17T10:35:04Z</time>
      </trkpt>
      <trkpt lat="43.50135" lon="6.88163">
        <ele>319.9</ele>
        <time>2010-01-17T10:35:06Z</time>
      </trkpt>
      <trkpt lat="43.50139" lon="6.88168">
        <ele>319.8</ele>
        <time>2010-01-17T10:35:08Z</time>
      </trkpt>
      <trkpt lat="43.50142" lon="6.88175">
        <ele>319.4</ele>
        <time>2010-01-17T10:35:10Z</time>
      </trkpt>
      <trkpt lat="43.50145" lon="6.88183">
        <ele>318.9</ele>
        <time>2010-01-17T10:35:12Z</time>
      </trkpt>
      <trkpt lat="43.50147" lon="6.88192">
        <ele>318.4</ele>
        <time>2010-01-17T10:35:14Z</time>
      </trkpt>
      <trkpt lat="43.50149" lon="6.88201">
        <ele>317.7</ele>
        <time>2010-01-17T10:35:16Z</time>
      </trkpt>
      <trkpt lat="43.50153" lon="6.88209">
        <ele>317.1</ele>
        <time>2010-01-17T10:35:18Z</time>
      </trkpt>
      <trkpt lat="43.50157" lon="6.88217">
        <ele>316.4</ele>
        <time>2010-01-17T10:35:20Z</time>
      </trkpt>
      <trkpt lat="43.50162" lon="6.88225">
        <ele>315.8</ele>
        <time>2010-01-17T10:35:22Z</time>
      </trkpt>
      <trkpt lat="43.50169" lon="6.88231">
        <ele>315.5</ele>
        <time>2010-01-17T10:35:24Z</time>
      </trkpt>
      <trkpt lat="43.50176" lon="6.88235">
        <ele>315.3</ele>
        <time>2010-01-17T10:35:26Z</time>
      </trkpt>
      <trkpt lat="43.50183" lon="6.88238">
        <ele>315.3</ele>
        <time>2010-01-17T10:35:28Z</time>
      </trkpt>
      <trkpt lat="43.50191" lon="6.88241">
        <ele>315.3</ele>
        <time>2010-01-17T10:35:30Z</time>
      </trkpt>
      <trkpt lat="43.50198" lon="6.88243">
        <ele>315.4</ele>
        <time>2010-01-17T10:35:32Z</time>
      </trkpt>
      <trkpt lat="43.50205" lon="6.88248">
        <ele>315.5</ele>
        <time>2010-01-17T10:35:34Z</time>
      </trkpt>
      <trkpt lat="43.50211" lon="6.88255">
        <ele>315.5</ele>
        <time>2010-01-17T10:35:36Z</time>
      </trkpt>
      <trkpt lat="43.50216" lon="6.88263">
        <ele>315.4</ele>
        <time>2010-01-17T10:35:38Z</time>
      </trkpt>
      <trkpt lat="43.50221" lon="6.88271">
        <ele>315.3</ele>
        <time>2010-01-17T10:35:40Z</time>
      </trkpt>
      <trkpt lat="43.50224" lon="6.8828">
        <ele>315.5</ele>
        <time>2010-01-17T10:35:42Z</time>
      </trkpt>
      <trkpt lat="43.50226" lon="6.8829">
        <ele>315.4</ele>
        <time>2010-01-17T10:35:44Z</time>
      </trkpt>
      <trkpt lat="43.50228" lon="6.88299">
        <ele>315.3</ele>
        <time>2010-01-17T10:35:46Z</time>
      </trkpt>
      <trkpt lat="43.50231" lon="6.88309">
        <ele>314.7</ele>
        <time>2010-01-17T10:35:48Z</time>
      </trkpt>
      <trkpt lat="43.50233" lon="6.88319">
        <ele>314.6</ele>
        <time>2010-01-17T10:35:50Z</time>
      </trkpt>
      <trkpt lat="43.50236" lon="6.88329">
        <ele>314.6</ele>
        <time>2010-01-17T10:35:52Z</time>
      </trkpt>
      <trkpt lat="43.50239" lon="6.88338">
        <ele>314.5</ele>
        <time>2010-01-17T10:35:54Z</time>
      </trkpt>
      <trkpt lat="43.5024" lon="6.88345">
        <ele>314.2</ele>
        <time>2010-01-17T10:35:56Z</time>
      </trkpt>
      <trkpt lat="43.50238" lon="6.88352">
        <ele>313.3</ele>
        <time>2010-01-17T10:35:59Z</time>
      </trkpt>
      <trkpt lat="43.50233" lon="6.88353">
        <ele>309.2</ele>
        <time>2010-01-17T10:38:32Z</time>
      </trkpt>
      <trkpt lat="43.50235" lon="6.88345">
        <ele>310.7</ele>
        <time>2010-01-17T10:42:47Z</time>
      </trkpt>
      <trkpt lat="43.50235" lon="6.88336">
        <ele>310.3</ele>
        <time>2010-01-17T10:42:52Z</time>
      </trkpt>
      <trkpt lat="43.50123" lon="6.88121">
        <ele>316.1</ele>
        <time>2010-01-17T10:44:11Z</time>
      </trkpt>
      <trkpt lat="43.50125" lon="6.88111">
        <ele>315.5</ele>
        <time>2010-01-17T10:44:13Z</time>
      </trkpt>
      <trkpt lat="43.50127" lon="6.88101">
        <ele>315.3</ele>
        <time>2010-01-17T10:44:15Z</time>
      </trkpt>
      <trkpt lat="43.5013" lon="6.88091">
        <ele>314.7</ele>
        <time>2010-01-17T10:44:17Z</time>
      </trkpt>
      <trkpt lat="43.50131" lon="6.88079">
        <ele>314</ele>
        <time>2010-01-17T10:44:19Z</time>
      </trkpt>
      <trkpt lat="43.5013" lon="6.88072">
        <ele>313.7</ele>
        <time>2010-01-17T10:44:20Z</time>
      </trkpt>
      <trkpt lat="43.50129" lon="6.88065">
        <ele>313.5</ele>
        <time>2010-01-17T10:44:21Z</time>
      </trkpt>
      <trkpt lat="43.50126" lon="6.88052">
        <ele>313.3</ele>
        <time>2010-01-17T10:44:23Z</time>
      </trkpt>
      <trkpt lat="43.50125" lon="6.88046">
        <ele>313</ele>
        <time>2010-01-17T10:44:24Z</time>
      </trkpt>
      <trkpt lat="43.50119" lon="6.87876">
        <ele>308.2</ele>
        <time>2010-01-17T10:44:46Z</time>
      </trkpt>
      <trkpt lat="43.50162" lon="6.87749">
        <ele>305.4</ele>
        <time>2010-01-17T10:45:00Z</time>
      </trkpt>
      <trkpt lat="43.50171" lon="6.8772">
        <ele>305.1</ele>
        <time>2010-01-17T10:45:03Z</time>
      </trkpt>
      <trkpt lat="43.50173" lon="6.87711">
        <ele>305.1</ele>
        <time>2010-01-17T10:45:04Z</time>
      </trkpt>
      <trkpt lat="43.50175" lon="6.87702">
        <ele>304.9</ele>
        <time>2010-01-17T10:45:05Z</time>
      </trkpt>
      <trkpt lat="43.50177" lon="6.87685">
        <ele>305.1</ele>
        <time>2010-01-17T10:45:07Z</time>
      </trkpt>
      <trkpt lat="43.50175" lon="6.87677">
        <ele>305.6</ele>
        <time>2010-01-17T10:45:08Z</time>
      </trkpt>
      <trkpt lat="43.50171" lon="6.87671">
        <ele>305.9</ele>
        <time>2010-01-17T10:45:09Z</time>
      </trkpt>
      <trkpt lat="43.50166" lon="6.87668">
        <ele>306.2</ele>
        <time>2010-01-17T10:45:10Z</time>
      </trkpt>
      <trkpt lat="43.5016" lon="6.87668">
        <ele>306.6</ele>
        <time>2010-01-17T10:45:11Z</time>
      </trkpt>
      <trkpt lat="43.49495" lon="6.87373">
        <ele>258.2</ele>
        <time>2010-01-17T10:48:20Z</time>
      </trkpt>
      <trkpt lat="43.49477" lon="6.87315">
        <ele>258.3</ele>
        <time>2010-01-17T10:48:28Z</time>
      </trkpt>
      <trkpt lat="43.4964" lon="6.86694">
        <ele>289.7</ele>
        <time>2010-01-17T10:52:38Z</time>
      </trkpt>
      <trkpt lat="43.49644" lon="6.86685">
        <ele>290.7</ele>
        <time>2010-01-17T10:52:42Z</time>
      </trkpt>
      <trkpt lat="43.49649" lon="6.86676">
        <ele>291.5</ele>
        <time>2010-01-17T10:52:46Z</time>
      </trkpt>
      <trkpt lat="43.49653" lon="6.86666">
        <ele>292</ele>
        <time>2010-01-17T10:52:50Z</time>
      </trkpt>
      <trkpt lat="43.49658" lon="6.86654">
        <ele>292.5</ele>
        <time>2010-01-17T10:52:55Z</time>
      </trkpt>
      <trkpt lat="43.49705" lon="6.86522">
        <ele>300.1</ele>
        <time>2010-01-17T10:53:48Z</time>
      </trkpt>
      <trkpt lat="43.49709" lon="6.86513">
        <ele>300.6</ele>
        <time>2010-01-17T10:53:52Z</time>
      </trkpt>
      <trkpt lat="43.49865" lon="6.86337">
        <ele>312.1</ele>
        <time>2010-01-17T10:55:40Z</time>
      </trkpt>
      <trkpt lat="43.50188" lon="6.86438">
        <ele>337.4</ele>
        <time>2010-01-17T10:59:42Z</time>
      </trkpt>
      <trkpt lat="43.50191" lon="6.86444">
        <ele>337.6</ele>
        <time>2010-01-17T10:59:45Z</time>
      </trkpt>
      <trkpt lat="43.50193" lon="6.86451">
        <ele>337.6</ele>
        <time>2010-01-17T10:59:48Z</time>
      </trkpt>
      <trkpt lat="43.50195" lon="6.86458">
        <ele>337.8</ele>
        <time>2010-01-17T10:59:51Z</time>
      </trkpt>
      <trkpt lat="43.50197" lon="6.86464">
        <ele>337.9</ele>
        <time>2010-01-17T10:59:54Z</time>
      </trkpt>
      <trkpt lat="43.502" lon="6.86471">
        <ele>337.7</ele>
        <time>2010-01-17T10:59:57Z</time>
      </trkpt>
      <trkpt lat="43.50459" lon="6.86392">
        <ele>367.1</ele>
        <time>2010-01-17T11:03:06Z</time>
      </trkpt>
      <trkpt lat="43.50403" lon="6.86071">
        <ele>380.4</ele>
        <time>2010-01-17T11:06:29Z</time>
      </trkpt>
      <trkpt lat="43.50293" lon="6.85588">
        <ele>386.5</ele>
        <time>2010-01-17T11:08:52Z</time>
      </trkpt>
      <trkpt lat="43.50302" lon="6.85348">
        <ele>393.4</ele>
        <time>2010-01-17T11:10:03Z</time>
      </trkpt>
      <trkpt lat="43.50302" lon="6.8534">
        <ele>393.9</ele>
        <time>2010-01-17T11:10:06Z</time>
      </trkpt>
      <trkpt lat="43.50303" lon="6.85332">
        <ele>394.3</ele>
        <time>2010-01-17T11:10:09Z</time>
      </trkpt>
      <trkpt lat="43.50304" lon="6.85321">
        <ele>395.3</ele>
        <time>2010-01-17T11:10:14Z</time>
      </trkpt>
      <trkpt lat="43.50393" lon="6.85236">
        <ele>404.2</ele>
        <time>2010-01-17T11:11:21Z</time>
      </trkpt>
      <trkpt lat="43.50398" lon="6.85235">
        <ele>404.5</ele>
        <time>2010-01-17T11:11:24Z</time>
      </trkpt>
      <trkpt lat="43.50374" lon="6.85017">
        <ele>416.9</ele>
        <time>2010-01-17T11:13:20Z</time>
      </trkpt>
      <trkpt lat="43.50385" lon="6.84979">
        <ele>418.9</ele>
        <time>2010-01-17T11:13:38Z</time>
      </trkpt>
      <trkpt lat="43.50391" lon="6.84977">
        <ele>419.4</ele>
        <time>2010-01-17T11:13:41Z</time>
      </trkpt>
      <trkpt lat="43.50397" lon="6.84978">
        <ele>419.9</ele>
        <time>2010-01-17T11:13:44Z</time>
      </trkpt>
      <trkpt lat="43.50408" lon="6.84979">
        <ele>420.4</ele>
        <time>2010-01-17T11:13:49Z</time>
      </trkpt>
      <trkpt lat="43.50444" lon="6.84981">
        <ele>422.7</ele>
        <time>2010-01-17T11:14:07Z</time>
      </trkpt>
      <trkpt lat="43.50449" lon="6.84981">
        <ele>423</ele>
        <time>2010-01-17T11:14:10Z</time>
      </trkpt>
      <trkpt lat="43.50455" lon="6.84981">
        <ele>423.5</ele>
        <time>2010-01-17T11:14:13Z</time>
      </trkpt>
      <trkpt lat="43.50461" lon="6.84979">
        <ele>423.9</ele>
        <time>2010-01-17T11:14:16Z</time>
      </trkpt>
      <trkpt lat="43.50467" lon="6.84976">
        <ele>424.2</ele>
        <time>2010-01-17T11:14:19Z</time>
      </trkpt>
      <trkpt lat="43.50473" lon="6.84972">
        <ele>424.5</ele>
        <time>2010-01-17T11:14:22Z</time>
      </trkpt>
      <trkpt lat="43.50488" lon="6.84959">
        <ele>426.5</ele>
        <time>2010-01-17T11:14:31Z</time>
      </trkpt>
      <trkpt lat="43.50479" lon="6.84906">
        <ele>427</ele>
        <time>2010-01-17T11:14:56Z</time>
      </trkpt>
      <trkpt lat="43.50472" lon="6.84802">
        <ele>429.4</ele>
        <time>2010-01-17T11:15:32Z</time>
      </trkpt>
      <trkpt lat="43.5052" lon="6.84539">
        <ele>439.2</ele>
        <time>2010-01-17T11:17:09Z</time>
      </trkpt>
      <trkpt lat="43.50558" lon="6.84562">
        <ele>442.2</ele>
        <time>2010-01-17T11:17:33Z</time>
      </trkpt>
      <trkpt lat="43.50562" lon="6.84573">
        <ele>442.9</ele>
        <time>2010-01-17T11:17:38Z</time>
      </trkpt>
      <trkpt lat="43.50581" lon="6.84577">
        <ele>444</ele>
        <time>2010-01-17T11:17:53Z</time>
      </trkpt>
      <trkpt lat="43.50649" lon="6.84476">
        <ele>450.4</ele>
        <time>2010-01-17T11:18:53Z</time>
      </trkpt>
      <trkpt lat="43.50665" lon="6.8448">
        <ele>451.2</ele>
        <time>2010-01-17T11:19:02Z</time>
      </trkpt>
      <trkpt lat="43.50676" lon="6.84491">
        <ele>452.5</ele>
        <time>2010-01-17T11:19:10Z</time>
      </trkpt>
      <trkpt lat="43.50682" lon="6.845">
        <ele>453.3</ele>
        <time>2010-01-17T11:19:15Z</time>
      </trkpt>
      <trkpt lat="43.50937" lon="6.83992">
        <ele>441.7</ele>
        <time>2010-01-17T11:25:09Z</time>
      </trkpt>
      <trkpt lat="43.50943" lon="6.83984">
        <ele>440.6</ele>
        <time>2010-01-17T11:25:10Z</time>
      </trkpt>
      <trkpt lat="43.50949" lon="6.83974">
        <ele>439.8</ele>
        <time>2010-01-17T11:25:11Z</time>
      </trkpt>
      <trkpt lat="43.50954" lon="6.83964">
        <ele>438.7</ele>
        <time>2010-01-17T11:25:12Z</time>
      </trkpt>
      <trkpt lat="43.50958" lon="6.83952">
        <ele>437.8</ele>
        <time>2010-01-17T11:25:13Z</time>
      </trkpt>
      <trkpt lat="43.50979" lon="6.83826">
        <ele>429.9</ele>
        <time>2010-01-17T11:25:25Z</time>
      </trkpt>
      <trkpt lat="43.50974" lon="6.83818">
        <ele>428.6</ele>
        <time>2010-01-17T11:25:27Z</time>
      </trkpt>
      <trkpt lat="43.50967" lon="6.83822">
        <ele>428.2</ele>
        <time>2010-01-17T11:25:29Z</time>
      </trkpt>
      <trkpt lat="43.50603" lon="6.83358">
        <ele>391.6</ele>
        <time>2010-01-17T11:26:50Z</time>
      </trkpt>
      <trkpt lat="43.50598" lon="6.83355">
        <ele>391.4</ele>
        <time>2010-01-17T11:27:05Z</time>
      </trkpt>
      <trkpt lat="43.50593" lon="6.83351">
        <ele>391.4</ele>
        <time>2010-01-17T11:27:09Z</time>
      </trkpt>
      <trkpt lat="43.50589" lon="6.83347">
        <ele>391.6</ele>
        <time>2010-01-17T11:27:12Z</time>
      </trkpt>
      <trkpt lat="43.50585" lon="6.83342">
        <ele>392</ele>
        <time>2010-01-17T11:27:16Z</time>
      </trkpt>
      <trkpt lat="43.50579" lon="6.83338">
        <ele>392.4</ele>
        <time>2010-01-17T11:27:20Z</time>
      </trkpt>
      <trkpt lat="43.50575" lon="6.83336">
        <ele>392.7</ele>
        <time>2010-01-17T11:27:23Z</time>
      </trkpt>
      <trkpt lat="43.50569" lon="6.83332">
        <ele>393.1</ele>
        <time>2010-01-17T11:27:27Z</time>
      </trkpt>
      <trkpt lat="43.50564" lon="6.8333">
        <ele>393.3</ele>
        <time>2010-01-17T11:27:30Z</time>
      </trkpt>
      <trkpt lat="43.50559" lon="6.83327">
        <ele>394.1</ele>
        <time>2010-01-17T11:27:33Z</time>
      </trkpt>
      <trkpt lat="43.50553" lon="6.83324">
        <ele>394.7</ele>
        <time>2010-01-17T11:27:36Z</time>
      </trkpt>
      <trkpt lat="43.50548" lon="6.8332">
        <ele>394.9</ele>
        <time>2010-01-17T11:27:39Z</time>
      </trkpt>
      <trkpt lat="43.50543" lon="6.83317">
        <ele>395.3</ele>
        <time>2010-01-17T11:27:42Z</time>
      </trkpt>
      <trkpt lat="43.50537" lon="6.83312">
        <ele>395.5</ele>
        <time>2010-01-17T11:27:45Z</time>
      </trkpt>
      <trkpt lat="43.50532" lon="6.83309">
        <ele>395.9</ele>
        <time>2010-01-17T11:27:48Z</time>
      </trkpt>
      <trkpt lat="43.50526" lon="6.83306">
        <ele>396.5</ele>
        <time>2010-01-17T11:27:51Z</time>
      </trkpt>
      <trkpt lat="43.5052" lon="6.83303">
        <ele>396.7</ele>
        <time>2010-01-17T11:27:54Z</time>
      </trkpt>
      <trkpt lat="43.50515" lon="6.83298">
        <ele>396.6</ele>
        <time>2010-01-17T11:27:57Z</time>
      </trkpt>
      <trkpt lat="43.50509" lon="6.83295">
        <ele>397.2</ele>
        <time>2010-01-17T11:28:00Z</time>
      </trkpt>
      <trkpt lat="43.50503" lon="6.83292">
        <ele>398.3</ele>
        <time>2010-01-17T11:28:03Z</time>
      </trkpt>
      <trkpt lat="43.50496" lon="6.83289">
        <ele>399.5</ele>
        <time>2010-01-17T11:28:06Z</time>
      </trkpt>
      <trkpt lat="43.5049" lon="6.83287">
        <ele>400.8</ele>
        <time>2010-01-17T11:28:09Z</time>
      </trkpt>
      <trkpt lat="43.50485" lon="6.83285">
        <ele>401.5</ele>
        <time>2010-01-17T11:28:11Z</time>
      </trkpt>
      <trkpt lat="43.50478" lon="6.83282">
        <ele>401.4</ele>
        <time>2010-01-17T11:28:14Z</time>
      </trkpt>
      <trkpt lat="43.50474" lon="6.8328">
        <ele>400.8</ele>
        <time>2010-01-17T11:28:16Z</time>
      </trkpt>
      <trkpt lat="43.50469" lon="6.83278">
        <ele>400.8</ele>
        <time>2010-01-17T11:28:18Z</time>
      </trkpt>
      <trkpt lat="43.50464" lon="6.83277">
        <ele>401.3</ele>
        <time>2010-01-17T11:28:20Z</time>
      </trkpt>
      <trkpt lat="43.50459" lon="6.83276">
        <ele>401.9</ele>
        <time>2010-01-17T11:28:22Z</time>
      </trkpt>
      <trkpt lat="43.50454" lon="6.83274">
        <ele>402.5</ele>
        <time>2010-01-17T11:28:24Z</time>
      </trkpt>
      <trkpt lat="43.50449" lon="6.83274">
        <ele>403.3</ele>
        <time>2010-01-17T11:28:26Z</time>
      </trkpt>
      <trkpt lat="43.50445" lon="6.83273">
        <ele>403.9</ele>
        <time>2010-01-17T11:28:28Z</time>
      </trkpt>
      <trkpt lat="43.5044" lon="6.83273">
        <ele>404.5</ele>
        <time>2010-01-17T11:28:30Z</time>
      </trkpt>
      <trkpt lat="43.50435" lon="6.83273">
        <ele>405</ele>
        <time>2010-01-17T11:28:32Z</time>
      </trkpt>
      <trkpt lat="43.5043" lon="6.83272">
        <ele>405.5</ele>
        <time>2010-01-17T11:28:34Z</time>
      </trkpt>
      <trkpt lat="43.50424" lon="6.8327">
        <ele>403.7</ele>
        <time>2010-01-17T11:28:37Z</time>
      </trkpt>
      <trkpt lat="43.50419" lon="6.8327">
        <ele>403.3</ele>
        <time>2010-01-17T11:28:39Z</time>
      </trkpt>
      <trkpt lat="43.50414" lon="6.8327">
        <ele>403.2</ele>
        <time>2010-01-17T11:28:41Z</time>
      </trkpt>
      <trkpt lat="43.50409" lon="6.8327">
        <ele>403.1</ele>
        <time>2010-01-17T11:28:43Z</time>
      </trkpt>
      <trkpt lat="43.50404" lon="6.8327">
        <ele>403.2</ele>
        <time>2010-01-17T11:28:45Z</time>
      </trkpt>
      <trkpt lat="43.504" lon="6.8327">
        <ele>403.1</ele>
        <time>2010-01-17T11:28:47Z</time>
      </trkpt>
      <trkpt lat="43.50394" lon="6.8327">
        <ele>403</ele>
        <time>2010-01-17T11:28:49Z</time>
      </trkpt>
      <trkpt lat="43.50389" lon="6.83271">
        <ele>403.3</ele>
        <time>2010-01-17T11:28:51Z</time>
      </trkpt>
      <trkpt lat="43.50384" lon="6.83272">
        <ele>403.9</ele>
        <time>2010-01-17T11:28:53Z</time>
      </trkpt>
      <trkpt lat="43.50379" lon="6.83274">
        <ele>404.1</ele>
        <time>2010-01-17T11:28:55Z</time>
      </trkpt>
      <trkpt lat="43.50374" lon="6.83275">
        <ele>404.2</ele>
        <time>2010-01-17T11:28:57Z</time>
      </trkpt>
      <trkpt lat="43.50369" lon="6.83276">
        <ele>404.6</ele>
        <time>2010-01-17T11:28:59Z</time>
      </trkpt>
      <trkpt lat="43.50364" lon="6.83277">
        <ele>404.9</ele>
        <time>2010-01-17T11:29:01Z</time>
      </trkpt>
      <trkpt lat="43.50359" lon="6.83278">
        <ele>404.7</ele>
        <time>2010-01-17T11:29:03Z</time>
      </trkpt>
      <trkpt lat="43.50354" lon="6.83278">
        <ele>404.5</ele>
        <time>2010-01-17T11:29:05Z</time>
      </trkpt>
      <trkpt lat="43.50349" lon="6.83278">
        <ele>404.3</ele>
        <time>2010-01-17T11:29:07Z</time>
      </trkpt>
      <trkpt lat="43.50344" lon="6.83277">
        <ele>404.1</ele>
        <time>2010-01-17T11:29:09Z</time>
      </trkpt>
      <trkpt lat="43.50338" lon="6.83274">
        <ele>404.6</ele>
        <time>2010-01-17T11:29:12Z</time>
      </trkpt>
      <trkpt lat="43.50333" lon="6.83271">
        <ele>405.1</ele>
        <time>2010-01-17T11:29:14Z</time>
      </trkpt>
      <trkpt lat="43.5033" lon="6.83268">
        <ele>405.6</ele>
        <time>2010-01-17T11:29:16Z</time>
      </trkpt>
      <trkpt lat="43.50326" lon="6.83263">
        <ele>406.1</ele>
        <time>2010-01-17T11:29:18Z</time>
      </trkpt>
      <trkpt lat="43.50321" lon="6.83256">
        <ele>406.9</ele>
        <time>2010-01-17T11:29:21Z</time>
      </trkpt>
      <trkpt lat="43.50319" lon="6.8325">
        <ele>407.3</ele>
        <time>2010-01-17T11:29:23Z</time>
      </trkpt>
      <trkpt lat="43.50317" lon="6.83244">
        <ele>407.7</ele>
        <time>2010-01-17T11:29:25Z</time>
      </trkpt>
      <trkpt lat="43.50315" lon="6.83238">
        <ele>408.1</ele>
        <time>2010-01-17T11:29:27Z</time>
      </trkpt>
      <trkpt lat="43.50314" lon="6.83232">
        <ele>408.6</ele>
        <time>2010-01-17T11:29:29Z</time>
      </trkpt>
      <trkpt lat="43.50313" lon="6.83225">
        <ele>408.4</ele>
        <time>2010-01-17T11:29:31Z</time>
      </trkpt>
      <trkpt lat="43.50312" lon="6.83218">
        <ele>408.4</ele>
        <time>2010-01-17T11:29:33Z</time>
      </trkpt>
      <trkpt lat="43.50312" lon="6.83211">
        <ele>408.7</ele>
        <time>2010-01-17T11:29:35Z</time>
      </trkpt>
      <trkpt lat="43.50311" lon="6.83204">
        <ele>408.8</ele>
        <time>2010-01-17T11:29:37Z</time>
      </trkpt>
      <trkpt lat="43.50311" lon="6.83198">
        <ele>409.1</ele>
        <time>2010-01-17T11:29:39Z</time>
      </trkpt>
      <trkpt lat="43.5031" lon="6.83191">
        <ele>409.4</ele>
        <time>2010-01-17T11:29:41Z</time>
      </trkpt>
      <trkpt lat="43.50309" lon="6.83185">
        <ele>409.5</ele>
        <time>2010-01-17T11:29:43Z</time>
      </trkpt>
      <trkpt lat="43.50307" lon="6.83178">
        <ele>409.4</ele>
        <time>2010-01-17T11:29:45Z</time>
      </trkpt>
      <trkpt lat="43.50306" lon="6.83172">
        <ele>409.4</ele>
        <time>2010-01-17T11:29:47Z</time>
      </trkpt>
      <trkpt lat="43.50304" lon="6.83166">
        <ele>409.5</ele>
        <time>2010-01-17T11:29:49Z</time>
      </trkpt>
      <trkpt lat="43.50302" lon="6.8316">
        <ele>409.8</ele>
        <time>2010-01-17T11:29:51Z</time>
      </trkpt>
      <trkpt lat="43.503" lon="6.83154">
        <ele>410.1</ele>
        <time>2010-01-17T11:29:53Z</time>
      </trkpt>
      <trkpt lat="43.50299" lon="6.83148">
        <ele>410.5</ele>
        <time>2010-01-17T11:29:55Z</time>
      </trkpt>
      <trkpt lat="43.50297" lon="6.83142">
        <ele>410.7</ele>
        <time>2010-01-17T11:29:57Z</time>
      </trkpt>
      <trkpt lat="43.50295" lon="6.83135">
        <ele>410.8</ele>
        <time>2010-01-17T11:29:59Z</time>
      </trkpt>
      <trkpt lat="43.50295" lon="6.83127">
        <ele>410.5</ele>
        <time>2010-01-17T11:30:01Z</time>
      </trkpt>
      <trkpt lat="43.50295" lon="6.83116">
        <ele>409.9</ele>
        <time>2010-01-17T11:30:03Z</time>
      </trkpt>
      <trkpt lat="43.50294" lon="6.83104">
        <ele>409.2</ele>
        <time>2010-01-17T11:30:05Z</time>
      </trkpt>
      <trkpt lat="43.50291" lon="6.83093">
        <ele>408.7</ele>
        <time>2010-01-17T11:30:07Z</time>
      </trkpt>
      <trkpt lat="43.50286" lon="6.83082">
        <ele>408.2</ele>
        <time>2010-01-17T11:30:09Z</time>
      </trkpt>
      <trkpt lat="43.50282" lon="6.83071">
        <ele>407.7</ele>
        <time>2010-01-17T11:30:11Z</time>
      </trkpt>
      <trkpt lat="43.5028" lon="6.83065">
        <ele>407.4</ele>
        <time>2010-01-17T11:30:12Z</time>
      </trkpt>
      <trkpt lat="43.50279" lon="6.83059">
        <ele>407.1</ele>
        <time>2010-01-17T11:30:13Z</time>
      </trkpt>
      <trkpt lat="43.50278" lon="6.83052">
        <ele>406.8</ele>
        <time>2010-01-17T11:30:14Z</time>
      </trkpt>
      <trkpt lat="43.50277" lon="6.83045">
        <ele>406.5</ele>
        <time>2010-01-17T11:30:15Z</time>
      </trkpt>
      <trkpt lat="43.50277" lon="6.83038">
        <ele>406.2</ele>
        <time>2010-01-17T11:30:16Z</time>
      </trkpt>
      <trkpt lat="43.50277" lon="6.83031">
        <ele>405.9</ele>
        <time>2010-01-17T11:30:17Z</time>
      </trkpt>
      <trkpt lat="43.50277" lon="6.83024">
        <ele>405.6</ele>
        <time>2010-01-17T11:30:18Z</time>
      </trkpt>
      <trkpt lat="43.50276" lon="6.83012">
        <ele>405</ele>
        <time>2010-01-17T11:30:20Z</time>
      </trkpt>
      <trkpt lat="43.50275" lon="6.83005">
        <ele>404.7</ele>
        <time>2010-01-17T11:30:21Z</time>
      </trkpt>
      <trkpt lat="43.50273" lon="6.82994">
        <ele>404.3</ele>
        <time>2010-01-17T11:30:23Z</time>
      </trkpt>
      <trkpt lat="43.5027" lon="6.82981">
        <ele>403.7</ele>
        <time>2010-01-17T11:30:25Z</time>
      </trkpt>
      <trkpt lat="43.50268" lon="6.82975">
        <ele>403.5</ele>
        <time>2010-01-17T11:30:26Z</time>
      </trkpt>
      <trkpt lat="43.50266" lon="6.82968">
        <ele>403.3</ele>
        <time>2010-01-17T11:30:27Z</time>
      </trkpt>
      <trkpt lat="43.5026" lon="6.8296">
        <ele>402.8</ele>
        <time>2010-01-17T11:30:29Z</time>
      </trkpt>
      <trkpt lat="43.50253" lon="6.82954">
        <ele>402.4</ele>
        <time>2010-01-17T11:30:31Z</time>
      </trkpt>
      <trkpt lat="43.50245" lon="6.82948">
        <ele>402</ele>
        <time>2010-01-17T11:30:33Z</time>
      </trkpt>
      <trkpt lat="43.5024" lon="6.82945">
        <ele>401.7</ele>
        <time>2010-01-17T11:30:34Z</time>
      </trkpt>
      <trkpt lat="43.50236" lon="6.82941">
        <ele>401.6</ele>
        <time>2010-01-17T11:30:35Z</time>
      </trkpt>
      <trkpt lat="43.50232" lon="6.82936">
        <ele>401.2</ele>
        <time>2010-01-17T11:30:36Z</time>
      </trkpt>
      <trkpt lat="43.50226" lon="6.8293">
        <ele>400.7</ele>
        <time>2010-01-17T11:30:38Z</time>
      </trkpt>
      <trkpt lat="43.5022" lon="6.82929">
        <ele>400.3</ele>
        <time>2010-01-17T11:30:40Z</time>
      </trkpt>
      <trkpt lat="43.50216" lon="6.82935">
        <ele>400.1</ele>
        <time>2010-01-17T11:30:42Z</time>
      </trkpt>
      <trkpt lat="43.50214" lon="6.82945">
        <ele>400</ele>
        <time>2010-01-17T11:30:44Z</time>
      </trkpt>
      <trkpt lat="43.50213" lon="6.82958">
        <ele>399.6</ele>
        <time>2010-01-17T11:30:46Z</time>
      </trkpt>
      <trkpt lat="43.50211" lon="6.82965">
        <ele>399.5</ele>
        <time>2010-01-17T11:30:47Z</time>
      </trkpt>
      <trkpt lat="43.5021" lon="6.82973">
        <ele>399.4</ele>
        <time>2010-01-17T11:30:48Z</time>
      </trkpt>
      <trkpt lat="43.50207" lon="6.82979">
        <ele>399.2</ele>
        <time>2010-01-17T11:30:49Z</time>
      </trkpt>
      <trkpt lat="43.50204" lon="6.82986">
        <ele>399</ele>
        <time>2010-01-17T11:30:50Z</time>
      </trkpt>
      <trkpt lat="43.502" lon="6.82992">
        <ele>398.7</ele>
        <time>2010-01-17T11:30:51Z</time>
      </trkpt>
      <trkpt lat="43.50196" lon="6.82997">
        <ele>398.3</ele>
        <time>2010-01-17T11:30:52Z</time>
      </trkpt>
      <trkpt lat="43.50191" lon="6.83003">
        <ele>398</ele>
        <time>2010-01-17T11:30:53Z</time>
      </trkpt>
      <trkpt lat="43.50185" lon="6.83008">
        <ele>397.6</ele>
        <time>2010-01-17T11:30:54Z</time>
      </trkpt>
      <trkpt lat="43.5018" lon="6.83013">
        <ele>397.3</ele>
        <time>2010-01-17T11:30:55Z</time>
      </trkpt>
      <trkpt lat="43.50174" lon="6.83019">
        <ele>397</ele>
        <time>2010-01-17T11:30:56Z</time>
      </trkpt>
      <trkpt lat="43.50169" lon="6.83025">
        <ele>396.5</ele>
        <time>2010-01-17T11:30:57Z</time>
      </trkpt>
      <trkpt lat="43.50164" lon="6.83031">
        <ele>396.1</ele>
        <time>2010-01-17T11:30:58Z</time>
      </trkpt>
      <trkpt lat="43.50158" lon="6.83037">
        <ele>395.6</ele>
        <time>2010-01-17T11:30:59Z</time>
      </trkpt>
      <trkpt lat="43.50153" lon="6.83044">
        <ele>395.1</ele>
        <time>2010-01-17T11:31:00Z</time>
      </trkpt>
      <trkpt lat="43.50148" lon="6.8305">
        <ele>394.7</ele>
        <time>2010-01-17T11:31:01Z</time>
      </trkpt>
      <trkpt lat="43.50142" lon="6.83056">
        <ele>394.3</ele>
        <time>2010-01-17T11:31:02Z</time>
      </trkpt>
      <trkpt lat="43.50136" lon="6.83062">
        <ele>393.9</ele>
        <time>2010-01-17T11:31:03Z</time>
      </trkpt>
      <trkpt lat="43.5013" lon="6.83066">
        <ele>393.4</ele>
        <time>2010-01-17T11:31:04Z</time>
      </trkpt>
      <trkpt lat="43.50125" lon="6.8307">
        <ele>392.9</ele>
        <time>2010-01-17T11:31:05Z</time>
      </trkpt>
      <trkpt lat="43.5012" lon="6.83072">
        <ele>392.7</ele>
        <time>2010-01-17T11:31:06Z</time>
      </trkpt>
      <trkpt lat="43.50114" lon="6.83071">
        <ele>392.6</ele>
        <time>2010-01-17T11:31:07Z</time>
      </trkpt>
      <trkpt lat="43.50109" lon="6.83069">
        <ele>392.4</ele>
        <time>2010-01-17T11:31:08Z</time>
      </trkpt>
      <trkpt lat="43.50104" lon="6.83065">
        <ele>392.1</ele>
        <time>2010-01-17T11:31:09Z</time>
      </trkpt>
      <trkpt lat="43.50099" lon="6.8306">
        <ele>391.7</ele>
        <time>2010-01-17T11:31:10Z</time>
      </trkpt>
      <trkpt lat="43.50093" lon="6.83055">
        <ele>391.6</ele>
        <time>2010-01-17T11:31:11Z</time>
      </trkpt>
      <trkpt lat="43.50087" lon="6.8305">
        <ele>391.4</ele>
        <time>2010-01-17T11:31:12Z</time>
      </trkpt>
      <trkpt lat="43.50081" lon="6.83044">
        <ele>391.2</ele>
        <time>2010-01-17T11:31:13Z</time>
      </trkpt>
      <trkpt lat="43.50074" lon="6.83039">
        <ele>390.9</ele>
        <time>2010-01-17T11:31:14Z</time>
      </trkpt>
      <trkpt lat="43.50067" lon="6.83035">
        <ele>390.7</ele>
        <time>2010-01-17T11:31:15Z</time>
      </trkpt>
      <trkpt lat="43.5006" lon="6.8303">
        <ele>390.4</ele>
        <time>2010-01-17T11:31:16Z</time>
      </trkpt>
      <trkpt lat="43.50053" lon="6.83025">
        <ele>390.3</ele>
        <time>2010-01-17T11:31:17Z</time>
      </trkpt>
      <trkpt lat="43.50047" lon="6.83019">
        <ele>390.3</ele>
        <time>2010-01-17T11:31:18Z</time>
      </trkpt>
      <trkpt lat="43.50041" lon="6.83013">
        <ele>390</ele>
        <time>2010-01-17T11:31:19Z</time>
      </trkpt>
      <trkpt lat="43.50034" lon="6.83006">
        <ele>388.6</ele>
        <time>2010-01-17T11:31:20Z</time>
      </trkpt>
      <trkpt lat="43.50028" lon="6.82999">
        <ele>387</ele>
        <time>2010-01-17T11:31:21Z</time>
      </trkpt>
      <trkpt lat="43.50021" lon="6.82994">
        <ele>385.8</ele>
        <time>2010-01-17T11:31:22Z</time>
      </trkpt>
      <trkpt lat="43.50014" lon="6.8299">
        <ele>384.7</ele>
        <time>2010-01-17T11:31:23Z</time>
      </trkpt>
      <trkpt lat="43.50007" lon="6.82986">
        <ele>384.1</ele>
        <time>2010-01-17T11:31:24Z</time>
      </trkpt>
      <trkpt lat="43.5" lon="6.82983">
        <ele>383.5</ele>
        <time>2010-01-17T11:31:25Z</time>
      </trkpt>
      <trkpt lat="43.49993" lon="6.82979">
        <ele>383</ele>
        <time>2010-01-17T11:31:26Z</time>
      </trkpt>
      <trkpt lat="43.49986" lon="6.82974">
        <ele>382.5</ele>
        <time>2010-01-17T11:31:27Z</time>
      </trkpt>
      <trkpt lat="43.4998" lon="6.82968">
        <ele>382.1</ele>
        <time>2010-01-17T11:31:28Z</time>
      </trkpt>
      <trkpt lat="43.49975" lon="6.82962">
        <ele>381.7</ele>
        <time>2010-01-17T11:31:29Z</time>
      </trkpt>
      <trkpt lat="43.4997" lon="6.82955">
        <ele>381.2</ele>
        <time>2010-01-17T11:31:30Z</time>
      </trkpt>
      <trkpt lat="43.49966" lon="6.82948">
        <ele>380.8</ele>
        <time>2010-01-17T11:31:31Z</time>
      </trkpt>
      <trkpt lat="43.49961" lon="6.82941">
        <ele>380.4</ele>
        <time>2010-01-17T11:31:32Z</time>
      </trkpt>
      <trkpt lat="43.49956" lon="6.82934">
        <ele>380</ele>
        <time>2010-01-17T11:31:33Z</time>
      </trkpt>
      <trkpt lat="43.4995" lon="6.82929">
        <ele>379.6</ele>
        <time>2010-01-17T11:31:34Z</time>
      </trkpt>
      <trkpt lat="43.49943" lon="6.82925">
        <ele>379.4</ele>
        <time>2010-01-17T11:31:35Z</time>
      </trkpt>
      <trkpt lat="43.49936" lon="6.82921">
        <ele>379.1</ele>
        <time>2010-01-17T11:31:36Z</time>
      </trkpt>
      <trkpt lat="43.49929" lon="6.82919">
        <ele>378.9</ele>
        <time>2010-01-17T11:31:37Z</time>
      </trkpt>
      <trkpt lat="43.49922" lon="6.82917">
        <ele>378.5</ele>
        <time>2010-01-17T11:31:38Z</time>
      </trkpt>
      <trkpt lat="43.49915" lon="6.82917">
        <ele>378.3</ele>
        <time>2010-01-17T11:31:39Z</time>
      </trkpt>
      <trkpt lat="43.49908" lon="6.82917">
        <ele>378.1</ele>
        <time>2010-01-17T11:31:40Z</time>
      </trkpt>
      <trkpt lat="43.499" lon="6.82916">
        <ele>377.6</ele>
        <time>2010-01-17T11:31:41Z</time>
      </trkpt>
      <trkpt lat="43.49893" lon="6.82916">
        <ele>377</ele>
        <time>2010-01-17T11:31:42Z</time>
      </trkpt>
      <trkpt lat="43.49886" lon="6.82916">
        <ele>376.6</ele>
        <time>2010-01-17T11:31:43Z</time>
      </trkpt>
      <trkpt lat="43.4988" lon="6.82916">
        <ele>376.3</ele>
        <time>2010-01-17T11:31:44Z</time>
      </trkpt>
      <trkpt lat="43.49873" lon="6.82917">
        <ele>376</ele>
        <time>2010-01-17T11:31:45Z</time>
      </trkpt>
      <trkpt lat="43.49867" lon="6.82919">
        <ele>375.7</ele>
        <time>2010-01-17T11:31:46Z</time>
      </trkpt>
      <trkpt lat="43.49861" lon="6.8292">
        <ele>375.3</ele>
        <time>2010-01-17T11:31:47Z</time>
      </trkpt>
      <trkpt lat="43.49855" lon="6.82922">
        <ele>375</ele>
        <time>2010-01-17T11:31:48Z</time>
      </trkpt>
      <trkpt lat="43.49849" lon="6.82923">
        <ele>374.8</ele>
        <time>2010-01-17T11:31:49Z</time>
      </trkpt>
      <trkpt lat="43.49844" lon="6.82924">
        <ele>374.5</ele>
        <time>2010-01-17T11:31:50Z</time>
      </trkpt>
      <trkpt lat="43.49838" lon="6.82923">
        <ele>374.2</ele>
        <time>2010-01-17T11:31:51Z</time>
      </trkpt>
      <trkpt lat="43.49833" lon="6.82921">
        <ele>373.9</ele>
        <time>2010-01-17T11:31:52Z</time>
      </trkpt>
      <trkpt lat="43.49828" lon="6.82918">
        <ele>373.5</ele>
        <time>2010-01-17T11:31:53Z</time>
      </trkpt>
      <trkpt lat="43.49824" lon="6.82912">
        <ele>373.2</ele>
        <time>2010-01-17T11:31:54Z</time>
      </trkpt>
      <trkpt lat="43.49821" lon="6.82906">
        <ele>372.7</ele>
        <time>2010-01-17T11:31:55Z</time>
      </trkpt>
      <trkpt lat="43.49818" lon="6.82898">
        <ele>372.3</ele>
        <time>2010-01-17T11:31:56Z</time>
      </trkpt>
      <trkpt lat="43.49817" lon="6.8289">
        <ele>371.9</ele>
        <time>2010-01-17T11:31:57Z</time>
      </trkpt>
      <trkpt lat="43.49816" lon="6.82882">
        <ele>371.5</ele>
        <time>2010-01-17T11:31:58Z</time>
      </trkpt>
      <trkpt lat="43.49815" lon="6.82874">
        <ele>371.1</ele>
        <time>2010-01-17T11:31:59Z</time>
      </trkpt>
      <trkpt lat="43.49814" lon="6.82867">
        <ele>370.9</ele>
        <time>2010-01-17T11:32:00Z</time>
      </trkpt>
      <trkpt lat="43.49814" lon="6.82859">
        <ele>370.6</ele>
        <time>2010-01-17T11:32:01Z</time>
      </trkpt>
      <trkpt lat="43.49814" lon="6.82851">
        <ele>370.4</ele>
        <time>2010-01-17T11:32:02Z</time>
      </trkpt>
      <trkpt lat="43.49815" lon="6.82843">
        <ele>370.2</ele>
        <time>2010-01-17T11:32:03Z</time>
      </trkpt>
      <trkpt lat="43.49817" lon="6.82836">
        <ele>370</ele>
        <time>2010-01-17T11:32:04Z</time>
      </trkpt>
      <trkpt lat="43.49819" lon="6.82829">
        <ele>369.8</ele>
        <time>2010-01-17T11:32:05Z</time>
      </trkpt>
      <trkpt lat="43.49822" lon="6.82823">
        <ele>369.6</ele>
        <time>2010-01-17T11:32:06Z</time>
      </trkpt>
      <trkpt lat="43.49825" lon="6.82818">
        <ele>369.5</ele>
        <time>2010-01-17T11:32:07Z</time>
      </trkpt>
      <trkpt lat="43.49828" lon="6.82813">
        <ele>369.4</ele>
        <time>2010-01-17T11:32:08Z</time>
      </trkpt>
      <trkpt lat="43.49832" lon="6.82809">
        <ele>369.3</ele>
        <time>2010-01-17T11:32:09Z</time>
      </trkpt>
      <trkpt lat="43.49836" lon="6.82804">
        <ele>369.2</ele>
        <time>2010-01-17T11:32:10Z</time>
      </trkpt>
      <trkpt lat="43.49839" lon="6.82799">
        <ele>369.1</ele>
        <time>2010-01-17T11:32:11Z</time>
      </trkpt>
      <trkpt lat="43.49842" lon="6.82794">
        <ele>368.9</ele>
        <time>2010-01-17T11:32:12Z</time>
      </trkpt>
      <trkpt lat="43.49846" lon="6.82789">
        <ele>368.7</ele>
        <time>2010-01-17T11:32:13Z</time>
      </trkpt>
      <trkpt lat="43.4985" lon="6.82784">
        <ele>368.6</ele>
        <time>2010-01-17T11:32:14Z</time>
      </trkpt>
      <trkpt lat="43.49853" lon="6.82778">
        <ele>368.4</ele>
        <time>2010-01-17T11:32:15Z</time>
      </trkpt>
      <trkpt lat="43.49856" lon="6.82771">
        <ele>368.2</ele>
        <time>2010-01-17T11:32:16Z</time>
      </trkpt>
      <trkpt lat="43.4986" lon="6.82764">
        <ele>367.9</ele>
        <time>2010-01-17T11:32:17Z</time>
      </trkpt>
      <trkpt lat="43.49863" lon="6.82757">
        <ele>367.8</ele>
        <time>2010-01-17T11:32:18Z</time>
      </trkpt>
      <trkpt lat="43.49867" lon="6.8275">
        <ele>367.6</ele>
        <time>2010-01-17T11:32:19Z</time>
      </trkpt>
      <trkpt lat="43.4987" lon="6.82742">
        <ele>367.4</ele>
        <time>2010-01-17T11:32:20Z</time>
      </trkpt>
      <trkpt lat="43.49872" lon="6.82734">
        <ele>367.1</ele>
        <time>2010-01-17T11:32:21Z</time>
      </trkpt>
      <trkpt lat="43.49875" lon="6.82725">
        <ele>366.8</ele>
        <time>2010-01-17T11:32:22Z</time>
      </trkpt>
      <trkpt lat="43.49876" lon="6.82717">
        <ele>366.4</ele>
        <time>2010-01-17T11:32:23Z</time>
      </trkpt>
      <trkpt lat="43.49878" lon="6.82708">
        <ele>366.1</ele>
        <time>2010-01-17T11:32:24Z</time>
      </trkpt>
      <trkpt lat="43.49879" lon="6.82699">
        <ele>365.8</ele>
        <time>2010-01-17T11:32:25Z</time>
      </trkpt>
      <trkpt lat="43.49881" lon="6.82691">
        <ele>365.6</ele>
        <time>2010-01-17T11:32:26Z</time>
      </trkpt>
      <trkpt lat="43.49882" lon="6.82683">
        <ele>365.3</ele>
        <time>2010-01-17T11:32:27Z</time>
      </trkpt>
      <trkpt lat="43.49884" lon="6.82675">
        <ele>365.1</ele>
        <time>2010-01-17T11:32:28Z</time>
      </trkpt>
      <trkpt lat="43.49884" lon="6.82666">
        <ele>364.8</ele>
        <time>2010-01-17T11:32:29Z</time>
      </trkpt>
      <trkpt lat="43.49884" lon="6.82657">
        <ele>364.5</ele>
        <time>2010-01-17T11:32:30Z</time>
      </trkpt>
      <trkpt lat="43.49884" lon="6.82649">
        <ele>364.2</ele>
        <time>2010-01-17T11:32:31Z</time>
      </trkpt>
      <trkpt lat="43.49883" lon="6.8264">
        <ele>363.9</ele>
        <time>2010-01-17T11:32:32Z</time>
      </trkpt>
      <trkpt lat="43.49882" lon="6.82631">
        <ele>363.8</ele>
        <time>2010-01-17T11:32:33Z</time>
      </trkpt>
      <trkpt lat="43.49881" lon="6.82623">
        <ele>363.6</ele>
        <time>2010-01-17T11:32:34Z</time>
      </trkpt>
      <trkpt lat="43.4988" lon="6.82614">
        <ele>363.4</ele>
        <time>2010-01-17T11:32:35Z</time>
      </trkpt>
      <trkpt lat="43.49879" lon="6.82606">
        <ele>363.2</ele>
        <time>2010-01-17T11:32:36Z</time>
      </trkpt>
      <trkpt lat="43.49877" lon="6.82597">
        <ele>363</ele>
        <time>2010-01-17T11:32:37Z</time>
      </trkpt>
      <trkpt lat="43.49876" lon="6.82589">
        <ele>362.7</ele>
        <time>2010-01-17T11:32:38Z</time>
      </trkpt>
      <trkpt lat="43.49875" lon="6.8258">
        <ele>362.5</ele>
        <time>2010-01-17T11:32:39Z</time>
      </trkpt>
      <trkpt lat="43.49874" lon="6.82572">
        <ele>362.3</ele>
        <time>2010-01-17T11:32:40Z</time>
      </trkpt>
      <trkpt lat="43.49872" lon="6.82564">
        <ele>362.1</ele>
        <time>2010-01-17T11:32:41Z</time>
      </trkpt>
      <trkpt lat="43.49869" lon="6.82557">
        <ele>362</ele>
        <time>2010-01-17T11:32:42Z</time>
      </trkpt>
      <trkpt lat="43.49866" lon="6.8255">
        <ele>361.8</ele>
        <time>2010-01-17T11:32:43Z</time>
      </trkpt>
      <trkpt lat="43.49861" lon="6.82545">
        <ele>361.6</ele>
        <time>2010-01-17T11:32:44Z</time>
      </trkpt>
      <trkpt lat="43.49857" lon="6.8254">
        <ele>361.3</ele>
        <time>2010-01-17T11:32:45Z</time>
      </trkpt>
      <trkpt lat="43.49852" lon="6.82535">
        <ele>361.1</ele>
        <time>2010-01-17T11:32:46Z</time>
      </trkpt>
      <trkpt lat="43.49847" lon="6.8253">
        <ele>360.8</ele>
        <time>2010-01-17T11:32:47Z</time>
      </trkpt>
      <trkpt lat="43.49842" lon="6.82525">
        <ele>360.8</ele>
        <time>2010-01-17T11:32:48Z</time>
      </trkpt>
      <trkpt lat="43.49838" lon="6.8252">
        <ele>360.5</ele>
        <time>2010-01-17T11:32:49Z</time>
      </trkpt>
      <trkpt lat="43.49833" lon="6.82515">
        <ele>360.2</ele>
        <time>2010-01-17T11:32:50Z</time>
      </trkpt>
      <trkpt lat="43.49829" lon="6.82511">
        <ele>359.9</ele>
        <time>2010-01-17T11:32:51Z</time>
      </trkpt>
      <trkpt lat="43.49825" lon="6.82506">
        <ele>359.5</ele>
        <time>2010-01-17T11:32:52Z</time>
      </trkpt>
      <trkpt lat="43.4982" lon="6.82502">
        <ele>359.1</ele>
        <time>2010-01-17T11:32:53Z</time>
      </trkpt>
      <trkpt lat="43.49816" lon="6.82497">
        <ele>358.8</ele>
        <time>2010-01-17T11:32:54Z</time>
      </trkpt>
      <trkpt lat="43.49811" lon="6.82493">
        <ele>358.7</ele>
        <time>2010-01-17T11:32:55Z</time>
      </trkpt>
      <trkpt lat="43.49808" lon="6.82489">
        <ele>358.5</ele>
        <time>2010-01-17T11:32:56Z</time>
      </trkpt>
      <trkpt lat="43.49804" lon="6.82483">
        <ele>358.2</ele>
        <time>2010-01-17T11:32:57Z</time>
      </trkpt>
      <trkpt lat="43.49801" lon="6.82477">
        <ele>358</ele>
        <time>2010-01-17T11:32:58Z</time>
      </trkpt>
      <trkpt lat="43.49798" lon="6.82469">
        <ele>357.7</ele>
        <time>2010-01-17T11:32:59Z</time>
      </trkpt>
      <trkpt lat="43.49796" lon="6.82462">
        <ele>357.8</ele>
        <time>2010-01-17T11:33:00Z</time>
      </trkpt>
      <trkpt lat="43.49794" lon="6.82454">
        <ele>357.6</ele>
        <time>2010-01-17T11:33:01Z</time>
      </trkpt>
      <trkpt lat="43.49792" lon="6.82445">
        <ele>357.6</ele>
        <time>2010-01-17T11:33:02Z</time>
      </trkpt>
      <trkpt lat="43.4979" lon="6.82437">
        <ele>357.2</ele>
        <time>2010-01-17T11:33:03Z</time>
      </trkpt>
      <trkpt lat="43.49789" lon="6.82429">
        <ele>356.9</ele>
        <time>2010-01-17T11:33:04Z</time>
      </trkpt>
      <trkpt lat="43.49787" lon="6.8242">
        <ele>356.6</ele>
        <time>2010-01-17T11:33:05Z</time>
      </trkpt>
      <trkpt lat="43.49785" lon="6.82412">
        <ele>356.3</ele>
        <time>2010-01-17T11:33:06Z</time>
      </trkpt>
      <trkpt lat="43.49783" lon="6.82404">
        <ele>356.1</ele>
        <time>2010-01-17T11:33:07Z</time>
      </trkpt>
      <trkpt lat="43.49781" lon="6.82396">
        <ele>355.8</ele>
        <time>2010-01-17T11:33:08Z</time>
      </trkpt>
      <trkpt lat="43.4978" lon="6.82388">
        <ele>355.6</ele>
        <time>2010-01-17T11:33:09Z</time>
      </trkpt>
      <trkpt lat="43.49779" lon="6.82379">
        <ele>355.2</ele>
        <time>2010-01-17T11:33:10Z</time>
      </trkpt>
      <trkpt lat="43.49778" lon="6.82371">
        <ele>355</ele>
        <time>2010-01-17T11:33:11Z</time>
      </trkpt>
      <trkpt lat="43.49776" lon="6.82363">
        <ele>354.8</ele>
        <time>2010-01-17T11:33:12Z</time>
      </trkpt>
      <trkpt lat="43.49774" lon="6.82355">
        <ele>354.7</ele>
        <time>2010-01-17T11:33:13Z</time>
      </trkpt>
      <trkpt lat="43.49772" lon="6.82347">
        <ele>354.4</ele>
        <time>2010-01-17T11:33:14Z</time>
      </trkpt>
      <trkpt lat="43.49768" lon="6.8234">
        <ele>354.1</ele>
        <time>2010-01-17T11:33:15Z</time>
      </trkpt>
      <trkpt lat="43.49765" lon="6.82334">
        <ele>353.8</ele>
        <time>2010-01-17T11:33:16Z</time>
      </trkpt>
      <trkpt lat="43.4976" lon="6.82328">
        <ele>353.6</ele>
        <time>2010-01-17T11:33:17Z</time>
      </trkpt>
      <trkpt lat="43.49755" lon="6.82324">
        <ele>353.4</ele>
        <time>2010-01-17T11:33:18Z</time>
      </trkpt>
      <trkpt lat="43.4975" lon="6.82321">
        <ele>353.2</ele>
        <time>2010-01-17T11:33:19Z</time>
      </trkpt>
      <trkpt lat="43.49745" lon="6.82318">
        <ele>353</ele>
        <time>2010-01-17T11:33:20Z</time>
      </trkpt>
      <trkpt lat="43.49741" lon="6.82315">
        <ele>352.8</ele>
        <time>2010-01-17T11:33:21Z</time>
      </trkpt>
      <trkpt lat="43.49735" lon="6.82307">
        <ele>352.6</ele>
        <time>2010-01-17T11:33:23Z</time>
      </trkpt>
      <trkpt lat="43.49732" lon="6.82296">
        <ele>352.6</ele>
        <time>2010-01-17T11:33:25Z</time>
      </trkpt>
      <trkpt lat="43.49734" lon="6.82284">
        <ele>352.8</ele>
        <time>2010-01-17T11:33:27Z</time>
      </trkpt>
      <trkpt lat="43.49739" lon="6.82274">
        <ele>352.9</ele>
        <time>2010-01-17T11:33:29Z</time>
      </trkpt>
      <trkpt lat="43.49745" lon="6.82266">
        <ele>353.4</ele>
        <time>2010-01-17T11:33:31Z</time>
      </trkpt>
      <trkpt lat="43.4975" lon="6.82259">
        <ele>353.9</ele>
        <time>2010-01-17T11:33:33Z</time>
      </trkpt>
      <trkpt lat="43.49755" lon="6.82253">
        <ele>354.4</ele>
        <time>2010-01-17T11:33:35Z</time>
      </trkpt>
      <trkpt lat="43.4976" lon="6.82246">
        <ele>354.7</ele>
        <time>2010-01-17T11:33:37Z</time>
      </trkpt>
      <trkpt lat="43.49765" lon="6.8224">
        <ele>355.3</ele>
        <time>2010-01-17T11:33:39Z</time>
      </trkpt>
      <trkpt lat="43.49769" lon="6.82234">
        <ele>355.7</ele>
        <time>2010-01-17T11:33:41Z</time>
      </trkpt>
      <trkpt lat="43.49773" lon="6.82228">
        <ele>356</ele>
        <time>2010-01-17T11:33:43Z</time>
      </trkpt>
      <trkpt lat="43.49776" lon="6.82222">
        <ele>356.5</ele>
        <time>2010-01-17T11:33:45Z</time>
      </trkpt>
      <trkpt lat="43.4978" lon="6.82217">
        <ele>356.9</ele>
        <time>2010-01-17T11:33:47Z</time>
      </trkpt>
      <trkpt lat="43.49784" lon="6.82212">
        <ele>357.4</ele>
        <time>2010-01-17T11:33:49Z</time>
      </trkpt>
      <trkpt lat="43.49788" lon="6.82207">
        <ele>358</ele>
        <time>2010-01-17T11:33:51Z</time>
      </trkpt>
      <trkpt lat="43.49793" lon="6.82203">
        <ele>358.2</ele>
        <time>2010-01-17T11:33:53Z</time>
      </trkpt>
      <trkpt lat="43.49797" lon="6.82198">
        <ele>358.3</ele>
        <time>2010-01-17T11:33:55Z</time>
      </trkpt>
      <trkpt lat="43.498" lon="6.82192">
        <ele>358.7</ele>
        <time>2010-01-17T11:33:57Z</time>
      </trkpt>
      <trkpt lat="43.49803" lon="6.82186">
        <ele>358.9</ele>
        <time>2010-01-17T11:33:59Z</time>
      </trkpt>
      <trkpt lat="43.49804" lon="6.8218">
        <ele>359.1</ele>
        <time>2010-01-17T11:34:01Z</time>
      </trkpt>
      <trkpt lat="43.49804" lon="6.82173">
        <ele>359.3</ele>
        <time>2010-01-17T11:34:03Z</time>
      </trkpt>
      <trkpt lat="43.49802" lon="6.82167">
        <ele>359.5</ele>
        <time>2010-01-17T11:34:05Z</time>
      </trkpt>
      <trkpt lat="43.49798" lon="6.82162">
        <ele>359.6</ele>
        <time>2010-01-17T11:34:07Z</time>
      </trkpt>
      <trkpt lat="43.49795" lon="6.82157">
        <ele>359.8</ele>
        <time>2010-01-17T11:34:09Z</time>
      </trkpt>
      <trkpt lat="43.49789" lon="6.82151">
        <ele>360.1</ele>
        <time>2010-01-17T11:34:12Z</time>
      </trkpt>
      <trkpt lat="43.49786" lon="6.82147">
        <ele>360.3</ele>
        <time>2010-01-17T11:34:14Z</time>
      </trkpt>
      <trkpt lat="43.4978" lon="6.82142">
        <ele>360.6</ele>
        <time>2010-01-17T11:34:17Z</time>
      </trkpt>
      <trkpt lat="43.49774" lon="6.82137">
        <ele>360.8</ele>
        <time>2010-01-17T11:34:20Z</time>
      </trkpt>
      <trkpt lat="43.49768" lon="6.82133">
        <ele>361.2</ele>
        <time>2010-01-17T11:34:23Z</time>
      </trkpt>
      <trkpt lat="43.49762" lon="6.8213">
        <ele>361.5</ele>
        <time>2010-01-17T11:34:26Z</time>
      </trkpt>
      <trkpt lat="43.49757" lon="6.82129">
        <ele>361.9</ele>
        <time>2010-01-17T11:34:28Z</time>
      </trkpt>
      <trkpt lat="43.49753" lon="6.82127">
        <ele>362.2</ele>
        <time>2010-01-17T11:34:30Z</time>
      </trkpt>
      <trkpt lat="43.49746" lon="6.82125">
        <ele>362.9</ele>
        <time>2010-01-17T11:34:33Z</time>
      </trkpt>
      <trkpt lat="43.49739" lon="6.82124">
        <ele>363.7</ele>
        <time>2010-01-17T11:34:36Z</time>
      </trkpt>
      <trkpt lat="43.49733" lon="6.82122">
        <ele>364.5</ele>
        <time>2010-01-17T11:34:39Z</time>
      </trkpt>
      <trkpt lat="43.49727" lon="6.82122">
        <ele>365.4</ele>
        <time>2010-01-17T11:34:42Z</time>
      </trkpt>
      <trkpt lat="43.4972" lon="6.82122">
        <ele>365.9</ele>
        <time>2010-01-17T11:34:45Z</time>
      </trkpt>
      <trkpt lat="43.49714" lon="6.82121">
        <ele>365.7</ele>
        <time>2010-01-17T11:34:48Z</time>
      </trkpt>
      <trkpt lat="43.49708" lon="6.8212">
        <ele>365.3</ele>
        <time>2010-01-17T11:34:51Z</time>
      </trkpt>
      <trkpt lat="43.49701" lon="6.82119">
        <ele>365.8</ele>
        <time>2010-01-17T11:34:54Z</time>
      </trkpt>
      <trkpt lat="43.49695" lon="6.82116">
        <ele>366.6</ele>
        <time>2010-01-17T11:34:57Z</time>
      </trkpt>
      <trkpt lat="43.49689" lon="6.82112">
        <ele>367.2</ele>
        <time>2010-01-17T11:35:00Z</time>
      </trkpt>
      <trkpt lat="43.49684" lon="6.82106">
        <ele>367.7</ele>
        <time>2010-01-17T11:35:03Z</time>
      </trkpt>
      <trkpt lat="43.4968" lon="6.82099">
        <ele>368.4</ele>
        <time>2010-01-17T11:35:06Z</time>
      </trkpt>
      <trkpt lat="43.49678" lon="6.82092">
        <ele>366.8</ele>
        <time>2010-01-17T11:35:08Z</time>
      </trkpt>
      <trkpt lat="43.49676" lon="6.82085">
        <ele>365.9</ele>
        <time>2010-01-17T11:35:10Z</time>
      </trkpt>
      <trkpt lat="43.49674" lon="6.82077">
        <ele>366.5</ele>
        <time>2010-01-17T11:35:13Z</time>
      </trkpt>
      <trkpt lat="43.49671" lon="6.82069">
        <ele>367</ele>
        <time>2010-01-17T11:35:16Z</time>
      </trkpt>
      <trkpt lat="43.49667" lon="6.82061">
        <ele>367.3</ele>
        <time>2010-01-17T11:35:19Z</time>
      </trkpt>
      <trkpt lat="43.49665" lon="6.82052">
        <ele>367.4</ele>
        <time>2010-01-17T11:35:22Z</time>
      </trkpt>
      <trkpt lat="43.49662" lon="6.82044">
        <ele>367.9</ele>
        <time>2010-01-17T11:35:25Z</time>
      </trkpt>
      <trkpt lat="43.4966" lon="6.82035">
        <ele>368.2</ele>
        <time>2010-01-17T11:35:28Z</time>
      </trkpt>
      <trkpt lat="43.49656" lon="6.82027">
        <ele>368.5</ele>
        <time>2010-01-17T11:35:31Z</time>
      </trkpt>
      <trkpt lat="43.49653" lon="6.82022">
        <ele>368.8</ele>
        <time>2010-01-17T11:35:33Z</time>
      </trkpt>
      <trkpt lat="43.4965" lon="6.82014">
        <ele>369.1</ele>
        <time>2010-01-17T11:35:36Z</time>
      </trkpt>
      <trkpt lat="43.49647" lon="6.82005">
        <ele>369.3</ele>
        <time>2010-01-17T11:35:39Z</time>
      </trkpt>
      <trkpt lat="43.49645" lon="6.81997">
        <ele>369.6</ele>
        <time>2010-01-17T11:35:42Z</time>
      </trkpt>
      <trkpt lat="43.49642" lon="6.81989">
        <ele>369.9</ele>
        <time>2010-01-17T11:35:45Z</time>
      </trkpt>
      <trkpt lat="43.49639" lon="6.8198">
        <ele>370.2</ele>
        <time>2010-01-17T11:35:48Z</time>
      </trkpt>
      <trkpt lat="43.49637" lon="6.81971">
        <ele>370.5</ele>
        <time>2010-01-17T11:35:51Z</time>
      </trkpt>
      <trkpt lat="43.49636" lon="6.81962">
        <ele>370.8</ele>
        <time>2010-01-17T11:35:54Z</time>
      </trkpt>
      <trkpt lat="43.49634" lon="6.81953">
        <ele>371.2</ele>
        <time>2010-01-17T11:35:57Z</time>
      </trkpt>
      <trkpt lat="43.49633" lon="6.81944">
        <ele>371.7</ele>
        <time>2010-01-17T11:36:00Z</time>
      </trkpt>
      <trkpt lat="43.49632" lon="6.81935">
        <ele>372</ele>
        <time>2010-01-17T11:36:03Z</time>
      </trkpt>
      <trkpt lat="43.49631" lon="6.81925">
        <ele>372.3</ele>
        <time>2010-01-17T11:36:06Z</time>
      </trkpt>
      <trkpt lat="43.49632" lon="6.81916">
        <ele>372.6</ele>
        <time>2010-01-17T11:36:09Z</time>
      </trkpt>
      <trkpt lat="43.49633" lon="6.81907">
        <ele>373</ele>
        <time>2010-01-17T11:36:12Z</time>
      </trkpt>
      <trkpt lat="43.49636" lon="6.81899">
        <ele>373.4</ele>
        <time>2010-01-17T11:36:15Z</time>
      </trkpt>
      <trkpt lat="43.49639" lon="6.81891">
        <ele>373.7</ele>
        <time>2010-01-17T11:36:18Z</time>
      </trkpt>
      <trkpt lat="43.49642" lon="6.81882">
        <ele>374.2</ele>
        <time>2010-01-17T11:36:21Z</time>
      </trkpt>
      <trkpt lat="43.49642" lon="6.81876">
        <ele>374.1</ele>
        <time>2010-01-17T11:36:23Z</time>
      </trkpt>
      <trkpt lat="43.4964" lon="6.81869">
        <ele>373.9</ele>
        <time>2010-01-17T11:36:25Z</time>
      </trkpt>
      <trkpt lat="43.49637" lon="6.81865">
        <ele>374</ele>
        <time>2010-01-17T11:36:27Z</time>
      </trkpt>
      <trkpt lat="43.49631" lon="6.8186">
        <ele>374.4</ele>
        <time>2010-01-17T11:36:30Z</time>
      </trkpt>
      <trkpt lat="43.49626" lon="6.81857">
        <ele>374.5</ele>
        <time>2010-01-17T11:36:32Z</time>
      </trkpt>
      <trkpt lat="43.49622" lon="6.81854">
        <ele>374.5</ele>
        <time>2010-01-17T11:36:34Z</time>
      </trkpt>
      <trkpt lat="43.49618" lon="6.81852">
        <ele>374.8</ele>
        <time>2010-01-17T11:36:36Z</time>
      </trkpt>
      <trkpt lat="43.49613" lon="6.81849">
        <ele>375.2</ele>
        <time>2010-01-17T11:36:38Z</time>
      </trkpt>
      <trkpt lat="43.49609" lon="6.81847">
        <ele>375.5</ele>
        <time>2010-01-17T11:36:40Z</time>
      </trkpt>
      <trkpt lat="43.49604" lon="6.81845">
        <ele>375.6</ele>
        <time>2010-01-17T11:36:42Z</time>
      </trkpt>
      <trkpt lat="43.49599" lon="6.81843">
        <ele>375.9</ele>
        <time>2010-01-17T11:36:44Z</time>
      </trkpt>
      <trkpt lat="43.49595" lon="6.81841">
        <ele>376.5</ele>
        <time>2010-01-17T11:36:46Z</time>
      </trkpt>
      <trkpt lat="43.4959" lon="6.81838">
        <ele>376.9</ele>
        <time>2010-01-17T11:36:48Z</time>
      </trkpt>
      <trkpt lat="43.49587" lon="6.81834">
        <ele>377.4</ele>
        <time>2010-01-17T11:36:50Z</time>
      </trkpt>
      <trkpt lat="43.49583" lon="6.81829">
        <ele>377.7</ele>
        <time>2010-01-17T11:36:52Z</time>
      </trkpt>
      <trkpt lat="43.49582" lon="6.81822">
        <ele>377.6</ele>
        <time>2010-01-17T11:36:54Z</time>
      </trkpt>
      <trkpt lat="43.49581" lon="6.81814">
        <ele>377.7</ele>
        <time>2010-01-17T11:36:56Z</time>
      </trkpt>
      <trkpt lat="43.49583" lon="6.81805">
        <ele>377.6</ele>
        <time>2010-01-17T11:36:58Z</time>
      </trkpt>
      <trkpt lat="43.49586" lon="6.81794">
        <ele>376.7</ele>
        <time>2010-01-17T11:37:00Z</time>
      </trkpt>
      <trkpt lat="43.49589" lon="6.81783">
        <ele>376</ele>
        <time>2010-01-17T11:37:02Z</time>
      </trkpt>
      <trkpt lat="43.49594" lon="6.81772">
        <ele>375.6</ele>
        <time>2010-01-17T11:37:04Z</time>
      </trkpt>
      <trkpt lat="43.49597" lon="6.81762">
        <ele>375.2</ele>
        <time>2010-01-17T11:37:06Z</time>
      </trkpt>
      <trkpt lat="43.49601" lon="6.81752">
        <ele>374.8</ele>
        <time>2010-01-17T11:37:08Z</time>
      </trkpt>
      <trkpt lat="43.49605" lon="6.81742">
        <ele>374.5</ele>
        <time>2010-01-17T11:37:10Z</time>
      </trkpt>
      <trkpt lat="43.49609" lon="6.81732">
        <ele>374.2</ele>
        <time>2010-01-17T11:37:12Z</time>
      </trkpt>
      <trkpt lat="43.49613" lon="6.81722">
        <ele>373.9</ele>
        <time>2010-01-17T11:37:14Z</time>
      </trkpt>
      <trkpt lat="43.49617" lon="6.81712">
        <ele>373.7</ele>
        <time>2010-01-17T11:37:16Z</time>
      </trkpt>
      <trkpt lat="43.49621" lon="6.81702">
        <ele>373.4</ele>
        <time>2010-01-17T11:37:18Z</time>
      </trkpt>
      <trkpt lat="43.49625" lon="6.81693">
        <ele>373</ele>
        <time>2010-01-17T11:37:20Z</time>
      </trkpt>
      <trkpt lat="43.4963" lon="6.81683">
        <ele>372.8</ele>
        <time>2010-01-17T11:37:22Z</time>
      </trkpt>
      <trkpt lat="43.49635" lon="6.81673">
        <ele>372.7</ele>
        <time>2010-01-17T11:37:24Z</time>
      </trkpt>
      <trkpt lat="43.4964" lon="6.81664">
        <ele>372.5</ele>
        <time>2010-01-17T11:37:26Z</time>
      </trkpt>
      <trkpt lat="43.49646" lon="6.81655">
        <ele>372.2</ele>
        <time>2010-01-17T11:37:28Z</time>
      </trkpt>
      <trkpt lat="43.49652" lon="6.81646">
        <ele>372.1</ele>
        <time>2010-01-17T11:37:30Z</time>
      </trkpt>
      <trkpt lat="43.49658" lon="6.81636">
        <ele>371.9</ele>
        <time>2010-01-17T11:37:32Z</time>
      </trkpt>
      <trkpt lat="43.49664" lon="6.81626">
        <ele>371.6</ele>
        <time>2010-01-17T11:37:34Z</time>
      </trkpt>
      <trkpt lat="43.49668" lon="6.81621">
        <ele>371.5</ele>
        <time>2010-01-17T11:37:35Z</time>
      </trkpt>
      <trkpt lat="43.49671" lon="6.81616">
        <ele>371.4</ele>
        <time>2010-01-17T11:37:36Z</time>
      </trkpt>
      <trkpt lat="43.49674" lon="6.81611">
        <ele>371.3</ele>
        <time>2010-01-17T11:37:37Z</time>
      </trkpt>
      <trkpt lat="43.49677" lon="6.81606">
        <ele>371.1</ele>
        <time>2010-01-17T11:37:38Z</time>
      </trkpt>
      <trkpt lat="43.49681" lon="6.816">
        <ele>370.9</ele>
        <time>2010-01-17T11:37:39Z</time>
      </trkpt>
      <trkpt lat="43.49684" lon="6.81595">
        <ele>370.7</ele>
        <time>2010-01-17T11:37:40Z</time>
      </trkpt>
      <trkpt lat="43.49688" lon="6.81591">
        <ele>370.5</ele>
        <time>2010-01-17T11:37:41Z</time>
      </trkpt>
      <trkpt lat="43.49692" lon="6.81586">
        <ele>370.3</ele>
        <time>2010-01-17T11:37:42Z</time>
      </trkpt>
      <trkpt lat="43.49696" lon="6.81582">
        <ele>370.1</ele>
        <time>2010-01-17T11:37:43Z</time>
      </trkpt>
      <trkpt lat="43.49701" lon="6.81578">
        <ele>370</ele>
        <time>2010-01-17T11:37:44Z</time>
      </trkpt>
      <trkpt lat="43.49705" lon="6.81574">
        <ele>369.9</ele>
        <time>2010-01-17T11:37:45Z</time>
      </trkpt>
      <trkpt lat="43.4971" lon="6.8157">
        <ele>369.8</ele>
        <time>2010-01-17T11:37:46Z</time>
      </trkpt>
      <trkpt lat="43.49715" lon="6.81565">
        <ele>369.7</ele>
        <time>2010-01-17T11:37:47Z</time>
      </trkpt>
      <trkpt lat="43.49718" lon="6.81559">
        <ele>369.6</ele>
        <time>2010-01-17T11:37:48Z</time>
      </trkpt>
      <trkpt lat="43.4972" lon="6.81552">
        <ele>369.5</ele>
        <time>2010-01-17T11:37:49Z</time>
      </trkpt>
      <trkpt lat="43.4972" lon="6.81543">
        <ele>369.4</ele>
        <time>2010-01-17T11:37:50Z</time>
      </trkpt>
      <trkpt lat="43.49719" lon="6.81535">
        <ele>369.4</ele>
        <time>2010-01-17T11:37:51Z</time>
      </trkpt>
      <trkpt lat="43.49717" lon="6.81526">
        <ele>369.3</ele>
        <time>2010-01-17T11:37:52Z</time>
      </trkpt>
      <trkpt lat="43.49715" lon="6.81518">
        <ele>369.3</ele>
        <time>2010-01-17T11:37:53Z</time>
      </trkpt>
      <trkpt lat="43.49713" lon="6.81509">
        <ele>369.2</ele>
        <time>2010-01-17T11:37:54Z</time>
      </trkpt>
      <trkpt lat="43.49712" lon="6.815">
        <ele>369</ele>
        <time>2010-01-17T11:37:55Z</time>
      </trkpt>
      <trkpt lat="43.4971" lon="6.81492">
        <ele>368.8</ele>
        <time>2010-01-17T11:37:56Z</time>
      </trkpt>
      <trkpt lat="43.49708" lon="6.81483">
        <ele>368.6</ele>
        <time>2010-01-17T11:37:57Z</time>
      </trkpt>
      <trkpt lat="43.49707" lon="6.81474">
        <ele>368.3</ele>
        <time>2010-01-17T11:37:58Z</time>
      </trkpt>
      <trkpt lat="43.49707" lon="6.81465">
        <ele>367.9</ele>
        <time>2010-01-17T11:37:59Z</time>
      </trkpt>
      <trkpt lat="43.49707" lon="6.81455">
        <ele>367.6</ele>
        <time>2010-01-17T11:38:00Z</time>
      </trkpt>
      <trkpt lat="43.49709" lon="6.81446">
        <ele>367.3</ele>
        <time>2010-01-17T11:38:01Z</time>
      </trkpt>
      <trkpt lat="43.49711" lon="6.81438">
        <ele>367</ele>
        <time>2010-01-17T11:38:02Z</time>
      </trkpt>
      <trkpt lat="43.49715" lon="6.8143">
        <ele>366.7</ele>
        <time>2010-01-17T11:38:03Z</time>
      </trkpt>
      <trkpt lat="43.49719" lon="6.81422">
        <ele>366.4</ele>
        <time>2010-01-17T11:38:04Z</time>
      </trkpt>
      <trkpt lat="43.49723" lon="6.81415">
        <ele>366.1</ele>
        <time>2010-01-17T11:38:05Z</time>
      </trkpt>
      <trkpt lat="43.49729" lon="6.81409">
        <ele>365.9</ele>
        <time>2010-01-17T11:38:06Z</time>
      </trkpt>
      <trkpt lat="43.49735" lon="6.81405">
        <ele>365.7</ele>
        <time>2010-01-17T11:38:07Z</time>
      </trkpt>
      <trkpt lat="43.49741" lon="6.81401">
        <ele>365.5</ele>
        <time>2010-01-17T11:38:08Z</time>
      </trkpt>
      <trkpt lat="43.49747" lon="6.81398">
        <ele>365.3</ele>
        <time>2010-01-17T11:38:09Z</time>
      </trkpt>
      <trkpt lat="43.49754" lon="6.81395">
        <ele>365.1</ele>
        <time>2010-01-17T11:38:10Z</time>
      </trkpt>
      <trkpt lat="43.49761" lon="6.81392">
        <ele>365</ele>
        <time>2010-01-17T11:38:11Z</time>
      </trkpt>
      <trkpt lat="43.49767" lon="6.81389">
        <ele>364.9</ele>
        <time>2010-01-17T11:38:12Z</time>
      </trkpt>
      <trkpt lat="43.49774" lon="6.81386">
        <ele>364.8</ele>
        <time>2010-01-17T11:38:13Z</time>
      </trkpt>
      <trkpt lat="43.49781" lon="6.81384">
        <ele>364.8</ele>
        <time>2010-01-17T11:38:14Z</time>
      </trkpt>
      <trkpt lat="43.49787" lon="6.81382">
        <ele>364.6</ele>
        <time>2010-01-17T11:38:15Z</time>
      </trkpt>
      <trkpt lat="43.49794" lon="6.81381">
        <ele>364.6</ele>
        <time>2010-01-17T11:38:16Z</time>
      </trkpt>
      <trkpt lat="43.49801" lon="6.8138">
        <ele>364.5</ele>
        <time>2010-01-17T11:38:17Z</time>
      </trkpt>
      <trkpt lat="43.49807" lon="6.8138">
        <ele>364.4</ele>
        <time>2010-01-17T11:38:18Z</time>
      </trkpt>
      <trkpt lat="43.49814" lon="6.8138">
        <ele>364.3</ele>
        <time>2010-01-17T11:38:19Z</time>
      </trkpt>
      <trkpt lat="43.49821" lon="6.8138">
        <ele>364.1</ele>
        <time>2010-01-17T11:38:20Z</time>
      </trkpt>
      <trkpt lat="43.49828" lon="6.8138">
        <ele>364</ele>
        <time>2010-01-17T11:38:21Z</time>
      </trkpt>
      <trkpt lat="43.49834" lon="6.81379">
        <ele>363.8</ele>
        <time>2010-01-17T11:38:22Z</time>
      </trkpt>
      <trkpt lat="43.49841" lon="6.81379">
        <ele>363.6</ele>
        <time>2010-01-17T11:38:23Z</time>
      </trkpt>
      <trkpt lat="43.49848" lon="6.81379">
        <ele>363.4</ele>
        <time>2010-01-17T11:38:24Z</time>
      </trkpt>
      <trkpt lat="43.49855" lon="6.81379">
        <ele>363.3</ele>
        <time>2010-01-17T11:38:25Z</time>
      </trkpt>
      <trkpt lat="43.49862" lon="6.81378">
        <ele>363.1</ele>
        <time>2010-01-17T11:38:26Z</time>
      </trkpt>
      <trkpt lat="43.49868" lon="6.81378">
        <ele>363.1</ele>
        <time>2010-01-17T11:38:27Z</time>
      </trkpt>
      <trkpt lat="43.49875" lon="6.81378">
        <ele>363.1</ele>
        <time>2010-01-17T11:38:28Z</time>
      </trkpt>
      <trkpt lat="43.49881" lon="6.81378">
        <ele>363.1</ele>
        <time>2010-01-17T11:38:29Z</time>
      </trkpt>
      <trkpt lat="43.49887" lon="6.81379">
        <ele>363.1</ele>
        <time>2010-01-17T11:38:30Z</time>
      </trkpt>
      <trkpt lat="43.49893" lon="6.8138">
        <ele>362.8</ele>
        <time>2010-01-17T11:38:31Z</time>
      </trkpt>
      <trkpt lat="43.49898" lon="6.81382">
        <ele>362.8</ele>
        <time>2010-01-17T11:38:32Z</time>
      </trkpt>
      <trkpt lat="43.49903" lon="6.81384">
        <ele>362.9</ele>
        <time>2010-01-17T11:38:33Z</time>
      </trkpt>
      <trkpt lat="43.49908" lon="6.81386">
        <ele>362.9</ele>
        <time>2010-01-17T11:38:34Z</time>
      </trkpt>
      <trkpt lat="43.49913" lon="6.81388">
        <ele>362.9</ele>
        <time>2010-01-17T11:38:35Z</time>
      </trkpt>
      <trkpt lat="43.49917" lon="6.8139">
        <ele>363</ele>
        <time>2010-01-17T11:38:36Z</time>
      </trkpt>
      <trkpt lat="43.49926" lon="6.81393">
        <ele>363.4</ele>
        <time>2010-01-17T11:38:38Z</time>
      </trkpt>
      <trkpt lat="43.49934" lon="6.81395">
        <ele>363.3</ele>
        <time>2010-01-17T11:38:40Z</time>
      </trkpt>
      <trkpt lat="43.49942" lon="6.81393">
        <ele>363.4</ele>
        <time>2010-01-17T11:38:42Z</time>
      </trkpt>
      <trkpt lat="43.49949" lon="6.81389">
        <ele>363.6</ele>
        <time>2010-01-17T11:38:44Z</time>
      </trkpt>
      <trkpt lat="43.49955" lon="6.81382">
        <ele>364.3</ele>
        <time>2010-01-17T11:38:46Z</time>
      </trkpt>
      <trkpt lat="43.4996" lon="6.81374">
        <ele>365</ele>
        <time>2010-01-17T11:38:48Z</time>
      </trkpt>
      <trkpt lat="43.49964" lon="6.81365">
        <ele>365.5</ele>
        <time>2010-01-17T11:38:50Z</time>
      </trkpt>
      <trkpt lat="43.49968" lon="6.81357">
        <ele>366</ele>
        <time>2010-01-17T11:38:52Z</time>
      </trkpt>
      <trkpt lat="43.49971" lon="6.81348">
        <ele>366.4</ele>
        <time>2010-01-17T11:38:54Z</time>
      </trkpt>
      <trkpt lat="43.49974" lon="6.81339">
        <ele>366.8</ele>
        <time>2010-01-17T11:38:56Z</time>
      </trkpt>
      <trkpt lat="43.49977" lon="6.8133">
        <ele>367.3</ele>
        <time>2010-01-17T11:38:58Z</time>
      </trkpt>
      <trkpt lat="43.49977" lon="6.81321">
        <ele>367.7</ele>
        <time>2010-01-17T11:39:00Z</time>
      </trkpt>
      <trkpt lat="43.49976" lon="6.81311">
        <ele>368</ele>
        <time>2010-01-17T11:39:02Z</time>
      </trkpt>
      <trkpt lat="43.49974" lon="6.81302">
        <ele>368.3</ele>
        <time>2010-01-17T11:39:04Z</time>
      </trkpt>
      <trkpt lat="43.49972" lon="6.81292">
        <ele>368.4</ele>
        <time>2010-01-17T11:39:06Z</time>
      </trkpt>
      <trkpt lat="43.4997" lon="6.81283">
        <ele>368.5</ele>
        <time>2010-01-17T11:39:08Z</time>
      </trkpt>
      <trkpt lat="43.49969" lon="6.81273">
        <ele>368.7</ele>
        <time>2010-01-17T11:39:10Z</time>
      </trkpt>
      <trkpt lat="43.49967" lon="6.81264">
        <ele>369</ele>
        <time>2010-01-17T11:39:12Z</time>
      </trkpt>
      <trkpt lat="43.49966" lon="6.81255">
        <ele>369.2</ele>
        <time>2010-01-17T11:39:14Z</time>
      </trkpt>
      <trkpt lat="43.49965" lon="6.81246">
        <ele>369.4</ele>
        <time>2010-01-17T11:39:16Z</time>
      </trkpt>
      <trkpt lat="43.49964" lon="6.81237">
        <ele>369.7</ele>
        <time>2010-01-17T11:39:18Z</time>
      </trkpt>
      <trkpt lat="43.49962" lon="6.81229">
        <ele>369.9</ele>
        <time>2010-01-17T11:39:20Z</time>
      </trkpt>
      <trkpt lat="43.49961" lon="6.81221">
        <ele>370.1</ele>
        <time>2010-01-17T11:39:22Z</time>
      </trkpt>
      <trkpt lat="43.49959" lon="6.81212">
        <ele>370.2</ele>
        <time>2010-01-17T11:39:24Z</time>
      </trkpt>
      <trkpt lat="43.49958" lon="6.81204">
        <ele>370.4</ele>
        <time>2010-01-17T11:39:26Z</time>
      </trkpt>
      <trkpt lat="43.49956" lon="6.81195">
        <ele>370.6</ele>
        <time>2010-01-17T11:39:28Z</time>
      </trkpt>
      <trkpt lat="43.49954" lon="6.81187">
        <ele>370.6</ele>
        <time>2010-01-17T11:39:30Z</time>
      </trkpt>
      <trkpt lat="43.49952" lon="6.81178">
        <ele>370.7</ele>
        <time>2010-01-17T11:39:32Z</time>
      </trkpt>
      <trkpt lat="43.4995" lon="6.81169">
        <ele>370.8</ele>
        <time>2010-01-17T11:39:34Z</time>
      </trkpt>
      <trkpt lat="43.49947" lon="6.81161">
        <ele>370.9</ele>
        <time>2010-01-17T11:39:36Z</time>
      </trkpt>
      <trkpt lat="43.49944" lon="6.81152">
        <ele>371</ele>
        <time>2010-01-17T11:39:38Z</time>
      </trkpt>
      <trkpt lat="43.49941" lon="6.81144">
        <ele>371.1</ele>
        <time>2010-01-17T11:39:40Z</time>
      </trkpt>
      <trkpt lat="43.49938" lon="6.81135">
        <ele>371.2</ele>
        <time>2010-01-17T11:39:42Z</time>
      </trkpt>
      <trkpt lat="43.49935" lon="6.81127">
        <ele>371.3</ele>
        <time>2010-01-17T11:39:44Z</time>
      </trkpt>
      <trkpt lat="43.49932" lon="6.81118">
        <ele>371.5</ele>
        <time>2010-01-17T11:39:46Z</time>
      </trkpt>
      <trkpt lat="43.4993" lon="6.8111">
        <ele>371.7</ele>
        <time>2010-01-17T11:39:48Z</time>
      </trkpt>
      <trkpt lat="43.49927" lon="6.81102">
        <ele>372</ele>
        <time>2010-01-17T11:39:50Z</time>
      </trkpt>
      <trkpt lat="43.49924" lon="6.81094">
        <ele>372.2</ele>
        <time>2010-01-17T11:39:52Z</time>
      </trkpt>
      <trkpt lat="43.49921" lon="6.81086">
        <ele>372.4</ele>
        <time>2010-01-17T11:39:54Z</time>
      </trkpt>
      <trkpt lat="43.49919" lon="6.81078">
        <ele>372.6</ele>
        <time>2010-01-17T11:39:56Z</time>
      </trkpt>
      <trkpt lat="43.49916" lon="6.8107">
        <ele>372.8</ele>
        <time>2010-01-17T11:39:58Z</time>
      </trkpt>
      <trkpt lat="43.49914" lon="6.81061">
        <ele>372.9</ele>
        <time>2010-01-17T11:40:00Z</time>
      </trkpt>
      <trkpt lat="43.49911" lon="6.81053">
        <ele>373.1</ele>
        <time>2010-01-17T11:40:02Z</time>
      </trkpt>
      <trkpt lat="43.49909" lon="6.81045">
        <ele>373.3</ele>
        <time>2010-01-17T11:40:04Z</time>
      </trkpt>
      <trkpt lat="43.49906" lon="6.81037">
        <ele>373.5</ele>
        <time>2010-01-17T11:40:06Z</time>
      </trkpt>
      <trkpt lat="43.49902" lon="6.81029">
        <ele>373.8</ele>
        <time>2010-01-17T11:40:08Z</time>
      </trkpt>
      <trkpt lat="43.49897" lon="6.81022">
        <ele>374</ele>
        <time>2010-01-17T11:40:10Z</time>
      </trkpt>
      <trkpt lat="43.49893" lon="6.81015">
        <ele>374.3</ele>
        <time>2010-01-17T11:40:12Z</time>
      </trkpt>
      <trkpt lat="43.49888" lon="6.81009">
        <ele>374.6</ele>
        <time>2010-01-17T11:40:14Z</time>
      </trkpt>
      <trkpt lat="43.49883" lon="6.81003">
        <ele>374.9</ele>
        <time>2010-01-17T11:40:16Z</time>
      </trkpt>
      <trkpt lat="43.49877" lon="6.80997">
        <ele>375.2</ele>
        <time>2010-01-17T11:40:18Z</time>
      </trkpt>
      <trkpt lat="43.49871" lon="6.80992">
        <ele>375.4</ele>
        <time>2010-01-17T11:40:20Z</time>
      </trkpt>
      <trkpt lat="43.49866" lon="6.80988">
        <ele>375.6</ele>
        <time>2010-01-17T11:40:22Z</time>
      </trkpt>
      <trkpt lat="43.4986" lon="6.80983">
        <ele>375.8</ele>
        <time>2010-01-17T11:40:24Z</time>
      </trkpt>
      <trkpt lat="43.49854" lon="6.80978">
        <ele>375.9</ele>
        <time>2010-01-17T11:40:26Z</time>
      </trkpt>
      <trkpt lat="43.49849" lon="6.80973">
        <ele>376</ele>
        <time>2010-01-17T11:40:28Z</time>
      </trkpt>
      <trkpt lat="43.49843" lon="6.80968">
        <ele>376.2</ele>
        <time>2010-01-17T11:40:30Z</time>
      </trkpt>
      <trkpt lat="43.49837" lon="6.80963">
        <ele>376.3</ele>
        <time>2010-01-17T11:40:32Z</time>
      </trkpt>
      <trkpt lat="43.49832" lon="6.80958">
        <ele>376.5</ele>
        <time>2010-01-17T11:40:34Z</time>
      </trkpt>
      <trkpt lat="43.49827" lon="6.80953">
        <ele>376.7</ele>
        <time>2010-01-17T11:40:36Z</time>
      </trkpt>
      <trkpt lat="43.49821" lon="6.80948">
        <ele>376.8</ele>
        <time>2010-01-17T11:40:38Z</time>
      </trkpt>
      <trkpt lat="43.49816" lon="6.80944">
        <ele>377</ele>
        <time>2010-01-17T11:40:40Z</time>
      </trkpt>
      <trkpt lat="43.4981" lon="6.80939">
        <ele>377.2</ele>
        <time>2010-01-17T11:40:42Z</time>
      </trkpt>
      <trkpt lat="43.49805" lon="6.80935">
        <ele>377.3</ele>
        <time>2010-01-17T11:40:44Z</time>
      </trkpt>
      <trkpt lat="43.49799" lon="6.80931">
        <ele>377.5</ele>
        <time>2010-01-17T11:40:46Z</time>
      </trkpt>
      <trkpt lat="43.49793" lon="6.80927">
        <ele>377.6</ele>
        <time>2010-01-17T11:40:48Z</time>
      </trkpt>
      <trkpt lat="43.49788" lon="6.80922">
        <ele>377.8</ele>
        <time>2010-01-17T11:40:50Z</time>
      </trkpt>
      <trkpt lat="43.49782" lon="6.80918">
        <ele>377.9</ele>
        <time>2010-01-17T11:40:52Z</time>
      </trkpt>
      <trkpt lat="43.49776" lon="6.80914">
        <ele>378</ele>
        <time>2010-01-17T11:40:54Z</time>
      </trkpt>
      <trkpt lat="43.4977" lon="6.8091">
        <ele>378.2</ele>
        <time>2010-01-17T11:40:56Z</time>
      </trkpt>
      <trkpt lat="43.49765" lon="6.80905">
        <ele>378.3</ele>
        <time>2010-01-17T11:40:58Z</time>
      </trkpt>
      <trkpt lat="43.49759" lon="6.809">
        <ele>378.7</ele>
        <time>2010-01-17T11:41:00Z</time>
      </trkpt>
      <trkpt lat="43.49755" lon="6.80894">
        <ele>379</ele>
        <time>2010-01-17T11:41:02Z</time>
      </trkpt>
      <trkpt lat="43.4975" lon="6.80887">
        <ele>379.2</ele>
        <time>2010-01-17T11:41:04Z</time>
      </trkpt>
      <trkpt lat="43.49748" lon="6.80879">
        <ele>379.2</ele>
        <time>2010-01-17T11:41:06Z</time>
      </trkpt>
      <trkpt lat="43.49745" lon="6.80867">
        <ele>379.8</ele>
        <time>2010-01-17T11:41:10Z</time>
      </trkpt>
      <trkpt lat="43.49742" lon="6.80856">
        <ele>380.3</ele>
        <time>2010-01-17T11:41:13Z</time>
      </trkpt>
      <trkpt lat="43.49693" lon="6.80647">
        <ele>386.7</ele>
        <time>2010-01-17T11:42:09Z</time>
      </trkpt>
      <trkpt lat="43.49688" lon="6.80642">
        <ele>386.9</ele>
        <time>2010-01-17T11:42:11Z</time>
      </trkpt>
      <trkpt lat="43.49684" lon="6.80636">
        <ele>387.1</ele>
        <time>2010-01-17T11:42:13Z</time>
      </trkpt>
      <trkpt lat="43.4968" lon="6.8063">
        <ele>387.2</ele>
        <time>2010-01-17T11:42:15Z</time>
      </trkpt>
      <trkpt lat="43.49679" lon="6.80624">
        <ele>387.4</ele>
        <time>2010-01-17T11:42:17Z</time>
      </trkpt>
      <trkpt lat="43.4968" lon="6.80616">
        <ele>387.3</ele>
        <time>2010-01-17T11:42:20Z</time>
      </trkpt>
      <trkpt lat="43.50052" lon="6.80916">
        <ele>375.9</ele>
        <time>2010-01-17T11:44:40Z</time>
      </trkpt>
      <trkpt lat="43.50779" lon="6.8117">
        <ele>370.3</ele>
        <time>2010-01-17T11:47:31Z</time>
      </trkpt>
      <trkpt lat="43.51216" lon="6.81309">
        <ele>327.3</ele>
        <time>2010-01-17T11:48:30Z</time>
      </trkpt>
      <trkpt lat="43.51222" lon="6.81304">
        <ele>326.7</ele>
        <time>2010-01-17T11:48:31Z</time>
      </trkpt>
      <trkpt lat="43.51228" lon="6.81298">
        <ele>326</ele>
        <time>2010-01-17T11:48:32Z</time>
      </trkpt>
      <trkpt lat="43.51233" lon="6.81291">
        <ele>325.3</ele>
        <time>2010-01-17T11:48:33Z</time>
      </trkpt>
      <trkpt lat="43.51305" lon="6.81222">
        <ele>320.7</ele>
        <time>2010-01-17T11:48:52Z</time>
      </trkpt>
      <trkpt lat="43.51309" lon="6.81215">
        <ele>320.8</ele>
        <time>2010-01-17T11:48:54Z</time>
      </trkpt>
      <trkpt lat="43.51311" lon="6.81208">
        <ele>320.9</ele>
        <time>2010-01-17T11:48:56Z</time>
      </trkpt>
      <trkpt lat="43.51312" lon="6.81201">
        <ele>320.5</ele>
        <time>2010-01-17T11:48:58Z</time>
      </trkpt>
    </trkseg>
  </trk>
</gpx>